<?xml version="1.0" encoding="UTF-8"?>
<gpx xmlns="http://www.topografix.com/GPX/1/1" xmlns:xsi="http://www.w3.org/2001/XMLSchema-instance" version="1.1" xsi:schemaLocation="http://www.topografix.com/GPX/1/1 http://www.topografix.com/GPX/1/1/gpx.xsd">
  <metadata>
    <name>Smith Mountain Lake Ultra Triathlon - 1 lap</name>
  </metadata>
  <trk>
    <name>Smith Mountain Lake Ultra Triathlon - 1 lap</name>
    <trkseg>
      <trkpt lat="37.095491" lon="-79.609848">
        <ele>253.764444</ele>
        <time>2025-09-05T09:34:30.000Z</time>
      </trkpt>
      <trkpt lat="37.095527" lon="-79.609819">
        <ele>253.764446</ele>
        <time>2025-09-05T09:34:30.000Z</time>
      </trkpt>
      <trkpt lat="37.095602" lon="-79.609823">
        <ele>253.764447</ele>
        <time>2025-09-05T09:34:31.000Z</time>
      </trkpt>
      <trkpt lat="37.095618" lon="-79.609769">
        <ele>253.76445</ele>
        <time>2025-09-05T09:34:32.000Z</time>
      </trkpt>
      <trkpt lat="37.095682" lon="-79.609702">
        <ele>253.764453</ele>
        <time>2025-09-05T09:34:33.000Z</time>
      </trkpt>
      <trkpt lat="37.096" lon="-79.609493">
        <ele>253.764456</ele>
        <time>2025-09-05T09:34:37.000Z</time>
      </trkpt>
      <trkpt lat="37.096137" lon="-79.609411">
        <ele>253.76445</ele>
        <time>2025-09-05T09:34:39.000Z</time>
      </trkpt>
      <trkpt lat="37.096416" lon="-79.609217">
        <ele>253.577011</ele>
        <time>2025-09-05T09:34:43.000Z</time>
      </trkpt>
      <trkpt lat="37.096665" lon="-79.609028">
        <ele>253.258516</ele>
        <time>2025-09-05T09:34:46.000Z</time>
      </trkpt>
      <trkpt lat="37.096711" lon="-79.609007">
        <ele>253.216383</ele>
        <time>2025-09-05T09:34:47.000Z</time>
      </trkpt>
      <trkpt lat="37.096861" lon="-79.608859">
        <ele>253.001837</ele>
        <time>2025-09-05T09:34:49.000Z</time>
      </trkpt>
      <trkpt lat="37.097031" lon="-79.608612">
        <ele>252.73854</ele>
        <time>2025-09-05T09:34:52.000Z</time>
      </trkpt>
      <trkpt lat="37.097112" lon="-79.608391">
        <ele>252.523549</ele>
        <time>2025-09-05T09:34:54.000Z</time>
      </trkpt>
      <trkpt lat="37.097203" lon="-79.607922">
        <ele>252.109433</ele>
        <time>2025-09-05T09:34:58.000Z</time>
      </trkpt>
      <trkpt lat="37.097337" lon="-79.605488">
        <ele>251.212158</ele>
        <time>2025-09-05T09:35:20.000Z</time>
      </trkpt>
      <trkpt lat="37.097306" lon="-79.605109">
        <ele>251.532111</ele>
        <time>2025-09-05T09:35:23.000Z</time>
      </trkpt>
      <trkpt lat="37.097233" lon="-79.604778">
        <ele>252.028111</ele>
        <time>2025-09-05T09:35:26.000Z</time>
      </trkpt>
      <trkpt lat="37.097065" lon="-79.604432">
        <ele>252.580932</ele>
        <time>2025-09-05T09:35:30.000Z</time>
      </trkpt>
      <trkpt lat="37.096966" lon="-79.604256">
        <ele>252.902861</ele>
        <time>2025-09-05T09:35:32.000Z</time>
      </trkpt>
      <trkpt lat="37.096061" lon="-79.603132">
        <ele>255.079637</ele>
        <time>2025-09-05T09:35:46.000Z</time>
      </trkpt>
      <trkpt lat="37.09587" lon="-79.602938">
        <ele>255.472648</ele>
        <time>2025-09-05T09:35:49.000Z</time>
      </trkpt>
      <trkpt lat="37.094927" lon="-79.602219">
        <ele>257.255546</ele>
        <time>2025-09-05T09:36:01.000Z</time>
      </trkpt>
      <trkpt lat="37.094617" lon="-79.601886">
        <ele>258.144145</ele>
        <time>2025-09-05T09:36:06.000Z</time>
      </trkpt>
      <trkpt lat="37.094395" lon="-79.60149">
        <ele>259.025736</ele>
        <time>2025-09-05T09:36:10.000Z</time>
      </trkpt>
      <trkpt lat="37.094099" lon="-79.600674">
        <ele>260.614511</ele>
        <time>2025-09-05T09:36:18.000Z</time>
      </trkpt>
      <trkpt lat="37.093995" lon="-79.600376">
        <ele>261.168886</ele>
        <time>2025-09-05T09:36:21.000Z</time>
      </trkpt>
      <trkpt lat="37.093369" lon="-79.598656">
        <ele>266.773467</ele>
        <time>2025-09-05T09:36:38.000Z</time>
      </trkpt>
      <trkpt lat="37.092184" lon="-79.595265">
        <ele>273.865123</ele>
        <time>2025-09-05T09:37:11.000Z</time>
      </trkpt>
      <trkpt lat="37.091513" lon="-79.593427">
        <ele>276.617767</ele>
        <time>2025-09-05T09:37:29.000Z</time>
      </trkpt>
      <trkpt lat="37.091405" lon="-79.59314">
        <ele>276.889128</ele>
        <time>2025-09-05T09:37:32.000Z</time>
      </trkpt>
      <trkpt lat="37.091097" lon="-79.593651">
        <ele>277.430215</ele>
        <time>2025-09-05T09:37:38.000Z</time>
      </trkpt>
      <trkpt lat="37.090165" lon="-79.595298">
        <ele>276.958579</ele>
        <time>2025-09-05T09:37:56.000Z</time>
      </trkpt>
      <trkpt lat="37.089819" lon="-79.595931">
        <ele>276.432604</ele>
        <time>2025-09-05T09:38:03.000Z</time>
      </trkpt>
      <trkpt lat="37.089741" lon="-79.596063">
        <ele>275.954358</ele>
        <time>2025-09-05T09:38:04.000Z</time>
      </trkpt>
      <trkpt lat="37.089573" lon="-79.596382">
        <ele>274.895175</ele>
        <time>2025-09-05T09:38:07.000Z</time>
      </trkpt>
      <trkpt lat="37.089119" lon="-79.597127">
        <ele>272.287657</ele>
        <time>2025-09-05T09:38:15.000Z</time>
      </trkpt>
      <trkpt lat="37.0886" lon="-79.597893">
        <ele>269.551818</ele>
        <time>2025-09-05T09:38:24.000Z</time>
      </trkpt>
      <trkpt lat="37.088263" lon="-79.59822">
        <ele>268.24191</ele>
        <time>2025-09-05T09:38:29.000Z</time>
      </trkpt>
      <trkpt lat="37.087765" lon="-79.598604">
        <ele>266.39051</ele>
        <time>2025-09-05T09:38:36.000Z</time>
      </trkpt>
      <trkpt lat="37.0873" lon="-79.598925">
        <ele>264.686856</ele>
        <time>2025-09-05T09:38:42.000Z</time>
      </trkpt>
      <trkpt lat="37.086963" lon="-79.599257">
        <ele>263.894042</ele>
        <time>2025-09-05T09:38:47.000Z</time>
      </trkpt>
      <trkpt lat="37.086897" lon="-79.599371">
        <ele>263.69187</ele>
        <time>2025-09-05T09:38:48.000Z</time>
      </trkpt>
      <trkpt lat="37.086764" lon="-79.599712">
        <ele>263.137274</ele>
        <time>2025-09-05T09:38:51.000Z</time>
      </trkpt>
      <trkpt lat="37.086015" lon="-79.602017">
        <ele>260.165845</ele>
        <time>2025-09-05T09:39:13.000Z</time>
      </trkpt>
      <trkpt lat="37.085834" lon="-79.602445">
        <ele>259.700797</ele>
        <time>2025-09-05T09:39:17.000Z</time>
      </trkpt>
      <trkpt lat="37.085657" lon="-79.602716">
        <ele>259.385288</ele>
        <time>2025-09-05T09:39:20.000Z</time>
      </trkpt>
      <trkpt lat="37.085444" lon="-79.602979">
        <ele>259.251173</ele>
        <time>2025-09-05T09:39:23.000Z</time>
      </trkpt>
      <trkpt lat="37.085184" lon="-79.603167">
        <ele>259.344374</ele>
        <time>2025-09-05T09:39:26.000Z</time>
      </trkpt>
      <trkpt lat="37.083911" lon="-79.603641">
        <ele>259.75909</ele>
        <time>2025-09-05T09:39:41.000Z</time>
      </trkpt>
      <trkpt lat="37.083609" lon="-79.603831">
        <ele>259.56476</ele>
        <time>2025-09-05T09:39:45.000Z</time>
      </trkpt>
      <trkpt lat="37.083375" lon="-79.604115">
        <ele>259.357177</ele>
        <time>2025-09-05T09:39:49.000Z</time>
      </trkpt>
      <trkpt lat="37.083197" lon="-79.604422">
        <ele>259.164797</ele>
        <time>2025-09-05T09:39:52.000Z</time>
      </trkpt>
      <trkpt lat="37.083111" lon="-79.604698">
        <ele>259.017358</ele>
        <time>2025-09-05T09:39:55.000Z</time>
      </trkpt>
      <trkpt lat="37.082969" lon="-79.606618">
        <ele>258.729044</ele>
        <time>2025-09-05T09:40:12.000Z</time>
      </trkpt>
      <trkpt lat="37.082878" lon="-79.606955">
        <ele>258.758288</ele>
        <time>2025-09-05T09:40:15.000Z</time>
      </trkpt>
      <trkpt lat="37.082804" lon="-79.607134">
        <ele>258.775845</ele>
        <time>2025-09-05T09:40:17.000Z</time>
      </trkpt>
      <trkpt lat="37.08262" lon="-79.607478">
        <ele>258.810199</ele>
        <time>2025-09-05T09:40:21.000Z</time>
      </trkpt>
      <trkpt lat="37.08244" lon="-79.607631">
        <ele>258.519651</ele>
        <time>2025-09-05T09:40:23.000Z</time>
      </trkpt>
      <trkpt lat="37.082137" lon="-79.607803">
        <ele>257.683874</ele>
        <time>2025-09-05T09:40:27.000Z</time>
      </trkpt>
      <trkpt lat="37.081567" lon="-79.608028">
        <ele>256.17836</ele>
        <time>2025-09-05T09:40:34.000Z</time>
      </trkpt>
      <trkpt lat="37.081302" lon="-79.608199">
        <ele>255.390756</ele>
        <time>2025-09-05T09:40:37.000Z</time>
      </trkpt>
      <trkpt lat="37.080925" lon="-79.608521">
        <ele>254.256316</ele>
        <time>2025-09-05T09:40:42.000Z</time>
      </trkpt>
      <trkpt lat="37.080353" lon="-79.609085">
        <ele>251.354345</ele>
        <time>2025-09-05T09:40:50.000Z</time>
      </trkpt>
      <trkpt lat="37.080143" lon="-79.609353">
        <ele>250.159826</ele>
        <time>2025-09-05T09:40:53.000Z</time>
      </trkpt>
      <trkpt lat="37.080093" lon="-79.609434">
        <ele>249.792375</ele>
        <time>2025-09-05T09:40:54.000Z</time>
      </trkpt>
      <trkpt lat="37.080041" lon="-79.609659">
        <ele>249.06839</ele>
        <time>2025-09-05T09:40:56.000Z</time>
      </trkpt>
      <trkpt lat="37.080017" lon="-79.609844">
        <ele>248.487185</ele>
        <time>2025-09-05T09:40:58.000Z</time>
      </trkpt>
      <trkpt lat="37.080055" lon="-79.610284">
        <ele>247.082739</ele>
        <time>2025-09-05T09:41:02.000Z</time>
      </trkpt>
      <trkpt lat="37.080023" lon="-79.610437">
        <ele>247.025908</ele>
        <time>2025-09-05T09:41:03.000Z</time>
      </trkpt>
      <trkpt lat="37.079983" lon="-79.610512">
        <ele>246.999476</ele>
        <time>2025-09-05T09:41:04.000Z</time>
      </trkpt>
      <trkpt lat="37.079726" lon="-79.61077">
        <ele>246.868129</ele>
        <time>2025-09-05T09:41:08.000Z</time>
      </trkpt>
      <trkpt lat="37.07964" lon="-79.610893">
        <ele>246.814831</ele>
        <time>2025-09-05T09:41:09.000Z</time>
      </trkpt>
      <trkpt lat="37.079545" lon="-79.611186">
        <ele>246.710808</ele>
        <time>2025-09-05T09:41:12.000Z</time>
      </trkpt>
      <trkpt lat="37.079457" lon="-79.61153">
        <ele>246.599273</ele>
        <time>2025-09-05T09:41:15.000Z</time>
      </trkpt>
      <trkpt lat="37.079356" lon="-79.611695">
        <ele>246.536555</ele>
        <time>2025-09-05T09:41:17.000Z</time>
      </trkpt>
      <trkpt lat="37.079161" lon="-79.611855">
        <ele>246.445657</ele>
        <time>2025-09-05T09:41:20.000Z</time>
      </trkpt>
      <trkpt lat="37.07878" lon="-79.611982">
        <ele>246.662666</ele>
        <time>2025-09-05T09:41:24.000Z</time>
      </trkpt>
      <trkpt lat="37.078661" lon="-79.612053">
        <ele>246.856093</ele>
        <time>2025-09-05T09:41:25.000Z</time>
      </trkpt>
      <trkpt lat="37.078577" lon="-79.612138">
        <ele>247.010583</ele>
        <time>2025-09-05T09:41:26.000Z</time>
      </trkpt>
      <trkpt lat="37.078527" lon="-79.61226">
        <ele>247.16399</ele>
        <time>2025-09-05T09:41:27.000Z</time>
      </trkpt>
      <trkpt lat="37.078482" lon="-79.612441">
        <ele>247.392015</ele>
        <time>2025-09-05T09:41:29.000Z</time>
      </trkpt>
      <trkpt lat="37.078481" lon="-79.612625">
        <ele>247.621109</ele>
        <time>2025-09-05T09:41:31.000Z</time>
      </trkpt>
      <trkpt lat="37.078587" lon="-79.613036">
        <ele>248.12255</ele>
        <time>2025-09-05T09:41:35.000Z</time>
      </trkpt>
      <trkpt lat="37.078682" lon="-79.613363">
        <ele>248.549822</ele>
        <time>2025-09-05T09:41:38.000Z</time>
      </trkpt>
      <trkpt lat="37.078828" lon="-79.613719">
        <ele>249.006365</ele>
        <time>2025-09-05T09:41:42.000Z</time>
      </trkpt>
      <trkpt lat="37.07907" lon="-79.614111">
        <ele>249.039109</ele>
        <time>2025-09-05T09:41:46.000Z</time>
      </trkpt>
      <trkpt lat="37.079217" lon="-79.614458">
        <ele>249.038041</ele>
        <time>2025-09-05T09:41:49.000Z</time>
      </trkpt>
      <trkpt lat="37.079286" lon="-79.61482">
        <ele>249.036987</ele>
        <time>2025-09-05T09:41:52.000Z</time>
      </trkpt>
      <trkpt lat="37.079294" lon="-79.615068">
        <ele>249.036296</ele>
        <time>2025-09-05T09:41:54.000Z</time>
      </trkpt>
      <trkpt lat="37.079301" lon="-79.615233">
        <ele>249.03582</ele>
        <time>2025-09-05T09:41:55.000Z</time>
      </trkpt>
      <trkpt lat="37.079282" lon="-79.61529">
        <ele>249.03569</ele>
        <time>2025-09-05T09:41:56.000Z</time>
      </trkpt>
      <trkpt lat="37.07928" lon="-79.615297">
        <ele>249.035653</ele>
        <time>2025-09-05T09:41:56.000Z</time>
      </trkpt>
      <trkpt lat="37.079284" lon="-79.615303">
        <ele>249.035622</ele>
        <time>2025-09-05T09:41:56.000Z</time>
      </trkpt>
      <trkpt lat="37.079281" lon="-79.615319">
        <ele>249.035602</ele>
        <time>2025-09-05T09:41:56.000Z</time>
      </trkpt>
      <trkpt lat="37.079268" lon="-79.615313">
        <ele>249.035597</ele>
        <time>2025-09-05T09:41:56.000Z</time>
      </trkpt>
      <trkpt lat="37.079267" lon="-79.615322">
        <ele>249.035593</ele>
        <time>2025-09-05T09:41:56.000Z</time>
      </trkpt>
      <trkpt lat="37.079265" lon="-79.615327">
        <ele>249.035575</ele>
        <time>2025-09-05T09:41:56.000Z</time>
      </trkpt>
      <trkpt lat="37.079263" lon="-79.615326">
        <ele>249.035583</ele>
        <time>2025-09-05T09:41:56.000Z</time>
      </trkpt>
      <trkpt lat="37.079252" lon="-79.61539">
        <ele>249.03536</ele>
        <time>2025-09-05T09:41:57.000Z</time>
      </trkpt>
      <trkpt lat="37.079178" lon="-79.615502">
        <ele>249.034985</ele>
        <time>2025-09-05T09:41:58.000Z</time>
      </trkpt>
      <trkpt lat="37.079088" lon="-79.615567">
        <ele>249.034623</ele>
        <time>2025-09-05T09:41:59.000Z</time>
      </trkpt>
      <trkpt lat="37.079039" lon="-79.615591">
        <ele>249.034379</ele>
        <time>2025-09-05T09:42:00.000Z</time>
      </trkpt>
      <trkpt lat="37.078904" lon="-79.615578">
        <ele>249.006851</ele>
        <time>2025-09-05T09:42:02.000Z</time>
      </trkpt>
      <trkpt lat="37.07882" lon="-79.61546">
        <ele>248.944758</ele>
        <time>2025-09-05T09:42:03.000Z</time>
      </trkpt>
      <trkpt lat="37.078754" lon="-79.615303">
        <ele>248.879432</ele>
        <time>2025-09-05T09:42:05.000Z</time>
      </trkpt>
      <trkpt lat="37.078749" lon="-79.615288">
        <ele>248.867763</ele>
        <time>2025-09-05T09:42:05.000Z</time>
      </trkpt>
      <trkpt lat="37.078748" lon="-79.61527">
        <ele>248.862122</ele>
        <time>2025-09-05T09:42:05.000Z</time>
      </trkpt>
      <trkpt lat="37.078743" lon="-79.615261">
        <ele>248.859865</ele>
        <time>2025-09-05T09:42:05.000Z</time>
      </trkpt>
      <trkpt lat="37.078752" lon="-79.615253">
        <ele>248.857992</ele>
        <time>2025-09-05T09:42:05.000Z</time>
      </trkpt>
      <trkpt lat="37.078754" lon="-79.615249">
        <ele>248.856106</ele>
        <time>2025-09-05T09:42:05.000Z</time>
      </trkpt>
      <trkpt lat="37.078759" lon="-79.615249">
        <ele>248.855354</ele>
        <time>2025-09-05T09:42:05.000Z</time>
      </trkpt>
      <trkpt lat="37.078744" lon="-79.615242">
        <ele>248.852723</ele>
        <time>2025-09-05T09:42:05.000Z</time>
      </trkpt>
      <trkpt lat="37.078753" lon="-79.615233">
        <ele>248.851227</ele>
        <time>2025-09-05T09:42:05.000Z</time>
      </trkpt>
      <trkpt lat="37.078754" lon="-79.615026">
        <ele>248.769995</ele>
        <time>2025-09-05T09:42:07.000Z</time>
      </trkpt>
      <trkpt lat="37.078818" lon="-79.614174">
        <ele>248.447234</ele>
        <time>2025-09-05T09:42:15.000Z</time>
      </trkpt>
      <trkpt lat="37.078824" lon="-79.613715">
        <ele>248.275376</ele>
        <time>2025-09-05T09:42:19.000Z</time>
      </trkpt>
      <trkpt lat="37.078691" lon="-79.613356">
        <ele>248.054854</ele>
        <time>2025-09-05T09:42:23.000Z</time>
      </trkpt>
      <trkpt lat="37.078575" lon="-79.613022">
        <ele>247.734781</ele>
        <time>2025-09-05T09:42:26.000Z</time>
      </trkpt>
      <trkpt lat="37.078474" lon="-79.612625">
        <ele>247.35916</ele>
        <time>2025-09-05T09:42:30.000Z</time>
      </trkpt>
      <trkpt lat="37.078484" lon="-79.612434">
        <ele>247.187539</ele>
        <time>2025-09-05T09:42:32.000Z</time>
      </trkpt>
      <trkpt lat="37.078527" lon="-79.612257">
        <ele>247.016729</ele>
        <time>2025-09-05T09:42:34.000Z</time>
      </trkpt>
      <trkpt lat="37.078595" lon="-79.61214">
        <ele>246.901803</ele>
        <time>2025-09-05T09:42:35.000Z</time>
      </trkpt>
      <trkpt lat="37.078664" lon="-79.612066">
        <ele>246.786068</ele>
        <time>2025-09-05T09:42:36.000Z</time>
      </trkpt>
      <trkpt lat="37.078769" lon="-79.611977">
        <ele>246.641178</ele>
        <time>2025-09-05T09:42:37.000Z</time>
      </trkpt>
      <trkpt lat="37.079166" lon="-79.61186">
        <ele>246.18914</ele>
        <time>2025-09-05T09:42:42.000Z</time>
      </trkpt>
      <trkpt lat="37.07936" lon="-79.611697">
        <ele>246.348617</ele>
        <time>2025-09-05T09:42:45.000Z</time>
      </trkpt>
      <trkpt lat="37.079446" lon="-79.611529">
        <ele>246.467386</ele>
        <time>2025-09-05T09:42:47.000Z</time>
      </trkpt>
      <trkpt lat="37.079544" lon="-79.611187">
        <ele>246.678633</ele>
        <time>2025-09-05T09:42:50.000Z</time>
      </trkpt>
      <trkpt lat="37.079643" lon="-79.610892">
        <ele>246.875619</ele>
        <time>2025-09-05T09:42:53.000Z</time>
      </trkpt>
      <trkpt lat="37.079729" lon="-79.610762">
        <ele>246.976548</ele>
        <time>2025-09-05T09:42:54.000Z</time>
      </trkpt>
      <trkpt lat="37.079987" lon="-79.610507">
        <ele>247.225278</ele>
        <time>2025-09-05T09:42:58.000Z</time>
      </trkpt>
      <trkpt lat="37.080027" lon="-79.610429">
        <ele>247.27534</ele>
        <time>2025-09-05T09:42:59.000Z</time>
      </trkpt>
      <trkpt lat="37.080047" lon="-79.61028">
        <ele>247.3757</ele>
        <time>2025-09-05T09:43:00.000Z</time>
      </trkpt>
      <trkpt lat="37.080029" lon="-79.609834">
        <ele>248.144849</ele>
        <time>2025-09-05T09:43:04.000Z</time>
      </trkpt>
      <trkpt lat="37.080032" lon="-79.609657">
        <ele>248.775302</ele>
        <time>2025-09-05T09:43:06.000Z</time>
      </trkpt>
      <trkpt lat="37.0801" lon="-79.609435">
        <ele>249.560648</ele>
        <time>2025-09-05T09:43:08.000Z</time>
      </trkpt>
      <trkpt lat="37.080152" lon="-79.60934">
        <ele>249.959233</ele>
        <time>2025-09-05T09:43:09.000Z</time>
      </trkpt>
      <trkpt lat="37.080353" lon="-79.609077">
        <ele>251.25495</ele>
        <time>2025-09-05T09:43:12.000Z</time>
      </trkpt>
      <trkpt lat="37.080932" lon="-79.608525">
        <ele>254.402814</ele>
        <time>2025-09-05T09:43:20.000Z</time>
      </trkpt>
      <trkpt lat="37.081302" lon="-79.608208">
        <ele>255.768215</ele>
        <time>2025-09-05T09:43:25.000Z</time>
      </trkpt>
      <trkpt lat="37.081578" lon="-79.608025">
        <ele>256.356485</ele>
        <time>2025-09-05T09:43:28.000Z</time>
      </trkpt>
      <trkpt lat="37.082142" lon="-79.607801">
        <ele>257.480974</ele>
        <time>2025-09-05T09:43:35.000Z</time>
      </trkpt>
      <trkpt lat="37.082441" lon="-79.607632">
        <ele>258.105222</ele>
        <time>2025-09-05T09:43:39.000Z</time>
      </trkpt>
      <trkpt lat="37.082604" lon="-79.607471">
        <ele>258.505545</ele>
        <time>2025-09-05T09:43:41.000Z</time>
      </trkpt>
      <trkpt lat="37.082808" lon="-79.607148">
        <ele>258.74059</ele>
        <time>2025-09-05T09:43:45.000Z</time>
      </trkpt>
      <trkpt lat="37.082893" lon="-79.606946">
        <ele>258.748786</ele>
        <time>2025-09-05T09:43:47.000Z</time>
      </trkpt>
      <trkpt lat="37.082958" lon="-79.606613">
        <ele>258.762434</ele>
        <time>2025-09-05T09:43:50.000Z</time>
      </trkpt>
      <trkpt lat="37.083105" lon="-79.604701">
        <ele>259.022993</ele>
        <time>2025-09-05T09:44:07.000Z</time>
      </trkpt>
      <trkpt lat="37.083193" lon="-79.604425">
        <ele>259.144202</ele>
        <time>2025-09-05T09:44:10.000Z</time>
      </trkpt>
      <trkpt lat="37.083369" lon="-79.604106">
        <ele>259.302384</ele>
        <time>2025-09-05T09:44:13.000Z</time>
      </trkpt>
      <trkpt lat="37.083606" lon="-79.603819">
        <ele>259.473051</ele>
        <time>2025-09-05T09:44:17.000Z</time>
      </trkpt>
      <trkpt lat="37.083923" lon="-79.603633">
        <ele>259.650195</ele>
        <time>2025-09-05T09:44:21.000Z</time>
      </trkpt>
      <trkpt lat="37.085195" lon="-79.60316">
        <ele>259.432259</ele>
        <time>2025-09-05T09:44:36.000Z</time>
      </trkpt>
      <trkpt lat="37.08544" lon="-79.602964">
        <ele>259.349428</ele>
        <time>2025-09-05T09:44:39.000Z</time>
      </trkpt>
      <trkpt lat="37.085656" lon="-79.602717">
        <ele>259.264373</ele>
        <time>2025-09-05T09:44:42.000Z</time>
      </trkpt>
      <trkpt lat="37.085819" lon="-79.602458">
        <ele>259.535775</ele>
        <time>2025-09-05T09:44:45.000Z</time>
      </trkpt>
      <trkpt lat="37.086013" lon="-79.602014">
        <ele>260.081185</ele>
        <time>2025-09-05T09:44:49.000Z</time>
      </trkpt>
      <trkpt lat="37.086761" lon="-79.599717">
        <ele>263.173507</ele>
        <time>2025-09-05T09:45:11.000Z</time>
      </trkpt>
      <trkpt lat="37.086904" lon="-79.599379">
        <ele>263.729236</ele>
        <time>2025-09-05T09:45:14.000Z</time>
      </trkpt>
      <trkpt lat="37.086973" lon="-79.599259">
        <ele>263.931814</ele>
        <time>2025-09-05T09:45:15.000Z</time>
      </trkpt>
      <trkpt lat="37.087302" lon="-79.598932">
        <ele>264.681771</ele>
        <time>2025-09-05T09:45:20.000Z</time>
      </trkpt>
      <trkpt lat="37.087764" lon="-79.598611">
        <ele>266.241824</ele>
        <time>2025-09-05T09:45:26.000Z</time>
      </trkpt>
      <trkpt lat="37.088271" lon="-79.598218">
        <ele>268.247786</ele>
        <time>2025-09-05T09:45:33.000Z</time>
      </trkpt>
      <trkpt lat="37.088593" lon="-79.597893">
        <ele>269.667029</ele>
        <time>2025-09-05T09:45:38.000Z</time>
      </trkpt>
      <trkpt lat="37.08912" lon="-79.597125">
        <ele>272.334743</ele>
        <time>2025-09-05T09:45:47.000Z</time>
      </trkpt>
      <trkpt lat="37.089568" lon="-79.596372">
        <ele>274.733617</ele>
        <time>2025-09-05T09:45:55.000Z</time>
      </trkpt>
      <trkpt lat="37.089746" lon="-79.596069">
        <ele>275.708035</ele>
        <time>2025-09-05T09:45:58.000Z</time>
      </trkpt>
      <trkpt lat="37.089829" lon="-79.595935">
        <ele>276.148012</ele>
        <time>2025-09-05T09:46:00.000Z</time>
      </trkpt>
      <trkpt lat="37.090175" lon="-79.595301">
        <ele>277.103072</ele>
        <time>2025-09-05T09:46:07.000Z</time>
      </trkpt>
      <trkpt lat="37.0911" lon="-79.593634">
        <ele>277.580369</ele>
        <time>2025-09-05T09:46:25.000Z</time>
      </trkpt>
      <trkpt lat="37.091418" lon="-79.593142">
        <ele>276.927932</ele>
        <time>2025-09-05T09:46:31.000Z</time>
      </trkpt>
      <trkpt lat="37.09152" lon="-79.593431">
        <ele>276.60071</ele>
        <time>2025-09-05T09:46:34.000Z</time>
      </trkpt>
      <trkpt lat="37.092192" lon="-79.595278">
        <ele>273.873177</ele>
        <time>2025-09-05T09:46:52.000Z</time>
      </trkpt>
      <trkpt lat="37.093353" lon="-79.598672">
        <ele>266.916887</ele>
        <time>2025-09-05T09:47:25.000Z</time>
      </trkpt>
      <trkpt lat="37.093989" lon="-79.600377">
        <ele>261.204042</ele>
        <time>2025-09-05T09:47:42.000Z</time>
      </trkpt>
      <trkpt lat="37.094096" lon="-79.600679">
        <ele>260.391386</ele>
        <time>2025-09-05T09:47:45.000Z</time>
      </trkpt>
      <trkpt lat="37.094399" lon="-79.601481">
        <ele>258.956165</ele>
        <time>2025-09-05T09:47:53.000Z</time>
      </trkpt>
      <trkpt lat="37.094631" lon="-79.601903">
        <ele>258.159787</ele>
        <time>2025-09-05T09:47:58.000Z</time>
      </trkpt>
      <trkpt lat="37.09494" lon="-79.602209">
        <ele>257.354217</ele>
        <time>2025-09-05T09:48:02.000Z</time>
      </trkpt>
      <trkpt lat="37.095887" lon="-79.602933">
        <ele>255.459884</ele>
        <time>2025-09-05T09:48:14.000Z</time>
      </trkpt>
      <trkpt lat="37.096075" lon="-79.603128">
        <ele>255.058582</ele>
        <time>2025-09-05T09:48:17.000Z</time>
      </trkpt>
      <trkpt lat="37.096966" lon="-79.604266">
        <ele>252.974773</ele>
        <time>2025-09-05T09:48:31.000Z</time>
      </trkpt>
      <trkpt lat="37.097071" lon="-79.604437">
        <ele>252.676691</ele>
        <time>2025-09-05T09:48:33.000Z</time>
      </trkpt>
      <trkpt lat="37.097233" lon="-79.604782">
        <ele>252.164813</ele>
        <time>2025-09-05T09:48:37.000Z</time>
      </trkpt>
      <trkpt lat="37.097315" lon="-79.605105">
        <ele>251.70554</ele>
        <time>2025-09-05T09:48:40.000Z</time>
      </trkpt>
      <trkpt lat="37.097335" lon="-79.605471">
        <ele>251.219464</ele>
        <time>2025-09-05T09:48:43.000Z</time>
      </trkpt>
      <trkpt lat="37.097203" lon="-79.60792">
        <ele>252.111931</ele>
        <time>2025-09-05T09:49:05.000Z</time>
      </trkpt>
      <trkpt lat="37.097107" lon="-79.608394">
        <ele>252.517827</ele>
        <time>2025-09-05T09:49:09.000Z</time>
      </trkpt>
      <trkpt lat="37.097015" lon="-79.608629">
        <ele>252.72855</ele>
        <time>2025-09-05T09:49:11.000Z</time>
      </trkpt>
      <trkpt lat="37.096874" lon="-79.608866">
        <ele>252.986634</ele>
        <time>2025-09-05T09:49:14.000Z</time>
      </trkpt>
      <trkpt lat="37.096706" lon="-79.609011">
        <ele>253.196922</ele>
        <time>2025-09-05T09:49:16.000Z</time>
      </trkpt>
      <trkpt lat="37.096665" lon="-79.609025">
        <ele>253.238213</ele>
        <time>2025-09-05T09:49:16.000Z</time>
      </trkpt>
      <trkpt lat="37.096406" lon="-79.60922">
        <ele>253.550393</ele>
        <time>2025-09-05T09:49:19.000Z</time>
      </trkpt>
      <trkpt lat="37.096151" lon="-79.609394">
        <ele>253.870601</ele>
        <time>2025-09-05T09:49:22.000Z</time>
      </trkpt>
      <trkpt lat="37.096006" lon="-79.609497">
        <ele>253.976743</ele>
        <time>2025-09-05T09:49:24.000Z</time>
      </trkpt>
      <trkpt lat="37.09578" lon="-79.609866">
        <ele>254.076656</ele>
        <time>2025-09-05T09:49:28.000Z</time>
      </trkpt>
      <trkpt lat="37.095733" lon="-79.609928">
        <ele>254.094993</ele>
        <time>2025-09-05T09:49:29.000Z</time>
      </trkpt>
      <trkpt lat="37.09568" lon="-79.609944">
        <ele>254.112161</ele>
        <time>2025-09-05T09:49:30.000Z</time>
      </trkpt>
      <trkpt lat="37.095636" lon="-79.61006">
        <ele>254.140331</ele>
        <time>2025-09-05T09:49:31.000Z</time>
      </trkpt>
      <trkpt lat="37.095586" lon="-79.610104">
        <ele>254.154421</ele>
        <time>2025-09-05T09:49:32.000Z</time>
      </trkpt>
      <trkpt lat="37.095092" lon="-79.610376">
        <ele>254.301431</ele>
        <time>2025-09-05T09:49:38.000Z</time>
      </trkpt>
      <trkpt lat="37.095078" lon="-79.610385">
        <ele>254.304427</ele>
        <time>2025-09-05T09:49:38.000Z</time>
      </trkpt>
      <trkpt lat="37.095067" lon="-79.610385">
        <ele>254.307419</ele>
        <time>2025-09-05T09:49:38.000Z</time>
      </trkpt>
      <trkpt lat="37.095062" lon="-79.610376">
        <ele>254.308791</ele>
        <time>2025-09-05T09:49:38.000Z</time>
      </trkpt>
      <trkpt lat="37.095061" lon="-79.610387">
        <ele>254.309062</ele>
        <time>2025-09-05T09:49:38.000Z</time>
      </trkpt>
      <trkpt lat="37.095068" lon="-79.610378">
        <ele>254.309617</ele>
        <time>2025-09-05T09:49:38.000Z</time>
      </trkpt>
      <trkpt lat="37.095057" lon="-79.610376">
        <ele>254.310435</ele>
        <time>2025-09-05T09:49:38.000Z</time>
      </trkpt>
      <trkpt lat="37.095054" lon="-79.610378">
        <ele>254.311267</ele>
        <time>2025-09-05T09:49:38.000Z</time>
      </trkpt>
      <trkpt lat="37.095032" lon="-79.610392">
        <ele>254.31672</ele>
        <time>2025-09-05T09:49:38.000Z</time>
      </trkpt>
      <trkpt lat="37.095009" lon="-79.61037">
        <ele>254.325463</ele>
        <time>2025-09-05T09:49:38.000Z</time>
      </trkpt>
      <trkpt lat="37.094974" lon="-79.610334">
        <ele>254.336971</ele>
        <time>2025-09-05T09:49:39.000Z</time>
      </trkpt>
      <trkpt lat="37.094905" lon="-79.610191">
        <ele>254.372901</ele>
        <time>2025-09-05T09:49:40.000Z</time>
      </trkpt>
      <trkpt lat="37.095419" lon="-79.609884">
        <ele>254.260456</ele>
        <time>2025-09-05T09:49:46.000Z</time>
      </trkpt>
      <trkpt lat="37.095422" lon="-79.609884">
        <ele>254.259842</ele>
        <time>2025-09-05T09:49:46.000Z</time>
      </trkpt>
      <trkpt lat="37.09542" lon="-79.609878">
        <ele>254.258251</ele>
        <time>2025-09-05T09:49:46.000Z</time>
      </trkpt>
      <trkpt lat="37.095435" lon="-79.60989">
        <ele>254.252188</ele>
        <time>2025-09-05T09:49:46.000Z</time>
      </trkpt>
      <trkpt lat="37.095433" lon="-79.609882">
        <ele>254.251407</ele>
        <time>2025-09-05T09:49:46.000Z</time>
      </trkpt>
      <trkpt lat="37.095425" lon="-79.609878">
        <ele>254.250783</ele>
        <time>2025-09-05T09:49:46.000Z</time>
      </trkpt>
      <trkpt lat="37.095432" lon="-79.609887">
        <ele>254.248134</ele>
        <time>2025-09-05T09:49:46.000Z</time>
      </trkpt>
      <trkpt lat="37.095432" lon="-79.609886">
        <ele>254.247355</ele>
        <time>2025-09-05T09:49:46.000Z</time>
      </trkpt>
      <trkpt lat="37.09544" lon="-79.609866">
        <ele>254.24394</ele>
        <time>2025-09-05T09:49:46.000Z</time>
      </trkpt>
      <trkpt lat="37.095438" lon="-79.609875">
        <ele>254.241275</ele>
        <time>2025-09-05T09:49:46.000Z</time>
      </trkpt>
      <trkpt lat="37.095495" lon="-79.609849">
        <ele>254.213201</ele>
        <time>2025-09-05T09:49:47.000Z</time>
      </trkpt>
      <trkpt lat="37.09553" lon="-79.609819">
        <ele>254.189286</ele>
        <time>2025-09-05T09:49:47.000Z</time>
      </trkpt>
      <trkpt lat="37.095595" lon="-79.609824">
        <ele>254.140584</ele>
        <time>2025-09-05T09:49:48.000Z</time>
      </trkpt>
      <trkpt lat="37.095612" lon="-79.609784">
        <ele>254.116976</ele>
        <time>2025-09-05T09:49:48.000Z</time>
      </trkpt>
      <trkpt lat="37.095676" lon="-79.609696">
        <ele>254.059606</ele>
        <time>2025-09-05T09:49:49.000Z</time>
      </trkpt>
      <trkpt lat="37.096002" lon="-79.60949">
        <ele>253.836805</ele>
        <time>2025-09-05T09:49:53.000Z</time>
      </trkpt>
      <trkpt lat="37.096138" lon="-79.609395">
        <ele>253.739419</ele>
        <time>2025-09-05T09:49:55.000Z</time>
      </trkpt>
      <trkpt lat="37.096419" lon="-79.609224">
        <ele>253.551094</ele>
        <time>2025-09-05T09:49:58.000Z</time>
      </trkpt>
      <trkpt lat="37.096674" lon="-79.609025">
        <ele>253.367498</ele>
        <time>2025-09-05T09:50:01.000Z</time>
      </trkpt>
      <trkpt lat="37.096704" lon="-79.609013">
        <ele>253.343225</ele>
        <time>2025-09-05T09:50:01.000Z</time>
      </trkpt>
      <trkpt lat="37.096858" lon="-79.608864">
        <ele>253.127286</ele>
        <time>2025-09-05T09:50:03.000Z</time>
      </trkpt>
      <trkpt lat="37.097021" lon="-79.608619">
        <ele>252.855175</ele>
        <time>2025-09-05T09:50:06.000Z</time>
      </trkpt>
      <trkpt lat="37.097118" lon="-79.608389">
        <ele>252.633004</ele>
        <time>2025-09-05T09:50:08.000Z</time>
      </trkpt>
      <trkpt lat="37.097204" lon="-79.607932">
        <ele>252.205034</ele>
        <time>2025-09-05T09:50:12.000Z</time>
      </trkpt>
      <trkpt lat="37.097341" lon="-79.60548">
        <ele>251.685212</ele>
        <time>2025-09-05T09:50:34.000Z</time>
      </trkpt>
      <trkpt lat="37.09732" lon="-79.605114">
        <ele>251.769554</ele>
        <time>2025-09-05T09:50:37.000Z</time>
      </trkpt>
      <trkpt lat="37.097226" lon="-79.604779">
        <ele>251.849247</ele>
        <time>2025-09-05T09:50:40.000Z</time>
      </trkpt>
      <trkpt lat="37.09707" lon="-79.60444">
        <ele>252.365261</ele>
        <time>2025-09-05T09:50:43.000Z</time>
      </trkpt>
      <trkpt lat="37.096971" lon="-79.604262">
        <ele>252.707406</ele>
        <time>2025-09-05T09:50:45.000Z</time>
      </trkpt>
      <trkpt lat="37.096073" lon="-79.603138">
        <ele>255.097558</ele>
        <time>2025-09-05T09:50:59.000Z</time>
      </trkpt>
      <trkpt lat="37.095877" lon="-79.602938">
        <ele>255.509441</ele>
        <time>2025-09-05T09:51:02.000Z</time>
      </trkpt>
      <trkpt lat="37.094928" lon="-79.602221">
        <ele>257.267</ele>
        <time>2025-09-05T09:51:14.000Z</time>
      </trkpt>
      <trkpt lat="37.094629" lon="-79.601896">
        <ele>257.905834</ele>
        <time>2025-09-05T09:51:18.000Z</time>
      </trkpt>
      <trkpt lat="37.094384" lon="-79.601485">
        <ele>258.884137</ele>
        <time>2025-09-05T09:51:23.000Z</time>
      </trkpt>
      <trkpt lat="37.094094" lon="-79.600672">
        <ele>260.941817</ele>
        <time>2025-09-05T09:51:31.000Z</time>
      </trkpt>
      <trkpt lat="37.093994" lon="-79.600378">
        <ele>261.659812</ele>
        <time>2025-09-05T09:51:34.000Z</time>
      </trkpt>
      <trkpt lat="37.093355" lon="-79.598662">
        <ele>266.474395</ele>
        <time>2025-09-05T09:51:51.000Z</time>
      </trkpt>
      <trkpt lat="37.092185" lon="-79.595275">
        <ele>273.848182</ele>
        <time>2025-09-05T09:52:24.000Z</time>
      </trkpt>
      <trkpt lat="37.091523" lon="-79.593441">
        <ele>276.929679</ele>
        <time>2025-09-05T09:52:42.000Z</time>
      </trkpt>
      <trkpt lat="37.091423" lon="-79.593152">
        <ele>277.062668</ele>
        <time>2025-09-05T09:52:45.000Z</time>
      </trkpt>
      <trkpt lat="37.091095" lon="-79.593646">
        <ele>277.327818</ele>
        <time>2025-09-05T09:52:51.000Z</time>
      </trkpt>
      <trkpt lat="37.090181" lon="-79.595294">
        <ele>276.804754</ele>
        <time>2025-09-05T09:53:09.000Z</time>
      </trkpt>
      <trkpt lat="37.089818" lon="-79.595921">
        <ele>275.910366</ele>
        <time>2025-09-05T09:53:16.000Z</time>
      </trkpt>
      <trkpt lat="37.089733" lon="-79.596074">
        <ele>275.710405</ele>
        <time>2025-09-05T09:53:18.000Z</time>
      </trkpt>
      <trkpt lat="37.089557" lon="-79.596375">
        <ele>275.267528</ele>
        <time>2025-09-05T09:53:21.000Z</time>
      </trkpt>
      <trkpt lat="37.089121" lon="-79.597129">
        <ele>272.479581</ele>
        <time>2025-09-05T09:53:29.000Z</time>
      </trkpt>
      <trkpt lat="37.088604" lon="-79.597894">
        <ele>269.315099</ele>
        <time>2025-09-05T09:53:38.000Z</time>
      </trkpt>
      <trkpt lat="37.088272" lon="-79.598217">
        <ele>267.834551</ele>
        <time>2025-09-05T09:53:43.000Z</time>
      </trkpt>
      <trkpt lat="37.087766" lon="-79.598602">
        <ele>266.379067</ele>
        <time>2025-09-05T09:53:50.000Z</time>
      </trkpt>
      <trkpt lat="37.087299" lon="-79.59893">
        <ele>265.039742</ele>
        <time>2025-09-05T09:53:56.000Z</time>
      </trkpt>
      <trkpt lat="37.086972" lon="-79.599249">
        <ele>264.013115</ele>
        <time>2025-09-05T09:54:01.000Z</time>
      </trkpt>
      <trkpt lat="37.086896" lon="-79.599374">
        <ele>263.735816</ele>
        <time>2025-09-05T09:54:02.000Z</time>
      </trkpt>
      <trkpt lat="37.086767" lon="-79.599717">
        <ele>263.154011</ele>
        <time>2025-09-05T09:54:05.000Z</time>
      </trkpt>
      <trkpt lat="37.086004" lon="-79.602023">
        <ele>260.099667</ele>
        <time>2025-09-05T09:54:27.000Z</time>
      </trkpt>
      <trkpt lat="37.085834" lon="-79.602448">
        <ele>259.866986</ele>
        <time>2025-09-05T09:54:31.000Z</time>
      </trkpt>
      <trkpt lat="37.085664" lon="-79.602709">
        <ele>259.709123</ele>
        <time>2025-09-05T09:54:34.000Z</time>
      </trkpt>
      <trkpt lat="37.085442" lon="-79.602967">
        <ele>259.52699</ele>
        <time>2025-09-05T09:54:37.000Z</time>
      </trkpt>
      <trkpt lat="37.085191" lon="-79.603176">
        <ele>259.349583</ele>
        <time>2025-09-05T09:54:40.000Z</time>
      </trkpt>
      <trkpt lat="37.083911" lon="-79.603627">
        <ele>259.530962</ele>
        <time>2025-09-05T09:54:55.000Z</time>
      </trkpt>
      <trkpt lat="37.083613" lon="-79.603822">
        <ele>259.592579</ele>
        <time>2025-09-05T09:54:59.000Z</time>
      </trkpt>
      <trkpt lat="37.083376" lon="-79.604116">
        <ele>259.541514</ele>
        <time>2025-09-05T09:55:03.000Z</time>
      </trkpt>
      <trkpt lat="37.08319" lon="-79.604419">
        <ele>259.326265</ele>
        <time>2025-09-05T09:55:06.000Z</time>
      </trkpt>
      <trkpt lat="37.083104" lon="-79.604708">
        <ele>259.161319</ele>
        <time>2025-09-05T09:55:09.000Z</time>
      </trkpt>
      <trkpt lat="37.082973" lon="-79.606616">
        <ele>258.432275</ele>
        <time>2025-09-05T09:55:26.000Z</time>
      </trkpt>
      <trkpt lat="37.08289" lon="-79.606954">
        <ele>258.481933</ele>
        <time>2025-09-05T09:55:29.000Z</time>
      </trkpt>
      <trkpt lat="37.082814" lon="-79.607145">
        <ele>258.511773</ele>
        <time>2025-09-05T09:55:31.000Z</time>
      </trkpt>
      <trkpt lat="37.082618" lon="-79.607485">
        <ele>258.570119</ele>
        <time>2025-09-05T09:55:35.000Z</time>
      </trkpt>
      <trkpt lat="37.082442" lon="-79.607639">
        <ele>258.607292</ele>
        <time>2025-09-05T09:55:37.000Z</time>
      </trkpt>
      <trkpt lat="37.08214" lon="-79.607796">
        <ele>258.665265</ele>
        <time>2025-09-05T09:55:41.000Z</time>
      </trkpt>
      <trkpt lat="37.08157" lon="-79.608023">
        <ele>256.61737</ele>
        <time>2025-09-05T09:55:48.000Z</time>
      </trkpt>
      <trkpt lat="37.081304" lon="-79.608207">
        <ele>255.379694</ele>
        <time>2025-09-05T09:55:51.000Z</time>
      </trkpt>
      <trkpt lat="37.080928" lon="-79.608515">
        <ele>253.599794</ele>
        <time>2025-09-05T09:55:56.000Z</time>
      </trkpt>
      <trkpt lat="37.080362" lon="-79.609082">
        <ele>250.929282</ele>
        <time>2025-09-05T09:56:04.000Z</time>
      </trkpt>
      <trkpt lat="37.080138" lon="-79.609345">
        <ele>250.067225</ele>
        <time>2025-09-05T09:56:07.000Z</time>
      </trkpt>
      <trkpt lat="37.080089" lon="-79.609434">
        <ele>249.802061</ele>
        <time>2025-09-05T09:56:08.000Z</time>
      </trkpt>
      <trkpt lat="37.080043" lon="-79.609661">
        <ele>249.279559</ele>
        <time>2025-09-05T09:56:10.000Z</time>
      </trkpt>
      <trkpt lat="37.080029" lon="-79.60984">
        <ele>248.860124</ele>
        <time>2025-09-05T09:56:12.000Z</time>
      </trkpt>
      <trkpt lat="37.080062" lon="-79.610272">
        <ele>247.846575</ele>
        <time>2025-09-05T09:56:16.000Z</time>
      </trkpt>
      <trkpt lat="37.080033" lon="-79.610434">
        <ele>247.461965</ele>
        <time>2025-09-05T09:56:17.000Z</time>
      </trkpt>
      <trkpt lat="37.07999" lon="-79.610514">
        <ele>247.270089</ele>
        <time>2025-09-05T09:56:18.000Z</time>
      </trkpt>
      <trkpt lat="37.079735" lon="-79.610767">
        <ele>246.333658</ele>
        <time>2025-09-05T09:56:22.000Z</time>
      </trkpt>
      <trkpt lat="37.07964" lon="-79.610894">
        <ele>246.389739</ele>
        <time>2025-09-05T09:56:24.000Z</time>
      </trkpt>
      <trkpt lat="37.079527" lon="-79.611197">
        <ele>246.499195</ele>
        <time>2025-09-05T09:56:27.000Z</time>
      </trkpt>
      <trkpt lat="37.079453" lon="-79.611537">
        <ele>246.616585</ele>
        <time>2025-09-05T09:56:30.000Z</time>
      </trkpt>
      <trkpt lat="37.079366" lon="-79.611686">
        <ele>246.682581</ele>
        <time>2025-09-05T09:56:32.000Z</time>
      </trkpt>
      <trkpt lat="37.079176" lon="-79.61185">
        <ele>246.778233</ele>
        <time>2025-09-05T09:56:35.000Z</time>
      </trkpt>
      <trkpt lat="37.078778" lon="-79.61198">
        <ele>246.947716</ele>
        <time>2025-09-05T09:56:40.000Z</time>
      </trkpt>
      <trkpt lat="37.078666" lon="-79.612053">
        <ele>247.002043</ele>
        <time>2025-09-05T09:56:41.000Z</time>
      </trkpt>
      <trkpt lat="37.07858" lon="-79.61215">
        <ele>247.045424</ele>
        <time>2025-09-05T09:56:42.000Z</time>
      </trkpt>
      <trkpt lat="37.078535" lon="-79.612257">
        <ele>247.099627</ele>
        <time>2025-09-05T09:56:43.000Z</time>
      </trkpt>
      <trkpt lat="37.078471" lon="-79.612426">
        <ele>247.296263</ele>
        <time>2025-09-05T09:56:45.000Z</time>
      </trkpt>
      <trkpt lat="37.078471" lon="-79.612619">
        <ele>247.493846</ele>
        <time>2025-09-05T09:56:47.000Z</time>
      </trkpt>
      <trkpt lat="37.078584" lon="-79.613036">
        <ele>247.926269</ele>
        <time>2025-09-05T09:56:51.000Z</time>
      </trkpt>
      <trkpt lat="37.078696" lon="-79.613362">
        <ele>248.294724</ele>
        <time>2025-09-05T09:56:54.000Z</time>
      </trkpt>
      <trkpt lat="37.078826" lon="-79.613708">
        <ele>248.688453</ele>
        <time>2025-09-05T09:56:57.000Z</time>
      </trkpt>
      <trkpt lat="37.07908" lon="-79.614114">
        <ele>249.211874</ele>
        <time>2025-09-05T09:57:02.000Z</time>
      </trkpt>
      <trkpt lat="37.079214" lon="-79.614462">
        <ele>249.331061</ele>
        <time>2025-09-05T09:57:05.000Z</time>
      </trkpt>
      <trkpt lat="37.079273" lon="-79.614834">
        <ele>249.222392</ele>
        <time>2025-09-05T09:57:08.000Z</time>
      </trkpt>
      <trkpt lat="37.0793" lon="-79.615071">
        <ele>249.150998</ele>
        <time>2025-09-05T09:57:10.000Z</time>
      </trkpt>
      <trkpt lat="37.079301" lon="-79.61524">
        <ele>249.102731</ele>
        <time>2025-09-05T09:57:11.000Z</time>
      </trkpt>
      <trkpt lat="37.079277" lon="-79.61528">
        <ele>249.088566</ele>
        <time>2025-09-05T09:57:11.000Z</time>
      </trkpt>
      <trkpt lat="37.079274" lon="-79.6153">
        <ele>249.08496</ele>
        <time>2025-09-05T09:57:11.000Z</time>
      </trkpt>
      <trkpt lat="37.079268" lon="-79.615304">
        <ele>249.082809</ele>
        <time>2025-09-05T09:57:11.000Z</time>
      </trkpt>
      <trkpt lat="37.079275" lon="-79.615314">
        <ele>249.080774</ele>
        <time>2025-09-05T09:57:11.000Z</time>
      </trkpt>
      <trkpt lat="37.079269" lon="-79.615317">
        <ele>249.080312</ele>
        <time>2025-09-05T09:57:11.000Z</time>
      </trkpt>
      <trkpt lat="37.079279" lon="-79.615322">
        <ele>249.07938</ele>
        <time>2025-09-05T09:57:11.000Z</time>
      </trkpt>
      <trkpt lat="37.079274" lon="-79.615331">
        <ele>249.078174</ele>
        <time>2025-09-05T09:57:11.000Z</time>
      </trkpt>
      <trkpt lat="37.079277" lon="-79.615323">
        <ele>249.077313</ele>
        <time>2025-09-05T09:57:11.000Z</time>
      </trkpt>
      <trkpt lat="37.079256" lon="-79.615394">
        <ele>249.054991</ele>
        <time>2025-09-05T09:57:12.000Z</time>
      </trkpt>
      <trkpt lat="37.079192" lon="-79.615496">
        <ele>249.01682</ele>
        <time>2025-09-05T09:57:13.000Z</time>
      </trkpt>
      <trkpt lat="37.079089" lon="-79.615582">
        <ele>248.978524</ele>
        <time>2025-09-05T09:57:14.000Z</time>
      </trkpt>
      <trkpt lat="37.079026" lon="-79.615606">
        <ele>248.954467</ele>
        <time>2025-09-05T09:57:15.000Z</time>
      </trkpt>
      <trkpt lat="37.07892" lon="-79.615579">
        <ele>248.911481</ele>
        <time>2025-09-05T09:57:16.000Z</time>
      </trkpt>
      <trkpt lat="37.078812" lon="-79.615463">
        <ele>248.864048</ele>
        <time>2025-09-05T09:57:18.000Z</time>
      </trkpt>
      <trkpt lat="37.078757" lon="-79.615308">
        <ele>248.814149</ele>
        <time>2025-09-05T09:57:20.000Z</time>
      </trkpt>
      <trkpt lat="37.078759" lon="-79.615287">
        <ele>248.805248</ele>
        <time>2025-09-05T09:57:20.000Z</time>
      </trkpt>
      <trkpt lat="37.078753" lon="-79.615267">
        <ele>248.80093</ele>
        <time>2025-09-05T09:57:20.000Z</time>
      </trkpt>
      <trkpt lat="37.078754" lon="-79.615254">
        <ele>248.799203</ele>
        <time>2025-09-05T09:57:20.000Z</time>
      </trkpt>
      <trkpt lat="37.078753" lon="-79.615254">
        <ele>248.797773</ele>
        <time>2025-09-05T09:57:20.000Z</time>
      </trkpt>
      <trkpt lat="37.078749" lon="-79.615255">
        <ele>248.79634</ele>
        <time>2025-09-05T09:57:20.000Z</time>
      </trkpt>
      <trkpt lat="37.078748" lon="-79.615246">
        <ele>248.795767</ele>
        <time>2025-09-05T09:57:20.000Z</time>
      </trkpt>
      <trkpt lat="37.078749" lon="-79.61524">
        <ele>248.793755</ele>
        <time>2025-09-05T09:57:20.000Z</time>
      </trkpt>
      <trkpt lat="37.078748" lon="-79.615246">
        <ele>248.792601</ele>
        <time>2025-09-05T09:57:20.000Z</time>
      </trkpt>
      <trkpt lat="37.078761" lon="-79.615015">
        <ele>248.722679</ele>
        <time>2025-09-05T09:57:22.000Z</time>
      </trkpt>
      <trkpt lat="37.078817" lon="-79.614172">
        <ele>248.325582</ele>
        <time>2025-09-05T09:57:30.000Z</time>
      </trkpt>
      <trkpt lat="37.078822" lon="-79.613711">
        <ele>248.114138</ele>
        <time>2025-09-05T09:57:34.000Z</time>
      </trkpt>
      <trkpt lat="37.078681" lon="-79.613365">
        <ele>247.936179</ele>
        <time>2025-09-05T09:57:37.000Z</time>
      </trkpt>
      <trkpt lat="37.078576" lon="-79.613032">
        <ele>247.769653</ele>
        <time>2025-09-05T09:57:40.000Z</time>
      </trkpt>
      <trkpt lat="37.078472" lon="-79.612635">
        <ele>247.499062</ele>
        <time>2025-09-05T09:57:44.000Z</time>
      </trkpt>
      <trkpt lat="37.078482" lon="-79.612431">
        <ele>247.356581</ele>
        <time>2025-09-05T09:57:46.000Z</time>
      </trkpt>
      <trkpt lat="37.078527" lon="-79.612257">
        <ele>247.214756</ele>
        <time>2025-09-05T09:57:48.000Z</time>
      </trkpt>
      <trkpt lat="37.078588" lon="-79.612149">
        <ele>247.119348</ele>
        <time>2025-09-05T09:57:49.000Z</time>
      </trkpt>
      <trkpt lat="37.078669" lon="-79.612059">
        <ele>247.023265</ele>
        <time>2025-09-05T09:57:50.000Z</time>
      </trkpt>
      <trkpt lat="37.078782" lon="-79.611979">
        <ele>246.902967</ele>
        <time>2025-09-05T09:57:51.000Z</time>
      </trkpt>
      <trkpt lat="37.07916" lon="-79.611842">
        <ele>246.527663</ele>
        <time>2025-09-05T09:57:55.000Z</time>
      </trkpt>
      <trkpt lat="37.079356" lon="-79.611699">
        <ele>246.315846</ele>
        <time>2025-09-05T09:57:58.000Z</time>
      </trkpt>
      <trkpt lat="37.079454" lon="-79.611539">
        <ele>246.169691</ele>
        <time>2025-09-05T09:58:00.000Z</time>
      </trkpt>
      <trkpt lat="37.079537" lon="-79.61119">
        <ele>246.272287</ele>
        <time>2025-09-05T09:58:03.000Z</time>
      </trkpt>
      <trkpt lat="37.079655" lon="-79.610894">
        <ele>246.726553</ele>
        <time>2025-09-05T09:58:06.000Z</time>
      </trkpt>
      <trkpt lat="37.079732" lon="-79.610779">
        <ele>246.959294</ele>
        <time>2025-09-05T09:58:07.000Z</time>
      </trkpt>
      <trkpt lat="37.079996" lon="-79.610509">
        <ele>247.532891</ele>
        <time>2025-09-05T09:58:11.000Z</time>
      </trkpt>
      <trkpt lat="37.080031" lon="-79.610432">
        <ele>247.648346</ele>
        <time>2025-09-05T09:58:12.000Z</time>
      </trkpt>
      <trkpt lat="37.080047" lon="-79.610278">
        <ele>247.879794</ele>
        <time>2025-09-05T09:58:13.000Z</time>
      </trkpt>
      <trkpt lat="37.080023" lon="-79.609829">
        <ele>248.489664</ele>
        <time>2025-09-05T09:58:17.000Z</time>
      </trkpt>
      <trkpt lat="37.080029" lon="-79.609646">
        <ele>248.742069</ele>
        <time>2025-09-05T09:58:19.000Z</time>
      </trkpt>
      <trkpt lat="37.080092" lon="-79.609438">
        <ele>249.056457</ele>
        <time>2025-09-05T09:58:21.000Z</time>
      </trkpt>
      <trkpt lat="37.08015" lon="-79.609339">
        <ele>249.318211</ele>
        <time>2025-09-05T09:58:22.000Z</time>
      </trkpt>
      <trkpt lat="37.080353" lon="-79.609076">
        <ele>250.705404</ele>
        <time>2025-09-05T09:58:25.000Z</time>
      </trkpt>
      <trkpt lat="37.08093" lon="-79.608523">
        <ele>254.075518</ele>
        <time>2025-09-05T09:58:33.000Z</time>
      </trkpt>
      <trkpt lat="37.081293" lon="-79.608199">
        <ele>256.148041</ele>
        <time>2025-09-05T09:58:38.000Z</time>
      </trkpt>
      <trkpt lat="37.081574" lon="-79.608024">
        <ele>257.50691</ele>
        <time>2025-09-05T09:58:41.000Z</time>
      </trkpt>
      <trkpt lat="37.082152" lon="-79.607804">
        <ele>257.819408</ele>
        <time>2025-09-05T09:58:48.000Z</time>
      </trkpt>
      <trkpt lat="37.082454" lon="-79.607634">
        <ele>257.99288</ele>
        <time>2025-09-05T09:58:52.000Z</time>
      </trkpt>
      <trkpt lat="37.082605" lon="-79.607482">
        <ele>258.104131</ele>
        <time>2025-09-05T09:58:54.000Z</time>
      </trkpt>
      <trkpt lat="37.082805" lon="-79.60714">
        <ele>258.27874</ele>
        <time>2025-09-05T09:58:58.000Z</time>
      </trkpt>
      <trkpt lat="37.082894" lon="-79.606959">
        <ele>258.367997</ele>
        <time>2025-09-05T09:59:00.000Z</time>
      </trkpt>
      <trkpt lat="37.082972" lon="-79.606612">
        <ele>258.507023</ele>
        <time>2025-09-05T09:59:03.000Z</time>
      </trkpt>
      <trkpt lat="37.083112" lon="-79.604704">
        <ele>259.207959</ele>
        <time>2025-09-05T09:59:20.000Z</time>
      </trkpt>
      <trkpt lat="37.083204" lon="-79.60443">
        <ele>259.284022</ele>
        <time>2025-09-05T09:59:23.000Z</time>
      </trkpt>
      <trkpt lat="37.083373" lon="-79.604113">
        <ele>259.335077</ele>
        <time>2025-09-05T09:59:26.000Z</time>
      </trkpt>
      <trkpt lat="37.083606" lon="-79.603827">
        <ele>259.390169</ele>
        <time>2025-09-05T09:59:30.000Z</time>
      </trkpt>
      <trkpt lat="37.083917" lon="-79.603631">
        <ele>259.447349</ele>
        <time>2025-09-05T09:59:34.000Z</time>
      </trkpt>
      <trkpt lat="37.08518" lon="-79.603176">
        <ele>259.587595</ele>
        <time>2025-09-05T09:59:49.000Z</time>
      </trkpt>
      <trkpt lat="37.085441" lon="-79.602972">
        <ele>259.597788</ele>
        <time>2025-09-05T09:59:52.000Z</time>
      </trkpt>
      <trkpt lat="37.085672" lon="-79.602715">
        <ele>259.608249</ele>
        <time>2025-09-05T09:59:55.000Z</time>
      </trkpt>
      <trkpt lat="37.085826" lon="-79.602451">
        <ele>259.617335</ele>
        <time>2025-09-05T09:59:58.000Z</time>
      </trkpt>
      <trkpt lat="37.086004" lon="-79.602017">
        <ele>259.752936</ele>
        <time>2025-09-05T10:00:02.000Z</time>
      </trkpt>
      <trkpt lat="37.086753" lon="-79.599716">
        <ele>263.250638</ele>
        <time>2025-09-05T10:00:24.000Z</time>
      </trkpt>
      <trkpt lat="37.08691" lon="-79.599371">
        <ele>263.860887</ele>
        <time>2025-09-05T10:00:28.000Z</time>
      </trkpt>
      <trkpt lat="37.086963" lon="-79.599259">
        <ele>264.083314</ele>
        <time>2025-09-05T10:00:29.000Z</time>
      </trkpt>
      <trkpt lat="37.087298" lon="-79.598933">
        <ele>264.906815</ele>
        <time>2025-09-05T10:00:34.000Z</time>
      </trkpt>
      <trkpt lat="37.087775" lon="-79.598604">
        <ele>265.981177</ele>
        <time>2025-09-05T10:00:40.000Z</time>
      </trkpt>
      <trkpt lat="37.088274" lon="-79.59822">
        <ele>267.966925</ele>
        <time>2025-09-05T10:00:47.000Z</time>
      </trkpt>
      <trkpt lat="37.088591" lon="-79.597889">
        <ele>269.589529</ele>
        <time>2025-09-05T10:00:52.000Z</time>
      </trkpt>
      <trkpt lat="37.089131" lon="-79.597123">
        <ele>272.719265</ele>
        <time>2025-09-05T10:01:01.000Z</time>
      </trkpt>
      <trkpt lat="37.089566" lon="-79.596378">
        <ele>274.700283</ele>
        <time>2025-09-05T10:01:09.000Z</time>
      </trkpt>
      <trkpt lat="37.089736" lon="-79.596071">
        <ele>275.411532</ele>
        <time>2025-09-05T10:01:12.000Z</time>
      </trkpt>
      <trkpt lat="37.089823" lon="-79.595929">
        <ele>275.732671</ele>
        <time>2025-09-05T10:01:14.000Z</time>
      </trkpt>
      <trkpt lat="37.090182" lon="-79.595302">
        <ele>277.169052</ele>
        <time>2025-09-05T10:01:21.000Z</time>
      </trkpt>
      <trkpt lat="37.091106" lon="-79.59364">
        <ele>277.530862</ele>
        <time>2025-09-05T10:01:39.000Z</time>
      </trkpt>
      <trkpt lat="37.09141" lon="-79.593145">
        <ele>277.235043</ele>
        <time>2025-09-05T10:01:45.000Z</time>
      </trkpt>
      <trkpt lat="37.091522" lon="-79.593432">
        <ele>276.791699</ele>
        <time>2025-09-05T10:01:48.000Z</time>
      </trkpt>
      <trkpt lat="37.092177" lon="-79.595278">
        <ele>273.881357</ele>
        <time>2025-09-05T10:02:06.000Z</time>
      </trkpt>
      <trkpt lat="37.093361" lon="-79.598661">
        <ele>266.640911</ele>
        <time>2025-09-05T10:02:39.000Z</time>
      </trkpt>
      <trkpt lat="37.093999" lon="-79.60038">
        <ele>261.602601</ele>
        <time>2025-09-05T10:02:56.000Z</time>
      </trkpt>
      <trkpt lat="37.094102" lon="-79.600662">
        <ele>260.716974</ele>
        <time>2025-09-05T10:02:59.000Z</time>
      </trkpt>
      <trkpt lat="37.094386" lon="-79.601488">
        <ele>258.679608</ele>
        <time>2025-09-05T10:03:07.000Z</time>
      </trkpt>
      <trkpt lat="37.094629" lon="-79.601892">
        <ele>258.016681</ele>
        <time>2025-09-05T10:03:11.000Z</time>
      </trkpt>
      <trkpt lat="37.094926" lon="-79.602217">
        <ele>257.346129</ele>
        <time>2025-09-05T10:03:15.000Z</time>
      </trkpt>
      <trkpt lat="37.09587" lon="-79.60293">
        <ele>255.457891</ele>
        <time>2025-09-05T10:03:27.000Z</time>
      </trkpt>
      <trkpt lat="37.096069" lon="-79.603134">
        <ele>255.023055</ele>
        <time>2025-09-05T10:03:30.000Z</time>
      </trkpt>
      <trkpt lat="37.096962" lon="-79.604251">
        <ele>252.827502</ele>
        <time>2025-09-05T10:03:44.000Z</time>
      </trkpt>
      <trkpt lat="37.097082" lon="-79.604436">
        <ele>252.633912</ele>
        <time>2025-09-05T10:03:46.000Z</time>
      </trkpt>
      <trkpt lat="37.097232" lon="-79.60478">
        <ele>252.301468</ele>
        <time>2025-09-05T10:03:49.000Z</time>
      </trkpt>
      <trkpt lat="37.097305" lon="-79.605102">
        <ele>252.003214</ele>
        <time>2025-09-05T10:03:52.000Z</time>
      </trkpt>
      <trkpt lat="37.097343" lon="-79.605481">
        <ele>251.687542</ele>
        <time>2025-09-05T10:03:55.000Z</time>
      </trkpt>
      <trkpt lat="37.097215" lon="-79.607916">
        <ele>252.232225</ele>
        <time>2025-09-05T10:04:17.000Z</time>
      </trkpt>
      <trkpt lat="37.097102" lon="-79.608398">
        <ele>252.594864</ele>
        <time>2025-09-05T10:04:21.000Z</time>
      </trkpt>
      <trkpt lat="37.097021" lon="-79.608628">
        <ele>252.776133</ele>
        <time>2025-09-05T10:04:23.000Z</time>
      </trkpt>
      <trkpt lat="37.096867" lon="-79.608849">
        <ele>252.989839</ele>
        <time>2025-09-05T10:04:26.000Z</time>
      </trkpt>
      <trkpt lat="37.096697" lon="-79.609006">
        <ele>253.16397</ele>
        <time>2025-09-05T10:04:28.000Z</time>
      </trkpt>
      <trkpt lat="37.096671" lon="-79.609033">
        <ele>253.198167</ele>
        <time>2025-09-05T10:04:28.000Z</time>
      </trkpt>
      <trkpt lat="37.096405" lon="-79.609228">
        <ele>253.456678</ele>
        <time>2025-09-05T10:04:31.000Z</time>
      </trkpt>
      <trkpt lat="37.096136" lon="-79.609399">
        <ele>253.721839</ele>
        <time>2025-09-05T10:04:34.000Z</time>
      </trkpt>
      <trkpt lat="37.096012" lon="-79.609487">
        <ele>253.858952</ele>
        <time>2025-09-05T10:04:36.000Z</time>
      </trkpt>
      <trkpt lat="37.095783" lon="-79.60986">
        <ele>254.178325</ele>
        <time>2025-09-05T10:04:40.000Z</time>
      </trkpt>
      <trkpt lat="37.095733" lon="-79.609928">
        <ele>254.23695</ele>
        <time>2025-09-05T10:04:41.000Z</time>
      </trkpt>
      <trkpt lat="37.095679" lon="-79.609937">
        <ele>254.248724</ele>
        <time>2025-09-05T10:04:42.000Z</time>
      </trkpt>
      <trkpt lat="37.095619" lon="-79.610051">
        <ele>254.250964</ele>
        <time>2025-09-05T10:04:43.000Z</time>
      </trkpt>
      <trkpt lat="37.095579" lon="-79.610099">
        <ele>254.252094</ele>
        <time>2025-09-05T10:04:44.000Z</time>
      </trkpt>
      <trkpt lat="37.095083" lon="-79.610378">
        <ele>254.26382</ele>
        <time>2025-09-05T10:04:50.000Z</time>
      </trkpt>
      <trkpt lat="37.095083" lon="-79.610379">
        <ele>254.264062</ele>
        <time>2025-09-05T10:04:50.000Z</time>
      </trkpt>
      <trkpt lat="37.095068" lon="-79.610388">
        <ele>254.264313</ele>
        <time>2025-09-05T10:04:50.000Z</time>
      </trkpt>
      <trkpt lat="37.095063" lon="-79.610387">
        <ele>254.264409</ele>
        <time>2025-09-05T10:04:50.000Z</time>
      </trkpt>
      <trkpt lat="37.095056" lon="-79.610389">
        <ele>254.264439</ele>
        <time>2025-09-05T10:04:50.000Z</time>
      </trkpt>
      <trkpt lat="37.095068" lon="-79.610374">
        <ele>254.264476</ele>
        <time>2025-09-05T10:04:50.000Z</time>
      </trkpt>
      <trkpt lat="37.095069" lon="-79.610372">
        <ele>254.264551</ele>
        <time>2025-09-05T10:04:50.000Z</time>
      </trkpt>
      <trkpt lat="37.095065" lon="-79.610375">
        <ele>254.26462</ele>
        <time>2025-09-05T10:04:50.000Z</time>
      </trkpt>
      <trkpt lat="37.095032" lon="-79.610385">
        <ele>254.265046</ele>
        <time>2025-09-05T10:04:50.000Z</time>
      </trkpt>
      <trkpt lat="37.095003" lon="-79.610369">
        <ele>254.265739</ele>
        <time>2025-09-05T10:04:50.000Z</time>
      </trkpt>
      <trkpt lat="37.094975" lon="-79.610344">
        <ele>254.266666</ele>
        <time>2025-09-05T10:04:50.000Z</time>
      </trkpt>
      <trkpt lat="37.094912" lon="-79.610185">
        <ele>254.269525</ele>
        <time>2025-09-05T10:04:52.000Z</time>
      </trkpt>
      <trkpt lat="37.095413" lon="-79.609893">
        <ele>254.281667</ele>
        <time>2025-09-05T10:04:58.000Z</time>
      </trkpt>
      <trkpt lat="37.095428" lon="-79.609894">
        <ele>254.281675</ele>
        <time>2025-09-05T10:04:58.000Z</time>
      </trkpt>
      <trkpt lat="37.09542" lon="-79.609885">
        <ele>254.281742</ele>
        <time>2025-09-05T10:04:58.000Z</time>
      </trkpt>
      <trkpt lat="37.095428" lon="-79.609878">
        <ele>254.281954</ele>
        <time>2025-09-05T10:04:58.000Z</time>
      </trkpt>
      <trkpt lat="37.095428" lon="-79.60988">
        <ele>254.281968</ele>
        <time>2025-09-05T10:04:58.000Z</time>
      </trkpt>
      <trkpt lat="37.095441" lon="-79.609876">
        <ele>254.282004</ele>
        <time>2025-09-05T10:04:58.000Z</time>
      </trkpt>
      <trkpt lat="37.09543" lon="-79.609878">
        <ele>254.282094</ele>
        <time>2025-09-05T10:04:58.000Z</time>
      </trkpt>
      <trkpt lat="37.09543" lon="-79.609875">
        <ele>254.282126</ele>
        <time>2025-09-05T10:04:58.000Z</time>
      </trkpt>
      <trkpt lat="37.095437" lon="-79.609872">
        <ele>254.28224</ele>
        <time>2025-09-05T10:04:58.000Z</time>
      </trkpt>
      <trkpt lat="37.095452" lon="-79.609876">
        <ele>254.282332</ele>
        <time>2025-09-05T10:04:58.000Z</time>
      </trkpt>
      <trkpt lat="37.095481" lon="-79.609844">
        <ele>254.283328</ele>
        <time>2025-09-05T10:04:58.000Z</time>
      </trkpt>
      <trkpt lat="37.095528" lon="-79.609817">
        <ele>254.284159</ele>
        <time>2025-09-05T10:04:59.000Z</time>
      </trkpt>
      <trkpt lat="37.095596" lon="-79.609817">
        <ele>254.285874</ele>
        <time>2025-09-05T10:05:00.000Z</time>
      </trkpt>
      <trkpt lat="37.095603" lon="-79.609767">
        <ele>254.281112</ele>
        <time>2025-09-05T10:05:00.000Z</time>
      </trkpt>
      <trkpt lat="37.095678" lon="-79.609696">
        <ele>254.199137</ele>
        <time>2025-09-05T10:05:01.000Z</time>
      </trkpt>
      <trkpt lat="37.096012" lon="-79.6095">
        <ele>253.880763</ele>
        <time>2025-09-05T10:05:05.000Z</time>
      </trkpt>
      <trkpt lat="37.096153" lon="-79.609407">
        <ele>253.741607</ele>
        <time>2025-09-05T10:05:07.000Z</time>
      </trkpt>
      <trkpt lat="37.096421" lon="-79.609213">
        <ele>253.472533</ele>
        <time>2025-09-05T10:05:10.000Z</time>
      </trkpt>
      <trkpt lat="37.096681" lon="-79.609041">
        <ele>253.210194</ele>
        <time>2025-09-05T10:05:13.000Z</time>
      </trkpt>
      <trkpt lat="37.096702" lon="-79.609012">
        <ele>253.175504</ele>
        <time>2025-09-05T10:05:13.000Z</time>
      </trkpt>
      <trkpt lat="37.096857" lon="-79.608857">
        <ele>252.998783</ele>
        <time>2025-09-05T10:05:15.000Z</time>
      </trkpt>
      <trkpt lat="37.097015" lon="-79.608613">
        <ele>252.781898</ele>
        <time>2025-09-05T10:05:18.000Z</time>
      </trkpt>
      <trkpt lat="37.097105" lon="-79.608384">
        <ele>252.597927</ele>
        <time>2025-09-05T10:05:20.000Z</time>
      </trkpt>
      <trkpt lat="37.097205" lon="-79.60793">
        <ele>252.232926</ele>
        <time>2025-09-05T10:05:24.000Z</time>
      </trkpt>
      <trkpt lat="37.097335" lon="-79.605484">
        <ele>251.694639</ele>
        <time>2025-09-05T10:05:46.000Z</time>
      </trkpt>
      <trkpt lat="37.097316" lon="-79.605119">
        <ele>252.005052</ele>
        <time>2025-09-05T10:05:49.000Z</time>
      </trkpt>
      <trkpt lat="37.097237" lon="-79.604768">
        <ele>252.298372</ele>
        <time>2025-09-05T10:05:52.000Z</time>
      </trkpt>
      <trkpt lat="37.097065" lon="-79.60443">
        <ele>252.62527</ele>
        <time>2025-09-05T10:05:56.000Z</time>
      </trkpt>
      <trkpt lat="37.096954" lon="-79.604261">
        <ele>252.81565</ele>
        <time>2025-09-05T10:05:58.000Z</time>
      </trkpt>
      <trkpt lat="37.096067" lon="-79.603122">
        <ele>255.023359</ele>
        <time>2025-09-05T10:06:12.000Z</time>
      </trkpt>
      <trkpt lat="37.095882" lon="-79.602931">
        <ele>255.459078</ele>
        <time>2025-09-05T10:06:15.000Z</time>
      </trkpt>
      <trkpt lat="37.09494" lon="-79.602219">
        <ele>257.343637</ele>
        <time>2025-09-05T10:06:27.000Z</time>
      </trkpt>
      <trkpt lat="37.094628" lon="-79.601894">
        <ele>258.012321</ele>
        <time>2025-09-05T10:06:32.000Z</time>
      </trkpt>
      <trkpt lat="37.094389" lon="-79.601489">
        <ele>258.673376</ele>
        <time>2025-09-05T10:06:36.000Z</time>
      </trkpt>
      <trkpt lat="37.094093" lon="-79.600675">
        <ele>260.728328</ele>
        <time>2025-09-05T10:06:44.000Z</time>
      </trkpt>
      <trkpt lat="37.094003" lon="-79.600388">
        <ele>261.61103</ele>
        <time>2025-09-05T10:06:47.000Z</time>
      </trkpt>
      <trkpt lat="37.093356" lon="-79.598672">
        <ele>266.632054</ele>
        <time>2025-09-05T10:07:04.000Z</time>
      </trkpt>
      <trkpt lat="37.092192" lon="-79.595271">
        <ele>273.881635</ele>
        <time>2025-09-05T10:07:37.000Z</time>
      </trkpt>
      <trkpt lat="37.091512" lon="-79.593442">
        <ele>276.79903</ele>
        <time>2025-09-05T10:07:55.000Z</time>
      </trkpt>
      <trkpt lat="37.091419" lon="-79.593144">
        <ele>277.244629</ele>
        <time>2025-09-05T10:07:58.000Z</time>
      </trkpt>
      <trkpt lat="37.091106" lon="-79.59365">
        <ele>277.523398</ele>
        <time>2025-09-05T10:08:04.000Z</time>
      </trkpt>
      <trkpt lat="37.090181" lon="-79.595306">
        <ele>277.152325</ele>
        <time>2025-09-05T10:08:22.000Z</time>
      </trkpt>
      <trkpt lat="37.08983" lon="-79.595927">
        <ele>275.72977</ele>
        <time>2025-09-05T10:08:29.000Z</time>
      </trkpt>
      <trkpt lat="37.089747" lon="-79.596057">
        <ele>275.411706</ele>
        <time>2025-09-05T10:08:30.000Z</time>
      </trkpt>
      <trkpt lat="37.089565" lon="-79.596373">
        <ele>274.707303</ele>
        <time>2025-09-05T10:08:33.000Z</time>
      </trkpt>
      <trkpt lat="37.089132" lon="-79.597129">
        <ele>272.71836</ele>
        <time>2025-09-05T10:08:41.000Z</time>
      </trkpt>
      <trkpt lat="37.088602" lon="-79.597891">
        <ele>269.582905</ele>
        <time>2025-09-05T10:08:50.000Z</time>
      </trkpt>
      <trkpt lat="37.08827" lon="-79.598217">
        <ele>267.957332</ele>
        <time>2025-09-05T10:08:55.000Z</time>
      </trkpt>
      <trkpt lat="37.087765" lon="-79.598594">
        <ele>265.991867</ele>
        <time>2025-09-05T10:09:02.000Z</time>
      </trkpt>
      <trkpt lat="37.087297" lon="-79.598923">
        <ele>264.913051</ele>
        <time>2025-09-05T10:09:08.000Z</time>
      </trkpt>
      <trkpt lat="37.086979" lon="-79.599255">
        <ele>264.086124</ele>
        <time>2025-09-05T10:09:13.000Z</time>
      </trkpt>
      <trkpt lat="37.086897" lon="-79.599371">
        <ele>263.862764</ele>
        <time>2025-09-05T10:09:14.000Z</time>
      </trkpt>
      <trkpt lat="37.086764" lon="-79.599708">
        <ele>263.249983</ele>
        <time>2025-09-05T10:09:17.000Z</time>
      </trkpt>
      <trkpt lat="37.086012" lon="-79.602022">
        <ele>259.744813</ele>
        <time>2025-09-05T10:09:39.000Z</time>
      </trkpt>
      <trkpt lat="37.085836" lon="-79.602449">
        <ele>259.627116</ele>
        <time>2025-09-05T10:09:43.000Z</time>
      </trkpt>
      <trkpt lat="37.085673" lon="-79.602707">
        <ele>259.615097</ele>
        <time>2025-09-05T10:09:46.000Z</time>
      </trkpt>
      <trkpt lat="37.085445" lon="-79.602981">
        <ele>259.60122</ele>
        <time>2025-09-05T10:09:50.000Z</time>
      </trkpt>
      <trkpt lat="37.085182" lon="-79.603172">
        <ele>259.587717</ele>
        <time>2025-09-05T10:09:53.000Z</time>
      </trkpt>
      <trkpt lat="37.083924" lon="-79.603638">
        <ele>259.445776</ele>
        <time>2025-09-05T10:10:08.000Z</time>
      </trkpt>
      <trkpt lat="37.083609" lon="-79.603824">
        <ele>259.39173</ele>
        <time>2025-09-05T10:10:12.000Z</time>
      </trkpt>
      <trkpt lat="37.083362" lon="-79.60412">
        <ele>259.339664</ele>
        <time>2025-09-05T10:10:16.000Z</time>
      </trkpt>
      <trkpt lat="37.083192" lon="-79.604433">
        <ele>259.291401</ele>
        <time>2025-09-05T10:10:19.000Z</time>
      </trkpt>
      <trkpt lat="37.083103" lon="-79.6047">
        <ele>259.211181</ele>
        <time>2025-09-05T10:10:22.000Z</time>
      </trkpt>
      <trkpt lat="37.082968" lon="-79.606615">
        <ele>258.496428</ele>
        <time>2025-09-05T10:10:39.000Z</time>
      </trkpt>
      <trkpt lat="37.082882" lon="-79.606959">
        <ele>258.35948</ele>
        <time>2025-09-05T10:10:42.000Z</time>
      </trkpt>
      <trkpt lat="37.082807" lon="-79.607134">
        <ele>258.274746</ele>
        <time>2025-09-05T10:10:44.000Z</time>
      </trkpt>
      <trkpt lat="37.082619" lon="-79.607468">
        <ele>258.108973</ele>
        <time>2025-09-05T10:10:48.000Z</time>
      </trkpt>
      <trkpt lat="37.082437" lon="-79.607641">
        <ele>258.003341</ele>
        <time>2025-09-05T10:10:51.000Z</time>
      </trkpt>
      <trkpt lat="37.082134" lon="-79.607806">
        <ele>257.838656</ele>
        <time>2025-09-05T10:10:55.000Z</time>
      </trkpt>
      <trkpt lat="37.08158" lon="-79.608025">
        <ele>257.541981</ele>
        <time>2025-09-05T10:11:01.000Z</time>
      </trkpt>
      <trkpt lat="37.081297" lon="-79.60821">
        <ele>256.131284</ele>
        <time>2025-09-05T10:11:05.000Z</time>
      </trkpt>
      <trkpt lat="37.080923" lon="-79.608518">
        <ele>254.06045</ele>
        <time>2025-09-05T10:11:10.000Z</time>
      </trkpt>
      <trkpt lat="37.080361" lon="-79.609077">
        <ele>250.693076</ele>
        <time>2025-09-05T10:11:18.000Z</time>
      </trkpt>
      <trkpt lat="37.080141" lon="-79.609345">
        <ele>249.307005</ele>
        <time>2025-09-05T10:11:21.000Z</time>
      </trkpt>
      <trkpt lat="37.080093" lon="-79.609433">
        <ele>249.081062</ele>
        <time>2025-09-05T10:11:22.000Z</time>
      </trkpt>
      <trkpt lat="37.080034" lon="-79.609657">
        <ele>248.761895</ele>
        <time>2025-09-05T10:11:24.000Z</time>
      </trkpt>
      <trkpt lat="37.080028" lon="-79.609837">
        <ele>248.505686</ele>
        <time>2025-09-05T10:11:26.000Z</time>
      </trkpt>
      <trkpt lat="37.08006" lon="-79.610282">
        <ele>247.886539</ele>
        <time>2025-09-05T10:11:30.000Z</time>
      </trkpt>
      <trkpt lat="37.080034" lon="-79.610429">
        <ele>247.651604</ele>
        <time>2025-09-05T10:11:31.000Z</time>
      </trkpt>
      <trkpt lat="37.079996" lon="-79.610501">
        <ele>247.534383</ele>
        <time>2025-09-05T10:11:32.000Z</time>
      </trkpt>
      <trkpt lat="37.079742" lon="-79.61077">
        <ele>246.952102</ele>
        <time>2025-09-05T10:11:36.000Z</time>
      </trkpt>
      <trkpt lat="37.07965" lon="-79.610905">
        <ele>246.715837</ele>
        <time>2025-09-05T10:11:38.000Z</time>
      </trkpt>
      <trkpt lat="37.07954" lon="-79.611193">
        <ele>246.254676</ele>
        <time>2025-09-05T10:11:41.000Z</time>
      </trkpt>
      <trkpt lat="37.079449" lon="-79.611538">
        <ele>246.20656</ele>
        <time>2025-09-05T10:11:44.000Z</time>
      </trkpt>
      <trkpt lat="37.079363" lon="-79.6117">
        <ele>246.376104</ele>
        <time>2025-09-05T10:11:46.000Z</time>
      </trkpt>
      <trkpt lat="37.079168" lon="-79.611858">
        <ele>246.621823</ele>
        <time>2025-09-05T10:11:49.000Z</time>
      </trkpt>
      <trkpt lat="37.078775" lon="-79.61198">
        <ele>247.0572</ele>
        <time>2025-09-05T10:11:54.000Z</time>
      </trkpt>
      <trkpt lat="37.078652" lon="-79.612062">
        <ele>247.196755</ele>
        <time>2025-09-05T10:11:56.000Z</time>
      </trkpt>
      <trkpt lat="37.078584" lon="-79.61215">
        <ele>247.3082</ele>
        <time>2025-09-05T10:11:57.000Z</time>
      </trkpt>
      <trkpt lat="37.07852" lon="-79.612245">
        <ele>247.418904</ele>
        <time>2025-09-05T10:11:58.000Z</time>
      </trkpt>
      <trkpt lat="37.078486" lon="-79.612433">
        <ele>247.583417</ele>
        <time>2025-09-05T10:12:00.000Z</time>
      </trkpt>
      <trkpt lat="37.078481" lon="-79.612637">
        <ele>247.748705</ele>
        <time>2025-09-05T10:12:02.000Z</time>
      </trkpt>
      <trkpt lat="37.078582" lon="-79.613031">
        <ele>248.073032</ele>
        <time>2025-09-05T10:12:06.000Z</time>
      </trkpt>
      <trkpt lat="37.078691" lon="-79.61336">
        <ele>248.300092</ele>
        <time>2025-09-05T10:12:09.000Z</time>
      </trkpt>
      <trkpt lat="37.078822" lon="-79.613703">
        <ele>248.542714</ele>
        <time>2025-09-05T10:12:12.000Z</time>
      </trkpt>
      <trkpt lat="37.079072" lon="-79.61412">
        <ele>248.865259</ele>
        <time>2025-09-05T10:12:17.000Z</time>
      </trkpt>
      <trkpt lat="37.079218" lon="-79.614451">
        <ele>249.107392</ele>
        <time>2025-09-05T10:12:20.000Z</time>
      </trkpt>
      <trkpt lat="37.079283" lon="-79.614834">
        <ele>249.346042</ele>
        <time>2025-09-05T10:12:23.000Z</time>
      </trkpt>
      <trkpt lat="37.079286" lon="-79.615082">
        <ele>249.32323</ele>
        <time>2025-09-05T10:12:25.000Z</time>
      </trkpt>
      <trkpt lat="37.0793" lon="-79.615247">
        <ele>249.259746</ele>
        <time>2025-09-05T10:12:26.000Z</time>
      </trkpt>
      <trkpt lat="37.079273" lon="-79.615292">
        <ele>249.241088</ele>
        <time>2025-09-05T10:12:26.000Z</time>
      </trkpt>
      <trkpt lat="37.079275" lon="-79.615306">
        <ele>249.23635</ele>
        <time>2025-09-05T10:12:26.000Z</time>
      </trkpt>
      <trkpt lat="37.079284" lon="-79.61531">
        <ele>249.23353</ele>
        <time>2025-09-05T10:12:26.000Z</time>
      </trkpt>
      <trkpt lat="37.079267" lon="-79.615306">
        <ele>249.230843</ele>
        <time>2025-09-05T10:12:26.000Z</time>
      </trkpt>
      <trkpt lat="37.079269" lon="-79.615306">
        <ele>249.23024</ele>
        <time>2025-09-05T10:12:26.000Z</time>
      </trkpt>
      <trkpt lat="37.079279" lon="-79.615319">
        <ele>249.229009</ele>
        <time>2025-09-05T10:12:26.000Z</time>
      </trkpt>
      <trkpt lat="37.079265" lon="-79.615314">
        <ele>249.227437</ele>
        <time>2025-09-05T10:12:26.000Z</time>
      </trkpt>
      <trkpt lat="37.079269" lon="-79.615321">
        <ele>249.22629</ele>
        <time>2025-09-05T10:12:26.000Z</time>
      </trkpt>
      <trkpt lat="37.079245" lon="-79.615399">
        <ele>249.196925</ele>
        <time>2025-09-05T10:12:27.000Z</time>
      </trkpt>
      <trkpt lat="37.079178" lon="-79.615509">
        <ele>249.146707</ele>
        <time>2025-09-05T10:12:28.000Z</time>
      </trkpt>
      <trkpt lat="37.079097" lon="-79.615574">
        <ele>249.096334</ele>
        <time>2025-09-05T10:12:29.000Z</time>
      </trkpt>
      <trkpt lat="37.079038" lon="-79.615603">
        <ele>249.064686</ele>
        <time>2025-09-05T10:12:30.000Z</time>
      </trkpt>
      <trkpt lat="37.078912" lon="-79.615578">
        <ele>249.00814</ele>
        <time>2025-09-05T10:12:31.000Z</time>
      </trkpt>
      <trkpt lat="37.078805" lon="-79.615465">
        <ele>248.945749</ele>
        <time>2025-09-05T10:12:33.000Z</time>
      </trkpt>
      <trkpt lat="37.078744" lon="-79.615306">
        <ele>248.880095</ele>
        <time>2025-09-05T10:12:35.000Z</time>
      </trkpt>
      <trkpt lat="37.078749" lon="-79.61528">
        <ele>248.868383</ele>
        <time>2025-09-05T10:12:35.000Z</time>
      </trkpt>
      <trkpt lat="37.078743" lon="-79.615269">
        <ele>248.862717</ele>
        <time>2025-09-05T10:12:35.000Z</time>
      </trkpt>
      <trkpt lat="37.078757" lon="-79.615263">
        <ele>248.860449</ele>
        <time>2025-09-05T10:12:35.000Z</time>
      </trkpt>
      <trkpt lat="37.078758" lon="-79.615255">
        <ele>248.85855</ele>
        <time>2025-09-05T10:12:35.000Z</time>
      </trkpt>
      <trkpt lat="37.078755" lon="-79.615259">
        <ele>248.85666</ele>
        <time>2025-09-05T10:12:35.000Z</time>
      </trkpt>
      <trkpt lat="37.078743" lon="-79.615254">
        <ele>248.855908</ele>
        <time>2025-09-05T10:12:35.000Z</time>
      </trkpt>
      <trkpt lat="37.078746" lon="-79.615248">
        <ele>248.853257</ele>
        <time>2025-09-05T10:12:35.000Z</time>
      </trkpt>
      <trkpt lat="37.07876" lon="-79.615245">
        <ele>248.851757</ele>
        <time>2025-09-05T10:12:35.000Z</time>
      </trkpt>
      <trkpt lat="37.078748" lon="-79.615025">
        <ele>248.770122</ele>
        <time>2025-09-05T10:12:37.000Z</time>
      </trkpt>
      <trkpt lat="37.078825" lon="-79.61417">
        <ele>248.373748</ele>
        <time>2025-09-05T10:12:45.000Z</time>
      </trkpt>
      <trkpt lat="37.07883" lon="-79.613715">
        <ele>248.066876</ele>
        <time>2025-09-05T10:12:49.000Z</time>
      </trkpt>
      <trkpt lat="37.078693" lon="-79.61337">
        <ele>247.808607</ele>
        <time>2025-09-05T10:12:52.000Z</time>
      </trkpt>
      <trkpt lat="37.078579" lon="-79.613029">
        <ele>247.566919</ele>
        <time>2025-09-05T10:12:55.000Z</time>
      </trkpt>
      <trkpt lat="37.078485" lon="-79.612621">
        <ele>247.283276</ele>
        <time>2025-09-05T10:12:59.000Z</time>
      </trkpt>
      <trkpt lat="37.078487" lon="-79.612442">
        <ele>247.153689</ele>
        <time>2025-09-05T10:13:01.000Z</time>
      </trkpt>
      <trkpt lat="37.078526" lon="-79.612259">
        <ele>247.024737</ele>
        <time>2025-09-05T10:13:03.000Z</time>
      </trkpt>
      <trkpt lat="37.078591" lon="-79.612142">
        <ele>246.984268</ele>
        <time>2025-09-05T10:13:04.000Z</time>
      </trkpt>
      <trkpt lat="37.078667" lon="-79.612052">
        <ele>246.943505</ele>
        <time>2025-09-05T10:13:05.000Z</time>
      </trkpt>
      <trkpt lat="37.078782" lon="-79.611994">
        <ele>246.89248</ele>
        <time>2025-09-05T10:13:06.000Z</time>
      </trkpt>
      <trkpt lat="37.079175" lon="-79.61185">
        <ele>246.73329</ele>
        <time>2025-09-05T10:13:11.000Z</time>
      </trkpt>
      <trkpt lat="37.079361" lon="-79.611685">
        <ele>246.64344</ele>
        <time>2025-09-05T10:13:14.000Z</time>
      </trkpt>
      <trkpt lat="37.079454" lon="-79.611522">
        <ele>246.581459</ele>
        <time>2025-09-05T10:13:16.000Z</time>
      </trkpt>
      <trkpt lat="37.07953" lon="-79.611188">
        <ele>246.471202</ele>
        <time>2025-09-05T10:13:19.000Z</time>
      </trkpt>
      <trkpt lat="37.079651" lon="-79.610889">
        <ele>246.368376</ele>
        <time>2025-09-05T10:13:22.000Z</time>
      </trkpt>
      <trkpt lat="37.079727" lon="-79.610764">
        <ele>246.34112</ele>
        <time>2025-09-05T10:13:23.000Z</time>
      </trkpt>
      <trkpt lat="37.079987" lon="-79.610513">
        <ele>247.284923</ele>
        <time>2025-09-05T10:13:27.000Z</time>
      </trkpt>
      <trkpt lat="37.080022" lon="-79.610442">
        <ele>247.474918</ele>
        <time>2025-09-05T10:13:28.000Z</time>
      </trkpt>
      <trkpt lat="37.080057" lon="-79.610267">
        <ele>247.855715</ele>
        <time>2025-09-05T10:13:30.000Z</time>
      </trkpt>
      <trkpt lat="37.08002" lon="-79.609843">
        <ele>248.859216</ele>
        <time>2025-09-05T10:13:34.000Z</time>
      </trkpt>
      <trkpt lat="37.080036" lon="-79.609658">
        <ele>249.274508</ele>
        <time>2025-09-05T10:13:36.000Z</time>
      </trkpt>
      <trkpt lat="37.080096" lon="-79.609446">
        <ele>249.791812</ele>
        <time>2025-09-05T10:13:38.000Z</time>
      </trkpt>
      <trkpt lat="37.080137" lon="-79.60935">
        <ele>250.054362</ele>
        <time>2025-09-05T10:13:39.000Z</time>
      </trkpt>
      <trkpt lat="37.080365" lon="-79.609085">
        <ele>250.907874</ele>
        <time>2025-09-05T10:13:42.000Z</time>
      </trkpt>
      <trkpt lat="37.08093" lon="-79.608523">
        <ele>253.601939</ele>
        <time>2025-09-05T10:13:50.000Z</time>
      </trkpt>
      <trkpt lat="37.081302" lon="-79.608204">
        <ele>255.394114</ele>
        <time>2025-09-05T10:13:55.000Z</time>
      </trkpt>
      <trkpt lat="37.081581" lon="-79.608019">
        <ele>256.640338</ele>
        <time>2025-09-05T10:13:59.000Z</time>
      </trkpt>
      <trkpt lat="37.082152" lon="-79.607795">
        <ele>258.64897</ele>
        <time>2025-09-05T10:14:06.000Z</time>
      </trkpt>
      <trkpt lat="37.082436" lon="-79.607632">
        <ele>258.593252</ele>
        <time>2025-09-05T10:14:09.000Z</time>
      </trkpt>
      <trkpt lat="37.082609" lon="-79.607471">
        <ele>258.557531</ele>
        <time>2025-09-05T10:14:11.000Z</time>
      </trkpt>
      <trkpt lat="37.082819" lon="-79.60714">
        <ele>258.501432</ele>
        <time>2025-09-05T10:14:15.000Z</time>
      </trkpt>
      <trkpt lat="37.082893" lon="-79.606947">
        <ele>258.47277</ele>
        <time>2025-09-05T10:14:17.000Z</time>
      </trkpt>
      <trkpt lat="37.082958" lon="-79.606616">
        <ele>258.425044</ele>
        <time>2025-09-05T10:14:20.000Z</time>
      </trkpt>
      <trkpt lat="37.083114" lon="-79.604698">
        <ele>259.165541</ele>
        <time>2025-09-05T10:14:37.000Z</time>
      </trkpt>
      <trkpt lat="37.083199" lon="-79.604422">
        <ele>259.32997</ele>
        <time>2025-09-05T10:14:40.000Z</time>
      </trkpt>
      <trkpt lat="37.083376" lon="-79.604115">
        <ele>259.54454</ele>
        <time>2025-09-05T10:14:43.000Z</time>
      </trkpt>
      <trkpt lat="37.083602" lon="-79.603834">
        <ele>259.585308</ele>
        <time>2025-09-05T10:14:47.000Z</time>
      </trkpt>
      <trkpt lat="37.083918" lon="-79.603642">
        <ele>259.525867</ele>
        <time>2025-09-05T10:14:51.000Z</time>
      </trkpt>
      <trkpt lat="37.085185" lon="-79.603175">
        <ele>259.361114</ele>
        <time>2025-09-05T10:15:06.000Z</time>
      </trkpt>
      <trkpt lat="37.085433" lon="-79.602978">
        <ele>259.534113</ele>
        <time>2025-09-05T10:15:09.000Z</time>
      </trkpt>
      <trkpt lat="37.085661" lon="-79.602719">
        <ele>259.711726</ele>
        <time>2025-09-05T10:15:12.000Z</time>
      </trkpt>
      <trkpt lat="37.085823" lon="-79.602443">
        <ele>259.865676</ele>
        <time>2025-09-05T10:15:15.000Z</time>
      </trkpt>
      <trkpt lat="37.086009" lon="-79.602019">
        <ele>260.092575</ele>
        <time>2025-09-05T10:15:19.000Z</time>
      </trkpt>
      <trkpt lat="37.086769" lon="-79.599711">
        <ele>263.155769</ele>
        <time>2025-09-05T10:15:41.000Z</time>
      </trkpt>
      <trkpt lat="37.0869" lon="-79.599369">
        <ele>263.745192</ele>
        <time>2025-09-05T10:15:44.000Z</time>
      </trkpt>
      <trkpt lat="37.086977" lon="-79.599264">
        <ele>264.020811</ele>
        <time>2025-09-05T10:15:45.000Z</time>
      </trkpt>
      <trkpt lat="37.087298" lon="-79.598932">
        <ele>265.041257</ele>
        <time>2025-09-05T10:15:50.000Z</time>
      </trkpt>
      <trkpt lat="37.087764" lon="-79.59861">
        <ele>266.372513</ele>
        <time>2025-09-05T10:15:56.000Z</time>
      </trkpt>
      <trkpt lat="37.088273" lon="-79.598219">
        <ele>267.819238</ele>
        <time>2025-09-05T10:16:03.000Z</time>
      </trkpt>
      <trkpt lat="37.088602" lon="-79.597894">
        <ele>269.318916</ele>
        <time>2025-09-05T10:16:08.000Z</time>
      </trkpt>
      <trkpt lat="37.089129" lon="-79.597129">
        <ele>272.487539</ele>
        <time>2025-09-05T10:16:17.000Z</time>
      </trkpt>
      <trkpt lat="37.089564" lon="-79.596375">
        <ele>275.248385</ele>
        <time>2025-09-05T10:16:25.000Z</time>
      </trkpt>
      <trkpt lat="37.089749" lon="-79.596072">
        <ele>275.697155</ele>
        <time>2025-09-05T10:16:28.000Z</time>
      </trkpt>
      <trkpt lat="37.089825" lon="-79.595922">
        <ele>275.899779</ele>
        <time>2025-09-05T10:16:30.000Z</time>
      </trkpt>
      <trkpt lat="37.090174" lon="-79.595296">
        <ele>276.806091</ele>
        <time>2025-09-05T10:16:37.000Z</time>
      </trkpt>
      <trkpt lat="37.091091" lon="-79.593636">
        <ele>277.329495</ele>
        <time>2025-09-05T10:16:55.000Z</time>
      </trkpt>
      <trkpt lat="37.091415" lon="-79.59315">
        <ele>277.071283</ele>
        <time>2025-09-05T10:17:01.000Z</time>
      </trkpt>
      <trkpt lat="37.091519" lon="-79.59344">
        <ele>276.941781</ele>
        <time>2025-09-05T10:17:04.000Z</time>
      </trkpt>
      <trkpt lat="37.092189" lon="-79.595269">
        <ele>273.848691</ele>
        <time>2025-09-05T10:17:22.000Z</time>
      </trkpt>
      <trkpt lat="37.093354" lon="-79.598672">
        <ele>266.471847</ele>
        <time>2025-09-05T10:17:55.000Z</time>
      </trkpt>
      <trkpt lat="37.093998" lon="-79.600375">
        <ele>261.666688</ele>
        <time>2025-09-05T10:18:12.000Z</time>
      </trkpt>
      <trkpt lat="37.094097" lon="-79.60068">
        <ele>260.944149</ele>
        <time>2025-09-05T10:18:15.000Z</time>
      </trkpt>
      <trkpt lat="37.094399" lon="-79.601497">
        <ele>258.873426</ele>
        <time>2025-09-05T10:18:23.000Z</time>
      </trkpt>
      <trkpt lat="37.094618" lon="-79.601903">
        <ele>257.906993</ele>
        <time>2025-09-05T10:18:27.000Z</time>
      </trkpt>
      <trkpt lat="37.094928" lon="-79.602211">
        <ele>257.268107</ele>
        <time>2025-09-05T10:18:31.000Z</time>
      </trkpt>
      <trkpt lat="37.095887" lon="-79.602944">
        <ele>255.510371</ele>
        <time>2025-09-05T10:18:43.000Z</time>
      </trkpt>
      <trkpt lat="37.096062" lon="-79.603135">
        <ele>255.094625</ele>
        <time>2025-09-05T10:18:46.000Z</time>
      </trkpt>
      <trkpt lat="37.096961" lon="-79.604262">
        <ele>252.704747</ele>
        <time>2025-09-05T10:19:00.000Z</time>
      </trkpt>
      <trkpt lat="37.09707" lon="-79.604447">
        <ele>252.362648</ele>
        <time>2025-09-05T10:19:02.000Z</time>
      </trkpt>
      <trkpt lat="37.097223" lon="-79.604785">
        <ele>251.866334</ele>
        <time>2025-09-05T10:19:05.000Z</time>
      </trkpt>
      <trkpt lat="37.097307" lon="-79.605119">
        <ele>251.781669</ele>
        <time>2025-09-05T10:19:08.000Z</time>
      </trkpt>
      <trkpt lat="37.097338" lon="-79.605479">
        <ele>251.69207</ele>
        <time>2025-09-05T10:19:11.000Z</time>
      </trkpt>
      <trkpt lat="37.097203" lon="-79.607923">
        <ele>252.207009</ele>
        <time>2025-09-05T10:19:33.000Z</time>
      </trkpt>
      <trkpt lat="37.097111" lon="-79.608395">
        <ele>252.633936</ele>
        <time>2025-09-05T10:19:37.000Z</time>
      </trkpt>
      <trkpt lat="37.097025" lon="-79.608615">
        <ele>252.85558</ele>
        <time>2025-09-05T10:19:39.000Z</time>
      </trkpt>
      <trkpt lat="37.096857" lon="-79.608852">
        <ele>253.127017</ele>
        <time>2025-09-05T10:19:42.000Z</time>
      </trkpt>
      <trkpt lat="37.0967" lon="-79.609018">
        <ele>253.335935</ele>
        <time>2025-09-05T10:19:44.000Z</time>
      </trkpt>
      <trkpt lat="37.096663" lon="-79.609043">
        <ele>253.359873</ele>
        <time>2025-09-05T10:19:44.000Z</time>
      </trkpt>
      <trkpt lat="37.096419" lon="-79.609228">
        <ele>253.540739</ele>
        <time>2025-09-05T10:19:47.000Z</time>
      </trkpt>
      <trkpt lat="37.096153" lon="-79.609401">
        <ele>253.726249</ele>
        <time>2025-09-05T10:19:50.000Z</time>
      </trkpt>
      <trkpt lat="37.095996" lon="-79.609488">
        <ele>253.822175</ele>
        <time>2025-09-05T10:19:52.000Z</time>
      </trkpt>
      <trkpt lat="37.095784" lon="-79.609864">
        <ele>254.045633</ele>
        <time>2025-09-05T10:19:56.000Z</time>
      </trkpt>
      <trkpt lat="37.095733" lon="-79.609921">
        <ele>254.086643</ele>
        <time>2025-09-05T10:19:57.000Z</time>
      </trkpt>
      <trkpt lat="37.095684" lon="-79.609931">
        <ele>254.125062</ele>
        <time>2025-09-05T10:19:58.000Z</time>
      </trkpt>
      <trkpt lat="37.095634" lon="-79.610054">
        <ele>254.188056</ele>
        <time>2025-09-05T10:19:59.000Z</time>
      </trkpt>
      <trkpt lat="37.095586" lon="-79.610092">
        <ele>254.219587</ele>
        <time>2025-09-05T10:20:00.000Z</time>
      </trkpt>
      <trkpt lat="37.095099" lon="-79.610376">
        <ele>254.360501</ele>
        <time>2025-09-05T10:20:06.000Z</time>
      </trkpt>
      <trkpt lat="37.095084" lon="-79.610384">
        <ele>254.357925</ele>
        <time>2025-09-05T10:20:06.000Z</time>
      </trkpt>
      <trkpt lat="37.095067" lon="-79.610384">
        <ele>254.355364</ele>
        <time>2025-09-05T10:20:06.000Z</time>
      </trkpt>
      <trkpt lat="37.095071" lon="-79.610374">
        <ele>254.354176</ele>
        <time>2025-09-05T10:20:06.000Z</time>
      </trkpt>
      <trkpt lat="37.095064" lon="-79.610389">
        <ele>254.35395</ele>
        <time>2025-09-05T10:20:06.000Z</time>
      </trkpt>
      <trkpt lat="37.095066" lon="-79.610374">
        <ele>254.353487</ele>
        <time>2025-09-05T10:20:06.000Z</time>
      </trkpt>
      <trkpt lat="37.095053" lon="-79.610385">
        <ele>254.352791</ele>
        <time>2025-09-05T10:20:06.000Z</time>
      </trkpt>
      <trkpt lat="37.095066" lon="-79.610377">
        <ele>254.352064</ele>
        <time>2025-09-05T10:20:06.000Z</time>
      </trkpt>
      <trkpt lat="37.095033" lon="-79.610391">
        <ele>254.347391</ele>
        <time>2025-09-05T10:20:06.000Z</time>
      </trkpt>
      <trkpt lat="37.095004" lon="-79.610372">
        <ele>254.339913</ele>
        <time>2025-09-05T10:20:06.000Z</time>
      </trkpt>
      <trkpt lat="37.094979" lon="-79.610335">
        <ele>254.330054</ele>
        <time>2025-09-05T10:20:06.000Z</time>
      </trkpt>
      <trkpt lat="37.094913" lon="-79.610188">
        <ele>254.299271</ele>
        <time>2025-09-05T10:20:07.000Z</time>
      </trkpt>
      <trkpt lat="37.095426" lon="-79.609881">
        <ele>254.169075</ele>
        <time>2025-09-05T10:20:13.000Z</time>
      </trkpt>
      <trkpt lat="37.09541" lon="-79.609893">
        <ele>254.168842</ele>
        <time>2025-09-05T10:20:13.000Z</time>
      </trkpt>
      <trkpt lat="37.095413" lon="-79.609887">
        <ele>254.168243</ele>
        <time>2025-09-05T10:20:13.000Z</time>
      </trkpt>
      <trkpt lat="37.09543" lon="-79.609874">
        <ele>254.165961</ele>
        <time>2025-09-05T10:20:13.000Z</time>
      </trkpt>
      <trkpt lat="37.095428" lon="-79.609885">
        <ele>254.165669</ele>
        <time>2025-09-05T10:20:13.000Z</time>
      </trkpt>
      <trkpt lat="37.095436" lon="-79.609886">
        <ele>254.165432</ele>
        <time>2025-09-05T10:20:13.000Z</time>
      </trkpt>
      <trkpt lat="37.095443" lon="-79.609869">
        <ele>254.16444</ele>
        <time>2025-09-05T10:20:13.000Z</time>
      </trkpt>
      <trkpt lat="37.095443" lon="-79.609874">
        <ele>254.164138</ele>
        <time>2025-09-05T10:20:13.000Z</time>
      </trkpt>
      <trkpt lat="37.095446" lon="-79.609875">
        <ele>254.16285</ele>
        <time>2025-09-05T10:20:13.000Z</time>
      </trkpt>
      <trkpt lat="37.095455" lon="-79.609875">
        <ele>254.161839</ele>
        <time>2025-09-05T10:20:13.000Z</time>
      </trkpt>
      <trkpt lat="37.095479" lon="-79.609856">
        <ele>254.151249</ele>
        <time>2025-09-05T10:20:13.000Z</time>
      </trkpt>
      <trkpt lat="37.095515" lon="-79.609832">
        <ele>254.142218</ele>
        <time>2025-09-05T10:20:13.000Z</time>
      </trkpt>
      <trkpt lat="37.095595" lon="-79.609826">
        <ele>254.12384</ele>
        <time>2025-09-05T10:20:14.000Z</time>
      </trkpt>
      <trkpt lat="37.095611" lon="-79.609772">
        <ele>254.114942</ele>
        <time>2025-09-05T10:20:15.000Z</time>
      </trkpt>
      <trkpt lat="37.095685" lon="-79.609695">
        <ele>254.093299</ele>
        <time>2025-09-05T10:20:16.000Z</time>
      </trkpt>
      <trkpt lat="37.096" lon="-79.609498">
        <ele>254.009235</ele>
        <time>2025-09-05T10:20:20.000Z</time>
      </trkpt>
      <trkpt lat="37.096137" lon="-79.6094">
        <ele>253.894259</ele>
        <time>2025-09-05T10:20:22.000Z</time>
      </trkpt>
      <trkpt lat="37.096419" lon="-79.609212">
        <ele>253.569969</ele>
        <time>2025-09-05T10:20:26.000Z</time>
      </trkpt>
      <trkpt lat="37.096675" lon="-79.609032">
        <ele>253.253782</ele>
        <time>2025-09-05T10:20:29.000Z</time>
      </trkpt>
      <trkpt lat="37.096699" lon="-79.609012">
        <ele>253.211965</ele>
        <time>2025-09-05T10:20:29.000Z</time>
      </trkpt>
      <trkpt lat="37.096863" lon="-79.60885">
        <ele>252.998993</ele>
        <time>2025-09-05T10:20:31.000Z</time>
      </trkpt>
      <trkpt lat="37.09703" lon="-79.608623">
        <ele>252.737617</ele>
        <time>2025-09-05T10:20:34.000Z</time>
      </trkpt>
      <trkpt lat="37.097114" lon="-79.608385">
        <ele>252.524187</ele>
        <time>2025-09-05T10:20:36.000Z</time>
      </trkpt>
      <trkpt lat="37.097219" lon="-79.607918">
        <ele>252.113089</ele>
        <time>2025-09-05T10:20:40.000Z</time>
      </trkpt>
      <trkpt lat="37.097337" lon="-79.605476">
        <ele>251.233062</ele>
        <time>2025-09-05T10:21:02.000Z</time>
      </trkpt>
      <trkpt lat="37.097304" lon="-79.605102">
        <ele>251.716176</ele>
        <time>2025-09-05T10:21:05.000Z</time>
      </trkpt>
      <trkpt lat="37.097222" lon="-79.604772">
        <ele>252.172657</ele>
        <time>2025-09-05T10:21:08.000Z</time>
      </trkpt>
      <trkpt lat="37.097064" lon="-79.604438">
        <ele>252.681444</ele>
        <time>2025-09-05T10:21:11.000Z</time>
      </trkpt>
      <trkpt lat="37.096956" lon="-79.604251">
        <ele>252.977718</ele>
        <time>2025-09-05T10:21:13.000Z</time>
      </trkpt>
      <trkpt lat="37.096071" lon="-79.603133">
        <ele>255.057209</ele>
        <time>2025-09-05T10:21:27.000Z</time>
      </trkpt>
      <trkpt lat="37.095885" lon="-79.602934">
        <ele>255.459115</ele>
        <time>2025-09-05T10:21:30.000Z</time>
      </trkpt>
      <trkpt lat="37.094934" lon="-79.602214">
        <ele>257.357694</ele>
        <time>2025-09-05T10:21:42.000Z</time>
      </trkpt>
      <trkpt lat="37.094626" lon="-79.601899">
        <ele>258.158574</ele>
        <time>2025-09-05T10:21:46.000Z</time>
      </trkpt>
      <trkpt lat="37.094385" lon="-79.601498">
        <ele>258.950316</ele>
        <time>2025-09-05T10:21:50.000Z</time>
      </trkpt>
      <trkpt lat="37.094096" lon="-79.600674">
        <ele>260.377202</ele>
        <time>2025-09-05T10:21:58.000Z</time>
      </trkpt>
      <trkpt lat="37.094003" lon="-79.600385">
        <ele>261.212092</ele>
        <time>2025-09-05T10:22:01.000Z</time>
      </trkpt>
      <trkpt lat="37.093355" lon="-79.598669">
        <ele>266.92447</ele>
        <time>2025-09-05T10:22:18.000Z</time>
      </trkpt>
      <trkpt lat="37.09218" lon="-79.595267">
        <ele>273.873425</ele>
        <time>2025-09-05T10:22:51.000Z</time>
      </trkpt>
      <trkpt lat="37.091525" lon="-79.593445">
        <ele>276.601755</ele>
        <time>2025-09-05T10:23:09.000Z</time>
      </trkpt>
      <trkpt lat="37.091409" lon="-79.593154">
        <ele>276.932334</ele>
        <time>2025-09-05T10:23:12.000Z</time>
      </trkpt>
      <trkpt lat="37.0911" lon="-79.593634">
        <ele>277.591483</ele>
        <time>2025-09-05T10:23:17.000Z</time>
      </trkpt>
      <trkpt lat="37.090166" lon="-79.595298">
        <ele>277.11261</ele>
        <time>2025-09-05T10:23:35.000Z</time>
      </trkpt>
      <trkpt lat="37.089822" lon="-79.595928">
        <ele>276.132071</ele>
        <time>2025-09-05T10:23:42.000Z</time>
      </trkpt>
      <trkpt lat="37.08974" lon="-79.596067">
        <ele>275.69468</ele>
        <time>2025-09-05T10:23:44.000Z</time>
      </trkpt>
      <trkpt lat="37.089567" lon="-79.596371">
        <ele>274.725968</ele>
        <time>2025-09-05T10:23:47.000Z</time>
      </trkpt>
      <trkpt lat="37.089124" lon="-79.597138">
        <ele>272.341215</ele>
        <time>2025-09-05T10:23:55.000Z</time>
      </trkpt>
      <trkpt lat="37.088587" lon="-79.597882">
        <ele>269.671101</ele>
        <time>2025-09-05T10:24:04.000Z</time>
      </trkpt>
      <trkpt lat="37.088262" lon="-79.598211">
        <ele>268.245359</ele>
        <time>2025-09-05T10:24:09.000Z</time>
      </trkpt>
      <trkpt lat="37.08776" lon="-79.59861">
        <ele>266.230241</ele>
        <time>2025-09-05T10:24:16.000Z</time>
      </trkpt>
      <trkpt lat="37.087301" lon="-79.598932">
        <ele>264.68521</ele>
        <time>2025-09-05T10:24:22.000Z</time>
      </trkpt>
      <trkpt lat="37.086971" lon="-79.599267">
        <ele>263.934814</ele>
        <time>2025-09-05T10:24:27.000Z</time>
      </trkpt>
      <trkpt lat="37.086898" lon="-79.599372">
        <ele>263.732136</ele>
        <time>2025-09-05T10:24:28.000Z</time>
      </trkpt>
      <trkpt lat="37.086756" lon="-79.599721">
        <ele>263.176076</ele>
        <time>2025-09-05T10:24:31.000Z</time>
      </trkpt>
      <trkpt lat="37.086014" lon="-79.602027">
        <ele>260.07451</ele>
        <time>2025-09-05T10:24:53.000Z</time>
      </trkpt>
      <trkpt lat="37.085828" lon="-79.602442">
        <ele>259.524698</ele>
        <time>2025-09-05T10:24:57.000Z</time>
      </trkpt>
      <trkpt lat="37.085661" lon="-79.602708">
        <ele>259.272474</ele>
        <time>2025-09-05T10:25:00.000Z</time>
      </trkpt>
      <trkpt lat="37.085436" lon="-79.602975">
        <ele>259.356304</ele>
        <time>2025-09-05T10:25:03.000Z</time>
      </trkpt>
      <trkpt lat="37.085181" lon="-79.603167">
        <ele>259.437957</ele>
        <time>2025-09-05T10:25:06.000Z</time>
      </trkpt>
      <trkpt lat="37.083922" lon="-79.603632">
        <ele>259.642663</ele>
        <time>2025-09-05T10:25:21.000Z</time>
      </trkpt>
      <trkpt lat="37.083617" lon="-79.603833">
        <ele>259.468142</ele>
        <time>2025-09-05T10:25:25.000Z</time>
      </trkpt>
      <trkpt lat="37.083362" lon="-79.604109">
        <ele>259.300001</ele>
        <time>2025-09-05T10:25:29.000Z</time>
      </trkpt>
      <trkpt lat="37.083194" lon="-79.604427">
        <ele>259.144159</ele>
        <time>2025-09-05T10:25:32.000Z</time>
      </trkpt>
      <trkpt lat="37.083104" lon="-79.604701">
        <ele>259.024725</ele>
        <time>2025-09-05T10:25:35.000Z</time>
      </trkpt>
      <trkpt lat="37.082957" lon="-79.60661">
        <ele>258.761906</ele>
        <time>2025-09-05T10:25:52.000Z</time>
      </trkpt>
      <trkpt lat="37.082884" lon="-79.606953">
        <ele>258.745479</ele>
        <time>2025-09-05T10:25:55.000Z</time>
      </trkpt>
      <trkpt lat="37.082818" lon="-79.607151">
        <ele>258.735613</ele>
        <time>2025-09-05T10:25:57.000Z</time>
      </trkpt>
      <trkpt lat="37.082604" lon="-79.607485">
        <ele>258.479765</ele>
        <time>2025-09-05T10:26:01.000Z</time>
      </trkpt>
      <trkpt lat="37.082454" lon="-79.607644">
        <ele>258.087531</ele>
        <time>2025-09-05T10:26:03.000Z</time>
      </trkpt>
      <trkpt lat="37.082142" lon="-79.607807">
        <ele>257.475881</ele>
        <time>2025-09-05T10:26:07.000Z</time>
      </trkpt>
      <trkpt lat="37.081585" lon="-79.608034">
        <ele>256.37411</ele>
        <time>2025-09-05T10:26:14.000Z</time>
      </trkpt>
      <trkpt lat="37.081291" lon="-79.608206">
        <ele>255.797721</ele>
        <time>2025-09-05T10:26:18.000Z</time>
      </trkpt>
      <trkpt lat="37.08093" lon="-79.608525">
        <ele>254.405272</ele>
        <time>2025-09-05T10:26:23.000Z</time>
      </trkpt>
      <trkpt lat="37.080357" lon="-79.609071">
        <ele>251.24468</ele>
        <time>2025-09-05T10:26:31.000Z</time>
      </trkpt>
      <trkpt lat="37.08015" lon="-79.609341">
        <ele>249.943732</ele>
        <time>2025-09-05T10:26:34.000Z</time>
      </trkpt>
      <trkpt lat="37.080101" lon="-79.609432">
        <ele>249.543527</ele>
        <time>2025-09-05T10:26:35.000Z</time>
      </trkpt>
      <trkpt lat="37.080026" lon="-79.609647">
        <ele>248.755015</ele>
        <time>2025-09-05T10:26:37.000Z</time>
      </trkpt>
      <trkpt lat="37.080032" lon="-79.609836">
        <ele>248.122028</ele>
        <time>2025-09-05T10:26:39.000Z</time>
      </trkpt>
      <trkpt lat="37.080053" lon="-79.61027">
        <ele>247.391999</ele>
        <time>2025-09-05T10:26:43.000Z</time>
      </trkpt>
      <trkpt lat="37.080029" lon="-79.610436">
        <ele>247.288692</ele>
        <time>2025-09-05T10:26:44.000Z</time>
      </trkpt>
      <trkpt lat="37.079983" lon="-79.610504">
        <ele>247.237171</ele>
        <time>2025-09-05T10:26:45.000Z</time>
      </trkpt>
      <trkpt lat="37.079731" lon="-79.610768">
        <ele>246.981161</ele>
        <time>2025-09-05T10:26:49.000Z</time>
      </trkpt>
      <trkpt lat="37.079652" lon="-79.610905">
        <ele>246.877287</ele>
        <time>2025-09-05T10:26:50.000Z</time>
      </trkpt>
      <trkpt lat="37.079537" lon="-79.611201">
        <ele>246.674546</ele>
        <time>2025-09-05T10:26:53.000Z</time>
      </trkpt>
      <trkpt lat="37.079443" lon="-79.611525">
        <ele>246.457119</ele>
        <time>2025-09-05T10:26:56.000Z</time>
      </trkpt>
      <trkpt lat="37.079355" lon="-79.611691">
        <ele>246.334883</ele>
        <time>2025-09-05T10:26:58.000Z</time>
      </trkpt>
      <trkpt lat="37.079166" lon="-79.611848">
        <ele>246.201401</ele>
        <time>2025-09-05T10:27:01.000Z</time>
      </trkpt>
      <trkpt lat="37.078777" lon="-79.611989">
        <ele>246.786627</ele>
        <time>2025-09-05T10:27:06.000Z</time>
      </trkpt>
      <trkpt lat="37.078668" lon="-79.612058">
        <ele>246.974204</ele>
        <time>2025-09-05T10:27:07.000Z</time>
      </trkpt>
      <trkpt lat="37.078593" lon="-79.612146">
        <ele>247.124019</ele>
        <time>2025-09-05T10:27:08.000Z</time>
      </trkpt>
      <trkpt lat="37.078524" lon="-79.612251">
        <ele>247.272829</ele>
        <time>2025-09-05T10:27:09.000Z</time>
      </trkpt>
      <trkpt lat="37.078485" lon="-79.612433">
        <ele>247.493953</ele>
        <time>2025-09-05T10:27:11.000Z</time>
      </trkpt>
      <trkpt lat="37.078471" lon="-79.612627">
        <ele>247.71615</ele>
        <time>2025-09-05T10:27:13.000Z</time>
      </trkpt>
      <trkpt lat="37.078585" lon="-79.613024">
        <ele>248.202445</ele>
        <time>2025-09-05T10:27:17.000Z</time>
      </trkpt>
      <trkpt lat="37.078686" lon="-79.613366">
        <ele>248.616813</ele>
        <time>2025-09-05T10:27:20.000Z</time>
      </trkpt>
      <trkpt lat="37.078821" lon="-79.613709">
        <ele>248.81272</ele>
        <time>2025-09-05T10:27:23.000Z</time>
      </trkpt>
      <trkpt lat="37.079077" lon="-79.614122">
        <ele>248.902278</ele>
        <time>2025-09-05T10:27:28.000Z</time>
      </trkpt>
      <trkpt lat="37.079212" lon="-79.614454">
        <ele>248.969517</ele>
        <time>2025-09-05T10:27:31.000Z</time>
      </trkpt>
      <trkpt lat="37.079284" lon="-79.614818">
        <ele>249.035802</ele>
        <time>2025-09-05T10:27:34.000Z</time>
      </trkpt>
      <trkpt lat="37.079289" lon="-79.615073">
        <ele>249.07934</ele>
        <time>2025-09-05T10:27:36.000Z</time>
      </trkpt>
      <trkpt lat="37.079297" lon="-79.61524">
        <ele>249.108773</ele>
        <time>2025-09-05T10:27:37.000Z</time>
      </trkpt>
      <trkpt lat="37.079289" lon="-79.615294">
        <ele>249.117425</ele>
        <time>2025-09-05T10:27:37.000Z</time>
      </trkpt>
      <trkpt lat="37.07928" lon="-79.615301">
        <ele>249.11962</ele>
        <time>2025-09-05T10:27:37.000Z</time>
      </trkpt>
      <trkpt lat="37.07927" lon="-79.615314">
        <ele>249.120916</ele>
        <time>2025-09-05T10:27:37.000Z</time>
      </trkpt>
      <trkpt lat="37.079275" lon="-79.615316">
        <ele>249.122172</ele>
        <time>2025-09-05T10:27:37.000Z</time>
      </trkpt>
      <trkpt lat="37.079281" lon="-79.615313">
        <ele>249.12245</ele>
        <time>2025-09-05T10:27:37.000Z</time>
      </trkpt>
      <trkpt lat="37.079267" lon="-79.615316">
        <ele>249.123028</ele>
        <time>2025-09-05T10:27:37.000Z</time>
      </trkpt>
      <trkpt lat="37.079267" lon="-79.615321">
        <ele>249.123754</ele>
        <time>2025-09-05T10:27:37.000Z</time>
      </trkpt>
      <trkpt lat="37.079268" lon="-79.615334">
        <ele>249.124288</ele>
        <time>2025-09-05T10:27:37.000Z</time>
      </trkpt>
      <trkpt lat="37.079244" lon="-79.615401">
        <ele>249.137892</ele>
        <time>2025-09-05T10:27:38.000Z</time>
      </trkpt>
      <trkpt lat="37.079189" lon="-79.615495">
        <ele>249.161188</ele>
        <time>2025-09-05T10:27:39.000Z</time>
      </trkpt>
      <trkpt lat="37.079093" lon="-79.615579">
        <ele>249.118899</ele>
        <time>2025-09-05T10:27:40.000Z</time>
      </trkpt>
      <trkpt lat="37.079035" lon="-79.61559">
        <ele>249.088102</ele>
        <time>2025-09-05T10:27:41.000Z</time>
      </trkpt>
      <trkpt lat="37.078908" lon="-79.615574">
        <ele>249.033055</ele>
        <time>2025-09-05T10:27:42.000Z</time>
      </trkpt>
      <trkpt lat="37.078807" lon="-79.615471">
        <ele>248.97234</ele>
        <time>2025-09-05T10:27:43.000Z</time>
      </trkpt>
      <trkpt lat="37.078754" lon="-79.61531">
        <ele>248.908461</ele>
        <time>2025-09-05T10:27:45.000Z</time>
      </trkpt>
      <trkpt lat="37.078754" lon="-79.61529">
        <ele>248.89706</ele>
        <time>2025-09-05T10:27:45.000Z</time>
      </trkpt>
      <trkpt lat="37.078759" lon="-79.615271">
        <ele>248.891536</ele>
        <time>2025-09-05T10:27:45.000Z</time>
      </trkpt>
      <trkpt lat="37.078753" lon="-79.615264">
        <ele>248.88934</ele>
        <time>2025-09-05T10:27:45.000Z</time>
      </trkpt>
      <trkpt lat="37.078752" lon="-79.615254">
        <ele>248.887484</ele>
        <time>2025-09-05T10:27:45.000Z</time>
      </trkpt>
      <trkpt lat="37.078744" lon="-79.615245">
        <ele>248.885651</ele>
        <time>2025-09-05T10:27:45.000Z</time>
      </trkpt>
      <trkpt lat="37.078746" lon="-79.615252">
        <ele>248.884915</ele>
        <time>2025-09-05T10:27:45.000Z</time>
      </trkpt>
      <trkpt lat="37.078744" lon="-79.615234">
        <ele>248.882352</ele>
        <time>2025-09-05T10:27:45.000Z</time>
      </trkpt>
      <trkpt lat="37.078749" lon="-79.615229">
        <ele>248.880873</ele>
        <time>2025-09-05T10:27:45.000Z</time>
      </trkpt>
      <trkpt lat="37.078756" lon="-79.615012">
        <ele>248.801435</ele>
        <time>2025-09-05T10:27:47.000Z</time>
      </trkpt>
      <trkpt lat="37.078812" lon="-79.614158">
        <ele>248.485831</ele>
        <time>2025-09-05T10:27:55.000Z</time>
      </trkpt>
      <trkpt lat="37.078825" lon="-79.613712">
        <ele>248.295139</ele>
        <time>2025-09-05T10:27:59.000Z</time>
      </trkpt>
      <trkpt lat="37.078679" lon="-79.613367">
        <ele>247.959973</ele>
        <time>2025-09-05T10:28:02.000Z</time>
      </trkpt>
      <trkpt lat="37.078588" lon="-79.613037">
        <ele>247.646311</ele>
        <time>2025-09-05T10:28:05.000Z</time>
      </trkpt>
      <trkpt lat="37.078474" lon="-79.612633">
        <ele>247.278202</ele>
        <time>2025-09-05T10:28:09.000Z</time>
      </trkpt>
      <trkpt lat="37.078487" lon="-79.612432">
        <ele>247.110032</ele>
        <time>2025-09-05T10:28:11.000Z</time>
      </trkpt>
      <trkpt lat="37.078528" lon="-79.612248">
        <ele>246.942632</ele>
        <time>2025-09-05T10:28:13.000Z</time>
      </trkpt>
      <trkpt lat="37.078584" lon="-79.612138">
        <ele>246.830004</ele>
        <time>2025-09-05T10:28:14.000Z</time>
      </trkpt>
      <trkpt lat="37.078666" lon="-79.612056">
        <ele>246.716589</ele>
        <time>2025-09-05T10:28:15.000Z</time>
      </trkpt>
      <trkpt lat="37.078782" lon="-79.61198">
        <ele>246.574618</ele>
        <time>2025-09-05T10:28:16.000Z</time>
      </trkpt>
      <trkpt lat="37.079162" lon="-79.611848">
        <ele>246.452494</ele>
        <time>2025-09-05T10:28:20.000Z</time>
      </trkpt>
      <trkpt lat="37.079357" lon="-79.611689">
        <ele>246.539495</ele>
        <time>2025-09-05T10:28:23.000Z</time>
      </trkpt>
      <trkpt lat="37.079448" lon="-79.611525">
        <ele>246.599522</ele>
        <time>2025-09-05T10:28:25.000Z</time>
      </trkpt>
      <trkpt lat="37.079527" lon="-79.611203">
        <ele>246.70629</ele>
        <time>2025-09-05T10:28:28.000Z</time>
      </trkpt>
      <trkpt lat="37.079644" lon="-79.610903">
        <ele>246.80586</ele>
        <time>2025-09-05T10:28:31.000Z</time>
      </trkpt>
      <trkpt lat="37.079732" lon="-79.610765">
        <ele>246.856858</ele>
        <time>2025-09-05T10:28:33.000Z</time>
      </trkpt>
      <trkpt lat="37.079997" lon="-79.610511">
        <ele>246.982583</ele>
        <time>2025-09-05T10:28:37.000Z</time>
      </trkpt>
      <trkpt lat="37.080033" lon="-79.610436">
        <ele>247.007899</ele>
        <time>2025-09-05T10:28:38.000Z</time>
      </trkpt>
      <trkpt lat="37.080063" lon="-79.610269">
        <ele>247.108852</ele>
        <time>2025-09-05T10:28:40.000Z</time>
      </trkpt>
      <trkpt lat="37.080024" lon="-79.609843">
        <ele>248.505113</ele>
        <time>2025-09-05T10:28:44.000Z</time>
      </trkpt>
      <trkpt lat="37.080025" lon="-79.609646">
        <ele>249.082941</ele>
        <time>2025-09-05T10:28:46.000Z</time>
      </trkpt>
      <trkpt lat="37.080087" lon="-79.609442">
        <ele>249.802714</ele>
        <time>2025-09-05T10:28:48.000Z</time>
      </trkpt>
      <trkpt lat="37.080144" lon="-79.609343">
        <ele>250.168015</ele>
        <time>2025-09-05T10:28:49.000Z</time>
      </trkpt>
      <trkpt lat="37.080356" lon="-79.609071">
        <ele>251.355572</ele>
        <time>2025-09-05T10:28:52.000Z</time>
      </trkpt>
      <trkpt lat="37.080936" lon="-79.608519">
        <ele>254.224297</ele>
        <time>2025-09-05T10:29:00.000Z</time>
      </trkpt>
      <trkpt lat="37.081292" lon="-79.608208">
        <ele>255.374758</ele>
        <time>2025-09-05T10:29:05.000Z</time>
      </trkpt>
      <trkpt lat="37.081581" lon="-79.608025">
        <ele>256.174722</ele>
        <time>2025-09-05T10:29:09.000Z</time>
      </trkpt>
      <trkpt lat="37.082147" lon="-79.607806">
        <ele>257.703916</ele>
        <time>2025-09-05T10:29:16.000Z</time>
      </trkpt>
      <trkpt lat="37.082438" lon="-79.607637">
        <ele>258.552818</ele>
        <time>2025-09-05T10:29:20.000Z</time>
      </trkpt>
      <trkpt lat="37.082619" lon="-79.607475">
        <ele>258.812529</ele>
        <time>2025-09-05T10:29:22.000Z</time>
      </trkpt>
      <trkpt lat="37.082809" lon="-79.607134">
        <ele>258.775296</ele>
        <time>2025-09-05T10:29:26.000Z</time>
      </trkpt>
      <trkpt lat="37.082894" lon="-79.606957">
        <ele>258.756265</ele>
        <time>2025-09-05T10:29:28.000Z</time>
      </trkpt>
      <trkpt lat="37.08297" lon="-79.606607">
        <ele>258.724559</ele>
        <time>2025-09-05T10:29:31.000Z</time>
      </trkpt>
      <trkpt lat="37.083105" lon="-79.604707">
        <ele>259.018214</ele>
        <time>2025-09-05T10:29:48.000Z</time>
      </trkpt>
      <trkpt lat="37.083196" lon="-79.60443">
        <ele>259.167053</ele>
        <time>2025-09-05T10:29:51.000Z</time>
      </trkpt>
      <trkpt lat="37.083366" lon="-79.604118">
        <ele>259.361298</ele>
        <time>2025-09-05T10:29:54.000Z</time>
      </trkpt>
      <trkpt lat="37.083605" lon="-79.603828">
        <ele>259.570856</ele>
        <time>2025-09-05T10:29:58.000Z</time>
      </trkpt>
      <trkpt lat="37.083918" lon="-79.603632">
        <ele>259.754847</ele>
        <time>2025-09-05T10:30:02.000Z</time>
      </trkpt>
      <trkpt lat="37.085193" lon="-79.603174">
        <ele>259.339781</ele>
        <time>2025-09-05T10:30:17.000Z</time>
      </trkpt>
      <trkpt lat="37.085434" lon="-79.602982">
        <ele>259.24651</ele>
        <time>2025-09-05T10:30:20.000Z</time>
      </trkpt>
      <trkpt lat="37.085656" lon="-79.602708">
        <ele>259.397728</ele>
        <time>2025-09-05T10:30:23.000Z</time>
      </trkpt>
      <trkpt lat="37.085835" lon="-79.602446">
        <ele>259.709608</ele>
        <time>2025-09-05T10:30:26.000Z</time>
      </trkpt>
      <trkpt lat="37.086004" lon="-79.602023">
        <ele>260.169293</ele>
        <time>2025-09-05T10:30:30.000Z</time>
      </trkpt>
      <trkpt lat="37.086756" lon="-79.599715">
        <ele>263.135595</ele>
        <time>2025-09-05T10:30:52.000Z</time>
      </trkpt>
      <trkpt lat="37.086912" lon="-79.599378">
        <ele>263.690324</ele>
        <time>2025-09-05T10:30:55.000Z</time>
      </trkpt>
      <trkpt lat="37.086974" lon="-79.599259">
        <ele>263.892528</ele>
        <time>2025-09-05T10:30:56.000Z</time>
      </trkpt>
      <trkpt lat="37.087291" lon="-79.598924">
        <ele>264.702101</ele>
        <time>2025-09-05T10:31:01.000Z</time>
      </trkpt>
      <trkpt lat="37.087766" lon="-79.598609">
        <ele>266.396868</ele>
        <time>2025-09-05T10:31:07.000Z</time>
      </trkpt>
      <trkpt lat="37.08828" lon="-79.598206">
        <ele>268.238613</ele>
        <time>2025-09-05T10:31:14.000Z</time>
      </trkpt>
      <trkpt lat="37.088598" lon="-79.597895">
        <ele>269.541691</ele>
        <time>2025-09-05T10:31:18.000Z</time>
      </trkpt>
      <trkpt lat="37.08913" lon="-79.597123">
        <ele>272.287948</ele>
        <time>2025-09-05T10:31:27.000Z</time>
      </trkpt>
      <trkpt lat="37.089556" lon="-79.596379">
        <ele>274.906812</ele>
        <time>2025-09-05T10:31:35.000Z</time>
      </trkpt>
      <trkpt lat="37.08975" lon="-79.596069">
        <ele>275.970624</ele>
        <time>2025-09-05T10:31:38.000Z</time>
      </trkpt>
      <trkpt lat="37.08983" lon="-79.595924">
        <ele>276.450948</ele>
        <time>2025-09-05T10:31:40.000Z</time>
      </trkpt>
      <trkpt lat="37.090176" lon="-79.595297">
        <ele>276.950707</ele>
        <time>2025-09-05T10:31:47.000Z</time>
      </trkpt>
      <trkpt lat="37.091103" lon="-79.593645">
        <ele>277.423073</ele>
        <time>2025-09-05T10:32:05.000Z</time>
      </trkpt>
      <trkpt lat="37.091421" lon="-79.593148">
        <ele>276.888845</ele>
        <time>2025-09-05T10:32:11.000Z</time>
      </trkpt>
      <trkpt lat="37.091511" lon="-79.593438">
        <ele>276.620917</ele>
        <time>2025-09-05T10:32:14.000Z</time>
      </trkpt>
      <trkpt lat="37.092193" lon="-79.595272">
        <ele>273.864476</ele>
        <time>2025-09-05T10:32:32.000Z</time>
      </trkpt>
      <trkpt lat="37.093364" lon="-79.598656">
        <ele>266.764041</ele>
        <time>2025-09-05T10:33:05.000Z</time>
      </trkpt>
      <trkpt lat="37.094003" lon="-79.600382">
        <ele>261.184886</ele>
        <time>2025-09-05T10:33:22.000Z</time>
      </trkpt>
      <trkpt lat="37.094088" lon="-79.60067">
        <ele>260.626979</ele>
        <time>2025-09-05T10:33:25.000Z</time>
      </trkpt>
      <trkpt lat="37.094393" lon="-79.601497">
        <ele>259.02808</ele>
        <time>2025-09-05T10:33:33.000Z</time>
      </trkpt>
      <trkpt lat="37.094616" lon="-79.601887">
        <ele>258.140865</ele>
        <time>2025-09-05T10:33:37.000Z</time>
      </trkpt>
      <trkpt lat="37.094939" lon="-79.602214">
        <ele>257.254684</ele>
        <time>2025-09-05T10:33:42.000Z</time>
      </trkpt>
      <trkpt lat="37.095882" lon="-79.602939">
        <ele>255.473436</ele>
        <time>2025-09-05T10:33:54.000Z</time>
      </trkpt>
      <trkpt lat="37.096072" lon="-79.603127">
        <ele>255.080759</ele>
        <time>2025-09-05T10:33:57.000Z</time>
      </trkpt>
      <trkpt lat="37.096966" lon="-79.604261">
        <ele>252.897507</ele>
        <time>2025-09-05T10:34:11.000Z</time>
      </trkpt>
      <trkpt lat="37.097079" lon="-79.604437">
        <ele>252.574479</ele>
        <time>2025-09-05T10:34:13.000Z</time>
      </trkpt>
      <trkpt lat="37.097236" lon="-79.604776">
        <ele>252.019798</ele>
        <time>2025-09-05T10:34:16.000Z</time>
      </trkpt>
      <trkpt lat="37.097309" lon="-79.605113">
        <ele>251.522113</ele>
        <time>2025-09-05T10:34:19.000Z</time>
      </trkpt>
      <trkpt lat="37.097341" lon="-79.605477">
        <ele>251.227218</ele>
        <time>2025-09-05T10:34:22.000Z</time>
      </trkpt>
      <trkpt lat="37.097212" lon="-79.607918">
        <ele>252.116965</ele>
        <time>2025-09-05T10:34:44.000Z</time>
      </trkpt>
      <trkpt lat="37.097101" lon="-79.608383">
        <ele>252.541892</ele>
        <time>2025-09-05T10:34:48.000Z</time>
      </trkpt>
      <trkpt lat="37.097015" lon="-79.608619">
        <ele>252.762492</ele>
        <time>2025-09-05T10:34:50.000Z</time>
      </trkpt>
      <trkpt lat="37.09687" lon="-79.60885">
        <ele>253.032676</ele>
        <time>2025-09-05T10:34:53.000Z</time>
      </trkpt>
      <trkpt lat="37.096699" lon="-79.60901">
        <ele>253.25282</ele>
        <time>2025-09-05T10:34:55.000Z</time>
      </trkpt>
      <trkpt lat="37.096674" lon="-79.609034">
        <ele>253.296051</ele>
        <time>2025-09-05T10:34:55.000Z</time>
      </trkpt>
      <trkpt lat="37.096416" lon="-79.60923">
        <ele>253.622861</ele>
        <time>2025-09-05T10:34:58.000Z</time>
      </trkpt>
      <trkpt lat="37.096142" lon="-79.609412">
        <ele>253.853469</ele>
        <time>2025-09-05T10:35:01.000Z</time>
      </trkpt>
      <trkpt lat="37.096006" lon="-79.609489">
        <ele>253.911342</ele>
        <time>2025-09-05T10:35:03.000Z</time>
      </trkpt>
      <trkpt lat="37.095796" lon="-79.609868">
        <ele>254.046169</ele>
        <time>2025-09-05T10:35:07.000Z</time>
      </trkpt>
      <trkpt lat="37.095735" lon="-79.609915">
        <ele>254.070903</ele>
        <time>2025-09-05T10:35:08.000Z</time>
      </trkpt>
      <trkpt lat="37.095681" lon="-79.609941">
        <ele>254.094088</ele>
        <time>2025-09-05T10:35:09.000Z</time>
      </trkpt>
      <trkpt lat="37.095627" lon="-79.610054">
        <ele>254.13209</ele>
        <time>2025-09-05T10:35:10.000Z</time>
      </trkpt>
      <trkpt lat="37.095578" lon="-79.610104">
        <ele>254.151111</ele>
        <time>2025-09-05T10:35:11.000Z</time>
      </trkpt>
      <trkpt lat="37.095099" lon="-79.610373">
        <ele>254.34947</ele>
        <time>2025-09-05T10:35:17.000Z</time>
      </trkpt>
      <trkpt lat="37.095074" lon="-79.610369">
        <ele>254.353537</ele>
        <time>2025-09-05T10:35:17.000Z</time>
      </trkpt>
      <trkpt lat="37.095078" lon="-79.610377">
        <ele>254.357581</ele>
        <time>2025-09-05T10:35:17.000Z</time>
      </trkpt>
      <trkpt lat="37.095067" lon="-79.610371">
        <ele>254.359437</ele>
        <time>2025-09-05T10:35:17.000Z</time>
      </trkpt>
      <trkpt lat="37.095062" lon="-79.610377">
        <ele>254.359785</ele>
        <time>2025-09-05T10:35:17.000Z</time>
      </trkpt>
      <trkpt lat="37.095062" lon="-79.610377">
        <ele>254.360525</ele>
        <time>2025-09-05T10:35:17.000Z</time>
      </trkpt>
      <trkpt lat="37.095061" lon="-79.610389">
        <ele>254.36163</ele>
        <time>2025-09-05T10:35:17.000Z</time>
      </trkpt>
      <trkpt lat="37.095062" lon="-79.610375">
        <ele>254.362771</ele>
        <time>2025-09-05T10:35:17.000Z</time>
      </trkpt>
      <trkpt lat="37.095045" lon="-79.610383">
        <ele>254.3701</ele>
        <time>2025-09-05T10:35:17.000Z</time>
      </trkpt>
      <trkpt lat="37.095004" lon="-79.610357">
        <ele>254.381903</ele>
        <time>2025-09-05T10:35:18.000Z</time>
      </trkpt>
      <trkpt lat="37.094981" lon="-79.610331">
        <ele>254.397437</ele>
        <time>2025-09-05T10:35:18.000Z</time>
      </trkpt>
      <trkpt lat="37.094905" lon="-79.610196">
        <ele>254.445932</ele>
        <time>2025-09-05T10:35:19.000Z</time>
      </trkpt>
      <trkpt lat="37.095413" lon="-79.609894">
        <ele>254.201395</ele>
        <time>2025-09-05T10:35:25.000Z</time>
      </trkpt>
      <trkpt lat="37.095412" lon="-79.60989">
        <ele>254.200911</ele>
        <time>2025-09-05T10:35:25.000Z</time>
      </trkpt>
      <trkpt lat="37.095423" lon="-79.609893">
        <ele>254.199638</ele>
        <time>2025-09-05T10:35:25.000Z</time>
      </trkpt>
      <trkpt lat="37.095422" lon="-79.609883">
        <ele>254.194778</ele>
        <time>2025-09-05T10:35:25.000Z</time>
      </trkpt>
      <trkpt lat="37.095424" lon="-79.609879">
        <ele>254.194149</ele>
        <time>2025-09-05T10:35:25.000Z</time>
      </trkpt>
      <trkpt lat="37.095434" lon="-79.609879">
        <ele>254.193653</ele>
        <time>2025-09-05T10:35:25.000Z</time>
      </trkpt>
      <trkpt lat="37.095434" lon="-79.609884">
        <ele>254.191534</ele>
        <time>2025-09-05T10:35:25.000Z</time>
      </trkpt>
      <trkpt lat="37.095436" lon="-79.60987">
        <ele>254.190892</ele>
        <time>2025-09-05T10:35:25.000Z</time>
      </trkpt>
      <trkpt lat="37.095438" lon="-79.609879">
        <ele>254.188167</ele>
        <time>2025-09-05T10:35:25.000Z</time>
      </trkpt>
      <trkpt lat="37.095451" lon="-79.609871">
        <ele>254.186026</ele>
        <time>2025-09-05T10:35:25.000Z</time>
      </trkpt>
      <trkpt lat="37.095488" lon="-79.609851">
        <ele>254.163502</ele>
        <time>2025-09-05T10:35:25.000Z</time>
      </trkpt>
      <trkpt lat="37.095523" lon="-79.60983">
        <ele>254.144336</ele>
        <time>2025-09-05T10:35:25.000Z</time>
      </trkpt>
      <trkpt lat="37.095602" lon="-79.609815">
        <ele>254.105283</ele>
        <time>2025-09-05T10:35:26.000Z</time>
      </trkpt>
      <trkpt lat="37.095621" lon="-79.609783">
        <ele>254.08635</ele>
        <time>2025-09-05T10:35:26.000Z</time>
      </trkpt>
      <trkpt lat="37.095682" lon="-79.609698">
        <ele>254.040348</ele>
        <time>2025-09-05T10:35:27.000Z</time>
      </trkpt>
      <trkpt lat="37.096005" lon="-79.609495">
        <ele>253.861669</ele>
        <time>2025-09-05T10:35:31.000Z</time>
      </trkpt>
      <trkpt lat="37.096149" lon="-79.609408">
        <ele>253.783565</ele>
        <time>2025-09-05T10:35:33.000Z</time>
      </trkpt>
      <trkpt lat="37.096415" lon="-79.60923">
        <ele>253.632554</ele>
        <time>2025-09-05T10:35:36.000Z</time>
      </trkpt>
      <trkpt lat="37.096664" lon="-79.609034">
        <ele>253.375427</ele>
        <time>2025-09-05T10:35:39.000Z</time>
      </trkpt>
      <trkpt lat="37.096715" lon="-79.609001">
        <ele>253.330969</ele>
        <time>2025-09-05T10:35:40.000Z</time>
      </trkpt>
      <trkpt lat="37.096874" lon="-79.608856">
        <ele>253.104601</ele>
        <time>2025-09-05T10:35:42.000Z</time>
      </trkpt>
      <trkpt lat="37.097025" lon="-79.608614">
        <ele>252.826768</ele>
        <time>2025-09-05T10:35:45.000Z</time>
      </trkpt>
      <trkpt lat="37.097113" lon="-79.608388">
        <ele>252.599921</ele>
        <time>2025-09-05T10:35:47.000Z</time>
      </trkpt>
      <trkpt lat="37.097214" lon="-79.607918">
        <ele>252.162965</ele>
        <time>2025-09-05T10:35:51.000Z</time>
      </trkpt>
      <trkpt lat="37.097341" lon="-79.605487">
        <ele>251.525384</ele>
        <time>2025-09-05T10:36:13.000Z</time>
      </trkpt>
      <trkpt lat="37.097319" lon="-79.605105">
        <ele>251.521714</ele>
        <time>2025-09-05T10:36:16.000Z</time>
      </trkpt>
      <trkpt lat="37.097226" lon="-79.604785">
        <ele>251.856479</ele>
        <time>2025-09-05T10:36:19.000Z</time>
      </trkpt>
      <trkpt lat="37.09708" lon="-79.604432">
        <ele>252.438164</ele>
        <time>2025-09-05T10:36:23.000Z</time>
      </trkpt>
      <trkpt lat="37.096966" lon="-79.604265">
        <ele>252.776918</ele>
        <time>2025-09-05T10:36:25.000Z</time>
      </trkpt>
      <trkpt lat="37.096059" lon="-79.60314">
        <ele>255.104026</ele>
        <time>2025-09-05T10:36:39.000Z</time>
      </trkpt>
      <trkpt lat="37.095871" lon="-79.602937">
        <ele>255.492125</ele>
        <time>2025-09-05T10:36:42.000Z</time>
      </trkpt>
      <trkpt lat="37.094931" lon="-79.602208">
        <ele>257.252597</ele>
        <time>2025-09-05T10:36:54.000Z</time>
      </trkpt>
      <trkpt lat="37.094631" lon="-79.601896">
        <ele>257.987764</ele>
        <time>2025-09-05T10:36:58.000Z</time>
      </trkpt>
      <trkpt lat="37.094385" lon="-79.601498">
        <ele>259.010044</ele>
        <time>2025-09-05T10:37:02.000Z</time>
      </trkpt>
      <trkpt lat="37.094097" lon="-79.600674">
        <ele>260.852385</ele>
        <time>2025-09-05T10:37:10.000Z</time>
      </trkpt>
      <trkpt lat="37.093999" lon="-79.600379">
        <ele>261.495225</ele>
        <time>2025-09-05T10:37:13.000Z</time>
      </trkpt>
      <trkpt lat="37.093354" lon="-79.59866">
        <ele>266.567478</ele>
        <time>2025-09-05T10:37:30.000Z</time>
      </trkpt>
      <trkpt lat="37.09218" lon="-79.595276">
        <ele>273.849326</ele>
        <time>2025-09-05T10:38:03.000Z</time>
      </trkpt>
      <trkpt lat="37.091511" lon="-79.593443">
        <ele>276.751382</ele>
        <time>2025-09-05T10:38:21.000Z</time>
      </trkpt>
      <trkpt lat="37.091416" lon="-79.593145">
        <ele>276.943969</ele>
        <time>2025-09-05T10:38:24.000Z</time>
      </trkpt>
      <trkpt lat="37.091098" lon="-79.593639">
        <ele>277.32798</ele>
        <time>2025-09-05T10:38:30.000Z</time>
      </trkpt>
      <trkpt lat="37.090171" lon="-79.595291">
        <ele>276.823826</ele>
        <time>2025-09-05T10:38:48.000Z</time>
      </trkpt>
      <trkpt lat="37.089815" lon="-79.595935">
        <ele>276.130843</ele>
        <time>2025-09-05T10:38:55.000Z</time>
      </trkpt>
      <trkpt lat="37.08975" lon="-79.596059">
        <ele>275.97589</ele>
        <time>2025-09-05T10:38:56.000Z</time>
      </trkpt>
      <trkpt lat="37.089572" lon="-79.596381">
        <ele>275.190669</ele>
        <time>2025-09-05T10:38:59.000Z</time>
      </trkpt>
      <trkpt lat="37.08912" lon="-79.597128">
        <ele>272.360181</ele>
        <time>2025-09-05T10:39:07.000Z</time>
      </trkpt>
      <trkpt lat="37.088599" lon="-79.597895">
        <ele>269.306466</ele>
        <time>2025-09-05T10:39:16.000Z</time>
      </trkpt>
      <trkpt lat="37.088266" lon="-79.598223">
        <ele>268.072338</ele>
        <time>2025-09-05T10:39:21.000Z</time>
      </trkpt>
      <trkpt lat="37.08776" lon="-79.598598">
        <ele>266.45058</ele>
        <time>2025-09-05T10:39:28.000Z</time>
      </trkpt>
      <trkpt lat="37.087295" lon="-79.598932">
        <ele>264.958272</ele>
        <time>2025-09-05T10:39:34.000Z</time>
      </trkpt>
      <trkpt lat="37.086966" lon="-79.599249">
        <ele>263.891444</ele>
        <time>2025-09-05T10:39:39.000Z</time>
      </trkpt>
      <trkpt lat="37.08691" lon="-79.599374">
        <ele>263.687212</ele>
        <time>2025-09-05T10:39:40.000Z</time>
      </trkpt>
      <trkpt lat="37.086752" lon="-79.599714">
        <ele>263.126887</ele>
        <time>2025-09-05T10:39:43.000Z</time>
      </trkpt>
      <trkpt lat="37.086014" lon="-79.602018">
        <ele>260.180994</ele>
        <time>2025-09-05T10:40:05.000Z</time>
      </trkpt>
      <trkpt lat="37.085836" lon="-79.602444">
        <ele>259.84762</ele>
        <time>2025-09-05T10:40:09.000Z</time>
      </trkpt>
      <trkpt lat="37.085663" lon="-79.602714">
        <ele>259.621446</ele>
        <time>2025-09-05T10:40:12.000Z</time>
      </trkpt>
      <trkpt lat="37.085432" lon="-79.602979">
        <ele>259.360467</ele>
        <time>2025-09-05T10:40:15.000Z</time>
      </trkpt>
      <trkpt lat="37.085184" lon="-79.603168">
        <ele>259.275629</ele>
        <time>2025-09-05T10:40:18.000Z</time>
      </trkpt>
      <trkpt lat="37.083907" lon="-79.603633">
        <ele>259.632133</ele>
        <time>2025-09-05T10:40:33.000Z</time>
      </trkpt>
      <trkpt lat="37.083602" lon="-79.603821">
        <ele>259.70466</ele>
        <time>2025-09-05T10:40:37.000Z</time>
      </trkpt>
      <trkpt lat="37.083367" lon="-79.60411">
        <ele>259.46921</ele>
        <time>2025-09-05T10:40:41.000Z</time>
      </trkpt>
      <trkpt lat="37.083196" lon="-79.604425">
        <ele>259.251013</ele>
        <time>2025-09-05T10:40:44.000Z</time>
      </trkpt>
      <trkpt lat="37.08312" lon="-79.60471">
        <ele>259.083772</ele>
        <time>2025-09-05T10:40:47.000Z</time>
      </trkpt>
      <trkpt lat="37.082962" lon="-79.606619">
        <ele>258.573813</ele>
        <time>2025-09-05T10:41:04.000Z</time>
      </trkpt>
      <trkpt lat="37.082883" lon="-79.60696">
        <ele>258.637191</ele>
        <time>2025-09-05T10:41:07.000Z</time>
      </trkpt>
      <trkpt lat="37.082817" lon="-79.607136">
        <ele>258.675254</ele>
        <time>2025-09-05T10:41:09.000Z</time>
      </trkpt>
      <trkpt lat="37.08261" lon="-79.607467">
        <ele>258.749718</ele>
        <time>2025-09-05T10:41:13.000Z</time>
      </trkpt>
      <trkpt lat="37.082449" lon="-79.607633">
        <ele>258.797164</ele>
        <time>2025-09-05T10:41:15.000Z</time>
      </trkpt>
      <trkpt lat="37.082147" lon="-79.607794">
        <ele>258.329676</ele>
        <time>2025-09-05T10:41:19.000Z</time>
      </trkpt>
      <trkpt lat="37.081571" lon="-79.608019">
        <ele>256.293408</ele>
        <time>2025-09-05T10:41:26.000Z</time>
      </trkpt>
      <trkpt lat="37.081297" lon="-79.608202">
        <ele>255.228152</ele>
        <time>2025-09-05T10:41:29.000Z</time>
      </trkpt>
      <trkpt lat="37.080922" lon="-79.608529">
        <ele>253.696207</ele>
        <time>2025-09-05T10:41:34.000Z</time>
      </trkpt>
      <trkpt lat="37.080354" lon="-79.609086">
        <ele>251.225483</ele>
        <time>2025-09-05T10:41:42.000Z</time>
      </trkpt>
      <trkpt lat="37.080147" lon="-79.60934">
        <ele>250.214342</ele>
        <time>2025-09-05T10:41:45.000Z</time>
      </trkpt>
      <trkpt lat="37.080099" lon="-79.609438">
        <ele>249.903298</ele>
        <time>2025-09-05T10:41:46.000Z</time>
      </trkpt>
      <trkpt lat="37.080038" lon="-79.60965">
        <ele>249.290446</ele>
        <time>2025-09-05T10:41:48.000Z</time>
      </trkpt>
      <trkpt lat="37.080027" lon="-79.609836">
        <ele>248.798465</ele>
        <time>2025-09-05T10:41:50.000Z</time>
      </trkpt>
      <trkpt lat="37.080058" lon="-79.610282">
        <ele>247.609615</ele>
        <time>2025-09-05T10:41:54.000Z</time>
      </trkpt>
      <trkpt lat="37.080031" lon="-79.610444">
        <ele>247.158503</ele>
        <time>2025-09-05T10:41:55.000Z</time>
      </trkpt>
      <trkpt lat="37.079987" lon="-79.610508">
        <ele>246.933424</ele>
        <time>2025-09-05T10:41:56.000Z</time>
      </trkpt>
      <trkpt lat="37.079743" lon="-79.610772">
        <ele>246.610711</ele>
        <time>2025-09-05T10:42:00.000Z</time>
      </trkpt>
      <trkpt lat="37.079637" lon="-79.610894">
        <ele>246.62158</ele>
        <time>2025-09-05T10:42:02.000Z</time>
      </trkpt>
      <trkpt lat="37.079538" lon="-79.6112">
        <ele>246.642793</ele>
        <time>2025-09-05T10:42:05.000Z</time>
      </trkpt>
      <trkpt lat="37.079452" lon="-79.611532">
        <ele>246.665541</ele>
        <time>2025-09-05T10:42:08.000Z</time>
      </trkpt>
      <trkpt lat="37.079366" lon="-79.611688">
        <ele>246.678342</ele>
        <time>2025-09-05T10:42:10.000Z</time>
      </trkpt>
      <trkpt lat="37.079163" lon="-79.611849">
        <ele>246.696869</ele>
        <time>2025-09-05T10:42:13.000Z</time>
      </trkpt>
      <trkpt lat="37.078773" lon="-79.611992">
        <ele>246.729715</ele>
        <time>2025-09-05T10:42:18.000Z</time>
      </trkpt>
      <trkpt lat="37.078666" lon="-79.612053">
        <ele>246.781172</ele>
        <time>2025-09-05T10:42:19.000Z</time>
      </trkpt>
      <trkpt lat="37.07858" lon="-79.612151">
        <ele>246.928381</ele>
        <time>2025-09-05T10:42:20.000Z</time>
      </trkpt>
      <trkpt lat="37.078526" lon="-79.612249">
        <ele>247.074577</ele>
        <time>2025-09-05T10:42:21.000Z</time>
      </trkpt>
      <trkpt lat="37.078483" lon="-79.612443">
        <ele>247.291834</ele>
        <time>2025-09-05T10:42:23.000Z</time>
      </trkpt>
      <trkpt lat="37.078469" lon="-79.612637">
        <ele>247.510152</ele>
        <time>2025-09-05T10:42:25.000Z</time>
      </trkpt>
      <trkpt lat="37.078573" lon="-79.613022">
        <ele>247.987951</ele>
        <time>2025-09-05T10:42:29.000Z</time>
      </trkpt>
      <trkpt lat="37.078697" lon="-79.613365">
        <ele>248.395091</ele>
        <time>2025-09-05T10:42:32.000Z</time>
      </trkpt>
      <trkpt lat="37.078814" lon="-79.613702">
        <ele>248.830144</ele>
        <time>2025-09-05T10:42:35.000Z</time>
      </trkpt>
      <trkpt lat="37.079072" lon="-79.614121">
        <ele>249.267887</ele>
        <time>2025-09-05T10:42:40.000Z</time>
      </trkpt>
      <trkpt lat="37.079202" lon="-79.614455">
        <ele>249.195973</ele>
        <time>2025-09-05T10:42:43.000Z</time>
      </trkpt>
      <trkpt lat="37.07928" lon="-79.614827">
        <ele>249.125072</ele>
        <time>2025-09-05T10:42:46.000Z</time>
      </trkpt>
      <trkpt lat="37.0793" lon="-79.615067">
        <ele>249.078512</ele>
        <time>2025-09-05T10:42:48.000Z</time>
      </trkpt>
      <trkpt lat="37.079288" lon="-79.615237">
        <ele>249.047033</ele>
        <time>2025-09-05T10:42:50.000Z</time>
      </trkpt>
      <trkpt lat="37.079279" lon="-79.615297">
        <ele>249.037768</ele>
        <time>2025-09-05T10:42:51.000Z</time>
      </trkpt>
      <trkpt lat="37.079284" lon="-79.6153">
        <ele>249.035421</ele>
        <time>2025-09-05T10:42:51.000Z</time>
      </trkpt>
      <trkpt lat="37.079278" lon="-79.615316">
        <ele>249.034036</ele>
        <time>2025-09-05T10:42:51.000Z</time>
      </trkpt>
      <trkpt lat="37.079276" lon="-79.615312">
        <ele>249.032704</ele>
        <time>2025-09-05T10:42:51.000Z</time>
      </trkpt>
      <trkpt lat="37.079278" lon="-79.615308">
        <ele>249.032391</ele>
        <time>2025-09-05T10:42:51.000Z</time>
      </trkpt>
      <trkpt lat="37.079281" lon="-79.615322">
        <ele>249.031779</ele>
        <time>2025-09-05T10:42:51.000Z</time>
      </trkpt>
      <trkpt lat="37.07928" lon="-79.615313">
        <ele>249.031007</ele>
        <time>2025-09-05T10:42:51.000Z</time>
      </trkpt>
      <trkpt lat="37.079276" lon="-79.615324">
        <ele>249.030431</ele>
        <time>2025-09-05T10:42:51.000Z</time>
      </trkpt>
      <trkpt lat="37.079251" lon="-79.615404">
        <ele>249.015869</ele>
        <time>2025-09-05T10:42:52.000Z</time>
      </trkpt>
      <trkpt lat="37.079189" lon="-79.615498">
        <ele>248.990975</ele>
        <time>2025-09-05T10:42:53.000Z</time>
      </trkpt>
      <trkpt lat="37.079089" lon="-79.615581">
        <ele>248.966</ele>
        <time>2025-09-05T10:42:54.000Z</time>
      </trkpt>
      <trkpt lat="37.079026" lon="-79.615605">
        <ele>248.950302</ele>
        <time>2025-09-05T10:42:55.000Z</time>
      </trkpt>
      <trkpt lat="37.078917" lon="-79.615566">
        <ele>248.922262</ele>
        <time>2025-09-05T10:42:56.000Z</time>
      </trkpt>
      <trkpt lat="37.078811" lon="-79.615463">
        <ele>248.891306</ele>
        <time>2025-09-05T10:42:57.000Z</time>
      </trkpt>
      <trkpt lat="37.078745" lon="-79.615316">
        <ele>248.850715</ele>
        <time>2025-09-05T10:42:58.000Z</time>
      </trkpt>
      <trkpt lat="37.078755" lon="-79.615277">
        <ele>248.837891</ele>
        <time>2025-09-05T10:42:58.000Z</time>
      </trkpt>
      <trkpt lat="37.078743" lon="-79.61527">
        <ele>248.831676</ele>
        <time>2025-09-05T10:42:58.000Z</time>
      </trkpt>
      <trkpt lat="37.078747" lon="-79.615252">
        <ele>248.829186</ele>
        <time>2025-09-05T10:42:58.000Z</time>
      </trkpt>
      <trkpt lat="37.078752" lon="-79.615261">
        <ele>248.827116</ele>
        <time>2025-09-05T10:42:58.000Z</time>
      </trkpt>
      <trkpt lat="37.078759" lon="-79.615241">
        <ele>248.825051</ele>
        <time>2025-09-05T10:42:58.000Z</time>
      </trkpt>
      <trkpt lat="37.078742" lon="-79.615256">
        <ele>248.824226</ele>
        <time>2025-09-05T10:42:58.000Z</time>
      </trkpt>
      <trkpt lat="37.078753" lon="-79.615249">
        <ele>248.821322</ele>
        <time>2025-09-05T10:42:58.000Z</time>
      </trkpt>
      <trkpt lat="37.078748" lon="-79.615233">
        <ele>248.819665</ele>
        <time>2025-09-05T10:42:58.000Z</time>
      </trkpt>
      <trkpt lat="37.078757" lon="-79.615027">
        <ele>248.730269</ele>
        <time>2025-09-05T10:43:00.000Z</time>
      </trkpt>
      <trkpt lat="37.078826" lon="-79.614175">
        <ele>248.375031</ele>
        <time>2025-09-05T10:43:08.000Z</time>
      </trkpt>
      <trkpt lat="37.078813" lon="-79.613709">
        <ele>248.185866</ele>
        <time>2025-09-05T10:43:12.000Z</time>
      </trkpt>
      <trkpt lat="37.078682" lon="-79.613372">
        <ele>248.02668</ele>
        <time>2025-09-05T10:43:15.000Z</time>
      </trkpt>
      <trkpt lat="37.07857" lon="-79.613029">
        <ele>247.821948</ele>
        <time>2025-09-05T10:43:18.000Z</time>
      </trkpt>
      <trkpt lat="37.07847" lon="-79.612633">
        <ele>247.468478</ele>
        <time>2025-09-05T10:43:22.000Z</time>
      </trkpt>
      <trkpt lat="37.078481" lon="-79.612436">
        <ele>247.307002</ele>
        <time>2025-09-05T10:43:24.000Z</time>
      </trkpt>
      <trkpt lat="37.078518" lon="-79.612258">
        <ele>247.14626</ele>
        <time>2025-09-05T10:43:26.000Z</time>
      </trkpt>
      <trkpt lat="37.078595" lon="-79.612143">
        <ele>247.038115</ele>
        <time>2025-09-05T10:43:27.000Z</time>
      </trkpt>
      <trkpt lat="37.078656" lon="-79.61205">
        <ele>246.929216</ele>
        <time>2025-09-05T10:43:28.000Z</time>
      </trkpt>
      <trkpt lat="37.078785" lon="-79.611977">
        <ele>246.792881</ele>
        <time>2025-09-05T10:43:30.000Z</time>
      </trkpt>
      <trkpt lat="37.079167" lon="-79.611852">
        <ele>246.367542</ele>
        <time>2025-09-05T10:43:34.000Z</time>
      </trkpt>
      <trkpt lat="37.079366" lon="-79.611691">
        <ele>246.127472</ele>
        <time>2025-09-05T10:43:37.000Z</time>
      </trkpt>
      <trkpt lat="37.079452" lon="-79.611536">
        <ele>246.149512</ele>
        <time>2025-09-05T10:43:39.000Z</time>
      </trkpt>
      <trkpt lat="37.079544" lon="-79.611192">
        <ele>246.513032</ele>
        <time>2025-09-05T10:43:42.000Z</time>
      </trkpt>
      <trkpt lat="37.079643" lon="-79.610904">
        <ele>246.852033</ele>
        <time>2025-09-05T10:43:45.000Z</time>
      </trkpt>
      <trkpt lat="37.079742" lon="-79.610764">
        <ele>247.025695</ele>
        <time>2025-09-05T10:43:47.000Z</time>
      </trkpt>
      <trkpt lat="37.079989" lon="-79.610503">
        <ele>247.453742</ele>
        <time>2025-09-05T10:43:51.000Z</time>
      </trkpt>
      <trkpt lat="37.080027" lon="-79.610445">
        <ele>247.539901</ele>
        <time>2025-09-05T10:43:52.000Z</time>
      </trkpt>
      <trkpt lat="37.080051" lon="-79.610271">
        <ele>247.712612</ele>
        <time>2025-09-05T10:43:54.000Z</time>
      </trkpt>
      <trkpt lat="37.080032" lon="-79.609829">
        <ele>248.167735</ele>
        <time>2025-09-05T10:43:58.000Z</time>
      </trkpt>
      <trkpt lat="37.080038" lon="-79.609662">
        <ele>248.35607</ele>
        <time>2025-09-05T10:43:59.000Z</time>
      </trkpt>
      <trkpt lat="37.080093" lon="-79.609447">
        <ele>249.1479</ele>
        <time>2025-09-05T10:44:01.000Z</time>
      </trkpt>
      <trkpt lat="37.080145" lon="-79.60934">
        <ele>249.572384</ele>
        <time>2025-09-05T10:44:02.000Z</time>
      </trkpt>
      <trkpt lat="37.080358" lon="-79.609085">
        <ele>250.952301</ele>
        <time>2025-09-05T10:44:05.000Z</time>
      </trkpt>
      <trkpt lat="37.080929" lon="-79.608525">
        <ele>254.304711</ele>
        <time>2025-09-05T10:44:13.000Z</time>
      </trkpt>
      <trkpt lat="37.081292" lon="-79.608205">
        <ele>256.366347</ele>
        <time>2025-09-05T10:44:18.000Z</time>
      </trkpt>
      <trkpt lat="37.081577" lon="-79.608016">
        <ele>256.928032</ele>
        <time>2025-09-05T10:44:22.000Z</time>
      </trkpt>
      <trkpt lat="37.082142" lon="-79.607802">
        <ele>257.551941</ele>
        <time>2025-09-05T10:44:29.000Z</time>
      </trkpt>
      <trkpt lat="37.082452" lon="-79.607636">
        <ele>257.898284</ele>
        <time>2025-09-05T10:44:33.000Z</time>
      </trkpt>
      <trkpt lat="37.082607" lon="-79.607484">
        <ele>258.120395</ele>
        <time>2025-09-05T10:44:35.000Z</time>
      </trkpt>
      <trkpt lat="37.08282" lon="-79.607148">
        <ele>258.46903</ele>
        <time>2025-09-05T10:44:39.000Z</time>
      </trkpt>
      <trkpt lat="37.082878" lon="-79.60696">
        <ele>258.584042</ele>
        <time>2025-09-05T10:44:41.000Z</time>
      </trkpt>
      <trkpt lat="37.082955" lon="-79.606603">
        <ele>258.665421</ele>
        <time>2025-09-05T10:44:44.000Z</time>
      </trkpt>
      <trkpt lat="37.083113" lon="-79.604697">
        <ele>259.11006</ele>
        <time>2025-09-05T10:45:01.000Z</time>
      </trkpt>
      <trkpt lat="37.083195" lon="-79.604429">
        <ele>259.186132</ele>
        <time>2025-09-05T10:45:04.000Z</time>
      </trkpt>
      <trkpt lat="37.083376" lon="-79.604109">
        <ele>259.285408</ele>
        <time>2025-09-05T10:45:07.000Z</time>
      </trkpt>
      <trkpt lat="37.083617" lon="-79.603829">
        <ele>259.392545</ele>
        <time>2025-09-05T10:45:11.000Z</time>
      </trkpt>
      <trkpt lat="37.083921" lon="-79.603629">
        <ele>259.503721</ele>
        <time>2025-09-05T10:45:15.000Z</time>
      </trkpt>
      <trkpt lat="37.08519" lon="-79.603167">
        <ele>259.55011</ele>
        <time>2025-09-05T10:45:30.000Z</time>
      </trkpt>
      <trkpt lat="37.08544" lon="-79.602965">
        <ele>259.51</ele>
        <time>2025-09-05T10:45:33.000Z</time>
      </trkpt>
      <trkpt lat="37.085665" lon="-79.602714">
        <ele>259.468815</ele>
        <time>2025-09-05T10:45:36.000Z</time>
      </trkpt>
      <trkpt lat="37.085825" lon="-79.60245">
        <ele>259.433124</ele>
        <time>2025-09-05T10:45:39.000Z</time>
      </trkpt>
      <trkpt lat="37.086004" lon="-79.602019">
        <ele>259.900817</ele>
        <time>2025-09-05T10:45:43.000Z</time>
      </trkpt>
      <trkpt lat="37.086762" lon="-79.599709">
        <ele>263.234371</ele>
        <time>2025-09-05T10:46:05.000Z</time>
      </trkpt>
      <trkpt lat="37.086899" lon="-79.599362">
        <ele>263.809435</ele>
        <time>2025-09-05T10:46:08.000Z</time>
      </trkpt>
      <trkpt lat="37.086963" lon="-79.599263">
        <ele>264.019041</ele>
        <time>2025-09-05T10:46:09.000Z</time>
      </trkpt>
      <trkpt lat="37.087297" lon="-79.598937">
        <ele>264.795077</ele>
        <time>2025-09-05T10:46:14.000Z</time>
      </trkpt>
      <trkpt lat="37.087763" lon="-79.598611">
        <ele>265.925994</ele>
        <time>2025-09-05T10:46:20.000Z</time>
      </trkpt>
      <trkpt lat="37.088271" lon="-79.598222">
        <ele>268.122831</ele>
        <time>2025-09-05T10:46:27.000Z</time>
      </trkpt>
      <trkpt lat="37.0886" lon="-79.59788">
        <ele>269.677134</ele>
        <time>2025-09-05T10:46:32.000Z</time>
      </trkpt>
      <trkpt lat="37.089133" lon="-79.597123">
        <ele>272.600246</ele>
        <time>2025-09-05T10:46:41.000Z</time>
      </trkpt>
      <trkpt lat="37.089563" lon="-79.596374">
        <ele>274.640274</ele>
        <time>2025-09-05T10:46:49.000Z</time>
      </trkpt>
      <trkpt lat="37.089749" lon="-79.596074">
        <ele>275.468934</ele>
        <time>2025-09-05T10:46:52.000Z</time>
      </trkpt>
      <trkpt lat="37.089816" lon="-79.59592">
        <ele>275.843095</ele>
        <time>2025-09-05T10:46:54.000Z</time>
      </trkpt>
      <trkpt lat="37.090171" lon="-79.5953">
        <ele>277.331318</ele>
        <time>2025-09-05T10:47:01.000Z</time>
      </trkpt>
      <trkpt lat="37.091109" lon="-79.59365">
        <ele>277.675973</ele>
        <time>2025-09-05T10:47:19.000Z</time>
      </trkpt>
      <trkpt lat="37.091409" lon="-79.59315">
        <ele>277.078433</ele>
        <time>2025-09-05T10:47:25.000Z</time>
      </trkpt>
      <trkpt lat="37.091519" lon="-79.593443">
        <ele>276.678984</ele>
        <time>2025-09-05T10:47:28.000Z</time>
      </trkpt>
      <trkpt lat="37.09218" lon="-79.595271">
        <ele>273.877101</ele>
        <time>2025-09-05T10:47:46.000Z</time>
      </trkpt>
      <trkpt lat="37.093367" lon="-79.598657">
        <ele>266.81466</ele>
        <time>2025-09-05T10:48:19.000Z</time>
      </trkpt>
      <trkpt lat="37.093989" lon="-79.600384">
        <ele>261.431295</ele>
        <time>2025-09-05T10:48:36.000Z</time>
      </trkpt>
      <trkpt lat="37.094085" lon="-79.600664">
        <ele>260.505466</ele>
        <time>2025-09-05T10:48:39.000Z</time>
      </trkpt>
      <trkpt lat="37.094389" lon="-79.601483">
        <ele>258.799604</ele>
        <time>2025-09-05T10:48:47.000Z</time>
      </trkpt>
      <trkpt lat="37.094625" lon="-79.601896">
        <ele>258.093463</ele>
        <time>2025-09-05T10:48:52.000Z</time>
      </trkpt>
      <trkpt lat="37.094937" lon="-79.602219">
        <ele>257.379177</ele>
        <time>2025-09-05T10:48:56.000Z</time>
      </trkpt>
      <trkpt lat="37.095881" lon="-79.602931">
        <ele>255.44807</ele>
        <time>2025-09-05T10:49:08.000Z</time>
      </trkpt>
      <trkpt lat="37.096066" lon="-79.603128">
        <ele>255.028705</ele>
        <time>2025-09-05T10:49:11.000Z</time>
      </trkpt>
      <trkpt lat="37.096956" lon="-79.604266">
        <ele>252.965104</ele>
        <time>2025-09-05T10:49:25.000Z</time>
      </trkpt>
      <trkpt lat="37.097076" lon="-79.604432">
        <ele>252.71988</ele>
        <time>2025-09-05T10:49:27.000Z</time>
      </trkpt>
      <trkpt lat="37.097224" lon="-79.604782">
        <ele>252.298782</ele>
        <time>2025-09-05T10:49:31.000Z</time>
      </trkpt>
      <trkpt lat="37.097314" lon="-79.605114">
        <ele>251.920973</ele>
        <time>2025-09-05T10:49:34.000Z</time>
      </trkpt>
      <trkpt lat="37.097352" lon="-79.605484">
        <ele>251.521113</ele>
        <time>2025-09-05T10:49:37.000Z</time>
      </trkpt>
      <trkpt lat="37.097218" lon="-79.607926">
        <ele>252.203672</ele>
        <time>2025-09-05T10:49:59.000Z</time>
      </trkpt>
      <trkpt lat="37.097103" lon="-79.608389">
        <ele>252.535922</ele>
        <time>2025-09-05T10:50:03.000Z</time>
      </trkpt>
      <trkpt lat="37.097016" lon="-79.608613">
        <ele>252.728337</ele>
        <time>2025-09-05T10:50:05.000Z</time>
      </trkpt>
      <trkpt lat="37.096857" lon="-79.608866">
        <ele>252.96398</ele>
        <time>2025-09-05T10:50:08.000Z</time>
      </trkpt>
      <trkpt lat="37.096715" lon="-79.609011">
        <ele>253.155986</ele>
        <time>2025-09-05T10:50:10.000Z</time>
      </trkpt>
      <trkpt lat="37.096672" lon="-79.609042">
        <ele>253.193687</ele>
        <time>2025-09-05T10:50:11.000Z</time>
      </trkpt>
      <trkpt lat="37.09641" lon="-79.609224">
        <ele>253.478734</ele>
        <time>2025-09-05T10:50:14.000Z</time>
      </trkpt>
      <trkpt lat="37.096147" lon="-79.609412">
        <ele>253.771102</ele>
        <time>2025-09-05T10:50:17.000Z</time>
      </trkpt>
      <trkpt lat="37.096014" lon="-79.609503">
        <ele>253.922301</ele>
        <time>2025-09-05T10:50:19.000Z</time>
      </trkpt>
      <trkpt lat="37.095791" lon="-79.609868">
        <ele>254.155145</ele>
        <time>2025-09-05T10:50:23.000Z</time>
      </trkpt>
      <trkpt lat="37.095733" lon="-79.609918">
        <ele>254.164101</ele>
        <time>2025-09-05T10:50:24.000Z</time>
      </trkpt>
      <trkpt lat="37.095677" lon="-79.609932">
        <ele>254.172494</ele>
        <time>2025-09-05T10:50:25.000Z</time>
      </trkpt>
      <trkpt lat="37.095633" lon="-79.610048">
        <ele>254.186253</ele>
        <time>2025-09-05T10:50:26.000Z</time>
      </trkpt>
      <trkpt lat="37.095595" lon="-79.610088">
        <ele>254.193143</ele>
        <time>2025-09-05T10:50:27.000Z</time>
      </trkpt>
      <trkpt lat="37.095084" lon="-79.610372">
        <ele>254.264961</ele>
        <time>2025-09-05T10:50:33.000Z</time>
      </trkpt>
      <trkpt lat="37.095079" lon="-79.610374">
        <ele>254.266433</ele>
        <time>2025-09-05T10:50:33.000Z</time>
      </trkpt>
      <trkpt lat="37.095067" lon="-79.610385">
        <ele>254.267902</ele>
        <time>2025-09-05T10:50:33.000Z</time>
      </trkpt>
      <trkpt lat="37.095069" lon="-79.610385">
        <ele>254.268574</ele>
        <time>2025-09-05T10:50:33.000Z</time>
      </trkpt>
      <trkpt lat="37.095073" lon="-79.610373">
        <ele>254.268699</ele>
        <time>2025-09-05T10:50:33.000Z</time>
      </trkpt>
      <trkpt lat="37.095062" lon="-79.610372">
        <ele>254.268964</ele>
        <time>2025-09-05T10:50:33.000Z</time>
      </trkpt>
      <trkpt lat="37.095052" lon="-79.61038">
        <ele>254.269374</ele>
        <time>2025-09-05T10:50:33.000Z</time>
      </trkpt>
      <trkpt lat="37.095054" lon="-79.610384">
        <ele>254.269769</ele>
        <time>2025-09-05T10:50:33.000Z</time>
      </trkpt>
      <trkpt lat="37.095046" lon="-79.610389">
        <ele>254.272429</ele>
        <time>2025-09-05T10:50:33.000Z</time>
      </trkpt>
      <trkpt lat="37.095007" lon="-79.610362">
        <ele>254.276708</ele>
        <time>2025-09-05T10:50:33.000Z</time>
      </trkpt>
      <trkpt lat="37.094971" lon="-79.610341">
        <ele>254.282327</ele>
        <time>2025-09-05T10:50:33.000Z</time>
      </trkpt>
      <trkpt lat="37.094914" lon="-79.610192">
        <ele>254.299883</ele>
        <time>2025-09-05T10:50:34.000Z</time>
      </trkpt>
      <trkpt lat="37.095414" lon="-79.609897">
        <ele>254.374146</ele>
        <time>2025-09-05T10:50:40.000Z</time>
      </trkpt>
      <trkpt lat="37.095417" lon="-79.609894">
        <ele>254.374288</ele>
        <time>2025-09-05T10:50:40.000Z</time>
      </trkpt>
      <trkpt lat="37.09542" lon="-79.609891">
        <ele>254.373175</ele>
        <time>2025-09-05T10:50:40.000Z</time>
      </trkpt>
      <trkpt lat="37.095436" lon="-79.60988">
        <ele>254.365541</ele>
        <time>2025-09-05T10:50:40.000Z</time>
      </trkpt>
      <trkpt lat="37.095427" lon="-79.609879">
        <ele>254.364546</ele>
        <time>2025-09-05T10:50:40.000Z</time>
      </trkpt>
      <trkpt lat="37.095434" lon="-79.609888">
        <ele>254.363777</ele>
        <time>2025-09-05T10:50:40.000Z</time>
      </trkpt>
      <trkpt lat="37.095439" lon="-79.609879">
        <ele>254.360426</ele>
        <time>2025-09-05T10:50:40.000Z</time>
      </trkpt>
      <trkpt lat="37.095444" lon="-79.609872">
        <ele>254.359426</ele>
        <time>2025-09-05T10:50:40.000Z</time>
      </trkpt>
      <trkpt lat="37.095445" lon="-79.609869">
        <ele>254.355128</ele>
        <time>2025-09-05T10:50:40.000Z</time>
      </trkpt>
      <trkpt lat="37.095441" lon="-79.609877">
        <ele>254.351784</ele>
        <time>2025-09-05T10:50:40.000Z</time>
      </trkpt>
      <trkpt lat="37.095479" lon="-79.609844">
        <ele>254.316384</ele>
        <time>2025-09-05T10:50:41.000Z</time>
      </trkpt>
      <trkpt lat="37.095531" lon="-79.60982">
        <ele>254.286253</ele>
        <time>2025-09-05T10:50:42.000Z</time>
      </trkpt>
      <trkpt lat="37.095604" lon="-79.609828">
        <ele>254.224837</ele>
        <time>2025-09-05T10:50:43.000Z</time>
      </trkpt>
      <trkpt lat="37.095618" lon="-79.609784">
        <ele>254.195106</ele>
        <time>2025-09-05T10:50:43.000Z</time>
      </trkpt>
      <trkpt lat="37.095682" lon="-79.6097">
        <ele>254.122786</ele>
        <time>2025-09-05T10:50:44.000Z</time>
      </trkpt>
      <trkpt lat="37.096007" lon="-79.609486">
        <ele>253.841909</ele>
        <time>2025-09-05T10:50:48.000Z</time>
      </trkpt>
      <trkpt lat="37.096151" lon="-79.609409">
        <ele>253.719173</ele>
        <time>2025-09-05T10:50:50.000Z</time>
      </trkpt>
      <trkpt lat="37.096416" lon="-79.609226">
        <ele>253.481777</ele>
        <time>2025-09-05T10:50:53.000Z</time>
      </trkpt>
      <trkpt lat="37.096663" lon="-79.609039">
        <ele>253.250351</ele>
        <time>2025-09-05T10:50:56.000Z</time>
      </trkpt>
      <trkpt lat="37.096705" lon="-79.609006">
        <ele>253.219743</ele>
        <time>2025-09-05T10:50:57.000Z</time>
      </trkpt>
      <trkpt lat="37.096873" lon="-79.608854">
        <ele>253.063858</ele>
        <time>2025-09-05T10:50:59.000Z</time>
      </trkpt>
      <trkpt lat="37.097032" lon="-79.608613">
        <ele>252.838611</ele>
        <time>2025-09-05T10:51:02.000Z</time>
      </trkpt>
      <trkpt lat="37.097106" lon="-79.608396">
        <ele>252.631964</ele>
        <time>2025-09-05T10:51:04.000Z</time>
      </trkpt>
      <trkpt lat="37.097213" lon="-79.60792">
        <ele>252.233918</ele>
        <time>2025-09-05T10:51:08.000Z</time>
      </trkpt>
      <trkpt lat="37.097345" lon="-79.605473">
        <ele>251.764012</ele>
        <time>2025-09-05T10:51:30.000Z</time>
      </trkpt>
      <trkpt lat="37.097319" lon="-79.605104">
        <ele>251.977631</ele>
        <time>2025-09-05T10:51:33.000Z</time>
      </trkpt>
      <trkpt lat="37.097219" lon="-79.604778">
        <ele>252.179467</ele>
        <time>2025-09-05T10:51:36.000Z</time>
      </trkpt>
      <trkpt lat="37.097077" lon="-79.60444">
        <ele>252.404439</ele>
        <time>2025-09-05T10:51:39.000Z</time>
      </trkpt>
      <trkpt lat="37.096971" lon="-79.604261">
        <ele>252.70214</ele>
        <time>2025-09-05T10:51:41.000Z</time>
      </trkpt>
      <trkpt lat="37.096073" lon="-79.603122">
        <ele>255.040281</ele>
        <time>2025-09-05T10:51:55.000Z</time>
      </trkpt>
      <trkpt lat="37.095869" lon="-79.602936">
        <ele>255.490293</ele>
        <time>2025-09-05T10:51:58.000Z</time>
      </trkpt>
      <trkpt lat="37.094932" lon="-79.602216">
        <ele>257.302729</ele>
        <time>2025-09-05T10:52:10.000Z</time>
      </trkpt>
      <trkpt lat="37.09463" lon="-79.601891">
        <ele>257.949619</ele>
        <time>2025-09-05T10:52:14.000Z</time>
      </trkpt>
      <trkpt lat="37.094387" lon="-79.601494">
        <ele>258.589164</ele>
        <time>2025-09-05T10:52:18.000Z</time>
      </trkpt>
      <trkpt lat="37.094088" lon="-79.60068">
        <ele>260.891457</ele>
        <time>2025-09-05T10:52:26.000Z</time>
      </trkpt>
      <trkpt lat="37.094004" lon="-79.600375">
        <ele>261.712099</ele>
        <time>2025-09-05T10:52:29.000Z</time>
      </trkpt>
      <trkpt lat="37.093354" lon="-79.598674">
        <ele>266.506915</ele>
        <time>2025-09-05T10:52:46.000Z</time>
      </trkpt>
      <trkpt lat="37.09218" lon="-79.595277">
        <ele>273.886325</ele>
        <time>2025-09-05T10:53:19.000Z</time>
      </trkpt>
      <trkpt lat="37.091518" lon="-79.593433">
        <ele>276.932384</ele>
        <time>2025-09-05T10:53:37.000Z</time>
      </trkpt>
      <trkpt lat="37.091405" lon="-79.593136">
        <ele>277.299952</ele>
        <time>2025-09-05T10:53:40.000Z</time>
      </trkpt>
      <trkpt lat="37.091094" lon="-79.593638">
        <ele>277.410868</ele>
        <time>2025-09-05T10:53:46.000Z</time>
      </trkpt>
      <trkpt lat="37.090182" lon="-79.595296">
        <ele>276.925062</ele>
        <time>2025-09-05T10:54:04.000Z</time>
      </trkpt>
      <trkpt lat="37.089821" lon="-79.595923">
        <ele>275.739259</ele>
        <time>2025-09-05T10:54:11.000Z</time>
      </trkpt>
      <trkpt lat="37.089732" lon="-79.596072">
        <ele>275.474136</ele>
        <time>2025-09-05T10:54:13.000Z</time>
      </trkpt>
      <trkpt lat="37.089571" lon="-79.596375">
        <ele>274.886973</ele>
        <time>2025-09-05T10:54:16.000Z</time>
      </trkpt>
      <trkpt lat="37.089125" lon="-79.597134">
        <ele>272.653808</ele>
        <time>2025-09-05T10:54:24.000Z</time>
      </trkpt>
      <trkpt lat="37.088594" lon="-79.59788">
        <ele>269.45643</ele>
        <time>2025-09-05T10:54:33.000Z</time>
      </trkpt>
      <trkpt lat="37.088276" lon="-79.598213">
        <ele>267.79877</ele>
        <time>2025-09-05T10:54:38.000Z</time>
      </trkpt>
      <trkpt lat="37.087766" lon="-79.5986">
        <ele>266.178525</ele>
        <time>2025-09-05T10:54:45.000Z</time>
      </trkpt>
      <trkpt lat="37.087298" lon="-79.598931">
        <ele>265.005674</ele>
        <time>2025-09-05T10:54:51.000Z</time>
      </trkpt>
      <trkpt lat="37.086978" lon="-79.599264">
        <ele>264.106661</ele>
        <time>2025-09-05T10:54:56.000Z</time>
      </trkpt>
      <trkpt lat="37.086897" lon="-79.599366">
        <ele>263.86383</ele>
        <time>2025-09-05T10:54:57.000Z</time>
      </trkpt>
      <trkpt lat="37.086756" lon="-79.599703">
        <ele>263.197628</ele>
        <time>2025-09-05T10:55:00.000Z</time>
      </trkpt>
      <trkpt lat="37.086004" lon="-79.602015">
        <ele>259.874625</ele>
        <time>2025-09-05T10:55:22.000Z</time>
      </trkpt>
      <trkpt lat="37.085829" lon="-79.602451">
        <ele>259.772159</ele>
        <time>2025-09-05T10:55:26.000Z</time>
      </trkpt>
      <trkpt lat="37.085659" lon="-79.602721">
        <ele>259.702659</ele>
        <time>2025-09-05T10:55:29.000Z</time>
      </trkpt>
      <trkpt lat="37.085433" lon="-79.602966">
        <ele>259.62244</ele>
        <time>2025-09-05T10:55:32.000Z</time>
      </trkpt>
      <trkpt lat="37.085191" lon="-79.603171">
        <ele>259.54432</ele>
        <time>2025-09-05T10:55:35.000Z</time>
      </trkpt>
      <trkpt lat="37.083908" lon="-79.603638">
        <ele>259.447956</ele>
        <time>2025-09-05T10:55:50.000Z</time>
      </trkpt>
      <trkpt lat="37.08361" lon="-79.603832">
        <ele>259.448569</ele>
        <time>2025-09-05T10:55:54.000Z</time>
      </trkpt>
      <trkpt lat="37.083371" lon="-79.604116">
        <ele>259.449132</ele>
        <time>2025-09-05T10:55:58.000Z</time>
      </trkpt>
      <trkpt lat="37.083194" lon="-79.604433">
        <ele>259.370629</ele>
        <time>2025-09-05T10:56:01.000Z</time>
      </trkpt>
      <trkpt lat="37.083119" lon="-79.604699">
        <ele>259.229187</ele>
        <time>2025-09-05T10:56:04.000Z</time>
      </trkpt>
      <trkpt lat="37.082966" lon="-79.606603">
        <ele>258.352308</ele>
        <time>2025-09-05T10:56:21.000Z</time>
      </trkpt>
      <trkpt lat="37.082891" lon="-79.606945">
        <ele>258.321029</ele>
        <time>2025-09-05T10:56:24.000Z</time>
      </trkpt>
      <trkpt lat="37.082817" lon="-79.607151">
        <ele>258.302235</ele>
        <time>2025-09-05T10:56:26.000Z</time>
      </trkpt>
      <trkpt lat="37.082621" lon="-79.607482">
        <ele>258.265488</ele>
        <time>2025-09-05T10:56:30.000Z</time>
      </trkpt>
      <trkpt lat="37.082436" lon="-79.607632">
        <ele>258.242057</ele>
        <time>2025-09-05T10:56:32.000Z</time>
      </trkpt>
      <trkpt lat="37.082151" lon="-79.607797">
        <ele>258.205555</ele>
        <time>2025-09-05T10:56:35.000Z</time>
      </trkpt>
      <trkpt lat="37.081567" lon="-79.608027">
        <ele>257.190568</ele>
        <time>2025-09-05T10:56:42.000Z</time>
      </trkpt>
      <trkpt lat="37.081302" lon="-79.608204">
        <ele>255.800727</ele>
        <time>2025-09-05T10:56:45.000Z</time>
      </trkpt>
      <trkpt lat="37.08093" lon="-79.608524">
        <ele>253.801972</ele>
        <time>2025-09-05T10:56:50.000Z</time>
      </trkpt>
      <trkpt lat="37.080357" lon="-79.609072">
        <ele>250.551804</ele>
        <time>2025-09-05T10:56:58.000Z</time>
      </trkpt>
      <trkpt lat="37.080153" lon="-79.609342">
        <ele>249.667689</ele>
        <time>2025-09-05T10:57:01.000Z</time>
      </trkpt>
      <trkpt lat="37.080094" lon="-79.609449">
        <ele>249.462377</ele>
        <time>2025-09-05T10:57:02.000Z</time>
      </trkpt>
      <trkpt lat="37.080037" lon="-79.609651">
        <ele>249.057843</ele>
        <time>2025-09-05T10:57:04.000Z</time>
      </trkpt>
      <trkpt lat="37.08002" lon="-79.609845">
        <ele>248.733092</ele>
        <time>2025-09-05T10:57:06.000Z</time>
      </trkpt>
      <trkpt lat="37.080054" lon="-79.610281">
        <ele>247.948335</ele>
        <time>2025-09-05T10:57:10.000Z</time>
      </trkpt>
      <trkpt lat="37.08003" lon="-79.61043">
        <ele>247.650554</ele>
        <time>2025-09-05T10:57:11.000Z</time>
      </trkpt>
      <trkpt lat="37.079993" lon="-79.6105">
        <ele>247.501985</ele>
        <time>2025-09-05T10:57:12.000Z</time>
      </trkpt>
      <trkpt lat="37.079728" lon="-79.610768">
        <ele>246.763927</ele>
        <time>2025-09-05T10:57:16.000Z</time>
      </trkpt>
      <trkpt lat="37.07965" lon="-79.610895">
        <ele>246.464481</ele>
        <time>2025-09-05T10:57:17.000Z</time>
      </trkpt>
      <trkpt lat="37.079541" lon="-79.6112">
        <ele>246.189635</ele>
        <time>2025-09-05T10:57:20.000Z</time>
      </trkpt>
      <trkpt lat="37.079461" lon="-79.611531">
        <ele>246.421438</ele>
        <time>2025-09-05T10:57:23.000Z</time>
      </trkpt>
      <trkpt lat="37.079356" lon="-79.611696">
        <ele>246.551783</ele>
        <time>2025-09-05T10:57:25.000Z</time>
      </trkpt>
      <trkpt lat="37.079173" lon="-79.611844">
        <ele>246.740674</ele>
        <time>2025-09-05T10:57:27.000Z</time>
      </trkpt>
      <trkpt lat="37.07877" lon="-79.611985">
        <ele>247.075352</ele>
        <time>2025-09-05T10:57:32.000Z</time>
      </trkpt>
      <trkpt lat="37.078661" lon="-79.612055">
        <ele>247.182627</ele>
        <time>2025-09-05T10:57:33.000Z</time>
      </trkpt>
      <trkpt lat="37.078593" lon="-79.612146">
        <ele>247.268304</ele>
        <time>2025-09-05T10:57:34.000Z</time>
      </trkpt>
      <trkpt lat="37.078521" lon="-79.61225">
        <ele>247.353403</ele>
        <time>2025-09-05T10:57:35.000Z</time>
      </trkpt>
      <trkpt lat="37.078477" lon="-79.612441">
        <ele>247.479872</ele>
        <time>2025-09-05T10:57:37.000Z</time>
      </trkpt>
      <trkpt lat="37.078486" lon="-79.612632">
        <ele>247.610892</ele>
        <time>2025-09-05T10:57:39.000Z</time>
      </trkpt>
      <trkpt lat="37.078573" lon="-79.61304">
        <ele>247.955368</ele>
        <time>2025-09-05T10:57:43.000Z</time>
      </trkpt>
      <trkpt lat="37.078693" lon="-79.613373">
        <ele>248.248877</ele>
        <time>2025-09-05T10:57:46.000Z</time>
      </trkpt>
      <trkpt lat="37.078822" lon="-79.613709">
        <ele>248.5625</ele>
        <time>2025-09-05T10:57:49.000Z</time>
      </trkpt>
      <trkpt lat="37.07907" lon="-79.614114">
        <ele>248.979444</ele>
        <time>2025-09-05T10:57:54.000Z</time>
      </trkpt>
      <trkpt lat="37.079206" lon="-79.614463">
        <ele>249.292434</ele>
        <time>2025-09-05T10:57:57.000Z</time>
      </trkpt>
      <trkpt lat="37.079278" lon="-79.614825">
        <ele>249.352326</ele>
        <time>2025-09-05T10:58:00.000Z</time>
      </trkpt>
      <trkpt lat="37.07929" lon="-79.615081">
        <ele>249.262364</ele>
        <time>2025-09-05T10:58:02.000Z</time>
      </trkpt>
      <trkpt lat="37.079298" lon="-79.615244">
        <ele>249.201569</ele>
        <time>2025-09-05T10:58:03.000Z</time>
      </trkpt>
      <trkpt lat="37.079274" lon="-79.615293">
        <ele>249.183712</ele>
        <time>2025-09-05T10:58:04.000Z</time>
      </trkpt>
      <trkpt lat="37.079286" lon="-79.615308">
        <ele>249.179169</ele>
        <time>2025-09-05T10:58:04.000Z</time>
      </trkpt>
      <trkpt lat="37.079277" lon="-79.615315">
        <ele>249.176477</ele>
        <time>2025-09-05T10:58:04.000Z</time>
      </trkpt>
      <trkpt lat="37.07927" lon="-79.615322">
        <ele>249.173891</ele>
        <time>2025-09-05T10:58:04.000Z</time>
      </trkpt>
      <trkpt lat="37.07928" lon="-79.615312">
        <ele>249.173326</ele>
        <time>2025-09-05T10:58:04.000Z</time>
      </trkpt>
      <trkpt lat="37.079272" lon="-79.615311">
        <ele>249.172149</ele>
        <time>2025-09-05T10:58:04.000Z</time>
      </trkpt>
      <trkpt lat="37.079264" lon="-79.615318">
        <ele>249.170621</ele>
        <time>2025-09-05T10:58:04.000Z</time>
      </trkpt>
      <trkpt lat="37.079274" lon="-79.615332">
        <ele>249.169529</ele>
        <time>2025-09-05T10:58:04.000Z</time>
      </trkpt>
      <trkpt lat="37.079247" lon="-79.615401">
        <ele>249.141414</ele>
        <time>2025-09-05T10:58:05.000Z</time>
      </trkpt>
      <trkpt lat="37.079185" lon="-79.615506">
        <ele>249.093318</ele>
        <time>2025-09-05T10:58:06.000Z</time>
      </trkpt>
      <trkpt lat="37.07909" lon="-79.615567">
        <ele>249.045068</ele>
        <time>2025-09-05T10:58:07.000Z</time>
      </trkpt>
      <trkpt lat="37.079027" lon="-79.615588">
        <ele>249.014772</ele>
        <time>2025-09-05T10:58:08.000Z</time>
      </trkpt>
      <trkpt lat="37.078922" lon="-79.615578">
        <ele>248.960596</ele>
        <time>2025-09-05T10:58:09.000Z</time>
      </trkpt>
      <trkpt lat="37.078818" lon="-79.615465">
        <ele>248.900832</ele>
        <time>2025-09-05T10:58:11.000Z</time>
      </trkpt>
      <trkpt lat="37.078759" lon="-79.615303">
        <ele>248.837969</ele>
        <time>2025-09-05T10:58:13.000Z</time>
      </trkpt>
      <trkpt lat="37.078746" lon="-79.615289">
        <ele>248.826755</ele>
        <time>2025-09-05T10:58:13.000Z</time>
      </trkpt>
      <trkpt lat="37.07876" lon="-79.61527">
        <ele>248.821316</ele>
        <time>2025-09-05T10:58:13.000Z</time>
      </trkpt>
      <trkpt lat="37.078749" lon="-79.615252">
        <ele>248.819153</ele>
        <time>2025-09-05T10:58:13.000Z</time>
      </trkpt>
      <trkpt lat="37.07876" lon="-79.615249">
        <ele>248.817338</ele>
        <time>2025-09-05T10:58:13.000Z</time>
      </trkpt>
      <trkpt lat="37.078759" lon="-79.615251">
        <ele>248.815527</ele>
        <time>2025-09-05T10:58:13.000Z</time>
      </trkpt>
      <trkpt lat="37.078757" lon="-79.615245">
        <ele>248.814808</ele>
        <time>2025-09-05T10:58:13.000Z</time>
      </trkpt>
      <trkpt lat="37.078754" lon="-79.615241">
        <ele>248.812263</ele>
        <time>2025-09-05T10:58:13.000Z</time>
      </trkpt>
      <trkpt lat="37.078755" lon="-79.615236">
        <ele>248.810827</ele>
        <time>2025-09-05T10:58:13.000Z</time>
      </trkpt>
      <trkpt lat="37.078756" lon="-79.615014">
        <ele>248.732651</ele>
        <time>2025-09-05T10:58:15.000Z</time>
      </trkpt>
      <trkpt lat="37.078816" lon="-79.614173">
        <ele>248.313341</ele>
        <time>2025-09-05T10:58:22.000Z</time>
      </trkpt>
      <trkpt lat="37.078814" lon="-79.613708">
        <ele>248.053712</ele>
        <time>2025-09-05T10:58:26.000Z</time>
      </trkpt>
      <trkpt lat="37.078684" lon="-79.613368">
        <ele>247.835213</ele>
        <time>2025-09-05T10:58:29.000Z</time>
      </trkpt>
      <trkpt lat="37.078574" lon="-79.613026">
        <ele>247.630742</ele>
        <time>2025-09-05T10:58:32.000Z</time>
      </trkpt>
      <trkpt lat="37.078481" lon="-79.612637">
        <ele>247.390765</ele>
        <time>2025-09-05T10:58:36.000Z</time>
      </trkpt>
      <trkpt lat="37.078484" lon="-79.612429">
        <ele>247.284651</ele>
        <time>2025-09-05T10:58:38.000Z</time>
      </trkpt>
      <trkpt lat="37.078521" lon="-79.612252">
        <ele>247.183096</ele>
        <time>2025-09-05T10:58:40.000Z</time>
      </trkpt>
      <trkpt lat="37.078584" lon="-79.612146">
        <ele>247.114769</ele>
        <time>2025-09-05T10:58:41.000Z</time>
      </trkpt>
      <trkpt lat="37.078667" lon="-79.612052">
        <ele>247.045963</ele>
        <time>2025-09-05T10:58:42.000Z</time>
      </trkpt>
      <trkpt lat="37.078781" lon="-79.611982">
        <ele>246.959842</ele>
        <time>2025-09-05T10:58:43.000Z</time>
      </trkpt>
      <trkpt lat="37.079172" lon="-79.611851">
        <ele>246.691085</ele>
        <time>2025-09-05T10:58:48.000Z</time>
      </trkpt>
      <trkpt lat="37.079361" lon="-79.611696">
        <ele>246.539426</ele>
        <time>2025-09-05T10:58:51.000Z</time>
      </trkpt>
      <trkpt lat="37.079454" lon="-79.611523">
        <ele>246.434757</ele>
        <time>2025-09-05T10:58:53.000Z</time>
      </trkpt>
      <trkpt lat="37.079543" lon="-79.611199">
        <ele>246.248614</ele>
        <time>2025-09-05T10:58:56.000Z</time>
      </trkpt>
      <trkpt lat="37.079652" lon="-79.610889">
        <ele>246.372729</ele>
        <time>2025-09-05T10:58:59.000Z</time>
      </trkpt>
      <trkpt lat="37.07973" lon="-79.610771">
        <ele>246.690095</ele>
        <time>2025-09-05T10:59:00.000Z</time>
      </trkpt>
      <trkpt lat="37.07999" lon="-79.610509">
        <ele>247.472288</ele>
        <time>2025-09-05T10:59:04.000Z</time>
      </trkpt>
      <trkpt lat="37.080021" lon="-79.610439">
        <ele>247.629743</ele>
        <time>2025-09-05T10:59:05.000Z</time>
      </trkpt>
      <trkpt lat="37.080052" lon="-79.610279">
        <ele>247.945344</ele>
        <time>2025-09-05T10:59:06.000Z</time>
      </trkpt>
      <trkpt lat="37.080026" lon="-79.609832">
        <ele>248.777012</ele>
        <time>2025-09-05T10:59:10.000Z</time>
      </trkpt>
      <trkpt lat="37.080027" lon="-79.609648">
        <ele>249.121196</ele>
        <time>2025-09-05T10:59:12.000Z</time>
      </trkpt>
      <trkpt lat="37.080089" lon="-79.609445">
        <ele>249.549926</ele>
        <time>2025-09-05T10:59:14.000Z</time>
      </trkpt>
      <trkpt lat="37.080151" lon="-79.609346">
        <ele>249.767523</ele>
        <time>2025-09-05T10:59:15.000Z</time>
      </trkpt>
      <trkpt lat="37.080361" lon="-79.60907">
        <ele>250.544678</ele>
        <time>2025-09-05T10:59:18.000Z</time>
      </trkpt>
      <trkpt lat="37.080926" lon="-79.608517">
        <ele>253.739467</ele>
        <time>2025-09-05T10:59:26.000Z</time>
      </trkpt>
      <trkpt lat="37.081309" lon="-79.608204">
        <ele>255.704141</ele>
        <time>2025-09-05T10:59:31.000Z</time>
      </trkpt>
      <trkpt lat="37.081571" lon="-79.608019">
        <ele>257.070316</ele>
        <time>2025-09-05T10:59:34.000Z</time>
      </trkpt>
      <trkpt lat="37.082146" lon="-79.607795">
        <ele>258.310146</ele>
        <time>2025-09-05T10:59:41.000Z</time>
      </trkpt>
      <trkpt lat="37.082443" lon="-79.607636">
        <ele>258.319777</ele>
        <time>2025-09-05T10:59:45.000Z</time>
      </trkpt>
      <trkpt lat="37.082605" lon="-79.607474">
        <ele>258.325962</ele>
        <time>2025-09-05T10:59:47.000Z</time>
      </trkpt>
      <trkpt lat="37.082811" lon="-79.607148">
        <ele>258.335654</ele>
        <time>2025-09-05T10:59:51.000Z</time>
      </trkpt>
      <trkpt lat="37.082888" lon="-79.606943">
        <ele>258.340609</ele>
        <time>2025-09-05T10:59:53.000Z</time>
      </trkpt>
      <trkpt lat="37.082969" lon="-79.60661">
        <ele>258.348852</ele>
        <time>2025-09-05T10:59:56.000Z</time>
      </trkpt>
      <trkpt lat="37.083104" lon="-79.604697">
        <ele>259.222164</ele>
        <time>2025-09-05T11:00:13.000Z</time>
      </trkpt>
      <trkpt lat="37.083204" lon="-79.604435">
        <ele>259.370462</ele>
        <time>2025-09-05T11:00:16.000Z</time>
      </trkpt>
      <trkpt lat="37.08338" lon="-79.60412">
        <ele>259.48762</ele>
        <time>2025-09-05T11:00:19.000Z</time>
      </trkpt>
      <trkpt lat="37.083603" lon="-79.603828">
        <ele>259.473208</ele>
        <time>2025-09-05T11:00:23.000Z</time>
      </trkpt>
      <trkpt lat="37.083915" lon="-79.603629">
        <ele>259.45826</ele>
        <time>2025-09-05T11:00:27.000Z</time>
      </trkpt>
      <trkpt lat="37.08519" lon="-79.603161">
        <ele>259.516442</ele>
        <time>2025-09-05T11:00:42.000Z</time>
      </trkpt>
      <trkpt lat="37.085447" lon="-79.602978">
        <ele>259.614478</ele>
        <time>2025-09-05T11:00:45.000Z</time>
      </trkpt>
      <trkpt lat="37.085668" lon="-79.602721">
        <ele>259.715136</ele>
        <time>2025-09-05T11:00:48.000Z</time>
      </trkpt>
      <trkpt lat="37.085834" lon="-79.602453">
        <ele>259.802367</ele>
        <time>2025-09-05T11:00:51.000Z</time>
      </trkpt>
      <trkpt lat="37.086019" lon="-79.602025">
        <ele>259.930937</ele>
        <time>2025-09-05T11:00:55.000Z</time>
      </trkpt>
      <trkpt lat="37.086764" lon="-79.599708">
        <ele>263.18406</ele>
        <time>2025-09-05T11:01:17.000Z</time>
      </trkpt>
      <trkpt lat="37.086897" lon="-79.599378">
        <ele>263.851116</ele>
        <time>2025-09-05T11:01:20.000Z</time>
      </trkpt>
      <trkpt lat="37.086971" lon="-79.599259">
        <ele>264.100371</ele>
        <time>2025-09-05T11:01:21.000Z</time>
      </trkpt>
      <trkpt lat="37.087288" lon="-79.598934">
        <ele>265.02317</ele>
        <time>2025-09-05T11:01:26.000Z</time>
      </trkpt>
      <trkpt lat="37.087767" lon="-79.598599">
        <ele>266.227042</ele>
        <time>2025-09-05T11:01:32.000Z</time>
      </trkpt>
      <trkpt lat="37.088266" lon="-79.598209">
        <ele>267.76131</ele>
        <time>2025-09-05T11:01:39.000Z</time>
      </trkpt>
      <trkpt lat="37.0886" lon="-79.597889">
        <ele>269.42105</ele>
        <time>2025-09-05T11:01:44.000Z</time>
      </trkpt>
      <trkpt lat="37.089126" lon="-79.597122">
        <ele>272.622424</ele>
        <time>2025-09-05T11:01:53.000Z</time>
      </trkpt>
      <trkpt lat="37.089566" lon="-79.596377">
        <ele>274.954146</ele>
        <time>2025-09-05T11:02:01.000Z</time>
      </trkpt>
      <trkpt lat="37.089741" lon="-79.59607">
        <ele>275.510054</ele>
        <time>2025-09-05T11:02:04.000Z</time>
      </trkpt>
      <trkpt lat="37.089817" lon="-79.595918">
        <ele>275.76106</ele>
        <time>2025-09-05T11:02:06.000Z</time>
      </trkpt>
      <trkpt lat="37.090172" lon="-79.595295">
        <ele>276.883734</ele>
        <time>2025-09-05T11:02:13.000Z</time>
      </trkpt>
      <trkpt lat="37.091099" lon="-79.593652">
        <ele>277.386567</ele>
        <time>2025-09-05T11:02:31.000Z</time>
      </trkpt>
      <trkpt lat="37.091419" lon="-79.593147">
        <ele>277.24477</ele>
        <time>2025-09-05T11:02:37.000Z</time>
      </trkpt>
      <trkpt lat="37.091514" lon="-79.59343">
        <ele>276.969537</ele>
        <time>2025-09-05T11:02:40.000Z</time>
      </trkpt>
      <trkpt lat="37.092186" lon="-79.595267">
        <ele>273.872693</ele>
        <time>2025-09-05T11:02:58.000Z</time>
      </trkpt>
      <trkpt lat="37.093356" lon="-79.598662">
        <ele>266.485489</ele>
        <time>2025-09-05T11:03:31.000Z</time>
      </trkpt>
      <trkpt lat="37.094001" lon="-79.60038">
        <ele>261.720719</ele>
        <time>2025-09-05T11:03:48.000Z</time>
      </trkpt>
      <trkpt lat="37.094092" lon="-79.600672">
        <ele>260.920107</ele>
        <time>2025-09-05T11:03:51.000Z</time>
      </trkpt>
      <trkpt lat="37.094393" lon="-79.601482">
        <ele>258.625653</ele>
        <time>2025-09-05T11:03:59.000Z</time>
      </trkpt>
      <trkpt lat="37.094624" lon="-79.601892">
        <ele>257.936903</ele>
        <time>2025-09-05T11:04:03.000Z</time>
      </trkpt>
      <trkpt lat="37.094943" lon="-79.602221">
        <ele>257.293199</ele>
        <time>2025-09-05T11:04:08.000Z</time>
      </trkpt>
      <trkpt lat="37.095877" lon="-79.602932">
        <ele>255.502557</ele>
        <time>2025-09-05T11:04:20.000Z</time>
      </trkpt>
      <trkpt lat="37.096076" lon="-79.603124">
        <ele>255.048985</ele>
        <time>2025-09-05T11:04:23.000Z</time>
      </trkpt>
      <trkpt lat="37.096972" lon="-79.604262">
        <ele>252.692307</ele>
        <time>2025-09-05T11:04:37.000Z</time>
      </trkpt>
      <trkpt lat="37.097082" lon="-79.604445">
        <ele>252.354949</ele>
        <time>2025-09-05T11:04:39.000Z</time>
      </trkpt>
      <trkpt lat="37.097221" lon="-79.604781">
        <ele>252.123659</ele>
        <time>2025-09-05T11:04:42.000Z</time>
      </trkpt>
      <trkpt lat="37.097309" lon="-79.605105">
        <ele>251.94858</ele>
        <time>2025-09-05T11:04:45.000Z</time>
      </trkpt>
      <trkpt lat="37.097342" lon="-79.605486">
        <ele>251.763308</ele>
        <time>2025-09-05T11:04:48.000Z</time>
      </trkpt>
      <trkpt lat="37.097218" lon="-79.607926">
        <ele>252.231955</ele>
        <time>2025-09-05T11:05:10.000Z</time>
      </trkpt>
      <trkpt lat="37.097108" lon="-79.608397">
        <ele>252.636755</ele>
        <time>2025-09-05T11:05:14.000Z</time>
      </trkpt>
      <trkpt lat="37.097016" lon="-79.608624">
        <ele>252.84692</ele>
        <time>2025-09-05T11:05:16.000Z</time>
      </trkpt>
      <trkpt lat="37.096868" lon="-79.608863">
        <ele>253.088801</ele>
        <time>2025-09-05T11:05:19.000Z</time>
      </trkpt>
      <trkpt lat="37.096705" lon="-79.609008">
        <ele>253.234605</ele>
        <time>2025-09-05T11:05:21.000Z</time>
      </trkpt>
      <trkpt lat="37.096677" lon="-79.609031">
        <ele>253.263226</ele>
        <time>2025-09-05T11:05:21.000Z</time>
      </trkpt>
      <trkpt lat="37.096423" lon="-79.609214">
        <ele>253.479692</ele>
        <time>2025-09-05T11:05:24.000Z</time>
      </trkpt>
      <trkpt lat="37.096137" lon="-79.609396">
        <ele>253.701711</ele>
        <time>2025-09-05T11:05:28.000Z</time>
      </trkpt>
      <trkpt lat="37.095998" lon="-79.609503">
        <ele>253.816504</ele>
        <time>2025-09-05T11:05:30.000Z</time>
      </trkpt>
      <trkpt lat="37.095789" lon="-79.609864">
        <ele>254.083944</ele>
        <time>2025-09-05T11:05:34.000Z</time>
      </trkpt>
      <trkpt lat="37.095728" lon="-79.609921">
        <ele>254.133017</ele>
        <time>2025-09-05T11:05:35.000Z</time>
      </trkpt>
      <trkpt lat="37.095679" lon="-79.609949">
        <ele>254.178999</ele>
        <time>2025-09-05T11:05:36.000Z</time>
      </trkpt>
      <trkpt lat="37.095628" lon="-79.610065">
        <ele>254.254378</ele>
        <time>2025-09-05T11:05:37.000Z</time>
      </trkpt>
      <trkpt lat="37.095589" lon="-79.610089">
        <ele>254.292113</ele>
        <time>2025-09-05T11:05:37.000Z</time>
      </trkpt>
      <trkpt lat="37.095093" lon="-79.610375">
        <ele>254.30391</ele>
        <time>2025-09-05T11:05:43.000Z</time>
      </trkpt>
      <trkpt lat="37.095074" lon="-79.610375">
        <ele>254.302545</ele>
        <time>2025-09-05T11:05:43.000Z</time>
      </trkpt>
      <trkpt lat="37.095063" lon="-79.610384">
        <ele>254.301162</ele>
        <time>2025-09-05T11:05:43.000Z</time>
      </trkpt>
      <trkpt lat="37.095057" lon="-79.610374">
        <ele>254.30053</ele>
        <time>2025-09-05T11:05:43.000Z</time>
      </trkpt>
      <trkpt lat="37.095065" lon="-79.610387">
        <ele>254.300415</ele>
        <time>2025-09-05T11:05:43.000Z</time>
      </trkpt>
      <trkpt lat="37.095061" lon="-79.610382">
        <ele>254.300155</ele>
        <time>2025-09-05T11:05:43.000Z</time>
      </trkpt>
      <trkpt lat="37.09506" lon="-79.610372">
        <ele>254.299781</ele>
        <time>2025-09-05T11:05:43.000Z</time>
      </trkpt>
      <trkpt lat="37.09505" lon="-79.610381">
        <ele>254.299393</ele>
        <time>2025-09-05T11:05:43.000Z</time>
      </trkpt>
      <trkpt lat="37.095029" lon="-79.61039">
        <ele>254.296897</ele>
        <time>2025-09-05T11:05:43.000Z</time>
      </trkpt>
      <trkpt lat="37.095003" lon="-79.610368">
        <ele>254.292879</ele>
        <time>2025-09-05T11:05:43.000Z</time>
      </trkpt>
      <trkpt lat="37.094966" lon="-79.61034">
        <ele>254.2876</ele>
        <time>2025-09-05T11:05:43.000Z</time>
      </trkpt>
      <trkpt lat="37.094912" lon="-79.610183">
        <ele>254.271093</ele>
        <time>2025-09-05T11:05:45.000Z</time>
      </trkpt>
      <trkpt lat="37.095415" lon="-79.609886">
        <ele>254.201295</ele>
        <time>2025-09-05T11:05:51.000Z</time>
      </trkpt>
      <trkpt lat="37.095422" lon="-79.60989">
        <ele>254.201164</ele>
        <time>2025-09-05T11:05:51.000Z</time>
      </trkpt>
      <trkpt lat="37.095417" lon="-79.609889">
        <ele>254.200847</ele>
        <time>2025-09-05T11:05:51.000Z</time>
      </trkpt>
      <trkpt lat="37.095433" lon="-79.609885">
        <ele>254.199624</ele>
        <time>2025-09-05T11:05:51.000Z</time>
      </trkpt>
      <trkpt lat="37.095424" lon="-79.609881">
        <ele>254.199462</ele>
        <time>2025-09-05T11:05:51.000Z</time>
      </trkpt>
      <trkpt lat="37.095425" lon="-79.609884">
        <ele>254.199347</ele>
        <time>2025-09-05T11:05:51.000Z</time>
      </trkpt>
      <trkpt lat="37.095438" lon="-79.609872">
        <ele>254.198799</ele>
        <time>2025-09-05T11:05:51.000Z</time>
      </trkpt>
      <trkpt lat="37.095433" lon="-79.609879">
        <ele>254.198649</ele>
        <time>2025-09-05T11:05:51.000Z</time>
      </trkpt>
      <trkpt lat="37.095433" lon="-79.609873">
        <ele>254.197961</ele>
        <time>2025-09-05T11:05:51.000Z</time>
      </trkpt>
      <trkpt lat="37.095453" lon="-79.60988">
        <ele>254.197421</ele>
        <time>2025-09-05T11:05:51.000Z</time>
      </trkpt>
      <trkpt lat="37.095483" lon="-79.609841">
        <ele>254.191743</ele>
        <time>2025-09-05T11:05:51.000Z</time>
      </trkpt>
      <trkpt lat="37.095518" lon="-79.609828">
        <ele>254.186911</ele>
        <time>2025-09-05T11:05:51.000Z</time>
      </trkpt>
      <trkpt lat="37.095605" lon="-79.609814">
        <ele>254.177057</ele>
        <time>2025-09-05T11:05:52.000Z</time>
      </trkpt>
      <trkpt lat="37.095621" lon="-79.609782">
        <ele>254.172274</ele>
        <time>2025-09-05T11:05:52.000Z</time>
      </trkpt>
      <trkpt lat="37.095691" lon="-79.609692">
        <ele>254.16068</ele>
        <time>2025-09-05T11:05:53.000Z</time>
      </trkpt>
      <trkpt lat="37.096014" lon="-79.609495">
        <ele>253.975041</ele>
        <time>2025-09-05T11:05:57.000Z</time>
      </trkpt>
      <trkpt lat="37.096137" lon="-79.609412">
        <ele>253.817376</ele>
        <time>2025-09-05T11:05:59.000Z</time>
      </trkpt>
      <trkpt lat="37.096409" lon="-79.609218">
        <ele>253.512479</ele>
        <time>2025-09-05T11:06:02.000Z</time>
      </trkpt>
      <trkpt lat="37.096663" lon="-79.609028">
        <ele>253.215222</ele>
        <time>2025-09-05T11:06:05.000Z</time>
      </trkpt>
      <trkpt lat="37.096709" lon="-79.609001">
        <ele>253.17591</ele>
        <time>2025-09-05T11:06:06.000Z</time>
      </trkpt>
      <trkpt lat="37.096873" lon="-79.608852">
        <ele>252.975679</ele>
        <time>2025-09-05T11:06:08.000Z</time>
      </trkpt>
      <trkpt lat="37.097033" lon="-79.60862">
        <ele>252.729929</ele>
        <time>2025-09-05T11:06:11.000Z</time>
      </trkpt>
      <trkpt lat="37.097105" lon="-79.608392">
        <ele>252.52929</ele>
        <time>2025-09-05T11:06:13.000Z</time>
      </trkpt>
      <trkpt lat="37.097216" lon="-79.60792">
        <ele>252.18857</ele>
        <time>2025-09-05T11:06:17.000Z</time>
      </trkpt>
      <trkpt lat="37.097342" lon="-79.605486">
        <ele>251.463391</ele>
        <time>2025-09-05T11:06:39.000Z</time>
      </trkpt>
      <trkpt lat="37.097317" lon="-79.605115">
        <ele>251.884002</ele>
        <time>2025-09-05T11:06:42.000Z</time>
      </trkpt>
      <trkpt lat="37.097227" lon="-79.604771">
        <ele>252.281427</ele>
        <time>2025-09-05T11:06:45.000Z</time>
      </trkpt>
      <trkpt lat="37.097072" lon="-79.604447">
        <ele>252.724367</ele>
        <time>2025-09-05T11:06:48.000Z</time>
      </trkpt>
      <trkpt lat="37.096966" lon="-79.604257">
        <ele>252.982327</ele>
        <time>2025-09-05T11:06:50.000Z</time>
      </trkpt>
      <trkpt lat="37.096073" lon="-79.603138">
        <ele>255.033628</ele>
        <time>2025-09-05T11:07:04.000Z</time>
      </trkpt>
      <trkpt lat="37.095869" lon="-79.602932">
        <ele>255.448664</ele>
        <time>2025-09-05T11:07:07.000Z</time>
      </trkpt>
      <trkpt lat="37.094928" lon="-79.602219">
        <ele>257.382097</ele>
        <time>2025-09-05T11:07:19.000Z</time>
      </trkpt>
      <trkpt lat="37.094616" lon="-79.601888">
        <ele>258.112283</ele>
        <time>2025-09-05T11:07:24.000Z</time>
      </trkpt>
      <trkpt lat="37.094391" lon="-79.601483">
        <ele>258.834175</ele>
        <time>2025-09-05T11:07:28.000Z</time>
      </trkpt>
      <trkpt lat="37.094101" lon="-79.600665">
        <ele>260.446762</ele>
        <time>2025-09-05T11:07:36.000Z</time>
      </trkpt>
      <trkpt lat="37.093988" lon="-79.600383">
        <ele>261.380003</ele>
        <time>2025-09-05T11:07:39.000Z</time>
      </trkpt>
      <trkpt lat="37.093357" lon="-79.598665">
        <ele>266.867504</ele>
        <time>2025-09-05T11:07:56.000Z</time>
      </trkpt>
      <trkpt lat="37.092191" lon="-79.595278">
        <ele>273.876113</ele>
        <time>2025-09-05T11:08:29.000Z</time>
      </trkpt>
      <trkpt lat="37.091516" lon="-79.59344">
        <ele>276.654474</ele>
        <time>2025-09-05T11:08:47.000Z</time>
      </trkpt>
      <trkpt lat="37.091413" lon="-79.593143">
        <ele>277.040173</ele>
        <time>2025-09-05T11:08:50.000Z</time>
      </trkpt>
      <trkpt lat="37.091109" lon="-79.59365">
        <ele>277.721422</ele>
        <time>2025-09-05T11:08:56.000Z</time>
      </trkpt>
      <trkpt lat="37.090174" lon="-79.595295">
        <ele>277.282464</ele>
        <time>2025-09-05T11:09:14.000Z</time>
      </trkpt>
      <trkpt lat="37.08982" lon="-79.59592">
        <ele>275.893377</ele>
        <time>2025-09-05T11:09:21.000Z</time>
      </trkpt>
      <trkpt lat="37.089738" lon="-79.59606">
        <ele>275.504804</ele>
        <time>2025-09-05T11:09:23.000Z</time>
      </trkpt>
      <trkpt lat="37.089558" lon="-79.596377">
        <ele>274.644218</ele>
        <time>2025-09-05T11:09:26.000Z</time>
      </trkpt>
      <trkpt lat="37.089136" lon="-79.597129">
        <ele>272.525625</ele>
        <time>2025-09-05T11:09:34.000Z</time>
      </trkpt>
      <trkpt lat="37.088596" lon="-79.59789">
        <ele>269.688684</ele>
        <time>2025-09-05T11:09:43.000Z</time>
      </trkpt>
      <trkpt lat="37.088266" lon="-79.598213">
        <ele>268.158768</ele>
        <time>2025-09-05T11:09:48.000Z</time>
      </trkpt>
      <trkpt lat="37.087769" lon="-79.598609">
        <ele>265.996348</ele>
        <time>2025-09-05T11:09:55.000Z</time>
      </trkpt>
      <trkpt lat="37.087292" lon="-79.59893">
        <ele>264.765799</ele>
        <time>2025-09-05T11:10:01.000Z</time>
      </trkpt>
      <trkpt lat="37.086974" lon="-79.599252">
        <ele>263.998696</ele>
        <time>2025-09-05T11:10:06.000Z</time>
      </trkpt>
      <trkpt lat="37.086899" lon="-79.599364">
        <ele>263.7915</ele>
        <time>2025-09-05T11:10:07.000Z</time>
      </trkpt>
      <trkpt lat="37.086767" lon="-79.599704">
        <ele>263.223061</ele>
        <time>2025-09-05T11:10:10.000Z</time>
      </trkpt>
      <trkpt lat="37.086019" lon="-79.602022">
        <ele>259.941538</ele>
        <time>2025-09-05T11:10:32.000Z</time>
      </trkpt>
      <trkpt lat="37.085833" lon="-79.602459">
        <ele>259.379772</ele>
        <time>2025-09-05T11:10:36.000Z</time>
      </trkpt>
      <trkpt lat="37.085657" lon="-79.60271">
        <ele>259.425587</ele>
        <time>2025-09-05T11:10:39.000Z</time>
      </trkpt>
      <trkpt lat="37.085432" lon="-79.602975">
        <ele>259.478459</ele>
        <time>2025-09-05T11:10:42.000Z</time>
      </trkpt>
      <trkpt lat="37.085179" lon="-79.603162">
        <ele>259.529932</ele>
        <time>2025-09-05T11:10:45.000Z</time>
      </trkpt>
      <trkpt lat="37.083913" lon="-79.603632">
        <ele>259.528439</ele>
        <time>2025-09-05T11:11:00.000Z</time>
      </trkpt>
      <trkpt lat="37.0836" lon="-79.603823">
        <ele>259.402781</ele>
        <time>2025-09-05T11:11:04.000Z</time>
      </trkpt>
      <trkpt lat="37.083367" lon="-79.604116">
        <ele>259.281706</ele>
        <time>2025-09-05T11:11:08.000Z</time>
      </trkpt>
      <trkpt lat="37.083188" lon="-79.60442">
        <ele>259.169498</ele>
        <time>2025-09-05T11:11:11.000Z</time>
      </trkpt>
      <trkpt lat="37.083107" lon="-79.604703">
        <ele>259.083509</ele>
        <time>2025-09-05T11:11:14.000Z</time>
      </trkpt>
      <trkpt lat="37.082973" lon="-79.60662">
        <ele>258.699596</ele>
        <time>2025-09-05T11:11:31.000Z</time>
      </trkpt>
      <trkpt lat="37.082892" lon="-79.606949">
        <ele>258.63259</ele>
        <time>2025-09-05T11:11:34.000Z</time>
      </trkpt>
      <trkpt lat="37.082814" lon="-79.607143">
        <ele>258.568432</ele>
        <time>2025-09-05T11:11:36.000Z</time>
      </trkpt>
      <trkpt lat="37.082613" lon="-79.607483">
        <ele>258.16472</ele>
        <time>2025-09-05T11:11:40.000Z</time>
      </trkpt>
      <trkpt lat="37.082445" lon="-79.607645">
        <ele>257.90751</ele>
        <time>2025-09-05T11:11:42.000Z</time>
      </trkpt>
      <trkpt lat="37.08214" lon="-79.607799">
        <ele>257.506411</ele>
        <time>2025-09-05T11:11:46.000Z</time>
      </trkpt>
      <trkpt lat="37.081577" lon="-79.60803">
        <ele>256.783933</ele>
        <time>2025-09-05T11:11:53.000Z</time>
      </trkpt>
      <trkpt lat="37.081308" lon="-79.608211">
        <ele>256.393458</ele>
        <time>2025-09-05T11:11:56.000Z</time>
      </trkpt>
      <trkpt lat="37.080937" lon="-79.608524">
        <ele>254.34831</ele>
        <time>2025-09-05T11:12:01.000Z</time>
      </trkpt>
      <trkpt lat="37.080355" lon="-79.609083">
        <ele>251.022696</ele>
        <time>2025-09-05T11:12:09.000Z</time>
      </trkpt>
      <trkpt lat="37.080146" lon="-79.609346">
        <ele>249.653803</ele>
        <time>2025-09-05T11:12:12.000Z</time>
      </trkpt>
      <trkpt lat="37.080096" lon="-79.609432">
        <ele>249.232714</ele>
        <time>2025-09-05T11:12:13.000Z</time>
      </trkpt>
      <trkpt lat="37.080034" lon="-79.609649">
        <ele>248.403048</ele>
        <time>2025-09-05T11:12:15.000Z</time>
      </trkpt>
      <trkpt lat="37.080017" lon="-79.609833">
        <ele>248.065579</ele>
        <time>2025-09-05T11:12:17.000Z</time>
      </trkpt>
      <trkpt lat="37.080063" lon="-79.610281">
        <ele>247.651819</ele>
        <time>2025-09-05T11:12:21.000Z</time>
      </trkpt>
      <trkpt lat="37.080025" lon="-79.610436">
        <ele>247.494803</ele>
        <time>2025-09-05T11:12:22.000Z</time>
      </trkpt>
      <trkpt lat="37.079991" lon="-79.610518">
        <ele>247.416469</ele>
        <time>2025-09-05T11:12:23.000Z</time>
      </trkpt>
      <trkpt lat="37.079743" lon="-79.610778">
        <ele>247.027321</ele>
        <time>2025-09-05T11:12:27.000Z</time>
      </trkpt>
      <trkpt lat="37.079644" lon="-79.610904">
        <ele>246.869423</ele>
        <time>2025-09-05T11:12:29.000Z</time>
      </trkpt>
      <trkpt lat="37.079543" lon="-79.611187">
        <ele>246.561225</ele>
        <time>2025-09-05T11:12:32.000Z</time>
      </trkpt>
      <trkpt lat="37.079447" lon="-79.611538">
        <ele>246.23074</ele>
        <time>2025-09-05T11:12:35.000Z</time>
      </trkpt>
      <trkpt lat="37.079367" lon="-79.611693">
        <ele>246.083702</ele>
        <time>2025-09-05T11:12:37.000Z</time>
      </trkpt>
      <trkpt lat="37.079168" lon="-79.611852">
        <ele>246.386757</ele>
        <time>2025-09-05T11:12:40.000Z</time>
      </trkpt>
      <trkpt lat="37.078772" lon="-79.611995">
        <ele>246.923719</ele>
        <time>2025-09-05T11:12:45.000Z</time>
      </trkpt>
      <trkpt lat="37.078657" lon="-79.61206">
        <ele>247.095822</ele>
        <time>2025-09-05T11:12:46.000Z</time>
      </trkpt>
      <trkpt lat="37.078588" lon="-79.612141">
        <ele>247.233277</ele>
        <time>2025-09-05T11:12:47.000Z</time>
      </trkpt>
      <trkpt lat="37.078523" lon="-79.612259">
        <ele>247.369799</ele>
        <time>2025-09-05T11:12:48.000Z</time>
      </trkpt>
      <trkpt lat="37.078473" lon="-79.612432">
        <ele>247.572704</ele>
        <time>2025-09-05T11:12:50.000Z</time>
      </trkpt>
      <trkpt lat="37.07848" lon="-79.61263">
        <ele>247.776562</ele>
        <time>2025-09-05T11:12:52.000Z</time>
      </trkpt>
      <trkpt lat="37.078587" lon="-79.61303">
        <ele>248.222756</ele>
        <time>2025-09-05T11:12:56.000Z</time>
      </trkpt>
      <trkpt lat="37.078696" lon="-79.613356">
        <ele>248.500232</ele>
        <time>2025-09-05T11:12:59.000Z</time>
      </trkpt>
      <trkpt lat="37.078816" lon="-79.613705">
        <ele>248.643127</ele>
        <time>2025-09-05T11:13:02.000Z</time>
      </trkpt>
      <trkpt lat="37.079067" lon="-79.614106">
        <ele>248.833102</ele>
        <time>2025-09-05T11:13:07.000Z</time>
      </trkpt>
      <trkpt lat="37.079218" lon="-79.614453">
        <ele>248.975694</ele>
        <time>2025-09-05T11:13:11.000Z</time>
      </trkpt>
      <trkpt lat="37.079275" lon="-79.614825">
        <ele>249.116243</ele>
        <time>2025-09-05T11:13:14.000Z</time>
      </trkpt>
      <trkpt lat="37.079293" lon="-79.615064">
        <ele>249.208569</ele>
        <time>2025-09-05T11:13:16.000Z</time>
      </trkpt>
      <trkpt lat="37.079286" lon="-79.615239">
        <ele>249.270993</ele>
        <time>2025-09-05T11:13:18.000Z</time>
      </trkpt>
      <trkpt lat="37.079272" lon="-79.615287">
        <ele>249.274834</ele>
        <time>2025-09-05T11:13:18.000Z</time>
      </trkpt>
      <trkpt lat="37.079279" lon="-79.615305">
        <ele>249.27013</ele>
        <time>2025-09-05T11:13:18.000Z</time>
      </trkpt>
      <trkpt lat="37.079284" lon="-79.615312">
        <ele>249.267349</ele>
        <time>2025-09-05T11:13:18.000Z</time>
      </trkpt>
      <trkpt lat="37.079275" lon="-79.61531">
        <ele>249.264681</ele>
        <time>2025-09-05T11:13:18.000Z</time>
      </trkpt>
      <trkpt lat="37.079275" lon="-79.61531">
        <ele>249.264078</ele>
        <time>2025-09-05T11:13:18.000Z</time>
      </trkpt>
      <trkpt lat="37.079276" lon="-79.615325">
        <ele>249.262866</ele>
        <time>2025-09-05T11:13:18.000Z</time>
      </trkpt>
      <trkpt lat="37.079279" lon="-79.61533">
        <ele>249.261302</ele>
        <time>2025-09-05T11:13:18.000Z</time>
      </trkpt>
      <trkpt lat="37.079274" lon="-79.615327">
        <ele>249.260169</ele>
        <time>2025-09-05T11:13:18.000Z</time>
      </trkpt>
      <trkpt lat="37.079251" lon="-79.615399">
        <ele>249.231092</ele>
        <time>2025-09-05T11:13:19.000Z</time>
      </trkpt>
      <trkpt lat="37.079186" lon="-79.615497">
        <ele>249.181358</ele>
        <time>2025-09-05T11:13:20.000Z</time>
      </trkpt>
      <trkpt lat="37.079086" lon="-79.615578">
        <ele>249.131479</ele>
        <time>2025-09-05T11:13:21.000Z</time>
      </trkpt>
      <trkpt lat="37.079026" lon="-79.615595">
        <ele>249.100143</ele>
        <time>2025-09-05T11:13:22.000Z</time>
      </trkpt>
      <trkpt lat="37.078908" lon="-79.615581">
        <ele>249.04413</ele>
        <time>2025-09-05T11:13:23.000Z</time>
      </trkpt>
      <trkpt lat="37.078821" lon="-79.615462">
        <ele>248.982331</ele>
        <time>2025-09-05T11:13:24.000Z</time>
      </trkpt>
      <trkpt lat="37.078744" lon="-79.615306">
        <ele>248.917324</ele>
        <time>2025-09-05T11:13:26.000Z</time>
      </trkpt>
      <trkpt lat="37.078748" lon="-79.615283">
        <ele>248.905708</ele>
        <time>2025-09-05T11:13:26.000Z</time>
      </trkpt>
      <trkpt lat="37.078758" lon="-79.61526">
        <ele>248.900103</ele>
        <time>2025-09-05T11:13:26.000Z</time>
      </trkpt>
      <trkpt lat="37.07876" lon="-79.615264">
        <ele>248.897861</ele>
        <time>2025-09-05T11:13:26.000Z</time>
      </trkpt>
      <trkpt lat="37.078759" lon="-79.615254">
        <ele>248.895989</ele>
        <time>2025-09-05T11:13:26.000Z</time>
      </trkpt>
      <trkpt lat="37.078754" lon="-79.615248">
        <ele>248.894123</ele>
        <time>2025-09-05T11:13:26.000Z</time>
      </trkpt>
      <trkpt lat="37.078754" lon="-79.615246">
        <ele>248.893366</ele>
        <time>2025-09-05T11:13:26.000Z</time>
      </trkpt>
      <trkpt lat="37.078742" lon="-79.615246">
        <ele>248.890745</ele>
        <time>2025-09-05T11:13:26.000Z</time>
      </trkpt>
      <trkpt lat="37.078742" lon="-79.615231">
        <ele>248.889247</ele>
        <time>2025-09-05T11:13:26.000Z</time>
      </trkpt>
      <trkpt lat="37.078755" lon="-79.615018">
        <ele>248.808413</ele>
        <time>2025-09-05T11:13:28.000Z</time>
      </trkpt>
      <trkpt lat="37.078821" lon="-79.614167">
        <ele>248.487251</ele>
        <time>2025-09-05T11:13:36.000Z</time>
      </trkpt>
      <trkpt lat="37.078831" lon="-79.613708">
        <ele>248.175652</ele>
        <time>2025-09-05T11:13:40.000Z</time>
      </trkpt>
      <trkpt lat="37.078688" lon="-79.613357">
        <ele>247.866154</ele>
        <time>2025-09-05T11:13:43.000Z</time>
      </trkpt>
      <trkpt lat="37.078576" lon="-79.613032">
        <ele>247.576496</ele>
        <time>2025-09-05T11:13:46.000Z</time>
      </trkpt>
      <trkpt lat="37.078481" lon="-79.612633">
        <ele>247.236592</ele>
        <time>2025-09-05T11:13:50.000Z</time>
      </trkpt>
      <trkpt lat="37.078478" lon="-79.612431">
        <ele>247.081277</ele>
        <time>2025-09-05T11:13:52.000Z</time>
      </trkpt>
      <trkpt lat="37.078531" lon="-79.612247">
        <ele>246.926715</ele>
        <time>2025-09-05T11:13:54.000Z</time>
      </trkpt>
      <trkpt lat="37.078583" lon="-79.612138">
        <ele>246.822691</ele>
        <time>2025-09-05T11:13:55.000Z</time>
      </trkpt>
      <trkpt lat="37.078657" lon="-79.612061">
        <ele>246.717979</ele>
        <time>2025-09-05T11:13:56.000Z</time>
      </trkpt>
      <trkpt lat="37.078775" lon="-79.611988">
        <ele>246.625354</ele>
        <time>2025-09-05T11:13:57.000Z</time>
      </trkpt>
      <trkpt lat="37.079165" lon="-79.611857">
        <ele>246.637461</ele>
        <time>2025-09-05T11:14:01.000Z</time>
      </trkpt>
      <trkpt lat="37.079367" lon="-79.611696">
        <ele>246.644298</ele>
        <time>2025-09-05T11:14:04.000Z</time>
      </trkpt>
      <trkpt lat="37.079448" lon="-79.611538">
        <ele>246.649012</ele>
        <time>2025-09-05T11:14:06.000Z</time>
      </trkpt>
      <trkpt lat="37.079534" lon="-79.611197">
        <ele>246.657419</ele>
        <time>2025-09-05T11:14:09.000Z</time>
      </trkpt>
      <trkpt lat="37.079638" lon="-79.610903">
        <ele>246.665234</ele>
        <time>2025-09-05T11:14:12.000Z</time>
      </trkpt>
      <trkpt lat="37.079731" lon="-79.610779">
        <ele>246.66924</ele>
        <time>2025-09-05T11:14:14.000Z</time>
      </trkpt>
      <trkpt lat="37.079985" lon="-79.610506">
        <ele>246.813866</ele>
        <time>2025-09-05T11:14:18.000Z</time>
      </trkpt>
      <trkpt lat="37.080033" lon="-79.610431">
        <ele>247.047971</ele>
        <time>2025-09-05T11:14:19.000Z</time>
      </trkpt>
      <trkpt lat="37.080062" lon="-79.610279">
        <ele>247.517169</ele>
        <time>2025-09-05T11:14:20.000Z</time>
      </trkpt>
      <trkpt lat="37.080017" lon="-79.609839">
        <ele>248.753622</ele>
        <time>2025-09-05T11:14:24.000Z</time>
      </trkpt>
      <trkpt lat="37.080043" lon="-79.60966">
        <ele>249.265329</ele>
        <time>2025-09-05T11:14:26.000Z</time>
      </trkpt>
      <trkpt lat="37.080092" lon="-79.609446">
        <ele>249.902722</ele>
        <time>2025-09-05T11:14:28.000Z</time>
      </trkpt>
      <trkpt lat="37.080139" lon="-79.609352">
        <ele>250.226239</ele>
        <time>2025-09-05T11:14:29.000Z</time>
      </trkpt>
      <trkpt lat="37.08036" lon="-79.609086">
        <ele>251.277865</ele>
        <time>2025-09-05T11:14:32.000Z</time>
      </trkpt>
      <trkpt lat="37.080931" lon="-79.608521">
        <ele>253.770882</ele>
        <time>2025-09-05T11:14:40.000Z</time>
      </trkpt>
      <trkpt lat="37.0813" lon="-79.608201">
        <ele>255.225065</ele>
        <time>2025-09-05T11:14:45.000Z</time>
      </trkpt>
      <trkpt lat="37.081577" lon="-79.608029">
        <ele>256.236271</ele>
        <time>2025-09-05T11:14:48.000Z</time>
      </trkpt>
      <trkpt lat="37.082139" lon="-79.607795">
        <ele>258.169192</ele>
        <time>2025-09-05T11:14:55.000Z</time>
      </trkpt>
      <trkpt lat="37.082448" lon="-79.607633">
        <ele>258.828544</ele>
        <time>2025-09-05T11:14:59.000Z</time>
      </trkpt>
      <trkpt lat="37.08262" lon="-79.607475">
        <ele>258.782741</ele>
        <time>2025-09-05T11:15:01.000Z</time>
      </trkpt>
      <trkpt lat="37.082811" lon="-79.607142">
        <ele>258.710867</ele>
        <time>2025-09-05T11:15:05.000Z</time>
      </trkpt>
      <trkpt lat="37.08289" lon="-79.606946">
        <ele>258.674108</ele>
        <time>2025-09-05T11:15:07.000Z</time>
      </trkpt>
      <trkpt lat="37.082961" lon="-79.606614">
        <ele>258.612929</ele>
        <time>2025-09-05T11:15:10.000Z</time>
      </trkpt>
      <trkpt lat="37.083105" lon="-79.604704">
        <ele>259.063632</ele>
        <time>2025-09-05T11:15:27.000Z</time>
      </trkpt>
      <trkpt lat="37.083203" lon="-79.604432">
        <ele>259.229159</ele>
        <time>2025-09-05T11:15:30.000Z</time>
      </trkpt>
      <trkpt lat="37.083366" lon="-79.604115">
        <ele>259.44518</ele>
        <time>2025-09-05T11:15:33.000Z</time>
      </trkpt>
      <trkpt lat="37.083604" lon="-79.603827">
        <ele>259.67827</ele>
        <time>2025-09-05T11:15:37.000Z</time>
      </trkpt>
      <trkpt lat="37.083923" lon="-79.603636">
        <ele>259.66202</ele>
        <time>2025-09-05T11:15:41.000Z</time>
      </trkpt>
      <trkpt lat="37.08519" lon="-79.603161">
        <ele>259.283167</ele>
        <time>2025-09-05T11:15:56.000Z</time>
      </trkpt>
      <trkpt lat="37.085434" lon="-79.602976">
        <ele>259.300516</ele>
        <time>2025-09-05T11:15:59.000Z</time>
      </trkpt>
      <trkpt lat="37.085671" lon="-79.602712">
        <ele>259.583218</ele>
        <time>2025-09-05T11:16:03.000Z</time>
      </trkpt>
      <trkpt lat="37.085835" lon="-79.602445">
        <ele>259.828234</ele>
        <time>2025-09-05T11:16:06.000Z</time>
      </trkpt>
      <trkpt lat="37.086003" lon="-79.60202">
        <ele>260.18935</ele>
        <time>2025-09-05T11:16:10.000Z</time>
      </trkpt>
      <trkpt lat="37.086751" lon="-79.599721">
        <ele>263.123209</ele>
        <time>2025-09-05T11:16:32.000Z</time>
      </trkpt>
      <trkpt lat="37.08691" lon="-79.599377">
        <ele>263.682193</ele>
        <time>2025-09-05T11:16:36.000Z</time>
      </trkpt>
      <trkpt lat="37.086971" lon="-79.599265">
        <ele>263.885951</ele>
        <time>2025-09-05T11:16:37.000Z</time>
      </trkpt>
      <trkpt lat="37.087303" lon="-79.598931">
        <ele>264.91638</ele>
        <time>2025-09-05T11:16:42.000Z</time>
      </trkpt>
      <trkpt lat="37.08776" lon="-79.598605">
        <ele>266.453511</ele>
        <time>2025-09-05T11:16:48.000Z</time>
      </trkpt>
      <trkpt lat="37.088274" lon="-79.598219">
        <ele>268.123947</ele>
        <time>2025-09-05T11:16:55.000Z</time>
      </trkpt>
      <trkpt lat="37.088601" lon="-79.597886">
        <ele>269.324613</ele>
        <time>2025-09-05T11:17:00.000Z</time>
      </trkpt>
      <trkpt lat="37.089125" lon="-79.597126">
        <ele>272.335904</ele>
        <time>2025-09-05T11:17:09.000Z</time>
      </trkpt>
      <trkpt lat="37.089571" lon="-79.596376">
        <ele>275.127064</ele>
        <time>2025-09-05T11:17:17.000Z</time>
      </trkpt>
      <trkpt lat="37.089745" lon="-79.596064">
        <ele>276.059725</ele>
        <time>2025-09-05T11:17:20.000Z</time>
      </trkpt>
      <trkpt lat="37.08983" lon="-79.595929">
        <ele>276.202718</ele>
        <time>2025-09-05T11:17:22.000Z</time>
      </trkpt>
      <trkpt lat="37.090172" lon="-79.595307">
        <ele>276.842279</ele>
        <time>2025-09-05T11:17:29.000Z</time>
      </trkpt>
      <trkpt lat="37.091108" lon="-79.593642">
        <ele>277.338423</ele>
        <time>2025-09-05T11:17:47.000Z</time>
      </trkpt>
      <trkpt lat="37.091412" lon="-79.593151">
        <ele>276.922172</ele>
        <time>2025-09-05T11:17:53.000Z</time>
      </trkpt>
      <trkpt lat="37.091509" lon="-79.593445">
        <ele>276.713415</ele>
        <time>2025-09-05T11:17:56.000Z</time>
      </trkpt>
      <trkpt lat="37.092193" lon="-79.59527">
        <ele>273.852087</ele>
        <time>2025-09-05T11:18:14.000Z</time>
      </trkpt>
      <trkpt lat="37.093351" lon="-79.59866">
        <ele>266.605686</ele>
        <time>2025-09-05T11:18:47.000Z</time>
      </trkpt>
      <trkpt lat="37.093998" lon="-79.600379">
        <ele>261.436186</ele>
        <time>2025-09-05T11:19:04.000Z</time>
      </trkpt>
      <trkpt lat="37.094088" lon="-79.60067">
        <ele>260.812829</ele>
        <time>2025-09-05T11:19:07.000Z</time>
      </trkpt>
      <trkpt lat="37.094388" lon="-79.601495">
        <ele>259.026361</ele>
        <time>2025-09-05T11:19:15.000Z</time>
      </trkpt>
      <trkpt lat="37.094621" lon="-79.601893">
        <ele>258.035091</ele>
        <time>2025-09-05T11:19:19.000Z</time>
      </trkpt>
      <trkpt lat="37.094935" lon="-79.602204">
        <ele>257.250689</ele>
        <time>2025-09-05T11:19:23.000Z</time>
      </trkpt>
      <trkpt lat="37.095869" lon="-79.602943">
        <ele>255.487408</ele>
        <time>2025-09-05T11:19:35.000Z</time>
      </trkpt>
      <trkpt lat="37.096073" lon="-79.603126">
        <ele>255.098696</ele>
        <time>2025-09-05T11:19:38.000Z</time>
      </trkpt>
      <trkpt lat="37.096961" lon="-79.604254">
        <ele>252.801757</ele>
        <time>2025-09-05T11:19:52.000Z</time>
      </trkpt>
      <trkpt lat="37.097076" lon="-79.604433">
        <ele>252.465314</ele>
        <time>2025-09-05T11:19:54.000Z</time>
      </trkpt>
      <trkpt lat="37.097233" lon="-79.604775">
        <ele>251.887584</ele>
        <time>2025-09-05T11:19:58.000Z</time>
      </trkpt>
      <trkpt lat="37.097306" lon="-79.605112">
        <ele>251.441767</ele>
        <time>2025-09-05T11:20:01.000Z</time>
      </trkpt>
      <trkpt lat="37.097347" lon="-79.605475">
        <ele>251.468639</ele>
        <time>2025-09-05T11:20:04.000Z</time>
      </trkpt>
      <trkpt lat="37.097207" lon="-79.607915">
        <ele>252.148724</ele>
        <time>2025-09-05T11:20:26.000Z</time>
      </trkpt>
      <trkpt lat="37.097105" lon="-79.608388">
        <ele>252.58334</ele>
        <time>2025-09-05T11:20:30.000Z</time>
      </trkpt>
      <trkpt lat="37.097027" lon="-79.608627">
        <ele>252.808969</ele>
        <time>2025-09-05T11:20:32.000Z</time>
      </trkpt>
      <trkpt lat="37.096866" lon="-79.608849">
        <ele>253.085306</ele>
        <time>2025-09-05T11:20:35.000Z</time>
      </trkpt>
      <trkpt lat="37.096705" lon="-79.609017">
        <ele>253.310471</ele>
        <time>2025-09-05T11:20:37.000Z</time>
      </trkpt>
      <trkpt lat="37.096668" lon="-79.609027">
        <ele>253.354689</ele>
        <time>2025-09-05T11:20:37.000Z</time>
      </trkpt>
      <trkpt lat="37.096413" lon="-79.609222">
        <ele>253.648028</ele>
        <time>2025-09-05T11:20:40.000Z</time>
      </trkpt>
      <trkpt lat="37.096149" lon="-79.609404">
        <ele>253.789938</ele>
        <time>2025-09-05T11:20:43.000Z</time>
      </trkpt>
      <trkpt lat="37.095998" lon="-79.609489">
        <ele>253.863326</ele>
        <time>2025-09-05T11:20:45.000Z</time>
      </trkpt>
      <trkpt lat="37.095784" lon="-79.609867">
        <ele>254.03425</ele>
        <time>2025-09-05T11:20:49.000Z</time>
      </trkpt>
      <trkpt lat="37.095733" lon="-79.609931">
        <ele>254.06563</ele>
        <time>2025-09-05T11:20:50.000Z</time>
      </trkpt>
      <trkpt lat="37.095671" lon="-79.609943">
        <ele>254.095008</ele>
        <time>2025-09-05T11:20:51.000Z</time>
      </trkpt>
      <trkpt lat="37.095619" lon="-79.610065">
        <ele>254.143188</ele>
        <time>2025-09-05T11:20:52.000Z</time>
      </trkpt>
      <trkpt lat="37.095582" lon="-79.610099">
        <ele>254.167305</ele>
        <time>2025-09-05T11:20:53.000Z</time>
      </trkpt>
      <trkpt lat="37.095097" lon="-79.610363">
        <ele>254.418817</ele>
        <time>2025-09-05T11:20:59.000Z</time>
      </trkpt>
      <trkpt lat="37.095089" lon="-79.610387">
        <ele>254.423953</ele>
        <time>2025-09-05T11:20:59.000Z</time>
      </trkpt>
      <trkpt lat="37.095067" lon="-79.61038">
        <ele>254.429072</ele>
        <time>2025-09-05T11:20:59.000Z</time>
      </trkpt>
      <trkpt lat="37.095071" lon="-79.610377">
        <ele>254.431438</ele>
        <time>2025-09-05T11:20:59.000Z</time>
      </trkpt>
      <trkpt lat="37.095061" lon="-79.610381">
        <ele>254.431887</ele>
        <time>2025-09-05T11:20:59.000Z</time>
      </trkpt>
      <trkpt lat="37.09507" lon="-79.610385">
        <ele>254.432833</ele>
        <time>2025-09-05T11:20:59.000Z</time>
      </trkpt>
      <trkpt lat="37.095069" lon="-79.610373">
        <ele>254.434211</ele>
        <time>2025-09-05T11:20:59.000Z</time>
      </trkpt>
      <trkpt lat="37.095063" lon="-79.610382">
        <ele>254.435667</ele>
        <time>2025-09-05T11:20:59.000Z</time>
      </trkpt>
      <trkpt lat="37.095031" lon="-79.610377">
        <ele>254.444973</ele>
        <time>2025-09-05T11:20:59.000Z</time>
      </trkpt>
      <trkpt lat="37.09501" lon="-79.610355">
        <ele>254.449404</ele>
        <time>2025-09-05T11:20:59.000Z</time>
      </trkpt>
      <trkpt lat="37.094973" lon="-79.610328">
        <ele>254.433267</ele>
        <time>2025-09-05T11:20:59.000Z</time>
      </trkpt>
      <trkpt lat="37.094907" lon="-79.610182">
        <ele>254.382901</ele>
        <time>2025-09-05T11:21:00.000Z</time>
      </trkpt>
      <trkpt lat="37.095427" lon="-79.609879">
        <ele>254.169852</ele>
        <time>2025-09-05T11:21:06.000Z</time>
      </trkpt>
      <trkpt lat="37.095415" lon="-79.609888">
        <ele>254.169475</ele>
        <time>2025-09-05T11:21:06.000Z</time>
      </trkpt>
      <trkpt lat="37.095423" lon="-79.609883">
        <ele>254.168506</ele>
        <time>2025-09-05T11:21:06.000Z</time>
      </trkpt>
      <trkpt lat="37.095435" lon="-79.609881">
        <ele>254.164762</ele>
        <time>2025-09-05T11:21:06.000Z</time>
      </trkpt>
      <trkpt lat="37.095422" lon="-79.609883">
        <ele>254.164259</ele>
        <time>2025-09-05T11:21:06.000Z</time>
      </trkpt>
      <trkpt lat="37.095436" lon="-79.609889">
        <ele>254.163892</ele>
        <time>2025-09-05T11:21:06.000Z</time>
      </trkpt>
      <trkpt lat="37.095442" lon="-79.609882">
        <ele>254.162253</ele>
        <time>2025-09-05T11:21:06.000Z</time>
      </trkpt>
      <trkpt lat="37.095446" lon="-79.609878">
        <ele>254.161763</ele>
        <time>2025-09-05T11:21:06.000Z</time>
      </trkpt>
      <trkpt lat="37.095437" lon="-79.609879">
        <ele>254.159654</ele>
        <time>2025-09-05T11:21:06.000Z</time>
      </trkpt>
      <trkpt lat="37.095446" lon="-79.609866">
        <ele>254.158012</ele>
        <time>2025-09-05T11:21:06.000Z</time>
      </trkpt>
      <trkpt lat="37.095479" lon="-79.609842">
        <ele>254.140671</ele>
        <time>2025-09-05T11:21:06.000Z</time>
      </trkpt>
      <trkpt lat="37.095521" lon="-79.609835">
        <ele>254.125907</ele>
        <time>2025-09-05T11:21:06.000Z</time>
      </trkpt>
      <trkpt lat="37.0956" lon="-79.609819">
        <ele>254.095835</ele>
        <time>2025-09-05T11:21:07.000Z</time>
      </trkpt>
      <trkpt lat="37.095603" lon="-79.609777">
        <ele>254.081261</ele>
        <time>2025-09-05T11:21:07.000Z</time>
      </trkpt>
      <trkpt lat="37.095688" lon="-79.609692">
        <ele>254.045837</ele>
        <time>2025-09-05T11:21:08.000Z</time>
      </trkpt>
      <trkpt lat="37.096" lon="-79.609488">
        <ele>253.908263</ele>
        <time>2025-09-05T11:21:12.000Z</time>
      </trkpt>
      <trkpt lat="37.096149" lon="-79.609406">
        <ele>253.848137</ele>
        <time>2025-09-05T11:21:14.000Z</time>
      </trkpt>
      <trkpt lat="37.096415" lon="-79.609212">
        <ele>253.658253</ele>
        <time>2025-09-05T11:21:17.000Z</time>
      </trkpt>
      <trkpt lat="37.09668" lon="-79.609041">
        <ele>253.325818</ele>
        <time>2025-09-05T11:21:20.000Z</time>
      </trkpt>
      <trkpt lat="37.096711" lon="-79.609006">
        <ele>253.281849</ele>
        <time>2025-09-05T11:21:20.000Z</time>
      </trkpt>
      <trkpt lat="37.096859" lon="-79.608859">
        <ele>253.057926</ele>
        <time>2025-09-05T11:21:22.000Z</time>
      </trkpt>
      <trkpt lat="37.097021" lon="-79.608629">
        <ele>252.783104</ele>
        <time>2025-09-05T11:21:25.000Z</time>
      </trkpt>
      <trkpt lat="37.097108" lon="-79.608385">
        <ele>252.55869</ele>
        <time>2025-09-05T11:21:27.000Z</time>
      </trkpt>
      <trkpt lat="37.097203" lon="-79.607926">
        <ele>252.126467</ele>
        <time>2025-09-05T11:21:31.000Z</time>
      </trkpt>
      <trkpt lat="37.097341" lon="-79.605484">
        <ele>251.298821</ele>
        <time>2025-09-05T11:21:53.000Z</time>
      </trkpt>
      <trkpt lat="37.097309" lon="-79.605108">
        <ele>251.475866</ele>
        <time>2025-09-05T11:21:56.000Z</time>
      </trkpt>
      <trkpt lat="37.097228" lon="-79.604777">
        <ele>251.980667</ele>
        <time>2025-09-05T11:21:59.000Z</time>
      </trkpt>
      <trkpt lat="37.097076" lon="-79.604446">
        <ele>252.543315</ele>
        <time>2025-09-05T11:22:02.000Z</time>
      </trkpt>
      <trkpt lat="37.096956" lon="-79.604264">
        <ele>252.870968</ele>
        <time>2025-09-05T11:22:04.000Z</time>
      </trkpt>
      <trkpt lat="37.096075" lon="-79.603138">
        <ele>255.085725</ele>
        <time>2025-09-05T11:22:18.000Z</time>
      </trkpt>
      <trkpt lat="37.095879" lon="-79.602944">
        <ele>255.476944</ele>
        <time>2025-09-05T11:22:21.000Z</time>
      </trkpt>
      <trkpt lat="37.094934" lon="-79.602212">
        <ele>257.251648</ele>
        <time>2025-09-05T11:22:33.000Z</time>
      </trkpt>
      <trkpt lat="37.094631" lon="-79.601888">
        <ele>258.121023</ele>
        <time>2025-09-05T11:22:37.000Z</time>
      </trkpt>
      <trkpt lat="37.094389" lon="-79.601487">
        <ele>259.035884</ele>
        <time>2025-09-05T11:22:41.000Z</time>
      </trkpt>
      <trkpt lat="37.094092" lon="-79.600677">
        <ele>260.684622</ele>
        <time>2025-09-05T11:22:49.000Z</time>
      </trkpt>
      <trkpt lat="37.093997" lon="-79.600384">
        <ele>261.259921</ele>
        <time>2025-09-05T11:22:52.000Z</time>
      </trkpt>
      <trkpt lat="37.093353" lon="-79.598661">
        <ele>266.718576</ele>
        <time>2025-09-05T11:23:09.000Z</time>
      </trkpt>
      <trkpt lat="37.092189" lon="-79.595282">
        <ele>273.861107</ele>
        <time>2025-09-05T11:23:42.000Z</time>
      </trkpt>
      <trkpt lat="37.091521" lon="-79.593431">
        <ele>276.639489</ele>
        <time>2025-09-05T11:24:00.000Z</time>
      </trkpt>
      <trkpt lat="37.091415" lon="-79.593144">
        <ele>276.890875</ele>
        <time>2025-09-05T11:24:03.000Z</time>
      </trkpt>
      <trkpt lat="37.091099" lon="-79.593648">
        <ele>277.392103</ele>
        <time>2025-09-05T11:24:09.000Z</time>
      </trkpt>
      <trkpt lat="37.090181" lon="-79.595309">
        <ele>276.914974</ele>
        <time>2025-09-05T11:24:27.000Z</time>
      </trkpt>
      <trkpt lat="37.089812" lon="-79.59593">
        <ele>276.405711</ele>
        <time>2025-09-05T11:24:34.000Z</time>
      </trkpt>
      <trkpt lat="37.089749" lon="-79.596073">
        <ele>276.050176</ele>
        <time>2025-09-05T11:24:35.000Z</time>
      </trkpt>
      <trkpt lat="37.089567" lon="-79.596366">
        <ele>274.965032</ele>
        <time>2025-09-05T11:24:38.000Z</time>
      </trkpt>
      <trkpt lat="37.089126" lon="-79.597128">
        <ele>272.293599</ele>
        <time>2025-09-05T11:24:46.000Z</time>
      </trkpt>
      <trkpt lat="37.088598" lon="-79.597886">
        <ele>269.487709</ele>
        <time>2025-09-05T11:24:55.000Z</time>
      </trkpt>
      <trkpt lat="37.088262" lon="-79.598207">
        <ele>268.217784</ele>
        <time>2025-09-05T11:25:00.000Z</time>
      </trkpt>
      <trkpt lat="37.087762" lon="-79.5986">
        <ele>266.422868</ele>
        <time>2025-09-05T11:25:07.000Z</time>
      </trkpt>
      <trkpt lat="37.087293" lon="-79.598934">
        <ele>264.771197</ele>
        <time>2025-09-05T11:25:13.000Z</time>
      </trkpt>
      <trkpt lat="37.086963" lon="-79.599254">
        <ele>263.886803</ele>
        <time>2025-09-05T11:25:18.000Z</time>
      </trkpt>
      <trkpt lat="37.086906" lon="-79.599366">
        <ele>263.684259</ele>
        <time>2025-09-05T11:25:19.000Z</time>
      </trkpt>
      <trkpt lat="37.086752" lon="-79.599721">
        <ele>263.128614</ele>
        <time>2025-09-05T11:25:23.000Z</time>
      </trkpt>
      <trkpt lat="37.086004" lon="-79.602017">
        <ele>260.18258</ele>
        <time>2025-09-05T11:25:45.000Z</time>
      </trkpt>
      <trkpt lat="37.085825" lon="-79.602452">
        <ele>259.749519</ele>
        <time>2025-09-05T11:25:49.000Z</time>
      </trkpt>
      <trkpt lat="37.085659" lon="-79.60271">
        <ele>259.455718</ele>
        <time>2025-09-05T11:25:52.000Z</time>
      </trkpt>
      <trkpt lat="37.085438" lon="-79.602966">
        <ele>259.227054</ele>
        <time>2025-09-05T11:25:55.000Z</time>
      </trkpt>
      <trkpt lat="37.085195" lon="-79.603165">
        <ele>259.319799</ele>
        <time>2025-09-05T11:25:58.000Z</time>
      </trkpt>
      <trkpt lat="37.083912" lon="-79.603626">
        <ele>259.732506</ele>
        <time>2025-09-05T11:26:13.000Z</time>
      </trkpt>
      <trkpt lat="37.083617" lon="-79.603835">
        <ele>259.600916</ele>
        <time>2025-09-05T11:26:17.000Z</time>
      </trkpt>
      <trkpt lat="37.083376" lon="-79.604104">
        <ele>259.382508</ele>
        <time>2025-09-05T11:26:21.000Z</time>
      </trkpt>
      <trkpt lat="37.083192" lon="-79.604423">
        <ele>259.180078</ele>
        <time>2025-09-05T11:26:24.000Z</time>
      </trkpt>
      <trkpt lat="37.083107" lon="-79.604697">
        <ele>259.024973</ele>
        <time>2025-09-05T11:26:27.000Z</time>
      </trkpt>
      <trkpt lat="37.082973" lon="-79.606619">
        <ele>258.69944</ele>
        <time>2025-09-05T11:26:44.000Z</time>
      </trkpt>
      <trkpt lat="37.082887" lon="-79.606945">
        <ele>258.742171</ele>
        <time>2025-09-05T11:26:47.000Z</time>
      </trkpt>
      <trkpt lat="37.082811" lon="-79.607139">
        <ele>258.767829</ele>
        <time>2025-09-05T11:26:49.000Z</time>
      </trkpt>
      <trkpt lat="37.082621" lon="-79.607479">
        <ele>258.818033</ele>
        <time>2025-09-05T11:26:53.000Z</time>
      </trkpt>
      <trkpt lat="37.082452" lon="-79.607635">
        <ele>258.724022</ele>
        <time>2025-09-05T11:26:55.000Z</time>
      </trkpt>
      <trkpt lat="37.082147" lon="-79.607799">
        <ele>257.811791</ele>
        <time>2025-09-05T11:26:59.000Z</time>
      </trkpt>
      <trkpt lat="37.081568" lon="-79.608031">
        <ele>256.168523</ele>
        <time>2025-09-05T11:27:06.000Z</time>
      </trkpt>
      <trkpt lat="37.081301" lon="-79.608206">
        <ele>255.30887</ele>
        <time>2025-09-05T11:27:09.000Z</time>
      </trkpt>
      <trkpt lat="37.080935" lon="-79.608514">
        <ele>254.072583</ele>
        <time>2025-09-05T11:27:14.000Z</time>
      </trkpt>
      <trkpt lat="37.080356" lon="-79.609077">
        <ele>251.352874</ele>
        <time>2025-09-05T11:27:22.000Z</time>
      </trkpt>
      <trkpt lat="37.080154" lon="-79.60935">
        <ele>250.200258</ele>
        <time>2025-09-05T11:27:25.000Z</time>
      </trkpt>
      <trkpt lat="37.080088" lon="-79.609447">
        <ele>249.845698</ele>
        <time>2025-09-05T11:27:26.000Z</time>
      </trkpt>
      <trkpt lat="37.080039" lon="-79.609646">
        <ele>249.14709</ele>
        <time>2025-09-05T11:27:28.000Z</time>
      </trkpt>
      <trkpt lat="37.080016" lon="-79.60983">
        <ele>248.58628</ele>
        <time>2025-09-05T11:27:30.000Z</time>
      </trkpt>
      <trkpt lat="37.080061" lon="-79.610268">
        <ele>247.231105</ele>
        <time>2025-09-05T11:27:34.000Z</time>
      </trkpt>
      <trkpt lat="37.080025" lon="-79.610439">
        <ele>246.921544</ele>
        <time>2025-09-05T11:27:36.000Z</time>
      </trkpt>
      <trkpt lat="37.07999" lon="-79.610518">
        <ele>246.903435</ele>
        <time>2025-09-05T11:27:37.000Z</time>
      </trkpt>
      <trkpt lat="37.079741" lon="-79.610773">
        <ele>246.813542</ele>
        <time>2025-09-05T11:27:41.000Z</time>
      </trkpt>
      <trkpt lat="37.079647" lon="-79.610895">
        <ele>246.777086</ele>
        <time>2025-09-05T11:27:43.000Z</time>
      </trkpt>
      <trkpt lat="37.079534" lon="-79.611186">
        <ele>246.705887</ele>
        <time>2025-09-05T11:27:46.000Z</time>
      </trkpt>
      <trkpt lat="37.079459" lon="-79.61153">
        <ele>246.629547</ele>
        <time>2025-09-05T11:27:49.000Z</time>
      </trkpt>
      <trkpt lat="37.079357" lon="-79.611696">
        <ele>246.586621</ele>
        <time>2025-09-05T11:27:51.000Z</time>
      </trkpt>
      <trkpt lat="37.079166" lon="-79.611845">
        <ele>246.524404</ele>
        <time>2025-09-05T11:27:54.000Z</time>
      </trkpt>
      <trkpt lat="37.078774" lon="-79.611992">
        <ele>246.634106</ele>
        <time>2025-09-05T11:27:59.000Z</time>
      </trkpt>
      <trkpt lat="37.07867" lon="-79.612059">
        <ele>246.826896</ele>
        <time>2025-09-05T11:28:00.000Z</time>
      </trkpt>
      <trkpt lat="37.078586" lon="-79.612151">
        <ele>246.980878</ele>
        <time>2025-09-05T11:28:01.000Z</time>
      </trkpt>
      <trkpt lat="37.078536" lon="-79.612251">
        <ele>247.133802</ele>
        <time>2025-09-05T11:28:02.000Z</time>
      </trkpt>
      <trkpt lat="37.078477" lon="-79.612429">
        <ele>247.361078</ele>
        <time>2025-09-05T11:28:04.000Z</time>
      </trkpt>
      <trkpt lat="37.078473" lon="-79.612624">
        <ele>247.589435</ele>
        <time>2025-09-05T11:28:06.000Z</time>
      </trkpt>
      <trkpt lat="37.078584" lon="-79.613026">
        <ele>248.089237</ele>
        <time>2025-09-05T11:28:10.000Z</time>
      </trkpt>
      <trkpt lat="37.07869" lon="-79.613368">
        <ele>248.515103</ele>
        <time>2025-09-05T11:28:13.000Z</time>
      </trkpt>
      <trkpt lat="37.078821" lon="-79.613708">
        <ele>248.970182</ele>
        <time>2025-09-05T11:28:16.000Z</time>
      </trkpt>
      <trkpt lat="37.07907" lon="-79.614116">
        <ele>249.094268</ele>
        <time>2025-09-05T11:28:21.000Z</time>
      </trkpt>
      <trkpt lat="37.079211" lon="-79.614464">
        <ele>249.073058</ele>
        <time>2025-09-05T11:28:24.000Z</time>
      </trkpt>
      <trkpt lat="37.079288" lon="-79.614819">
        <ele>249.052148</ele>
        <time>2025-09-05T11:28:27.000Z</time>
      </trkpt>
      <trkpt lat="37.079301" lon="-79.615071">
        <ele>249.038421</ele>
        <time>2025-09-05T11:28:29.000Z</time>
      </trkpt>
      <trkpt lat="37.079285" lon="-79.615244">
        <ele>249.029131</ele>
        <time>2025-09-05T11:28:31.000Z</time>
      </trkpt>
      <trkpt lat="37.079289" lon="-79.615297">
        <ele>249.026412</ele>
        <time>2025-09-05T11:28:31.000Z</time>
      </trkpt>
      <trkpt lat="37.079277" lon="-79.615299">
        <ele>249.02572</ele>
        <time>2025-09-05T11:28:31.000Z</time>
      </trkpt>
      <trkpt lat="37.079274" lon="-79.615304">
        <ele>249.025302</ele>
        <time>2025-09-05T11:28:31.000Z</time>
      </trkpt>
      <trkpt lat="37.079272" lon="-79.615308">
        <ele>249.024915</ele>
        <time>2025-09-05T11:28:31.000Z</time>
      </trkpt>
      <trkpt lat="37.079272" lon="-79.615321">
        <ele>249.024829</ele>
        <time>2025-09-05T11:28:31.000Z</time>
      </trkpt>
      <trkpt lat="37.07928" lon="-79.615326">
        <ele>249.024647</ele>
        <time>2025-09-05T11:28:31.000Z</time>
      </trkpt>
      <trkpt lat="37.079277" lon="-79.615315">
        <ele>249.024405</ele>
        <time>2025-09-05T11:28:31.000Z</time>
      </trkpt>
      <trkpt lat="37.07927" lon="-79.615325">
        <ele>249.024237</ele>
        <time>2025-09-05T11:28:31.000Z</time>
      </trkpt>
      <trkpt lat="37.079256" lon="-79.615404">
        <ele>249.019945</ele>
        <time>2025-09-05T11:28:32.000Z</time>
      </trkpt>
      <trkpt lat="37.079187" lon="-79.615508">
        <ele>249.012606</ele>
        <time>2025-09-05T11:28:33.000Z</time>
      </trkpt>
      <trkpt lat="37.079093" lon="-79.61557">
        <ele>249.005232</ele>
        <time>2025-09-05T11:28:34.000Z</time>
      </trkpt>
      <trkpt lat="37.079023" lon="-79.615591">
        <ele>249.000617</ele>
        <time>2025-09-05T11:28:35.000Z</time>
      </trkpt>
      <trkpt lat="37.078919" lon="-79.615575">
        <ele>248.992335</ele>
        <time>2025-09-05T11:28:36.000Z</time>
      </trkpt>
      <trkpt lat="37.078815" lon="-79.615469">
        <ele>248.936292</ele>
        <time>2025-09-05T11:28:37.000Z</time>
      </trkpt>
      <trkpt lat="37.078758" lon="-79.615317">
        <ele>248.86986</ele>
        <time>2025-09-05T11:28:38.000Z</time>
      </trkpt>
      <trkpt lat="37.07876" lon="-79.615284">
        <ele>248.858009</ele>
        <time>2025-09-05T11:28:38.000Z</time>
      </trkpt>
      <trkpt lat="37.078747" lon="-79.615257">
        <ele>248.852257</ele>
        <time>2025-09-05T11:28:38.000Z</time>
      </trkpt>
      <trkpt lat="37.078755" lon="-79.615266">
        <ele>248.849968</ele>
        <time>2025-09-05T11:28:38.000Z</time>
      </trkpt>
      <trkpt lat="37.07875" lon="-79.615248">
        <ele>248.848058</ele>
        <time>2025-09-05T11:28:38.000Z</time>
      </trkpt>
      <trkpt lat="37.078753" lon="-79.615259">
        <ele>248.846152</ele>
        <time>2025-09-05T11:28:38.000Z</time>
      </trkpt>
      <trkpt lat="37.078753" lon="-79.615243">
        <ele>248.84538</ele>
        <time>2025-09-05T11:28:38.000Z</time>
      </trkpt>
      <trkpt lat="37.078751" lon="-79.615237">
        <ele>248.842699</ele>
        <time>2025-09-05T11:28:38.000Z</time>
      </trkpt>
      <trkpt lat="37.078756" lon="-79.615228">
        <ele>248.84117</ele>
        <time>2025-09-05T11:28:38.000Z</time>
      </trkpt>
      <trkpt lat="37.078756" lon="-79.615014">
        <ele>248.758567</ele>
        <time>2025-09-05T11:28:40.000Z</time>
      </trkpt>
      <trkpt lat="37.078822" lon="-79.614161">
        <ele>248.430387</ele>
        <time>2025-09-05T11:28:48.000Z</time>
      </trkpt>
      <trkpt lat="37.078813" lon="-79.613704">
        <ele>248.255628</ele>
        <time>2025-09-05T11:28:52.000Z</time>
      </trkpt>
      <trkpt lat="37.078681" lon="-79.613366">
        <ele>248.081653</ele>
        <time>2025-09-05T11:28:55.000Z</time>
      </trkpt>
      <trkpt lat="37.07857" lon="-79.613027">
        <ele>247.763318</ele>
        <time>2025-09-05T11:28:58.000Z</time>
      </trkpt>
      <trkpt lat="37.078474" lon="-79.612634">
        <ele>247.389719</ele>
        <time>2025-09-05T11:29:02.000Z</time>
      </trkpt>
      <trkpt lat="37.078472" lon="-79.612444">
        <ele>247.219034</ele>
        <time>2025-09-05T11:29:04.000Z</time>
      </trkpt>
      <trkpt lat="37.078532" lon="-79.612249">
        <ele>247.049142</ele>
        <time>2025-09-05T11:29:06.000Z</time>
      </trkpt>
      <trkpt lat="37.078577" lon="-79.612145">
        <ele>246.934843</ele>
        <time>2025-09-05T11:29:07.000Z</time>
      </trkpt>
      <trkpt lat="37.078668" lon="-79.612048">
        <ele>246.81973</ele>
        <time>2025-09-05T11:29:08.000Z</time>
      </trkpt>
      <trkpt lat="37.078774" lon="-79.611995">
        <ele>246.67563</ele>
        <time>2025-09-05T11:29:09.000Z</time>
      </trkpt>
      <trkpt lat="37.079174" lon="-79.611851">
        <ele>246.22604</ele>
        <time>2025-09-05T11:29:14.000Z</time>
      </trkpt>
      <trkpt lat="37.079363" lon="-79.611684">
        <ele>246.264614</ele>
        <time>2025-09-05T11:29:17.000Z</time>
      </trkpt>
      <trkpt lat="37.079449" lon="-79.611537">
        <ele>246.403837</ele>
        <time>2025-09-05T11:29:19.000Z</time>
      </trkpt>
      <trkpt lat="37.079541" lon="-79.611196">
        <ele>246.65152</ele>
        <time>2025-09-05T11:29:22.000Z</time>
      </trkpt>
      <trkpt lat="37.079648" lon="-79.610905">
        <ele>246.882462</ele>
        <time>2025-09-05T11:29:25.000Z</time>
      </trkpt>
      <trkpt lat="37.079736" lon="-79.610766">
        <ele>247.000789</ele>
        <time>2025-09-05T11:29:27.000Z</time>
      </trkpt>
      <trkpt lat="37.07999" lon="-79.610502">
        <ele>247.292405</ele>
        <time>2025-09-05T11:29:31.000Z</time>
      </trkpt>
      <trkpt lat="37.080018" lon="-79.610435">
        <ele>247.351103</ele>
        <time>2025-09-05T11:29:32.000Z</time>
      </trkpt>
      <trkpt lat="37.080059" lon="-79.610266">
        <ele>247.468762</ele>
        <time>2025-09-05T11:29:34.000Z</time>
      </trkpt>
      <trkpt lat="37.080018" lon="-79.609835">
        <ele>248.011876</ele>
        <time>2025-09-05T11:29:38.000Z</time>
      </trkpt>
      <trkpt lat="37.08003" lon="-79.609648">
        <ele>248.656194</ele>
        <time>2025-09-05T11:29:40.000Z</time>
      </trkpt>
      <trkpt lat="37.080086" lon="-79.609437">
        <ele>249.45877</ele>
        <time>2025-09-05T11:29:42.000Z</time>
      </trkpt>
      <trkpt lat="37.080153" lon="-79.609344">
        <ele>249.866114</ele>
        <time>2025-09-05T11:29:43.000Z</time>
      </trkpt>
      <trkpt lat="37.080358" lon="-79.609073">
        <ele>251.190294</ele>
        <time>2025-09-05T11:29:46.000Z</time>
      </trkpt>
      <trkpt lat="37.080933" lon="-79.608517">
        <ele>254.407299</ele>
        <time>2025-09-05T11:29:54.000Z</time>
      </trkpt>
      <trkpt lat="37.081301" lon="-79.608213">
        <ele>255.948691</ele>
        <time>2025-09-05T11:29:59.000Z</time>
      </trkpt>
      <trkpt lat="37.081578" lon="-79.608027">
        <ele>256.468533</ele>
        <time>2025-09-05T11:30:02.000Z</time>
      </trkpt>
      <trkpt lat="37.082137" lon="-79.607794">
        <ele>257.462219</ele>
        <time>2025-09-05T11:30:09.000Z</time>
      </trkpt>
      <trkpt lat="37.082437" lon="-79.607636">
        <ele>258.013845</ele>
        <time>2025-09-05T11:30:13.000Z</time>
      </trkpt>
      <trkpt lat="37.082618" lon="-79.607473">
        <ele>258.367591</ele>
        <time>2025-09-05T11:30:15.000Z</time>
      </trkpt>
      <trkpt lat="37.082819" lon="-79.607148">
        <ele>258.70676</ele>
        <time>2025-09-05T11:30:19.000Z</time>
      </trkpt>
      <trkpt lat="37.082882" lon="-79.606946">
        <ele>258.7248</ele>
        <time>2025-09-05T11:30:21.000Z</time>
      </trkpt>
      <trkpt lat="37.082964" lon="-79.606609">
        <ele>258.754852</ele>
        <time>2025-09-05T11:30:24.000Z</time>
      </trkpt>
      <trkpt lat="37.083115" lon="-79.604703">
        <ele>259.035578</ele>
        <time>2025-09-05T11:30:41.000Z</time>
      </trkpt>
      <trkpt lat="37.0832" lon="-79.604436">
        <ele>259.146134</ele>
        <time>2025-09-05T11:30:44.000Z</time>
      </trkpt>
      <trkpt lat="37.083368" lon="-79.604112">
        <ele>259.290376</ele>
        <time>2025-09-05T11:30:47.000Z</time>
      </trkpt>
      <trkpt lat="37.083618" lon="-79.603824">
        <ele>259.446026</ele>
        <time>2025-09-05T11:30:51.000Z</time>
      </trkpt>
      <trkpt lat="37.083914" lon="-79.603626">
        <ele>259.607567</ele>
        <time>2025-09-05T11:30:55.000Z</time>
      </trkpt>
      <trkpt lat="37.085194" lon="-79.603169">
        <ele>259.465185</ele>
        <time>2025-09-05T11:31:10.000Z</time>
      </trkpt>
      <trkpt lat="37.085439" lon="-79.602981">
        <ele>259.390136</ele>
        <time>2025-09-05T11:31:13.000Z</time>
      </trkpt>
      <trkpt lat="37.085665" lon="-79.602714">
        <ele>259.31308</ele>
        <time>2025-09-05T11:31:16.000Z</time>
      </trkpt>
      <trkpt lat="37.085822" lon="-79.60245">
        <ele>259.470336</ele>
        <time>2025-09-05T11:31:19.000Z</time>
      </trkpt>
      <trkpt lat="37.086007" lon="-79.602026">
        <ele>260.04057</ele>
        <time>2025-09-05T11:31:23.000Z</time>
      </trkpt>
      <trkpt lat="37.086766" lon="-79.599715">
        <ele>263.188673</ele>
        <time>2025-09-05T11:31:45.000Z</time>
      </trkpt>
      <trkpt lat="37.086898" lon="-79.599367">
        <ele>263.746729</ele>
        <time>2025-09-05T11:31:48.000Z</time>
      </trkpt>
      <trkpt lat="37.086977" lon="-79.599256">
        <ele>263.950131</ele>
        <time>2025-09-05T11:31:49.000Z</time>
      </trkpt>
      <trkpt lat="37.08729" lon="-79.59893">
        <ele>264.703236</ele>
        <time>2025-09-05T11:31:54.000Z</time>
      </trkpt>
      <trkpt lat="37.087769" lon="-79.598606">
        <ele>266.170684</ele>
        <time>2025-09-05T11:32:00.000Z</time>
      </trkpt>
      <trkpt lat="37.088265" lon="-79.598211">
        <ele>268.22945</ele>
        <time>2025-09-05T11:32:07.000Z</time>
      </trkpt>
      <trkpt lat="37.088599" lon="-79.597893">
        <ele>269.686061</ele>
        <time>2025-09-05T11:32:12.000Z</time>
      </trkpt>
      <trkpt lat="37.089127" lon="-79.597135">
        <ele>272.378982</ele>
        <time>2025-09-05T11:32:21.000Z</time>
      </trkpt>
      <trkpt lat="37.08956" lon="-79.596365">
        <ele>274.693572</ele>
        <time>2025-09-05T11:32:29.000Z</time>
      </trkpt>
      <trkpt lat="37.089734" lon="-79.596061">
        <ele>275.633752</ele>
        <time>2025-09-05T11:32:32.000Z</time>
      </trkpt>
      <trkpt lat="37.089828" lon="-79.595923">
        <ele>276.058282</ele>
        <time>2025-09-05T11:32:34.000Z</time>
      </trkpt>
      <trkpt lat="37.090169" lon="-79.595296">
        <ele>277.159198</ele>
        <time>2025-09-05T11:32:41.000Z</time>
      </trkpt>
      <trkpt lat="37.0911" lon="-79.593634">
        <ele>277.647945</ele>
        <time>2025-09-05T11:32:59.000Z</time>
      </trkpt>
      <trkpt lat="37.091408" lon="-79.593151">
        <ele>276.956668</ele>
        <time>2025-09-05T11:33:04.000Z</time>
      </trkpt>
      <trkpt lat="37.091521" lon="-79.593428">
        <ele>276.609981</ele>
        <time>2025-09-05T11:33:07.000Z</time>
      </trkpt>
      <trkpt lat="37.092185" lon="-79.595275">
        <ele>273.87414</ele>
        <time>2025-09-05T11:33:25.000Z</time>
      </trkpt>
      <trkpt lat="37.093361" lon="-79.598665">
        <ele>266.958047</ele>
        <time>2025-09-05T11:33:58.000Z</time>
      </trkpt>
      <trkpt lat="37.093999" lon="-79.600385">
        <ele>261.254026</ele>
        <time>2025-09-05T11:34:15.000Z</time>
      </trkpt>
      <trkpt lat="37.09409" lon="-79.600668">
        <ele>260.309311</ele>
        <time>2025-09-05T11:34:18.000Z</time>
      </trkpt>
      <trkpt lat="37.09439" lon="-79.601483">
        <ele>258.920483</ele>
        <time>2025-09-05T11:34:26.000Z</time>
      </trkpt>
      <trkpt lat="37.094628" lon="-79.601898">
        <ele>258.150111</ele>
        <time>2025-09-05T11:34:31.000Z</time>
      </trkpt>
      <trkpt lat="37.094927" lon="-79.602204">
        <ele>257.370862</ele>
        <time>2025-09-05T11:34:35.000Z</time>
      </trkpt>
      <trkpt lat="37.095878" lon="-79.602933">
        <ele>255.45546</ele>
        <time>2025-09-05T11:34:47.000Z</time>
      </trkpt>
      <trkpt lat="37.096064" lon="-79.603123">
        <ele>255.050427</ele>
        <time>2025-09-05T11:34:50.000Z</time>
      </trkpt>
      <trkpt lat="37.096958" lon="-79.604256">
        <ele>252.988365</ele>
        <time>2025-09-05T11:35:04.000Z</time>
      </trkpt>
      <trkpt lat="37.097064" lon="-79.604439">
        <ele>252.701412</ele>
        <time>2025-09-05T11:35:06.000Z</time>
      </trkpt>
      <trkpt lat="37.09723" lon="-79.604774">
        <ele>252.208639</ele>
        <time>2025-09-05T11:35:09.000Z</time>
      </trkpt>
      <trkpt lat="37.097304" lon="-79.60511">
        <ele>251.766536</ele>
        <time>2025-09-05T11:35:12.000Z</time>
      </trkpt>
      <trkpt lat="37.097336" lon="-79.605473">
        <ele>251.29861</ele>
        <time>2025-09-05T11:35:15.000Z</time>
      </trkpt>
      <trkpt lat="37.097202" lon="-79.607932">
        <ele>252.132009</ele>
        <time>2025-09-05T11:35:37.000Z</time>
      </trkpt>
      <trkpt lat="37.097114" lon="-79.608383">
        <ele>252.516026</ele>
        <time>2025-09-05T11:35:41.000Z</time>
      </trkpt>
      <trkpt lat="37.097025" lon="-79.608612">
        <ele>252.72274</ele>
        <time>2025-09-05T11:35:43.000Z</time>
      </trkpt>
      <trkpt lat="37.096868" lon="-79.608864">
        <ele>252.975904</ele>
        <time>2025-09-05T11:35:46.000Z</time>
      </trkpt>
      <trkpt lat="37.096703" lon="-79.609009">
        <ele>253.182189</ele>
        <time>2025-09-05T11:35:48.000Z</time>
      </trkpt>
      <trkpt lat="37.096664" lon="-79.60903">
        <ele>253.222703</ele>
        <time>2025-09-05T11:35:48.000Z</time>
      </trkpt>
      <trkpt lat="37.096422" lon="-79.60922">
        <ele>253.528941</ele>
        <time>2025-09-05T11:35:51.000Z</time>
      </trkpt>
      <trkpt lat="37.09614" lon="-79.609409">
        <ele>253.843028</ele>
        <time>2025-09-05T11:35:55.000Z</time>
      </trkpt>
      <trkpt lat="37.096001" lon="-79.609487">
        <ele>254.0044</ele>
        <time>2025-09-05T11:35:57.000Z</time>
      </trkpt>
      <trkpt lat="37.095779" lon="-79.609859">
        <ele>254.092007</ele>
        <time>2025-09-05T11:36:01.000Z</time>
      </trkpt>
      <trkpt lat="37.095737" lon="-79.609917">
        <ele>254.108084</ele>
        <time>2025-09-05T11:36:02.000Z</time>
      </trkpt>
      <trkpt lat="37.095676" lon="-79.609948">
        <ele>254.123149</ele>
        <time>2025-09-05T11:36:03.000Z</time>
      </trkpt>
      <trkpt lat="37.095628" lon="-79.610054">
        <ele>254.147834</ele>
        <time>2025-09-05T11:36:04.000Z</time>
      </trkpt>
      <trkpt lat="37.095587" lon="-79.610101">
        <ele>254.160195</ele>
        <time>2025-09-05T11:36:05.000Z</time>
      </trkpt>
      <trkpt lat="37.095086" lon="-79.610371">
        <ele>254.289091</ele>
        <time>2025-09-05T11:36:11.000Z</time>
      </trkpt>
      <trkpt lat="37.09508" lon="-79.610385">
        <ele>254.291734</ele>
        <time>2025-09-05T11:36:11.000Z</time>
      </trkpt>
      <trkpt lat="37.095072" lon="-79.610383">
        <ele>254.29434</ele>
        <time>2025-09-05T11:36:11.000Z</time>
      </trkpt>
      <trkpt lat="37.095066" lon="-79.610375">
        <ele>254.295546</ele>
        <time>2025-09-05T11:36:11.000Z</time>
      </trkpt>
      <trkpt lat="37.095064" lon="-79.610383">
        <ele>254.295785</ele>
        <time>2025-09-05T11:36:11.000Z</time>
      </trkpt>
      <trkpt lat="37.09506" lon="-79.610376">
        <ele>254.296263</ele>
        <time>2025-09-05T11:36:11.000Z</time>
      </trkpt>
      <trkpt lat="37.095055" lon="-79.610386">
        <ele>254.296979</ele>
        <time>2025-09-05T11:36:11.000Z</time>
      </trkpt>
      <trkpt lat="37.095051" lon="-79.610386">
        <ele>254.297726</ele>
        <time>2025-09-05T11:36:11.000Z</time>
      </trkpt>
      <trkpt lat="37.09503" lon="-79.610391">
        <ele>254.302489</ele>
        <time>2025-09-05T11:36:11.000Z</time>
      </trkpt>
      <trkpt lat="37.095003" lon="-79.610358">
        <ele>254.310154</ele>
        <time>2025-09-05T11:36:11.000Z</time>
      </trkpt>
      <trkpt lat="37.094979" lon="-79.610343">
        <ele>254.320261</ele>
        <time>2025-09-05T11:36:11.000Z</time>
      </trkpt>
      <trkpt lat="37.094911" lon="-79.61018">
        <ele>254.351752</ele>
        <time>2025-09-05T11:36:13.000Z</time>
      </trkpt>
      <trkpt lat="37.095418" lon="-79.609888">
        <ele>254.28557</ele>
        <time>2025-09-05T11:36:19.000Z</time>
      </trkpt>
      <trkpt lat="37.095425" lon="-79.609894">
        <ele>254.284903</ele>
        <time>2025-09-05T11:36:19.000Z</time>
      </trkpt>
      <trkpt lat="37.095414" lon="-79.609889">
        <ele>254.28323</ele>
        <time>2025-09-05T11:36:19.000Z</time>
      </trkpt>
      <trkpt lat="37.09543" lon="-79.609884">
        <ele>254.276753</ele>
        <time>2025-09-05T11:36:19.000Z</time>
      </trkpt>
      <trkpt lat="37.095434" lon="-79.609877">
        <ele>254.275908</ele>
        <time>2025-09-05T11:36:19.000Z</time>
      </trkpt>
      <trkpt lat="37.095439" lon="-79.609885">
        <ele>254.275259</ele>
        <time>2025-09-05T11:36:19.000Z</time>
      </trkpt>
      <trkpt lat="37.095439" lon="-79.60987">
        <ele>254.272433</ele>
        <time>2025-09-05T11:36:19.000Z</time>
      </trkpt>
      <trkpt lat="37.09543" lon="-79.609874">
        <ele>254.271591</ele>
        <time>2025-09-05T11:36:19.000Z</time>
      </trkpt>
      <trkpt lat="37.095437" lon="-79.609874">
        <ele>254.267937</ele>
        <time>2025-09-05T11:36:19.000Z</time>
      </trkpt>
      <trkpt lat="37.095454" lon="-79.609863">
        <ele>254.265118</ele>
        <time>2025-09-05T11:36:19.000Z</time>
      </trkpt>
      <trkpt lat="37.095483" lon="-79.609841">
        <ele>254.235122</ele>
        <time>2025-09-05T11:36:19.000Z</time>
      </trkpt>
      <trkpt lat="37.09552" lon="-79.609828">
        <ele>254.209621</ele>
        <time>2025-09-05T11:36:19.000Z</time>
      </trkpt>
      <trkpt lat="37.095609" lon="-79.609828">
        <ele>254.157636</ele>
        <time>2025-09-05T11:36:20.000Z</time>
      </trkpt>
      <trkpt lat="37.09561" lon="-79.609767">
        <ele>254.132434</ele>
        <time>2025-09-05T11:36:21.000Z</time>
      </trkpt>
      <trkpt lat="37.095683" lon="-79.609693">
        <ele>254.071203</ele>
        <time>2025-09-05T11:36:22.000Z</time>
      </trkpt>
      <trkpt lat="37.096003" lon="-79.609498">
        <ele>253.833407</ele>
        <time>2025-09-05T11:36:26.000Z</time>
      </trkpt>
      <trkpt lat="37.096139" lon="-79.6094">
        <ele>253.729458</ele>
        <time>2025-09-05T11:36:28.000Z</time>
      </trkpt>
      <trkpt lat="37.096412" lon="-79.609229">
        <ele>253.528478</ele>
        <time>2025-09-05T11:36:31.000Z</time>
      </trkpt>
      <trkpt lat="37.096672" lon="-79.609037">
        <ele>253.332519</ele>
        <time>2025-09-05T11:36:34.000Z</time>
      </trkpt>
      <trkpt lat="37.096708" lon="-79.609005">
        <ele>253.306599</ele>
        <time>2025-09-05T11:36:34.000Z</time>
      </trkpt>
      <trkpt lat="37.096863" lon="-79.608855">
        <ele>253.125615</ele>
        <time>2025-09-05T11:36:36.000Z</time>
      </trkpt>
      <trkpt lat="37.097015" lon="-79.608616">
        <ele>252.857434</ele>
        <time>2025-09-05T11:36:39.000Z</time>
      </trkpt>
      <trkpt lat="37.097119" lon="-79.608386">
        <ele>252.638468</ele>
        <time>2025-09-05T11:36:41.000Z</time>
      </trkpt>
      <trkpt lat="37.097208" lon="-79.607914">
        <ele>252.216697</ele>
        <time>2025-09-05T11:36:45.000Z</time>
      </trkpt>
      <trkpt lat="37.097352" lon="-79.605474">
        <ele>251.721237</ele>
        <time>2025-09-05T11:37:07.000Z</time>
      </trkpt>
      <trkpt lat="37.097319" lon="-79.605117">
        <ele>251.836538</ele>
        <time>2025-09-05T11:37:10.000Z</time>
      </trkpt>
      <trkpt lat="37.097234" lon="-79.604772">
        <ele>251.945474</ele>
        <time>2025-09-05T11:37:13.000Z</time>
      </trkpt>
      <trkpt lat="37.097065" lon="-79.60444">
        <ele>252.353035</ele>
        <time>2025-09-05T11:37:16.000Z</time>
      </trkpt>
      <trkpt lat="37.096954" lon="-79.604258">
        <ele>252.694581</ele>
        <time>2025-09-05T11:37:18.000Z</time>
      </trkpt>
      <trkpt lat="37.096064" lon="-79.603125">
        <ele>255.080653</ele>
        <time>2025-09-05T11:37:32.000Z</time>
      </trkpt>
      <trkpt lat="37.095881" lon="-79.602938">
        <ele>255.514544</ele>
        <time>2025-09-05T11:37:35.000Z</time>
      </trkpt>
      <trkpt lat="37.09493" lon="-79.602205">
        <ele>257.27365</ele>
        <time>2025-09-05T11:37:47.000Z</time>
      </trkpt>
      <trkpt lat="37.09463" lon="-79.601904">
        <ele>257.913035</ele>
        <time>2025-09-05T11:37:51.000Z</time>
      </trkpt>
      <trkpt lat="37.094384" lon="-79.601491">
        <ele>258.815996</ele>
        <time>2025-09-05T11:37:56.000Z</time>
      </trkpt>
      <trkpt lat="37.094099" lon="-79.600669">
        <ele>260.950489</ele>
        <time>2025-09-05T11:38:04.000Z</time>
      </trkpt>
      <trkpt lat="37.093993" lon="-79.600387">
        <ele>261.695268</ele>
        <time>2025-09-05T11:38:07.000Z</time>
      </trkpt>
      <trkpt lat="37.093359" lon="-79.598665">
        <ele>266.464878</ele>
        <time>2025-09-05T11:38:24.000Z</time>
      </trkpt>
      <trkpt lat="37.092179" lon="-79.59528">
        <ele>273.852183</ele>
        <time>2025-09-05T11:38:57.000Z</time>
      </trkpt>
      <trkpt lat="37.091513" lon="-79.593429">
        <ele>277.002139</ele>
        <time>2025-09-05T11:39:15.000Z</time>
      </trkpt>
      <trkpt lat="37.091417" lon="-79.59315">
        <ele>277.115037</ele>
        <time>2025-09-05T11:39:18.000Z</time>
      </trkpt>
      <trkpt lat="37.091107" lon="-79.593649">
        <ele>277.340163</ele>
        <time>2025-09-05T11:39:24.000Z</time>
      </trkpt>
      <trkpt lat="37.090173" lon="-79.595299">
        <ele>276.81708</ele>
        <time>2025-09-05T11:39:42.000Z</time>
      </trkpt>
      <trkpt lat="37.089823" lon="-79.595922">
        <ele>275.85253</ele>
        <time>2025-09-05T11:39:49.000Z</time>
      </trkpt>
      <trkpt lat="37.089748" lon="-79.596064">
        <ele>275.636869</ele>
        <time>2025-09-05T11:39:51.000Z</time>
      </trkpt>
      <trkpt lat="37.089564" lon="-79.59638">
        <ele>275.159265</ele>
        <time>2025-09-05T11:39:54.000Z</time>
      </trkpt>
      <trkpt lat="37.089135" lon="-79.597129">
        <ele>272.526288</ele>
        <time>2025-09-05T11:40:02.000Z</time>
      </trkpt>
      <trkpt lat="37.088593" lon="-79.597884">
        <ele>269.341182</ele>
        <time>2025-09-05T11:40:11.000Z</time>
      </trkpt>
      <trkpt lat="37.088268" lon="-79.598219">
        <ele>267.743482</ele>
        <time>2025-09-05T11:40:16.000Z</time>
      </trkpt>
      <trkpt lat="37.087764" lon="-79.598606">
        <ele>266.337802</ele>
        <time>2025-09-05T11:40:23.000Z</time>
      </trkpt>
      <trkpt lat="37.087292" lon="-79.598939">
        <ele>265.04431</ele>
        <time>2025-09-05T11:40:29.000Z</time>
      </trkpt>
      <trkpt lat="37.086964" lon="-79.599262">
        <ele>264.052817</ele>
        <time>2025-09-05T11:40:34.000Z</time>
      </trkpt>
      <trkpt lat="37.086898" lon="-79.599374">
        <ele>263.785009</ele>
        <time>2025-09-05T11:40:35.000Z</time>
      </trkpt>
      <trkpt lat="37.086751" lon="-79.599712">
        <ele>263.164255</ele>
        <time>2025-09-05T11:40:38.000Z</time>
      </trkpt>
      <trkpt lat="37.086009" lon="-79.60201">
        <ele>260.054991</ele>
        <time>2025-09-05T11:41:00.000Z</time>
      </trkpt>
      <trkpt lat="37.085833" lon="-79.602452">
        <ele>259.855735</ele>
        <time>2025-09-05T11:41:04.000Z</time>
      </trkpt>
      <trkpt lat="37.085664" lon="-79.602715">
        <ele>259.720546</ele>
        <time>2025-09-05T11:41:07.000Z</time>
      </trkpt>
      <trkpt lat="37.085442" lon="-79.602973">
        <ele>259.564547</ele>
        <time>2025-09-05T11:41:10.000Z</time>
      </trkpt>
      <trkpt lat="37.085178" lon="-79.603163">
        <ele>259.412643</ele>
        <time>2025-09-05T11:41:13.000Z</time>
      </trkpt>
      <trkpt lat="37.083914" lon="-79.603631">
        <ele>259.502873</ele>
        <time>2025-09-05T11:41:28.000Z</time>
      </trkpt>
      <trkpt lat="37.083615" lon="-79.603833">
        <ele>259.55124</ele>
        <time>2025-09-05T11:41:32.000Z</time>
      </trkpt>
      <trkpt lat="37.083376" lon="-79.604117">
        <ele>259.556641</ele>
        <time>2025-09-05T11:41:36.000Z</time>
      </trkpt>
      <trkpt lat="37.083196" lon="-79.60443">
        <ele>259.346175</ele>
        <time>2025-09-05T11:41:39.000Z</time>
      </trkpt>
      <trkpt lat="37.08312" lon="-79.604708">
        <ele>259.184873</ele>
        <time>2025-09-05T11:41:42.000Z</time>
      </trkpt>
      <trkpt lat="37.082955" lon="-79.606606">
        <ele>258.393375</ele>
        <time>2025-09-05T11:41:59.000Z</time>
      </trkpt>
      <trkpt lat="37.082888" lon="-79.606951">
        <ele>258.429842</ele>
        <time>2025-09-05T11:42:02.000Z</time>
      </trkpt>
      <trkpt lat="37.082821" lon="-79.607152">
        <ele>258.451734</ele>
        <time>2025-09-05T11:42:04.000Z</time>
      </trkpt>
      <trkpt lat="37.082612" lon="-79.607483">
        <ele>258.494566</ele>
        <time>2025-09-05T11:42:08.000Z</time>
      </trkpt>
      <trkpt lat="37.082436" lon="-79.607634">
        <ele>258.521843</ele>
        <time>2025-09-05T11:42:10.000Z</time>
      </trkpt>
      <trkpt lat="37.082149" lon="-79.607806">
        <ele>258.564401</ele>
        <time>2025-09-05T11:42:14.000Z</time>
      </trkpt>
      <trkpt lat="37.081583" lon="-79.608027">
        <ele>256.755084</ele>
        <time>2025-09-05T11:42:21.000Z</time>
      </trkpt>
      <trkpt lat="37.081299" lon="-79.608207">
        <ele>255.470182</ele>
        <time>2025-09-05T11:42:25.000Z</time>
      </trkpt>
      <trkpt lat="37.08093" lon="-79.608527">
        <ele>253.622374</ele>
        <time>2025-09-05T11:42:30.000Z</time>
      </trkpt>
      <trkpt lat="37.080364" lon="-79.609069">
        <ele>250.799208</ele>
        <time>2025-09-05T11:42:38.000Z</time>
      </trkpt>
      <trkpt lat="37.080152" lon="-79.609342">
        <ele>249.986662</ele>
        <time>2025-09-05T11:42:41.000Z</time>
      </trkpt>
      <trkpt lat="37.080104" lon="-79.609437">
        <ele>249.736704</ele>
        <time>2025-09-05T11:42:42.000Z</time>
      </trkpt>
      <trkpt lat="37.080028" lon="-79.609656">
        <ele>249.244226</ele>
        <time>2025-09-05T11:42:44.000Z</time>
      </trkpt>
      <trkpt lat="37.080023" lon="-79.609842">
        <ele>248.848859</ele>
        <time>2025-09-05T11:42:46.000Z</time>
      </trkpt>
      <trkpt lat="37.080048" lon="-79.610271">
        <ele>247.89352</ele>
        <time>2025-09-05T11:42:50.000Z</time>
      </trkpt>
      <trkpt lat="37.080027" lon="-79.61044">
        <ele>247.530999</ele>
        <time>2025-09-05T11:42:52.000Z</time>
      </trkpt>
      <trkpt lat="37.079984" lon="-79.610513">
        <ele>247.350126</ele>
        <time>2025-09-05T11:42:53.000Z</time>
      </trkpt>
      <trkpt lat="37.079734" lon="-79.610763">
        <ele>246.451606</ele>
        <time>2025-09-05T11:42:57.000Z</time>
      </trkpt>
      <trkpt lat="37.079644" lon="-79.610898">
        <ele>246.294792</ele>
        <time>2025-09-05T11:42:59.000Z</time>
      </trkpt>
      <trkpt lat="37.079542" lon="-79.611191">
        <ele>246.432781</ele>
        <time>2025-09-05T11:43:02.000Z</time>
      </trkpt>
      <trkpt lat="37.079461" lon="-79.61154">
        <ele>246.58075</ele>
        <time>2025-09-05T11:43:05.000Z</time>
      </trkpt>
      <trkpt lat="37.07936" lon="-79.611696">
        <ele>246.663926</ele>
        <time>2025-09-05T11:43:07.000Z</time>
      </trkpt>
      <trkpt lat="37.079162" lon="-79.611848">
        <ele>246.784494</ele>
        <time>2025-09-05T11:43:10.000Z</time>
      </trkpt>
      <trkpt lat="37.078777" lon="-79.611982">
        <ele>246.998114</ele>
        <time>2025-09-05T11:43:14.000Z</time>
      </trkpt>
      <trkpt lat="37.078661" lon="-79.612049">
        <ele>247.066585</ele>
        <time>2025-09-05T11:43:15.000Z</time>
      </trkpt>
      <trkpt lat="37.078587" lon="-79.612149">
        <ele>247.121273</ele>
        <time>2025-09-05T11:43:16.000Z</time>
      </trkpt>
      <trkpt lat="37.078534" lon="-79.612259">
        <ele>247.175589</ele>
        <time>2025-09-05T11:43:17.000Z</time>
      </trkpt>
      <trkpt lat="37.078472" lon="-79.612436">
        <ele>247.319618</ele>
        <time>2025-09-05T11:43:19.000Z</time>
      </trkpt>
      <trkpt lat="37.078476" lon="-79.612622">
        <ele>247.507998</ele>
        <time>2025-09-05T11:43:21.000Z</time>
      </trkpt>
      <trkpt lat="37.078574" lon="-79.613036">
        <ele>247.92035</ele>
        <time>2025-09-05T11:43:25.000Z</time>
      </trkpt>
      <trkpt lat="37.078697" lon="-79.613358">
        <ele>248.271688</ele>
        <time>2025-09-05T11:43:28.000Z</time>
      </trkpt>
      <trkpt lat="37.078819" lon="-79.613716">
        <ele>248.647121</ele>
        <time>2025-09-05T11:43:31.000Z</time>
      </trkpt>
      <trkpt lat="37.079076" lon="-79.614116">
        <ele>249.146224</ele>
        <time>2025-09-05T11:43:36.000Z</time>
      </trkpt>
      <trkpt lat="37.079206" lon="-79.614461">
        <ele>249.373502</ele>
        <time>2025-09-05T11:43:39.000Z</time>
      </trkpt>
      <trkpt lat="37.079283" lon="-79.61483">
        <ele>249.255805</ele>
        <time>2025-09-05T11:43:42.000Z</time>
      </trkpt>
      <trkpt lat="37.079294" lon="-79.61508">
        <ele>249.178487</ele>
        <time>2025-09-05T11:43:44.000Z</time>
      </trkpt>
      <trkpt lat="37.079284" lon="-79.61525">
        <ele>249.126222</ele>
        <time>2025-09-05T11:43:46.000Z</time>
      </trkpt>
      <trkpt lat="37.079287" lon="-79.615281">
        <ele>249.110873</ele>
        <time>2025-09-05T11:43:46.000Z</time>
      </trkpt>
      <trkpt lat="37.079274" lon="-79.615305">
        <ele>249.106974</ele>
        <time>2025-09-05T11:43:46.000Z</time>
      </trkpt>
      <trkpt lat="37.079284" lon="-79.615316">
        <ele>249.104662</ele>
        <time>2025-09-05T11:43:46.000Z</time>
      </trkpt>
      <trkpt lat="37.079281" lon="-79.615316">
        <ele>249.102435</ele>
        <time>2025-09-05T11:43:46.000Z</time>
      </trkpt>
      <trkpt lat="37.07928" lon="-79.615306">
        <ele>249.101945</ele>
        <time>2025-09-05T11:43:46.000Z</time>
      </trkpt>
      <trkpt lat="37.079278" lon="-79.615316">
        <ele>249.10093</ele>
        <time>2025-09-05T11:43:46.000Z</time>
      </trkpt>
      <trkpt lat="37.079264" lon="-79.615313">
        <ele>249.099623</ele>
        <time>2025-09-05T11:43:46.000Z</time>
      </trkpt>
      <trkpt lat="37.079273" lon="-79.615321">
        <ele>249.098694</ele>
        <time>2025-09-05T11:43:46.000Z</time>
      </trkpt>
      <trkpt lat="37.079255" lon="-79.6154">
        <ele>249.074509</ele>
        <time>2025-09-05T11:43:47.000Z</time>
      </trkpt>
      <trkpt lat="37.079191" lon="-79.615496">
        <ele>249.033163</ele>
        <time>2025-09-05T11:43:48.000Z</time>
      </trkpt>
      <trkpt lat="37.079103" lon="-79.615571">
        <ele>248.991705</ele>
        <time>2025-09-05T11:43:49.000Z</time>
      </trkpt>
      <trkpt lat="37.079027" lon="-79.615589">
        <ele>248.965648</ele>
        <time>2025-09-05T11:43:50.000Z</time>
      </trkpt>
      <trkpt lat="37.078915" lon="-79.615582">
        <ele>248.919077</ele>
        <time>2025-09-05T11:43:51.000Z</time>
      </trkpt>
      <trkpt lat="37.078808" lon="-79.615474">
        <ele>248.867723</ele>
        <time>2025-09-05T11:43:53.000Z</time>
      </trkpt>
      <trkpt lat="37.078744" lon="-79.615313">
        <ele>248.813669</ele>
        <time>2025-09-05T11:43:55.000Z</time>
      </trkpt>
      <trkpt lat="37.078746" lon="-79.615282">
        <ele>248.804026</ele>
        <time>2025-09-05T11:43:55.000Z</time>
      </trkpt>
      <trkpt lat="37.078753" lon="-79.615274">
        <ele>248.799358</ele>
        <time>2025-09-05T11:43:55.000Z</time>
      </trkpt>
      <trkpt lat="37.078754" lon="-79.615263">
        <ele>248.797498</ele>
        <time>2025-09-05T11:43:55.000Z</time>
      </trkpt>
      <trkpt lat="37.078751" lon="-79.615246">
        <ele>248.795943</ele>
        <time>2025-09-05T11:43:55.000Z</time>
      </trkpt>
      <trkpt lat="37.078755" lon="-79.61525">
        <ele>248.794378</ele>
        <time>2025-09-05T11:43:55.000Z</time>
      </trkpt>
      <trkpt lat="37.078753" lon="-79.61524">
        <ele>248.793757</ele>
        <time>2025-09-05T11:43:55.000Z</time>
      </trkpt>
      <trkpt lat="37.078748" lon="-79.615238">
        <ele>248.791585</ele>
        <time>2025-09-05T11:43:55.000Z</time>
      </trkpt>
      <trkpt lat="37.078748" lon="-79.615243">
        <ele>248.79034</ele>
        <time>2025-09-05T11:43:55.000Z</time>
      </trkpt>
      <trkpt lat="37.078761" lon="-79.615012">
        <ele>248.723136</ele>
        <time>2025-09-05T11:43:57.000Z</time>
      </trkpt>
      <trkpt lat="37.078812" lon="-79.614166">
        <ele>248.315549</ele>
        <time>2025-09-05T11:44:05.000Z</time>
      </trkpt>
      <trkpt lat="37.078815" lon="-79.613701">
        <ele>248.093919</ele>
        <time>2025-09-05T11:44:09.000Z</time>
      </trkpt>
      <trkpt lat="37.078695" lon="-79.613355">
        <ele>247.907411</ele>
        <time>2025-09-05T11:44:12.000Z</time>
      </trkpt>
      <trkpt lat="37.078578" lon="-79.613029">
        <ele>247.732872</ele>
        <time>2025-09-05T11:44:15.000Z</time>
      </trkpt>
      <trkpt lat="37.078471" lon="-79.612632">
        <ele>247.490646</ele>
        <time>2025-09-05T11:44:19.000Z</time>
      </trkpt>
      <trkpt lat="37.078478" lon="-79.612434">
        <ele>247.35658</ele>
        <time>2025-09-05T11:44:21.000Z</time>
      </trkpt>
      <trkpt lat="37.078533" lon="-79.61226">
        <ele>247.223161</ele>
        <time>2025-09-05T11:44:23.000Z</time>
      </trkpt>
      <trkpt lat="37.078587" lon="-79.612138">
        <ele>247.133404</ele>
        <time>2025-09-05T11:44:24.000Z</time>
      </trkpt>
      <trkpt lat="37.078664" lon="-79.612059">
        <ele>247.042996</ele>
        <time>2025-09-05T11:44:25.000Z</time>
      </trkpt>
      <trkpt lat="37.078784" lon="-79.611987">
        <ele>246.929837</ele>
        <time>2025-09-05T11:44:26.000Z</time>
      </trkpt>
      <trkpt lat="37.079171" lon="-79.611856">
        <ele>246.576743</ele>
        <time>2025-09-05T11:44:30.000Z</time>
      </trkpt>
      <trkpt lat="37.079364" lon="-79.611694">
        <ele>246.37747</ele>
        <time>2025-09-05T11:44:33.000Z</time>
      </trkpt>
      <trkpt lat="37.079444" lon="-79.611528">
        <ele>246.239974</ele>
        <time>2025-09-05T11:44:35.000Z</time>
      </trkpt>
      <trkpt lat="37.079539" lon="-79.611193">
        <ele>246.163924</ele>
        <time>2025-09-05T11:44:38.000Z</time>
      </trkpt>
      <trkpt lat="37.079639" lon="-79.610891">
        <ele>246.658632</ele>
        <time>2025-09-05T11:44:41.000Z</time>
      </trkpt>
      <trkpt lat="37.079739" lon="-79.610774">
        <ele>246.912048</ele>
        <time>2025-09-05T11:44:43.000Z</time>
      </trkpt>
      <trkpt lat="37.079985" lon="-79.610512">
        <ele>247.5367</ele>
        <time>2025-09-05T11:44:47.000Z</time>
      </trkpt>
      <trkpt lat="37.080027" lon="-79.610439">
        <ele>247.662437</ele>
        <time>2025-09-05T11:44:48.000Z</time>
      </trkpt>
      <trkpt lat="37.080057" lon="-79.610278">
        <ele>247.914465</ele>
        <time>2025-09-05T11:44:49.000Z</time>
      </trkpt>
      <trkpt lat="37.080022" lon="-79.609827">
        <ele>248.578617</ele>
        <time>2025-09-05T11:44:53.000Z</time>
      </trkpt>
      <trkpt lat="37.080034" lon="-79.609651">
        <ele>248.853463</ele>
        <time>2025-09-05T11:44:55.000Z</time>
      </trkpt>
      <trkpt lat="37.080092" lon="-79.609448">
        <ele>249.195851</ele>
        <time>2025-09-05T11:44:57.000Z</time>
      </trkpt>
      <trkpt lat="37.080148" lon="-79.609345">
        <ele>249.369622</ele>
        <time>2025-09-05T11:44:58.000Z</time>
      </trkpt>
      <trkpt lat="37.080347" lon="-79.609068">
        <ele>250.638926</ele>
        <time>2025-09-05T11:45:01.000Z</time>
      </trkpt>
      <trkpt lat="37.080932" lon="-79.608521">
        <ele>253.987199</ele>
        <time>2025-09-05T11:45:09.000Z</time>
      </trkpt>
      <trkpt lat="37.081296" lon="-79.608198">
        <ele>256.046295</ele>
        <time>2025-09-05T11:45:14.000Z</time>
      </trkpt>
      <trkpt lat="37.08158" lon="-79.608033">
        <ele>257.478101</ele>
        <time>2025-09-05T11:45:17.000Z</time>
      </trkpt>
      <trkpt lat="37.082145" lon="-79.607811">
        <ele>257.935599</ele>
        <time>2025-09-05T11:45:24.000Z</time>
      </trkpt>
      <trkpt lat="37.082441" lon="-79.607637">
        <ele>258.059869</ele>
        <time>2025-09-05T11:45:28.000Z</time>
      </trkpt>
      <trkpt lat="37.082611" lon="-79.60748">
        <ele>258.139547</ele>
        <time>2025-09-05T11:45:30.000Z</time>
      </trkpt>
      <trkpt lat="37.082819" lon="-79.607139">
        <ele>258.264617</ele>
        <time>2025-09-05T11:45:34.000Z</time>
      </trkpt>
      <trkpt lat="37.082882" lon="-79.60695">
        <ele>258.328564</ele>
        <time>2025-09-05T11:45:36.000Z</time>
      </trkpt>
      <trkpt lat="37.082965" lon="-79.606605">
        <ele>258.443671</ele>
        <time>2025-09-05T11:45:39.000Z</time>
      </trkpt>
      <trkpt lat="37.083106" lon="-79.604703">
        <ele>259.223078</ele>
        <time>2025-09-05T11:45:56.000Z</time>
      </trkpt>
      <trkpt lat="37.083199" lon="-79.604429">
        <ele>259.329667</ele>
        <time>2025-09-05T11:45:59.000Z</time>
      </trkpt>
      <trkpt lat="37.083379" lon="-79.604118">
        <ele>259.364405</ele>
        <time>2025-09-05T11:46:02.000Z</time>
      </trkpt>
      <trkpt lat="37.083603" lon="-79.603826">
        <ele>259.401856</ele>
        <time>2025-09-05T11:46:06.000Z</time>
      </trkpt>
      <trkpt lat="37.083911" lon="-79.603639">
        <ele>259.44075</ele>
        <time>2025-09-05T11:46:10.000Z</time>
      </trkpt>
      <trkpt lat="37.085178" lon="-79.603175">
        <ele>259.584617</ele>
        <time>2025-09-05T11:46:25.000Z</time>
      </trkpt>
      <trkpt lat="37.085446" lon="-79.602976">
        <ele>259.614726</ele>
        <time>2025-09-05T11:46:28.000Z</time>
      </trkpt>
      <trkpt lat="37.085657" lon="-79.602707">
        <ele>259.645627</ele>
        <time>2025-09-05T11:46:31.000Z</time>
      </trkpt>
      <trkpt lat="37.085829" lon="-79.602446">
        <ele>259.67242</ele>
        <time>2025-09-05T11:46:34.000Z</time>
      </trkpt>
      <trkpt lat="37.086017" lon="-79.602023">
        <ele>259.711892</ele>
        <time>2025-09-05T11:46:38.000Z</time>
      </trkpt>
      <trkpt lat="37.086761" lon="-79.599711">
        <ele>263.243648</ele>
        <time>2025-09-05T11:47:00.000Z</time>
      </trkpt>
      <trkpt lat="37.086907" lon="-79.599361">
        <ele>263.869482</ele>
        <time>2025-09-05T11:47:04.000Z</time>
      </trkpt>
      <trkpt lat="37.086968" lon="-79.599252">
        <ele>264.097601</ele>
        <time>2025-09-05T11:47:05.000Z</time>
      </trkpt>
      <trkpt lat="37.087303" lon="-79.598931">
        <ele>264.942153</ele>
        <time>2025-09-05T11:47:10.000Z</time>
      </trkpt>
      <trkpt lat="37.087777" lon="-79.598606">
        <ele>266.043964</ele>
        <time>2025-09-05T11:47:16.000Z</time>
      </trkpt>
      <trkpt lat="37.088278" lon="-79.598221">
        <ele>267.911158</ele>
        <time>2025-09-05T11:47:23.000Z</time>
      </trkpt>
      <trkpt lat="37.088597" lon="-79.59788">
        <ele>269.549392</ele>
        <time>2025-09-05T11:47:28.000Z</time>
      </trkpt>
      <trkpt lat="37.089129" lon="-79.597139">
        <ele>272.709255</ele>
        <time>2025-09-05T11:47:37.000Z</time>
      </trkpt>
      <trkpt lat="37.089557" lon="-79.596367">
        <ele>274.746386</ele>
        <time>2025-09-05T11:47:45.000Z</time>
      </trkpt>
      <trkpt lat="37.089748" lon="-79.596072">
        <ele>275.417892</ele>
        <time>2025-09-05T11:47:48.000Z</time>
      </trkpt>
      <trkpt lat="37.089825" lon="-79.595926">
        <ele>275.721108</ele>
        <time>2025-09-05T11:47:50.000Z</time>
      </trkpt>
      <trkpt lat="37.090165" lon="-79.595302">
        <ele>277.077241</ele>
        <time>2025-09-05T11:47:57.000Z</time>
      </trkpt>
      <trkpt lat="37.091109" lon="-79.593645">
        <ele>277.488816</ele>
        <time>2025-09-05T11:48:15.000Z</time>
      </trkpt>
      <trkpt lat="37.091423" lon="-79.593154">
        <ele>277.291194</ele>
        <time>2025-09-05T11:48:21.000Z</time>
      </trkpt>
      <trkpt lat="37.091524" lon="-79.59344">
        <ele>276.83512</ele>
        <time>2025-09-05T11:48:24.000Z</time>
      </trkpt>
      <trkpt lat="37.092183" lon="-79.595269">
        <ele>273.882953</ele>
        <time>2025-09-05T11:48:42.000Z</time>
      </trkpt>
      <trkpt lat="37.093353" lon="-79.59866">
        <ele>266.591566</ele>
        <time>2025-09-05T11:49:15.000Z</time>
      </trkpt>
      <trkpt lat="37.093998" lon="-79.600378">
        <ele>261.648286</ele>
        <time>2025-09-05T11:49:32.000Z</time>
      </trkpt>
      <trkpt lat="37.094092" lon="-79.60068">
        <ele>260.780761</ele>
        <time>2025-09-05T11:49:35.000Z</time>
      </trkpt>
      <trkpt lat="37.094388" lon="-79.601495">
        <ele>258.645166</ele>
        <time>2025-09-05T11:49:43.000Z</time>
      </trkpt>
      <trkpt lat="37.094617" lon="-79.601892">
        <ele>257.99209</ele>
        <time>2025-09-05T11:49:47.000Z</time>
      </trkpt>
      <trkpt lat="37.094943" lon="-79.60221">
        <ele>257.331489</ele>
        <time>2025-09-05T11:49:52.000Z</time>
      </trkpt>
      <trkpt lat="37.09587" lon="-79.602946">
        <ele>255.465761</ele>
        <time>2025-09-05T11:50:04.000Z</time>
      </trkpt>
      <trkpt lat="37.096059" lon="-79.603128">
        <ele>255.025906</ele>
        <time>2025-09-05T11:50:07.000Z</time>
      </trkpt>
      <trkpt lat="37.096963" lon="-79.604264">
        <ele>252.752264</ele>
        <time>2025-09-05T11:50:21.000Z</time>
      </trkpt>
      <trkpt lat="37.09708" lon="-79.604446">
        <ele>252.577711</ele>
        <time>2025-09-05T11:50:23.000Z</time>
      </trkpt>
      <trkpt lat="37.097221" lon="-79.604778">
        <ele>252.277973</ele>
        <time>2025-09-05T11:50:26.000Z</time>
      </trkpt>
      <trkpt lat="37.097307" lon="-79.605108">
        <ele>252.009019</ele>
        <time>2025-09-05T11:50:29.000Z</time>
      </trkpt>
      <trkpt lat="37.097336" lon="-79.605481">
        <ele>251.724408</ele>
        <time>2025-09-05T11:50:32.000Z</time>
      </trkpt>
      <trkpt lat="37.097209" lon="-79.607927">
        <ele>252.235053</ele>
        <time>2025-09-05T11:50:54.000Z</time>
      </trkpt>
      <trkpt lat="37.097112" lon="-79.608384">
        <ele>252.610713</ele>
        <time>2025-09-05T11:50:58.000Z</time>
      </trkpt>
      <trkpt lat="37.097031" lon="-79.608627">
        <ele>252.80207</ele>
        <time>2025-09-05T11:51:00.000Z</time>
      </trkpt>
      <trkpt lat="37.096871" lon="-79.60886">
        <ele>253.007554</ele>
        <time>2025-09-05T11:51:03.000Z</time>
      </trkpt>
      <trkpt lat="37.096714" lon="-79.609011">
        <ele>253.174996</ele>
        <time>2025-09-05T11:51:05.000Z</time>
      </trkpt>
      <trkpt lat="37.096671" lon="-79.609027">
        <ele>253.207867</ele>
        <time>2025-09-05T11:51:05.000Z</time>
      </trkpt>
      <trkpt lat="37.09642" lon="-79.609215">
        <ele>253.456443</ele>
        <time>2025-09-05T11:51:08.000Z</time>
      </trkpt>
      <trkpt lat="37.096145" lon="-79.609408">
        <ele>253.711392</ele>
        <time>2025-09-05T11:51:12.000Z</time>
      </trkpt>
      <trkpt lat="37.096008" lon="-79.609498">
        <ele>253.843233</ele>
        <time>2025-09-05T11:51:14.000Z</time>
      </trkpt>
      <trkpt lat="37.095778" lon="-79.609866">
        <ele>254.150329</ele>
        <time>2025-09-05T11:51:18.000Z</time>
      </trkpt>
      <trkpt lat="37.095734" lon="-79.609917">
        <ele>254.206702</ele>
        <time>2025-09-05T11:51:19.000Z</time>
      </trkpt>
      <trkpt lat="37.095667" lon="-79.609936">
        <ele>254.259494</ele>
        <time>2025-09-05T11:51:20.000Z</time>
      </trkpt>
      <trkpt lat="37.095629" lon="-79.610054">
        <ele>254.278501</ele>
        <time>2025-09-05T11:51:21.000Z</time>
      </trkpt>
      <trkpt lat="37.095585" lon="-79.610099">
        <ele>254.277721</ele>
        <time>2025-09-05T11:51:22.000Z</time>
      </trkpt>
      <trkpt lat="37.095088" lon="-79.610366">
        <ele>254.26954</ele>
        <time>2025-09-05T11:51:28.000Z</time>
      </trkpt>
      <trkpt lat="37.095077" lon="-79.610386">
        <ele>254.269371</ele>
        <time>2025-09-05T11:51:28.000Z</time>
      </trkpt>
      <trkpt lat="37.095067" lon="-79.610387">
        <ele>254.269206</ele>
        <time>2025-09-05T11:51:28.000Z</time>
      </trkpt>
      <trkpt lat="37.095073" lon="-79.610385">
        <ele>254.269124</ele>
        <time>2025-09-05T11:51:28.000Z</time>
      </trkpt>
      <trkpt lat="37.095071" lon="-79.610382">
        <ele>254.269105</ele>
        <time>2025-09-05T11:51:28.000Z</time>
      </trkpt>
      <trkpt lat="37.095063" lon="-79.610371">
        <ele>254.26907</ele>
        <time>2025-09-05T11:51:28.000Z</time>
      </trkpt>
      <trkpt lat="37.09506" lon="-79.610384">
        <ele>254.269034</ele>
        <time>2025-09-05T11:51:28.000Z</time>
      </trkpt>
      <trkpt lat="37.095058" lon="-79.610377">
        <ele>254.268994</ele>
        <time>2025-09-05T11:51:28.000Z</time>
      </trkpt>
      <trkpt lat="37.09504" lon="-79.610379">
        <ele>254.26868</ele>
        <time>2025-09-05T11:51:28.000Z</time>
      </trkpt>
      <trkpt lat="37.095001" lon="-79.610363">
        <ele>254.268196</ele>
        <time>2025-09-05T11:51:28.000Z</time>
      </trkpt>
      <trkpt lat="37.094964" lon="-79.610344">
        <ele>254.267547</ele>
        <time>2025-09-05T11:51:28.000Z</time>
      </trkpt>
      <trkpt lat="37.094912" lon="-79.610185">
        <ele>254.265551</ele>
        <time>2025-09-05T11:51:30.000Z</time>
      </trkpt>
      <trkpt lat="37.095418" lon="-79.609888">
        <ele>254.257084</ele>
        <time>2025-09-05T11:51:36.000Z</time>
      </trkpt>
      <trkpt lat="37.095412" lon="-79.609896">
        <ele>254.257081</ele>
        <time>2025-09-05T11:51:36.000Z</time>
      </trkpt>
      <trkpt lat="37.095415" lon="-79.60988">
        <ele>254.257028</ele>
        <time>2025-09-05T11:51:36.000Z</time>
      </trkpt>
      <trkpt lat="37.095433" lon="-79.609884">
        <ele>254.256894</ele>
        <time>2025-09-05T11:51:36.000Z</time>
      </trkpt>
      <trkpt lat="37.095436" lon="-79.609882">
        <ele>254.256864</ele>
        <time>2025-09-05T11:51:36.000Z</time>
      </trkpt>
      <trkpt lat="37.09544" lon="-79.609872">
        <ele>254.256856</ele>
        <time>2025-09-05T11:51:36.000Z</time>
      </trkpt>
      <trkpt lat="37.095441" lon="-79.609874">
        <ele>254.256789</ele>
        <time>2025-09-05T11:51:36.000Z</time>
      </trkpt>
      <trkpt lat="37.095428" lon="-79.609873">
        <ele>254.256768</ele>
        <time>2025-09-05T11:51:36.000Z</time>
      </trkpt>
      <trkpt lat="37.095436" lon="-79.609883">
        <ele>254.256684</ele>
        <time>2025-09-05T11:51:36.000Z</time>
      </trkpt>
      <trkpt lat="37.095446" lon="-79.609871">
        <ele>254.256614</ele>
        <time>2025-09-05T11:51:36.000Z</time>
      </trkpt>
      <trkpt lat="37.09549" lon="-79.609843">
        <ele>254.255938</ele>
        <time>2025-09-05T11:51:37.000Z</time>
      </trkpt>
      <trkpt lat="37.095522" lon="-79.609824">
        <ele>254.255337</ele>
        <time>2025-09-05T11:51:37.000Z</time>
      </trkpt>
      <trkpt lat="37.095608" lon="-79.609823">
        <ele>254.254138</ele>
        <time>2025-09-05T11:51:38.000Z</time>
      </trkpt>
      <trkpt lat="37.095607" lon="-79.609772">
        <ele>254.25356</ele>
        <time>2025-09-05T11:51:38.000Z</time>
      </trkpt>
      <trkpt lat="37.095687" lon="-79.609694">
        <ele>254.230546</ele>
        <time>2025-09-05T11:51:39.000Z</time>
      </trkpt>
      <trkpt lat="37.096" lon="-79.609498">
        <ele>253.900517</ele>
        <time>2025-09-05T11:51:43.000Z</time>
      </trkpt>
      <trkpt lat="37.096153" lon="-79.609395">
        <ele>253.756277</ele>
        <time>2025-09-05T11:51:45.000Z</time>
      </trkpt>
      <trkpt lat="37.096421" lon="-79.60923">
        <ele>253.477348</ele>
        <time>2025-09-05T11:51:48.000Z</time>
      </trkpt>
      <trkpt lat="37.096674" lon="-79.609033">
        <ele>253.205399</ele>
        <time>2025-09-05T11:51:51.000Z</time>
      </trkpt>
      <trkpt lat="37.0967" lon="-79.609007">
        <ele>253.169421</ele>
        <time>2025-09-05T11:51:51.000Z</time>
      </trkpt>
      <trkpt lat="37.096867" lon="-79.608852">
        <ele>252.986242</ele>
        <time>2025-09-05T11:51:53.000Z</time>
      </trkpt>
      <trkpt lat="37.097023" lon="-79.608628">
        <ele>252.761426</ele>
        <time>2025-09-05T11:51:56.000Z</time>
      </trkpt>
      <trkpt lat="37.097101" lon="-79.608389">
        <ele>252.578128</ele>
        <time>2025-09-05T11:51:58.000Z</time>
      </trkpt>
      <trkpt lat="37.097217" lon="-79.607925">
        <ele>252.227499</ele>
        <time>2025-09-05T11:52:02.000Z</time>
      </trkpt>
      <trkpt lat="37.097347" lon="-79.605486">
        <ele>251.649073</ele>
        <time>2025-09-05T11:52:24.000Z</time>
      </trkpt>
      <trkpt lat="37.097306" lon="-79.605118">
        <ele>251.989525</ele>
        <time>2025-09-05T11:52:27.000Z</time>
      </trkpt>
      <trkpt lat="37.097237" lon="-79.604777">
        <ele>252.311223</ele>
        <time>2025-09-05T11:52:30.000Z</time>
      </trkpt>
      <trkpt lat="37.097074" lon="-79.604441">
        <ele>252.669745</ele>
        <time>2025-09-05T11:52:33.000Z</time>
      </trkpt>
      <trkpt lat="37.096958" lon="-79.604249">
        <ele>252.87855</ele>
        <time>2025-09-05T11:52:35.000Z</time>
      </trkpt>
      <trkpt lat="37.096069" lon="-79.60314">
        <ele>255.022643</ele>
        <time>2025-09-05T11:52:49.000Z</time>
      </trkpt>
      <trkpt lat="37.095873" lon="-79.602937">
        <ele>255.453191</ele>
        <time>2025-09-05T11:52:52.000Z</time>
      </trkpt>
      <trkpt lat="37.094929" lon="-79.602215">
        <ele>257.3576</ele>
        <time>2025-09-05T11:53:04.000Z</time>
      </trkpt>
      <trkpt lat="37.09462" lon="-79.601903">
        <ele>258.03818</ele>
        <time>2025-09-05T11:53:08.000Z</time>
      </trkpt>
      <trkpt lat="37.09439" lon="-79.601485">
        <ele>258.711019</ele>
        <time>2025-09-05T11:53:13.000Z</time>
      </trkpt>
      <trkpt lat="37.094095" lon="-79.600677">
        <ele>260.660304</ele>
        <time>2025-09-05T11:53:21.000Z</time>
      </trkpt>
      <trkpt lat="37.093997" lon="-79.600374">
        <ele>261.559192</ele>
        <time>2025-09-05T11:53:24.000Z</time>
      </trkpt>
      <trkpt lat="37.093363" lon="-79.598656">
        <ele>266.685641</ele>
        <time>2025-09-05T11:53:41.000Z</time>
      </trkpt>
      <trkpt lat="37.09219" lon="-79.59527">
        <ele>273.880089</ele>
        <time>2025-09-05T11:54:14.000Z</time>
      </trkpt>
      <trkpt lat="37.091521" lon="-79.593428">
        <ele>276.757413</ele>
        <time>2025-09-05T11:54:32.000Z</time>
      </trkpt>
      <trkpt lat="37.091416" lon="-79.593148">
        <ele>277.189487</ele>
        <time>2025-09-05T11:54:35.000Z</time>
      </trkpt>
      <trkpt lat="37.091091" lon="-79.593637">
        <ele>277.568208</ele>
        <time>2025-09-05T11:54:41.000Z</time>
      </trkpt>
      <trkpt lat="37.090182" lon="-79.595293">
        <ele>277.254774</ele>
        <time>2025-09-05T11:54:59.000Z</time>
      </trkpt>
      <trkpt lat="37.089826" lon="-79.59593">
        <ele>275.751948</ele>
        <time>2025-09-05T11:55:06.000Z</time>
      </trkpt>
      <trkpt lat="37.089743" lon="-79.596072">
        <ele>275.415952</ele>
        <time>2025-09-05T11:55:08.000Z</time>
      </trkpt>
      <trkpt lat="37.089568" lon="-79.596378">
        <ele>274.671807</ele>
        <time>2025-09-05T11:55:11.000Z</time>
      </trkpt>
      <trkpt lat="37.089121" lon="-79.597123">
        <ele>272.718651</ele>
        <time>2025-09-05T11:55:19.000Z</time>
      </trkpt>
      <trkpt lat="37.088586" lon="-79.597894">
        <ele>269.619571</ele>
        <time>2025-09-05T11:55:28.000Z</time>
      </trkpt>
      <trkpt lat="37.088265" lon="-79.598207">
        <ele>268.012869</ele>
        <time>2025-09-05T11:55:33.000Z</time>
      </trkpt>
      <trkpt lat="37.087777" lon="-79.598604">
        <ele>265.930439</ele>
        <time>2025-09-05T11:55:39.000Z</time>
      </trkpt>
      <trkpt lat="37.087295" lon="-79.598927">
        <ele>264.876187</ele>
        <time>2025-09-05T11:55:45.000Z</time>
      </trkpt>
      <trkpt lat="37.086973" lon="-79.599266">
        <ele>264.068087</ele>
        <time>2025-09-05T11:55:50.000Z</time>
      </trkpt>
      <trkpt lat="37.0869" lon="-79.599365">
        <ele>263.849817</ele>
        <time>2025-09-05T11:55:51.000Z</time>
      </trkpt>
      <trkpt lat="37.086766" lon="-79.599705">
        <ele>263.250995</ele>
        <time>2025-09-05T11:55:54.000Z</time>
      </trkpt>
      <trkpt lat="37.086009" lon="-79.60202">
        <ele>259.793041</ele>
        <time>2025-09-05T11:56:16.000Z</time>
      </trkpt>
      <trkpt lat="37.085836" lon="-79.602453">
        <ele>259.568572</ele>
        <time>2025-09-05T11:56:20.000Z</time>
      </trkpt>
      <trkpt lat="37.08566" lon="-79.60271">
        <ele>259.573138</ele>
        <time>2025-09-05T11:56:23.000Z</time>
      </trkpt>
      <trkpt lat="37.085447" lon="-79.602968">
        <ele>259.578419</ele>
        <time>2025-09-05T11:56:26.000Z</time>
      </trkpt>
      <trkpt lat="37.085194" lon="-79.60317">
        <ele>259.583547</ele>
        <time>2025-09-05T11:56:29.000Z</time>
      </trkpt>
      <trkpt lat="37.083911" lon="-79.603627">
        <ele>259.45753</ele>
        <time>2025-09-05T11:56:44.000Z</time>
      </trkpt>
      <trkpt lat="37.083603" lon="-79.603834">
        <ele>259.385268</ele>
        <time>2025-09-05T11:56:48.000Z</time>
      </trkpt>
      <trkpt lat="37.083375" lon="-79.604106">
        <ele>259.315627</ele>
        <time>2025-09-05T11:56:51.000Z</time>
      </trkpt>
      <trkpt lat="37.083187" lon="-79.604428">
        <ele>259.251092</ele>
        <time>2025-09-05T11:56:55.000Z</time>
      </trkpt>
      <trkpt lat="37.083116" lon="-79.604701">
        <ele>259.188577</ele>
        <time>2025-09-05T11:56:58.000Z</time>
      </trkpt>
      <trkpt lat="37.082972" lon="-79.606613">
        <ele>258.556026</ele>
        <time>2025-09-05T11:57:15.000Z</time>
      </trkpt>
      <trkpt lat="37.082884" lon="-79.606954">
        <ele>258.419708</ele>
        <time>2025-09-05T11:57:18.000Z</time>
      </trkpt>
      <trkpt lat="37.082809" lon="-79.607146">
        <ele>258.307751</ele>
        <time>2025-09-05T11:57:20.000Z</time>
      </trkpt>
      <trkpt lat="37.082604" lon="-79.607476">
        <ele>258.08874</ele>
        <time>2025-09-05T11:57:24.000Z</time>
      </trkpt>
      <trkpt lat="37.082447" lon="-79.607643">
        <ele>257.949199</ele>
        <time>2025-09-05T11:57:26.000Z</time>
      </trkpt>
      <trkpt lat="37.082135" lon="-79.607801">
        <ele>257.731623</ele>
        <time>2025-09-05T11:57:30.000Z</time>
      </trkpt>
      <trkpt lat="37.08158" lon="-79.608016">
        <ele>257.339696</ele>
        <time>2025-09-05T11:57:36.000Z</time>
      </trkpt>
      <trkpt lat="37.081304" lon="-79.608206">
        <ele>256.22367</ele>
        <time>2025-09-05T11:57:40.000Z</time>
      </trkpt>
      <trkpt lat="37.080932" lon="-79.608529">
        <ele>254.146553</ele>
        <time>2025-09-05T11:57:45.000Z</time>
      </trkpt>
      <trkpt lat="37.080352" lon="-79.609082">
        <ele>250.768953</ele>
        <time>2025-09-05T11:57:53.000Z</time>
      </trkpt>
      <trkpt lat="37.080153" lon="-79.609349">
        <ele>249.378673</ele>
        <time>2025-09-05T11:57:56.000Z</time>
      </trkpt>
      <trkpt lat="37.080101" lon="-79.609441">
        <ele>248.951</ele>
        <time>2025-09-05T11:57:57.000Z</time>
      </trkpt>
      <trkpt lat="37.080039" lon="-79.609651">
        <ele>248.642645</ele>
        <time>2025-09-05T11:57:59.000Z</time>
      </trkpt>
      <trkpt lat="37.080019" lon="-79.609839">
        <ele>248.408497</ele>
        <time>2025-09-05T11:58:01.000Z</time>
      </trkpt>
      <trkpt lat="37.080059" lon="-79.610279">
        <ele>247.842689</ele>
        <time>2025-09-05T11:58:05.000Z</time>
      </trkpt>
      <trkpt lat="37.080034" lon="-79.610438">
        <ele>247.627984</ele>
        <time>2025-09-05T11:58:06.000Z</time>
      </trkpt>
      <trkpt lat="37.08" lon="-79.610515">
        <ele>247.520857</ele>
        <time>2025-09-05T11:58:07.000Z</time>
      </trkpt>
      <trkpt lat="37.079727" lon="-79.61077">
        <ele>246.988712</ele>
        <time>2025-09-05T11:58:11.000Z</time>
      </trkpt>
      <trkpt lat="37.079642" lon="-79.610903">
        <ele>246.772816</ele>
        <time>2025-09-05T11:58:13.000Z</time>
      </trkpt>
      <trkpt lat="37.079543" lon="-79.611194">
        <ele>246.351384</ele>
        <time>2025-09-05T11:58:16.000Z</time>
      </trkpt>
      <trkpt lat="37.079446" lon="-79.611524">
        <ele>246.125983</ele>
        <time>2025-09-05T11:58:19.000Z</time>
      </trkpt>
      <trkpt lat="37.079353" lon="-79.611697">
        <ele>246.306762</ele>
        <time>2025-09-05T11:58:21.000Z</time>
      </trkpt>
      <trkpt lat="37.079174" lon="-79.611843">
        <ele>246.568755</ele>
        <time>2025-09-05T11:58:23.000Z</time>
      </trkpt>
      <trkpt lat="37.078779" lon="-79.611984">
        <ele>247.032953</ele>
        <time>2025-09-05T11:58:28.000Z</time>
      </trkpt>
      <trkpt lat="37.078657" lon="-79.612057">
        <ele>247.181742</ele>
        <time>2025-09-05T11:58:30.000Z</time>
      </trkpt>
      <trkpt lat="37.078591" lon="-79.612146">
        <ele>247.300587</ele>
        <time>2025-09-05T11:58:31.000Z</time>
      </trkpt>
      <trkpt lat="37.078519" lon="-79.612261">
        <ele>247.418603</ele>
        <time>2025-09-05T11:58:32.000Z</time>
      </trkpt>
      <trkpt lat="37.078471" lon="-79.612433">
        <ele>247.594002</ele>
        <time>2025-09-05T11:58:34.000Z</time>
      </trkpt>
      <trkpt lat="37.078482" lon="-79.612636">
        <ele>247.770239</ele>
        <time>2025-09-05T11:58:36.000Z</time>
      </trkpt>
      <trkpt lat="37.078572" lon="-79.613029">
        <ele>248.131195</ele>
        <time>2025-09-05T11:58:40.000Z</time>
      </trkpt>
      <trkpt lat="37.07869" lon="-79.613365">
        <ele>248.335395</ele>
        <time>2025-09-05T11:58:43.000Z</time>
      </trkpt>
      <trkpt lat="37.078817" lon="-79.61371">
        <ele>248.553579</ele>
        <time>2025-09-05T11:58:46.000Z</time>
      </trkpt>
      <trkpt lat="37.07908" lon="-79.614106">
        <ele>248.843658</ele>
        <time>2025-09-05T11:58:51.000Z</time>
      </trkpt>
      <trkpt lat="37.079205" lon="-79.614462">
        <ele>249.061407</ele>
        <time>2025-09-05T11:58:54.000Z</time>
      </trkpt>
      <trkpt lat="37.079287" lon="-79.614822">
        <ele>249.276044</ele>
        <time>2025-09-05T11:58:57.000Z</time>
      </trkpt>
      <trkpt lat="37.079287" lon="-79.615081">
        <ele>249.337776</ele>
        <time>2025-09-05T11:58:59.000Z</time>
      </trkpt>
      <trkpt lat="37.079296" lon="-79.615232">
        <ele>249.274066</ele>
        <time>2025-09-05T11:59:00.000Z</time>
      </trkpt>
      <trkpt lat="37.079288" lon="-79.615292">
        <ele>249.255357</ele>
        <time>2025-09-05T11:59:01.000Z</time>
      </trkpt>
      <trkpt lat="37.079275" lon="-79.615307">
        <ele>249.250583</ele>
        <time>2025-09-05T11:59:01.000Z</time>
      </trkpt>
      <trkpt lat="37.079278" lon="-79.615314">
        <ele>249.247764</ele>
        <time>2025-09-05T11:59:01.000Z</time>
      </trkpt>
      <trkpt lat="37.079278" lon="-79.615318">
        <ele>249.245066</ele>
        <time>2025-09-05T11:59:01.000Z</time>
      </trkpt>
      <trkpt lat="37.079266" lon="-79.615315">
        <ele>249.244455</ele>
        <time>2025-09-05T11:59:01.000Z</time>
      </trkpt>
      <trkpt lat="37.079263" lon="-79.615318">
        <ele>249.243221</ele>
        <time>2025-09-05T11:59:01.000Z</time>
      </trkpt>
      <trkpt lat="37.079274" lon="-79.615327">
        <ele>249.241638</ele>
        <time>2025-09-05T11:59:01.000Z</time>
      </trkpt>
      <trkpt lat="37.079274" lon="-79.615326">
        <ele>249.240489</ele>
        <time>2025-09-05T11:59:01.000Z</time>
      </trkpt>
      <trkpt lat="37.079251" lon="-79.615408">
        <ele>249.211019</ele>
        <time>2025-09-05T11:59:02.000Z</time>
      </trkpt>
      <trkpt lat="37.07918" lon="-79.615495">
        <ele>249.160618</ele>
        <time>2025-09-05T11:59:03.000Z</time>
      </trkpt>
      <trkpt lat="37.079087" lon="-79.615571">
        <ele>249.110076</ele>
        <time>2025-09-05T11:59:04.000Z</time>
      </trkpt>
      <trkpt lat="37.079035" lon="-79.615588">
        <ele>249.078316</ele>
        <time>2025-09-05T11:59:05.000Z</time>
      </trkpt>
      <trkpt lat="37.078919" lon="-79.615574">
        <ele>249.021555</ele>
        <time>2025-09-05T11:59:06.000Z</time>
      </trkpt>
      <trkpt lat="37.078821" lon="-79.615459">
        <ele>248.95894</ele>
        <time>2025-09-05T11:59:07.000Z</time>
      </trkpt>
      <trkpt lat="37.078746" lon="-79.615319">
        <ele>248.893041</ele>
        <time>2025-09-05T11:59:08.000Z</time>
      </trkpt>
      <trkpt lat="37.078757" lon="-79.615288">
        <ele>248.881286</ele>
        <time>2025-09-05T11:59:08.000Z</time>
      </trkpt>
      <trkpt lat="37.078747" lon="-79.615275">
        <ele>248.875609</ele>
        <time>2025-09-05T11:59:08.000Z</time>
      </trkpt>
      <trkpt lat="37.078749" lon="-79.615263">
        <ele>248.873332</ele>
        <time>2025-09-05T11:59:08.000Z</time>
      </trkpt>
      <trkpt lat="37.078742" lon="-79.615252">
        <ele>248.871426</ele>
        <time>2025-09-05T11:59:08.000Z</time>
      </trkpt>
      <trkpt lat="37.078748" lon="-79.615259">
        <ele>248.869536</ele>
        <time>2025-09-05T11:59:08.000Z</time>
      </trkpt>
      <trkpt lat="37.078755" lon="-79.615257">
        <ele>248.868771</ele>
        <time>2025-09-05T11:59:08.000Z</time>
      </trkpt>
      <trkpt lat="37.07875" lon="-79.615242">
        <ele>248.866122</ele>
        <time>2025-09-05T11:59:08.000Z</time>
      </trkpt>
      <trkpt lat="37.078747" lon="-79.615239">
        <ele>248.864606</ele>
        <time>2025-09-05T11:59:08.000Z</time>
      </trkpt>
      <trkpt lat="37.078744" lon="-79.61503">
        <ele>248.782694</ele>
        <time>2025-09-05T11:59:10.000Z</time>
      </trkpt>
      <trkpt lat="37.07882" lon="-79.61416">
        <ele>248.407638</ele>
        <time>2025-09-05T11:59:18.000Z</time>
      </trkpt>
      <trkpt lat="37.078825" lon="-79.613718">
        <ele>248.084458</ele>
        <time>2025-09-05T11:59:22.000Z</time>
      </trkpt>
      <trkpt lat="37.078695" lon="-79.613361">
        <ele>247.812497</ele>
        <time>2025-09-05T11:59:25.000Z</time>
      </trkpt>
      <trkpt lat="37.078588" lon="-79.613027">
        <ele>247.557966</ele>
        <time>2025-09-05T11:59:28.000Z</time>
      </trkpt>
      <trkpt lat="37.07848" lon="-79.612629">
        <ele>247.259253</ele>
        <time>2025-09-05T11:59:32.000Z</time>
      </trkpt>
      <trkpt lat="37.078475" lon="-79.612432">
        <ele>247.122761</ele>
        <time>2025-09-05T11:59:34.000Z</time>
      </trkpt>
      <trkpt lat="37.078518" lon="-79.612251">
        <ele>246.986938</ele>
        <time>2025-09-05T11:59:36.000Z</time>
      </trkpt>
      <trkpt lat="37.078594" lon="-79.612147">
        <ele>246.91217</ele>
        <time>2025-09-05T11:59:37.000Z</time>
      </trkpt>
      <trkpt lat="37.07867" lon="-79.61205">
        <ele>246.88195</ele>
        <time>2025-09-05T11:59:38.000Z</time>
      </trkpt>
      <trkpt lat="37.07877" lon="-79.61198">
        <ele>246.844125</ele>
        <time>2025-09-05T11:59:39.000Z</time>
      </trkpt>
      <trkpt lat="37.079166" lon="-79.61185">
        <ele>246.726088</ele>
        <time>2025-09-05T11:59:44.000Z</time>
      </trkpt>
      <trkpt lat="37.079354" lon="-79.611697">
        <ele>246.659457</ele>
        <time>2025-09-05T11:59:46.000Z</time>
      </trkpt>
      <trkpt lat="37.079458" lon="-79.61153">
        <ele>246.613498</ele>
        <time>2025-09-05T11:59:48.000Z</time>
      </trkpt>
      <trkpt lat="37.079536" lon="-79.61119">
        <ele>246.531734</ele>
        <time>2025-09-05T11:59:51.000Z</time>
      </trkpt>
      <trkpt lat="37.07965" lon="-79.610904">
        <ele>246.455502</ele>
        <time>2025-09-05T11:59:54.000Z</time>
      </trkpt>
      <trkpt lat="37.079739" lon="-79.610773">
        <ele>246.416434</ele>
        <time>2025-09-05T11:59:56.000Z</time>
      </trkpt>
      <trkpt lat="37.079993" lon="-79.610517">
        <ele>247.192184</ele>
        <time>2025-09-05T12:00:00.000Z</time>
      </trkpt>
      <trkpt lat="37.080025" lon="-79.610441">
        <ele>247.393274</ele>
        <time>2025-09-05T12:00:01.000Z</time>
      </trkpt>
      <trkpt lat="37.080054" lon="-79.610279">
        <ele>247.796336</ele>
        <time>2025-09-05T12:00:02.000Z</time>
      </trkpt>
      <trkpt lat="37.080027" lon="-79.609827">
        <ele>248.858463</ele>
        <time>2025-09-05T12:00:06.000Z</time>
      </trkpt>
      <trkpt lat="37.080026" lon="-79.609656">
        <ele>249.298032</ele>
        <time>2025-09-05T12:00:08.000Z</time>
      </trkpt>
      <trkpt lat="37.080101" lon="-79.60944">
        <ele>249.845565</ele>
        <time>2025-09-05T12:00:10.000Z</time>
      </trkpt>
      <trkpt lat="37.080152" lon="-79.609347">
        <ele>250.12346</ele>
        <time>2025-09-05T12:00:11.000Z</time>
      </trkpt>
      <trkpt lat="37.080362" lon="-79.609079">
        <ele>251.026828</ele>
        <time>2025-09-05T12:00:14.000Z</time>
      </trkpt>
      <trkpt lat="37.080924" lon="-79.608524">
        <ele>253.600623</ele>
        <time>2025-09-05T12:00:22.000Z</time>
      </trkpt>
      <trkpt lat="37.081299" lon="-79.608213">
        <ele>255.31771</ele>
        <time>2025-09-05T12:00:27.000Z</time>
      </trkpt>
      <trkpt lat="37.081578" lon="-79.608016">
        <ele>256.511691</ele>
        <time>2025-09-05T12:00:31.000Z</time>
      </trkpt>
      <trkpt lat="37.08214" lon="-79.607808">
        <ele>258.736871</ele>
        <time>2025-09-05T12:00:38.000Z</time>
      </trkpt>
      <trkpt lat="37.082446" lon="-79.607633">
        <ele>258.670322</ele>
        <time>2025-09-05T12:00:42.000Z</time>
      </trkpt>
      <trkpt lat="37.082618" lon="-79.607477">
        <ele>258.627654</ele>
        <time>2025-09-05T12:00:44.000Z</time>
      </trkpt>
      <trkpt lat="37.082811" lon="-79.607147">
        <ele>258.56067</ele>
        <time>2025-09-05T12:00:48.000Z</time>
      </trkpt>
      <trkpt lat="37.08289" lon="-79.606955">
        <ele>258.526422</ele>
        <time>2025-09-05T12:00:50.000Z</time>
      </trkpt>
      <trkpt lat="37.082971" lon="-79.606612">
        <ele>258.469409</ele>
        <time>2025-09-05T12:00:53.000Z</time>
      </trkpt>
      <trkpt lat="37.083121" lon="-79.604692">
        <ele>259.140282</ele>
        <time>2025-09-05T12:01:10.000Z</time>
      </trkpt>
      <trkpt lat="37.083202" lon="-79.604418">
        <ele>259.307118</ele>
        <time>2025-09-05T12:01:13.000Z</time>
      </trkpt>
      <trkpt lat="37.083366" lon="-79.604121">
        <ele>259.52481</ele>
        <time>2025-09-05T12:01:16.000Z</time>
      </trkpt>
      <trkpt lat="37.083604" lon="-79.603827">
        <ele>259.628368</ele>
        <time>2025-09-05T12:01:20.000Z</time>
      </trkpt>
      <trkpt lat="37.083914" lon="-79.603643">
        <ele>259.556868</ele>
        <time>2025-09-05T12:01:24.000Z</time>
      </trkpt>
      <trkpt lat="37.085178" lon="-79.603159">
        <ele>259.290023</ele>
        <time>2025-09-05T12:01:39.000Z</time>
      </trkpt>
      <trkpt lat="37.085433" lon="-79.602976">
        <ele>259.488736</ele>
        <time>2025-09-05T12:01:42.000Z</time>
      </trkpt>
      <trkpt lat="37.08566" lon="-79.602716">
        <ele>259.692779</ele>
        <time>2025-09-05T12:01:45.000Z</time>
      </trkpt>
      <trkpt lat="37.085832" lon="-79.602459">
        <ele>259.869614</ele>
        <time>2025-09-05T12:01:48.000Z</time>
      </trkpt>
      <trkpt lat="37.086021" lon="-79.602011">
        <ele>260.130247</ele>
        <time>2025-09-05T12:01:52.000Z</time>
      </trkpt>
      <trkpt lat="37.086766" lon="-79.59971">
        <ele>263.145715</ele>
        <time>2025-09-05T12:02:14.000Z</time>
      </trkpt>
      <trkpt lat="37.086902" lon="-79.599375">
        <ele>263.708356</ele>
        <time>2025-09-05T12:02:17.000Z</time>
      </trkpt>
      <trkpt lat="37.086974" lon="-79.599258">
        <ele>263.970623</ele>
        <time>2025-09-05T12:02:18.000Z</time>
      </trkpt>
      <trkpt lat="37.087303" lon="-79.59893">
        <ele>265.027924</ele>
        <time>2025-09-05T12:02:23.000Z</time>
      </trkpt>
      <trkpt lat="37.08777" lon="-79.598593">
        <ele>266.407285</ele>
        <time>2025-09-05T12:02:29.000Z</time>
      </trkpt>
      <trkpt lat="37.088267" lon="-79.598221">
        <ele>267.906271</ele>
        <time>2025-09-05T12:02:35.000Z</time>
      </trkpt>
      <trkpt lat="37.088598" lon="-79.597889">
        <ele>269.301055</ele>
        <time>2025-09-05T12:02:40.000Z</time>
      </trkpt>
      <trkpt lat="37.089135" lon="-79.597125">
        <ele>272.442211</ele>
        <time>2025-09-05T12:02:49.000Z</time>
      </trkpt>
      <trkpt lat="37.089571" lon="-79.596376">
        <ele>275.353728</ele>
        <time>2025-09-05T12:02:57.000Z</time>
      </trkpt>
      <trkpt lat="37.089749" lon="-79.59606">
        <ele>275.777573</ele>
        <time>2025-09-05T12:03:00.000Z</time>
      </trkpt>
      <trkpt lat="37.08982" lon="-79.595931">
        <ele>275.964862</ele>
        <time>2025-09-05T12:03:01.000Z</time>
      </trkpt>
      <trkpt lat="37.090177" lon="-79.595293">
        <ele>276.802509</ele>
        <time>2025-09-05T12:03:08.000Z</time>
      </trkpt>
      <trkpt lat="37.091092" lon="-79.593644">
        <ele>277.322373</ele>
        <time>2025-09-05T12:03:26.000Z</time>
      </trkpt>
      <trkpt lat="37.091414" lon="-79.593142">
        <ele>277.023579</ele>
        <time>2025-09-05T12:03:32.000Z</time>
      </trkpt>
      <trkpt lat="37.091514" lon="-79.593444">
        <ele>276.873725</ele>
        <time>2025-09-05T12:03:35.000Z</time>
      </trkpt>
      <trkpt lat="37.092182" lon="-79.595282">
        <ele>273.846676</ele>
        <time>2025-09-05T12:03:53.000Z</time>
      </trkpt>
      <trkpt lat="37.093357" lon="-79.598669">
        <ele>266.491526</ele>
        <time>2025-09-05T12:04:26.000Z</time>
      </trkpt>
      <trkpt lat="37.09399" lon="-79.600374">
        <ele>261.622419</ele>
        <time>2025-09-05T12:04:43.000Z</time>
      </trkpt>
      <trkpt lat="37.094102" lon="-79.600671">
        <ele>260.926042</ele>
        <time>2025-09-05T12:04:46.000Z</time>
      </trkpt>
      <trkpt lat="37.094395" lon="-79.601491">
        <ele>258.930262</ele>
        <time>2025-09-05T12:04:54.000Z</time>
      </trkpt>
      <trkpt lat="37.094625" lon="-79.601892">
        <ele>257.900771</ele>
        <time>2025-09-05T12:04:58.000Z</time>
      </trkpt>
      <trkpt lat="37.094926" lon="-79.602206">
        <ele>257.262061</ele>
        <time>2025-09-05T12:05:02.000Z</time>
      </trkpt>
      <trkpt lat="37.09588" lon="-79.602931">
        <ele>255.504827</ele>
        <time>2025-09-05T12:05:14.000Z</time>
      </trkpt>
      <trkpt lat="37.096065" lon="-79.603134">
        <ele>255.111551</ele>
        <time>2025-09-05T12:05:17.000Z</time>
      </trkpt>
      <trkpt lat="37.096966" lon="-79.604265">
        <ele>252.722574</ele>
        <time>2025-09-05T12:05:31.000Z</time>
      </trkpt>
      <trkpt lat="37.097067" lon="-79.604437">
        <ele>252.380606</ele>
        <time>2025-09-05T12:05:33.000Z</time>
      </trkpt>
      <trkpt lat="37.097221" lon="-79.604782">
        <ele>251.793368</ele>
        <time>2025-09-05T12:05:37.000Z</time>
      </trkpt>
      <trkpt lat="37.097306" lon="-79.605111">
        <ele>251.707686</ele>
        <time>2025-09-05T12:05:40.000Z</time>
      </trkpt>
      <trkpt lat="37.097349" lon="-79.605485">
        <ele>251.648407</ele>
        <time>2025-09-05T12:05:43.000Z</time>
      </trkpt>
      <trkpt lat="37.097212" lon="-79.607915">
        <ele>252.19327</ele>
        <time>2025-09-05T12:06:05.000Z</time>
      </trkpt>
      <trkpt lat="37.097106" lon="-79.6084">
        <ele>252.624776</ele>
        <time>2025-09-05T12:06:09.000Z</time>
      </trkpt>
      <trkpt lat="37.097023" lon="-79.608618">
        <ele>252.8488</ele>
        <time>2025-09-05T12:06:11.000Z</time>
      </trkpt>
      <trkpt lat="37.096862" lon="-79.608855">
        <ele>253.123158</ele>
        <time>2025-09-05T12:06:14.000Z</time>
      </trkpt>
      <trkpt lat="37.096697" lon="-79.609011">
        <ele>253.346708</ele>
        <time>2025-09-05T12:06:16.000Z</time>
      </trkpt>
      <trkpt lat="37.096668" lon="-79.609042">
        <ele>253.390597</ele>
        <time>2025-09-05T12:06:16.000Z</time>
      </trkpt>
      <trkpt lat="37.096419" lon="-79.609225">
        <ele>253.574731</ele>
        <time>2025-09-05T12:06:19.000Z</time>
      </trkpt>
      <trkpt lat="37.096153" lon="-79.609411">
        <ele>253.75774</ele>
        <time>2025-09-05T12:06:22.000Z</time>
      </trkpt>
      <trkpt lat="37.096007" lon="-79.609494">
        <ele>253.852377</ele>
        <time>2025-09-05T12:06:24.000Z</time>
      </trkpt>
      <trkpt lat="37.095794" lon="-79.609869">
        <ele>254.072818</ele>
        <time>2025-09-05T12:06:28.000Z</time>
      </trkpt>
      <trkpt lat="37.095746" lon="-79.609933">
        <ele>254.113277</ele>
        <time>2025-09-05T12:06:29.000Z</time>
      </trkpt>
      <trkpt lat="37.095681" lon="-79.609948">
        <ele>254.151181</ele>
        <time>2025-09-05T12:06:30.000Z</time>
      </trkpt>
      <trkpt lat="37.095635" lon="-79.610061">
        <ele>254.21331</ele>
        <time>2025-09-05T12:06:31.000Z</time>
      </trkpt>
      <trkpt lat="37.095582" lon="-79.610103">
        <ele>254.244419</ele>
        <time>2025-09-05T12:06:32.000Z</time>
      </trkpt>
      <trkpt lat="37.095093" lon="-79.610363">
        <ele>254.479806</ele>
        <time>2025-09-05T12:06:38.000Z</time>
      </trkpt>
      <trkpt lat="37.095079" lon="-79.61037">
        <ele>254.479807</ele>
        <time>2025-09-05T12:06:38.000Z</time>
      </trkpt>
      <trkpt lat="37.095064" lon="-79.610372">
        <ele>254.479821</ele>
        <time>2025-09-05T12:06:38.000Z</time>
      </trkpt>
      <trkpt lat="37.095075" lon="-79.610374">
        <ele>254.479816</ele>
        <time>2025-09-05T12:06:38.000Z</time>
      </trkpt>
      <trkpt lat="37.095067" lon="-79.610378">
        <ele>254.479818</ele>
        <time>2025-09-05T12:06:38.000Z</time>
      </trkpt>
      <trkpt lat="37.095065" lon="-79.610386">
        <ele>254.479815</ele>
        <time>2025-09-05T12:06:38.000Z</time>
      </trkpt>
      <trkpt lat="37.095051" lon="-79.610371">
        <ele>254.479811</ele>
        <time>2025-09-05T12:06:38.000Z</time>
      </trkpt>
      <trkpt lat="37.095056" lon="-79.61038">
        <ele>254.479807</ele>
        <time>2025-09-05T12:06:38.000Z</time>
      </trkpt>
      <trkpt lat="37.095035" lon="-79.610383">
        <ele>254.479816</ele>
        <time>2025-09-05T12:06:38.000Z</time>
      </trkpt>
      <trkpt lat="37.095001" lon="-79.610368">
        <ele>254.479804</ele>
        <time>2025-09-05T12:06:38.000Z</time>
      </trkpt>
      <trkpt lat="37.094975" lon="-79.610328">
        <ele>254.479818</ele>
        <time>2025-09-05T12:06:38.000Z</time>
      </trkpt>
      <trkpt lat="37.094917" lon="-79.61019">
        <ele>254.479814</ele>
        <time>2025-09-05T12:06:39.000Z</time>
      </trkpt>
      <trkpt lat="37.095418" lon="-79.60989">
        <ele>254.479804</ele>
        <time>2025-09-05T12:06:45.000Z</time>
      </trkpt>
      <trkpt lat="37.095418" lon="-79.609883">
        <ele>254.479808</ele>
        <time>2025-09-05T12:06:45.000Z</time>
      </trkpt>
      <trkpt lat="37.095423" lon="-79.609891">
        <ele>254.479815</ele>
        <time>2025-09-05T12:06:45.000Z</time>
      </trkpt>
      <trkpt lat="37.095478" lon="-79.609838">
        <ele>253.764454</ele>
        <time>2025-09-05T12:06:46.000Z</time>
      </trkpt>
      <trkpt lat="37.095527" lon="-79.609823">
        <ele>253.76444</ele>
        <time>2025-09-05T12:06:47.000Z</time>
      </trkpt>
      <trkpt lat="37.095608" lon="-79.609828">
        <ele>253.764451</ele>
        <time>2025-09-05T12:06:48.000Z</time>
      </trkpt>
      <trkpt lat="37.095621" lon="-79.609778">
        <ele>253.764442</ele>
        <time>2025-09-05T12:06:48.000Z</time>
      </trkpt>
      <trkpt lat="37.095677" lon="-79.609708">
        <ele>253.76444</ele>
        <time>2025-09-05T12:06:49.000Z</time>
      </trkpt>
      <trkpt lat="37.096001" lon="-79.609501">
        <ele>253.764439</ele>
        <time>2025-09-05T12:06:53.000Z</time>
      </trkpt>
      <trkpt lat="37.096143" lon="-79.609401">
        <ele>253.764457</ele>
        <time>2025-09-05T12:06:55.000Z</time>
      </trkpt>
      <trkpt lat="37.096405" lon="-79.60922">
        <ele>253.577017</ele>
        <time>2025-09-05T12:06:58.000Z</time>
      </trkpt>
      <trkpt lat="37.096665" lon="-79.609042">
        <ele>253.258512</ele>
        <time>2025-09-05T12:07:01.000Z</time>
      </trkpt>
      <trkpt lat="37.096704" lon="-79.609017">
        <ele>253.21639</ele>
        <time>2025-09-05T12:07:01.000Z</time>
      </trkpt>
      <trkpt lat="37.096871" lon="-79.608854">
        <ele>253.001836</ele>
        <time>2025-09-05T12:07:03.000Z</time>
      </trkpt>
      <trkpt lat="37.097029" lon="-79.608627">
        <ele>252.738544</ele>
        <time>2025-09-05T12:07:06.000Z</time>
      </trkpt>
      <trkpt lat="37.097119" lon="-79.608383">
        <ele>252.523531</ele>
        <time>2025-09-05T12:07:08.000Z</time>
      </trkpt>
      <trkpt lat="37.097218" lon="-79.607929">
        <ele>252.109431</ele>
        <time>2025-09-05T12:07:12.000Z</time>
      </trkpt>
      <trkpt lat="37.097352" lon="-79.605482">
        <ele>251.212163</ele>
        <time>2025-09-05T12:07:34.000Z</time>
      </trkpt>
      <trkpt lat="37.097313" lon="-79.605114">
        <ele>251.532127</ele>
        <time>2025-09-05T12:07:37.000Z</time>
      </trkpt>
      <trkpt lat="37.097233" lon="-79.604786">
        <ele>252.028121</ele>
        <time>2025-09-05T12:07:40.000Z</time>
      </trkpt>
      <trkpt lat="37.097075" lon="-79.604447">
        <ele>252.580943</ele>
        <time>2025-09-05T12:07:43.000Z</time>
      </trkpt>
      <trkpt lat="37.096968" lon="-79.604253">
        <ele>252.902861</ele>
        <time>2025-09-05T12:07:45.000Z</time>
      </trkpt>
      <trkpt lat="37.096075" lon="-79.603128">
        <ele>255.07963</ele>
        <time>2025-09-05T12:07:59.000Z</time>
      </trkpt>
      <trkpt lat="37.095874" lon="-79.602939">
        <ele>255.472648</ele>
        <time>2025-09-05T12:08:02.000Z</time>
      </trkpt>
      <trkpt lat="37.094936" lon="-79.602218">
        <ele>257.255543</ele>
        <time>2025-09-05T12:08:14.000Z</time>
      </trkpt>
      <trkpt lat="37.094627" lon="-79.601895">
        <ele>258.144146</ele>
        <time>2025-09-05T12:08:18.000Z</time>
      </trkpt>
      <trkpt lat="37.094394" lon="-79.601481">
        <ele>259.025724</ele>
        <time>2025-09-05T12:08:22.000Z</time>
      </trkpt>
      <trkpt lat="37.094091" lon="-79.600667">
        <ele>260.6145</ele>
        <time>2025-09-05T12:08:30.000Z</time>
      </trkpt>
      <trkpt lat="37.09399" lon="-79.60038">
        <ele>261.168879</ele>
        <time>2025-09-05T12:08:33.000Z</time>
      </trkpt>
      <trkpt lat="37.093362" lon="-79.598666">
        <ele>266.77347</ele>
        <time>2025-09-05T12:08:50.000Z</time>
      </trkpt>
      <trkpt lat="37.092182" lon="-79.59527">
        <ele>273.865114</ele>
        <time>2025-09-05T12:09:23.000Z</time>
      </trkpt>
      <trkpt lat="37.091512" lon="-79.593436">
        <ele>276.617765</ele>
        <time>2025-09-05T12:09:41.000Z</time>
      </trkpt>
      <trkpt lat="37.091423" lon="-79.593152">
        <ele>276.889135</ele>
        <time>2025-09-05T12:09:44.000Z</time>
      </trkpt>
      <trkpt lat="37.0911" lon="-79.593647">
        <ele>277.430213</ele>
        <time>2025-09-05T12:09:50.000Z</time>
      </trkpt>
      <trkpt lat="37.09018" lon="-79.595297">
        <ele>276.958576</ele>
        <time>2025-09-05T12:10:08.000Z</time>
      </trkpt>
      <trkpt lat="37.089817" lon="-79.595918">
        <ele>276.432611</ele>
        <time>2025-09-05T12:10:15.000Z</time>
      </trkpt>
      <trkpt lat="37.089745" lon="-79.596068">
        <ele>275.954359</ele>
        <time>2025-09-05T12:10:17.000Z</time>
      </trkpt>
      <trkpt lat="37.089559" lon="-79.596368">
        <ele>274.895157</ele>
        <time>2025-09-05T12:10:20.000Z</time>
      </trkpt>
      <trkpt lat="37.089135" lon="-79.597132">
        <ele>272.287653</ele>
        <time>2025-09-05T12:10:28.000Z</time>
      </trkpt>
      <trkpt lat="37.088601" lon="-79.597889">
        <ele>269.551821</ele>
        <time>2025-09-05T12:10:37.000Z</time>
      </trkpt>
      <trkpt lat="37.088275" lon="-79.598212">
        <ele>268.241926</ele>
        <time>2025-09-05T12:10:42.000Z</time>
      </trkpt>
      <trkpt lat="37.087778" lon="-79.598598">
        <ele>266.390513</ele>
        <time>2025-09-05T12:10:49.000Z</time>
      </trkpt>
      <trkpt lat="37.087297" lon="-79.598935">
        <ele>264.686854</ele>
        <time>2025-09-05T12:10:55.000Z</time>
      </trkpt>
      <trkpt lat="37.086962" lon="-79.599255">
        <ele>263.894028</ele>
        <time>2025-09-05T12:11:00.000Z</time>
      </trkpt>
      <trkpt lat="37.086907" lon="-79.599367">
        <ele>263.691887</ele>
        <time>2025-09-05T12:11:01.000Z</time>
      </trkpt>
      <trkpt lat="37.086761" lon="-79.599703">
        <ele>263.137279</ele>
        <time>2025-09-05T12:11:04.000Z</time>
      </trkpt>
      <trkpt lat="37.086003" lon="-79.602026">
        <ele>260.165839</ele>
        <time>2025-09-05T12:11:26.000Z</time>
      </trkpt>
      <trkpt lat="37.085835" lon="-79.602459">
        <ele>259.700792</ele>
        <time>2025-09-05T12:11:30.000Z</time>
      </trkpt>
      <trkpt lat="37.085667" lon="-79.602721">
        <ele>259.385278</ele>
        <time>2025-09-05T12:11:33.000Z</time>
      </trkpt>
      <trkpt lat="37.085444" lon="-79.602974">
        <ele>259.251184</ele>
        <time>2025-09-05T12:11:36.000Z</time>
      </trkpt>
      <trkpt lat="37.085194" lon="-79.603175">
        <ele>259.344371</ele>
        <time>2025-09-05T12:11:39.000Z</time>
      </trkpt>
      <trkpt lat="37.083916" lon="-79.603638">
        <ele>259.759103</ele>
        <time>2025-09-05T12:11:54.000Z</time>
      </trkpt>
      <trkpt lat="37.083617" lon="-79.603831">
        <ele>259.564755</ele>
        <time>2025-09-05T12:11:58.000Z</time>
      </trkpt>
      <trkpt lat="37.083362" lon="-79.604109">
        <ele>259.357175</ele>
        <time>2025-09-05T12:12:02.000Z</time>
      </trkpt>
      <trkpt lat="37.083196" lon="-79.604424">
        <ele>259.164795</ele>
        <time>2025-09-05T12:12:05.000Z</time>
      </trkpt>
      <trkpt lat="37.08311" lon="-79.604703">
        <ele>259.017366</ele>
        <time>2025-09-05T12:12:08.000Z</time>
      </trkpt>
      <trkpt lat="37.082961" lon="-79.60662">
        <ele>258.72904</ele>
        <time>2025-09-05T12:12:25.000Z</time>
      </trkpt>
      <trkpt lat="37.082893" lon="-79.606956">
        <ele>258.758289</ele>
        <time>2025-09-05T12:12:28.000Z</time>
      </trkpt>
      <trkpt lat="37.082804" lon="-79.607146">
        <ele>258.775843</ele>
        <time>2025-09-05T12:12:30.000Z</time>
      </trkpt>
      <trkpt lat="37.082614" lon="-79.607481">
        <ele>258.810189</ele>
        <time>2025-09-05T12:12:34.000Z</time>
      </trkpt>
      <trkpt lat="37.08244" lon="-79.607629">
        <ele>258.519651</ele>
        <time>2025-09-05T12:12:36.000Z</time>
      </trkpt>
      <trkpt lat="37.082134" lon="-79.607797">
        <ele>257.683888</ele>
        <time>2025-09-05T12:12:40.000Z</time>
      </trkpt>
      <trkpt lat="37.081574" lon="-79.608023">
        <ele>256.178363</ele>
        <time>2025-09-05T12:12:47.000Z</time>
      </trkpt>
      <trkpt lat="37.081295" lon="-79.6082">
        <ele>255.390751</ele>
        <time>2025-09-05T12:12:50.000Z</time>
      </trkpt>
      <trkpt lat="37.080924" lon="-79.608523">
        <ele>254.256333</ele>
        <time>2025-09-05T12:12:55.000Z</time>
      </trkpt>
      <trkpt lat="37.080355" lon="-79.609076">
        <ele>251.354345</ele>
        <time>2025-09-05T12:13:03.000Z</time>
      </trkpt>
      <trkpt lat="37.080147" lon="-79.609343">
        <ele>250.159834</ele>
        <time>2025-09-05T12:13:06.000Z</time>
      </trkpt>
      <trkpt lat="37.080097" lon="-79.609445">
        <ele>249.79238</ele>
        <time>2025-09-05T12:13:07.000Z</time>
      </trkpt>
      <trkpt lat="37.08003" lon="-79.609658">
        <ele>249.068381</ele>
        <time>2025-09-05T12:13:09.000Z</time>
      </trkpt>
      <trkpt lat="37.080026" lon="-79.609845">
        <ele>248.487175</ele>
        <time>2025-09-05T12:13:11.000Z</time>
      </trkpt>
      <trkpt lat="37.080049" lon="-79.610276">
        <ele>247.082744</ele>
        <time>2025-09-05T12:13:15.000Z</time>
      </trkpt>
      <trkpt lat="37.080024" lon="-79.610444">
        <ele>247.025906</ele>
        <time>2025-09-05T12:13:17.000Z</time>
      </trkpt>
      <trkpt lat="37.079999" lon="-79.610511">
        <ele>246.99947</ele>
        <time>2025-09-05T12:13:18.000Z</time>
      </trkpt>
      <trkpt lat="37.079735" lon="-79.610761">
        <ele>246.868129</ele>
        <time>2025-09-05T12:13:22.000Z</time>
      </trkpt>
      <trkpt lat="37.079639" lon="-79.610893">
        <ele>246.814839</ele>
        <time>2025-09-05T12:13:24.000Z</time>
      </trkpt>
      <trkpt lat="37.079542" lon="-79.611201">
        <ele>246.710822</ele>
        <time>2025-09-05T12:13:27.000Z</time>
      </trkpt>
      <trkpt lat="37.079443" lon="-79.611532">
        <ele>246.599262</ele>
        <time>2025-09-05T12:13:30.000Z</time>
      </trkpt>
      <trkpt lat="37.079353" lon="-79.6117">
        <ele>246.536557</ele>
        <time>2025-09-05T12:13:32.000Z</time>
      </trkpt>
      <trkpt lat="37.079168" lon="-79.611855">
        <ele>246.445661</ele>
        <time>2025-09-05T12:13:34.000Z</time>
      </trkpt>
      <trkpt lat="37.078778" lon="-79.611985">
        <ele>246.662671</ele>
        <time>2025-09-05T12:13:38.000Z</time>
      </trkpt>
      <trkpt lat="37.078655" lon="-79.61205">
        <ele>246.856077</ele>
        <time>2025-09-05T12:13:39.000Z</time>
      </trkpt>
      <trkpt lat="37.078594" lon="-79.612155">
        <ele>247.010582</ele>
        <time>2025-09-05T12:13:40.000Z</time>
      </trkpt>
      <trkpt lat="37.078534" lon="-79.612251">
        <ele>247.164001</ele>
        <time>2025-09-05T12:13:41.000Z</time>
      </trkpt>
      <trkpt lat="37.07848" lon="-79.612431">
        <ele>247.392016</ele>
        <time>2025-09-05T12:13:43.000Z</time>
      </trkpt>
      <trkpt lat="37.078474" lon="-79.612632">
        <ele>247.621119</ele>
        <time>2025-09-05T12:13:45.000Z</time>
      </trkpt>
      <trkpt lat="37.078585" lon="-79.613024">
        <ele>248.122538</ele>
        <time>2025-09-05T12:13:49.000Z</time>
      </trkpt>
      <trkpt lat="37.078696" lon="-79.613367">
        <ele>248.549809</ele>
        <time>2025-09-05T12:13:52.000Z</time>
      </trkpt>
      <trkpt lat="37.078825" lon="-79.613704">
        <ele>249.006365</ele>
        <time>2025-09-05T12:13:55.000Z</time>
      </trkpt>
      <trkpt lat="37.079071" lon="-79.614112">
        <ele>249.039109</ele>
        <time>2025-09-05T12:14:00.000Z</time>
      </trkpt>
      <trkpt lat="37.079207" lon="-79.614463">
        <ele>249.038035</ele>
        <time>2025-09-05T12:14:03.000Z</time>
      </trkpt>
      <trkpt lat="37.079271" lon="-79.614832">
        <ele>249.036979</ele>
        <time>2025-09-05T12:14:06.000Z</time>
      </trkpt>
      <trkpt lat="37.079299" lon="-79.615069">
        <ele>249.036297</ele>
        <time>2025-09-05T12:14:08.000Z</time>
      </trkpt>
      <trkpt lat="37.079283" lon="-79.615239">
        <ele>249.035824</ele>
        <time>2025-09-05T12:14:10.000Z</time>
      </trkpt>
      <trkpt lat="37.079271" lon="-79.615297">
        <ele>249.035692</ele>
        <time>2025-09-05T12:14:11.000Z</time>
      </trkpt>
      <trkpt lat="37.079276" lon="-79.615296">
        <ele>249.035652</ele>
        <time>2025-09-05T12:14:11.000Z</time>
      </trkpt>
      <trkpt lat="37.079283" lon="-79.615306">
        <ele>249.035633</ele>
        <time>2025-09-05T12:14:11.000Z</time>
      </trkpt>
      <trkpt lat="37.079265" lon="-79.615317">
        <ele>249.035601</ele>
        <time>2025-09-05T12:14:11.000Z</time>
      </trkpt>
      <trkpt lat="37.079267" lon="-79.615308">
        <ele>249.035614</ele>
        <time>2025-09-05T12:14:11.000Z</time>
      </trkpt>
      <trkpt lat="37.079277" lon="-79.615316">
        <ele>249.0356</ele>
        <time>2025-09-05T12:14:11.000Z</time>
      </trkpt>
      <trkpt lat="37.07927" lon="-79.615323">
        <ele>249.035575</ele>
        <time>2025-09-05T12:14:11.000Z</time>
      </trkpt>
      <trkpt lat="37.079278" lon="-79.615321">
        <ele>249.03557</ele>
        <time>2025-09-05T12:14:11.000Z</time>
      </trkpt>
      <trkpt lat="37.079243" lon="-79.615399">
        <ele>249.035363</ele>
        <time>2025-09-05T12:14:12.000Z</time>
      </trkpt>
      <trkpt lat="37.079182" lon="-79.615499">
        <ele>249.034981</ele>
        <time>2025-09-05T12:14:13.000Z</time>
      </trkpt>
      <trkpt lat="37.079096" lon="-79.61558">
        <ele>249.034619</ele>
        <time>2025-09-05T12:14:14.000Z</time>
      </trkpt>
      <trkpt lat="37.079032" lon="-79.615592">
        <ele>249.034386</ele>
        <time>2025-09-05T12:14:15.000Z</time>
      </trkpt>
      <trkpt lat="37.078909" lon="-79.615582">
        <ele>249.006845</ele>
        <time>2025-09-05T12:14:16.000Z</time>
      </trkpt>
      <trkpt lat="37.078818" lon="-79.615469">
        <ele>248.94476</ele>
        <time>2025-09-05T12:14:17.000Z</time>
      </trkpt>
      <trkpt lat="37.078747" lon="-79.615306">
        <ele>248.879416</ele>
        <time>2025-09-05T12:14:19.000Z</time>
      </trkpt>
      <trkpt lat="37.078743" lon="-79.615275">
        <ele>248.86777</ele>
        <time>2025-09-05T12:14:19.000Z</time>
      </trkpt>
      <trkpt lat="37.078746" lon="-79.615261">
        <ele>248.862116</ele>
        <time>2025-09-05T12:14:19.000Z</time>
      </trkpt>
      <trkpt lat="37.078744" lon="-79.615267">
        <ele>248.859877</ele>
        <time>2025-09-05T12:14:19.000Z</time>
      </trkpt>
      <trkpt lat="37.078755" lon="-79.615264">
        <ele>248.857997</ele>
        <time>2025-09-05T12:14:19.000Z</time>
      </trkpt>
      <trkpt lat="37.078743" lon="-79.615246">
        <ele>248.856113</ele>
        <time>2025-09-05T12:14:19.000Z</time>
      </trkpt>
      <trkpt lat="37.078747" lon="-79.615239">
        <ele>248.855359</ele>
        <time>2025-09-05T12:14:19.000Z</time>
      </trkpt>
      <trkpt lat="37.078756" lon="-79.615232">
        <ele>248.85273</ele>
        <time>2025-09-05T12:14:19.000Z</time>
      </trkpt>
      <trkpt lat="37.078745" lon="-79.61524">
        <ele>248.851212</ele>
        <time>2025-09-05T12:14:19.000Z</time>
      </trkpt>
      <trkpt lat="37.078743" lon="-79.615018">
        <ele>248.769981</ele>
        <time>2025-09-05T12:14:21.000Z</time>
      </trkpt>
      <trkpt lat="37.078817" lon="-79.614175">
        <ele>248.447222</ele>
        <time>2025-09-05T12:14:29.000Z</time>
      </trkpt>
      <trkpt lat="37.078813" lon="-79.613708">
        <ele>248.275358</ele>
        <time>2025-09-05T12:14:33.000Z</time>
      </trkpt>
      <trkpt lat="37.078682" lon="-79.613373">
        <ele>248.054848</ele>
        <time>2025-09-05T12:14:36.000Z</time>
      </trkpt>
      <trkpt lat="37.07858" lon="-79.61304">
        <ele>247.734781</ele>
        <time>2025-09-05T12:14:39.000Z</time>
      </trkpt>
      <trkpt lat="37.078483" lon="-79.612636">
        <ele>247.359159</ele>
        <time>2025-09-05T12:14:43.000Z</time>
      </trkpt>
      <trkpt lat="37.078471" lon="-79.612443">
        <ele>247.187527</ele>
        <time>2025-09-05T12:14:45.000Z</time>
      </trkpt>
      <trkpt lat="37.078526" lon="-79.612254">
        <ele>247.016721</ele>
        <time>2025-09-05T12:14:47.000Z</time>
      </trkpt>
      <trkpt lat="37.07859" lon="-79.612143">
        <ele>246.901789</ele>
        <time>2025-09-05T12:14:48.000Z</time>
      </trkpt>
      <trkpt lat="37.078658" lon="-79.612053">
        <ele>246.786072</ele>
        <time>2025-09-05T12:14:49.000Z</time>
      </trkpt>
      <trkpt lat="37.078781" lon="-79.611979">
        <ele>246.641181</ele>
        <time>2025-09-05T12:14:51.000Z</time>
      </trkpt>
      <trkpt lat="37.079175" lon="-79.611843">
        <ele>246.189153</ele>
        <time>2025-09-05T12:14:56.000Z</time>
      </trkpt>
      <trkpt lat="37.079359" lon="-79.611697">
        <ele>246.348627</ele>
        <time>2025-09-05T12:14:58.000Z</time>
      </trkpt>
      <trkpt lat="37.079445" lon="-79.611527">
        <ele>246.467394</ele>
        <time>2025-09-05T12:15:00.000Z</time>
      </trkpt>
      <trkpt lat="37.07954" lon="-79.611192">
        <ele>246.678634</ele>
        <time>2025-09-05T12:15:03.000Z</time>
      </trkpt>
      <trkpt lat="37.079649" lon="-79.610896">
        <ele>246.875618</ele>
        <time>2025-09-05T12:15:06.000Z</time>
      </trkpt>
      <trkpt lat="37.07973" lon="-79.610761">
        <ele>246.976553</ele>
        <time>2025-09-05T12:15:07.000Z</time>
      </trkpt>
      <trkpt lat="37.079986" lon="-79.610509">
        <ele>247.225284</ele>
        <time>2025-09-05T12:15:11.000Z</time>
      </trkpt>
      <trkpt lat="37.080023" lon="-79.610437">
        <ele>247.275356</ele>
        <time>2025-09-05T12:15:12.000Z</time>
      </trkpt>
      <trkpt lat="37.080054" lon="-79.610268">
        <ele>247.375698</ele>
        <time>2025-09-05T12:15:14.000Z</time>
      </trkpt>
      <trkpt lat="37.080018" lon="-79.609839">
        <ele>248.144852</ele>
        <time>2025-09-05T12:15:18.000Z</time>
      </trkpt>
      <trkpt lat="37.08004" lon="-79.609658">
        <ele>248.775306</ele>
        <time>2025-09-05T12:15:20.000Z</time>
      </trkpt>
      <trkpt lat="37.08009" lon="-79.60944">
        <ele>249.560645</ele>
        <time>2025-09-05T12:15:22.000Z</time>
      </trkpt>
      <trkpt lat="37.080151" lon="-79.609341">
        <ele>249.959221</ele>
        <time>2025-09-05T12:15:23.000Z</time>
      </trkpt>
      <trkpt lat="37.080359" lon="-79.609077">
        <ele>251.254951</ele>
        <time>2025-09-05T12:15:26.000Z</time>
      </trkpt>
      <trkpt lat="37.080931" lon="-79.608523">
        <ele>254.402808</ele>
        <time>2025-09-05T12:15:34.000Z</time>
      </trkpt>
      <trkpt lat="37.0813" lon="-79.60821">
        <ele>255.768221</ele>
        <time>2025-09-05T12:15:39.000Z</time>
      </trkpt>
      <trkpt lat="37.081583" lon="-79.608016">
        <ele>256.356476</ele>
        <time>2025-09-05T12:15:43.000Z</time>
      </trkpt>
      <trkpt lat="37.082148" lon="-79.607806">
        <ele>257.480961</ele>
        <time>2025-09-05T12:15:50.000Z</time>
      </trkpt>
      <trkpt lat="37.082443" lon="-79.60764">
        <ele>258.105215</ele>
        <time>2025-09-05T12:15:54.000Z</time>
      </trkpt>
      <trkpt lat="37.08261" lon="-79.607483">
        <ele>258.505531</ele>
        <time>2025-09-05T12:15:56.000Z</time>
      </trkpt>
      <trkpt lat="37.082816" lon="-79.607138">
        <ele>258.740589</ele>
        <time>2025-09-05T12:16:00.000Z</time>
      </trkpt>
      <trkpt lat="37.08289" lon="-79.60696">
        <ele>258.748793</ele>
        <time>2025-09-05T12:16:02.000Z</time>
      </trkpt>
      <trkpt lat="37.082967" lon="-79.606608">
        <ele>258.762425</ele>
        <time>2025-09-05T12:16:05.000Z</time>
      </trkpt>
      <trkpt lat="37.083111" lon="-79.604708">
        <ele>259.022983</ele>
        <time>2025-09-05T12:16:22.000Z</time>
      </trkpt>
      <trkpt lat="37.083187" lon="-79.60442">
        <ele>259.144207</ele>
        <time>2025-09-05T12:16:25.000Z</time>
      </trkpt>
      <trkpt lat="37.083378" lon="-79.60412">
        <ele>259.302382</ele>
        <time>2025-09-05T12:16:28.000Z</time>
      </trkpt>
      <trkpt lat="37.083611" lon="-79.603824">
        <ele>259.47306</ele>
        <time>2025-09-05T12:16:32.000Z</time>
      </trkpt>
      <trkpt lat="37.083916" lon="-79.603639">
        <ele>259.650189</ele>
        <time>2025-09-05T12:16:36.000Z</time>
      </trkpt>
      <trkpt lat="37.085184" lon="-79.603175">
        <ele>259.432263</ele>
        <time>2025-09-05T12:16:51.000Z</time>
      </trkpt>
      <trkpt lat="37.085445" lon="-79.602964">
        <ele>259.349416</ele>
        <time>2025-09-05T12:16:54.000Z</time>
      </trkpt>
      <trkpt lat="37.085656" lon="-79.60272">
        <ele>259.264371</ele>
        <time>2025-09-05T12:16:57.000Z</time>
      </trkpt>
      <trkpt lat="37.085832" lon="-79.602457">
        <ele>259.535781</ele>
        <time>2025-09-05T12:17:00.000Z</time>
      </trkpt>
      <trkpt lat="37.086021" lon="-79.60202">
        <ele>260.081186</ele>
        <time>2025-09-05T12:17:04.000Z</time>
      </trkpt>
      <trkpt lat="37.086759" lon="-79.59971">
        <ele>263.173509</ele>
        <time>2025-09-05T12:17:26.000Z</time>
      </trkpt>
      <trkpt lat="37.086902" lon="-79.599375">
        <ele>263.729234</ele>
        <time>2025-09-05T12:17:29.000Z</time>
      </trkpt>
      <trkpt lat="37.086976" lon="-79.599255">
        <ele>263.931823</ele>
        <time>2025-09-05T12:17:30.000Z</time>
      </trkpt>
      <trkpt lat="37.087303" lon="-79.598938">
        <ele>264.681769</ele>
        <time>2025-09-05T12:17:35.000Z</time>
      </trkpt>
      <trkpt lat="37.087767" lon="-79.5986">
        <ele>266.241833</ele>
        <time>2025-09-05T12:17:41.000Z</time>
      </trkpt>
      <trkpt lat="37.088262" lon="-79.59821">
        <ele>268.247783</ele>
        <time>2025-09-05T12:17:48.000Z</time>
      </trkpt>
      <trkpt lat="37.088596" lon="-79.597882">
        <ele>269.667033</ele>
        <time>2025-09-05T12:17:53.000Z</time>
      </trkpt>
      <trkpt lat="37.08912" lon="-79.597127">
        <ele>272.334745</ele>
        <time>2025-09-05T12:18:02.000Z</time>
      </trkpt>
      <trkpt lat="37.089571" lon="-79.596366">
        <ele>274.733612</ele>
        <time>2025-09-05T12:18:10.000Z</time>
      </trkpt>
      <trkpt lat="37.089749" lon="-79.596056">
        <ele>275.708033</ele>
        <time>2025-09-05T12:18:13.000Z</time>
      </trkpt>
      <trkpt lat="37.089824" lon="-79.595929">
        <ele>276.148015</ele>
        <time>2025-09-05T12:18:14.000Z</time>
      </trkpt>
      <trkpt lat="37.090179" lon="-79.595307">
        <ele>277.103067</ele>
        <time>2025-09-05T12:18:21.000Z</time>
      </trkpt>
      <trkpt lat="37.091102" lon="-79.593647">
        <ele>277.580373</ele>
        <time>2025-09-05T12:18:39.000Z</time>
      </trkpt>
      <trkpt lat="37.091407" lon="-79.593136">
        <ele>276.927938</ele>
        <time>2025-09-05T12:18:45.000Z</time>
      </trkpt>
      <trkpt lat="37.091523" lon="-79.593442">
        <ele>276.600711</ele>
        <time>2025-09-05T12:18:48.000Z</time>
      </trkpt>
      <trkpt lat="37.092179" lon="-79.595282">
        <ele>273.87318</ele>
        <time>2025-09-05T12:19:06.000Z</time>
      </trkpt>
      <trkpt lat="37.093362" lon="-79.598659">
        <ele>266.916886</ele>
        <time>2025-09-05T12:19:39.000Z</time>
      </trkpt>
      <trkpt lat="37.093987" lon="-79.600384">
        <ele>261.204035</ele>
        <time>2025-09-05T12:19:56.000Z</time>
      </trkpt>
      <trkpt lat="37.094097" lon="-79.600671">
        <ele>260.391375</ele>
        <time>2025-09-05T12:19:59.000Z</time>
      </trkpt>
      <trkpt lat="37.094385" lon="-79.601481">
        <ele>258.956153</ele>
        <time>2025-09-05T12:20:07.000Z</time>
      </trkpt>
      <trkpt lat="37.094631" lon="-79.601898">
        <ele>258.159776</ele>
        <time>2025-09-05T12:20:12.000Z</time>
      </trkpt>
      <trkpt lat="37.094935" lon="-79.602217">
        <ele>257.354229</ele>
        <time>2025-09-05T12:20:16.000Z</time>
      </trkpt>
      <trkpt lat="37.095886" lon="-79.602945">
        <ele>255.459885</ele>
        <time>2025-09-05T12:20:28.000Z</time>
      </trkpt>
      <trkpt lat="37.096074" lon="-79.60314">
        <ele>255.058581</ele>
        <time>2025-09-05T12:20:31.000Z</time>
      </trkpt>
      <trkpt lat="37.096954" lon="-79.604257">
        <ele>252.974786</ele>
        <time>2025-09-05T12:20:45.000Z</time>
      </trkpt>
      <trkpt lat="37.097067" lon="-79.60443">
        <ele>252.676687</ele>
        <time>2025-09-05T12:20:47.000Z</time>
      </trkpt>
      <trkpt lat="37.097221" lon="-79.604777">
        <ele>252.164804</ele>
        <time>2025-09-05T12:20:51.000Z</time>
      </trkpt>
      <trkpt lat="37.09732" lon="-79.605105">
        <ele>251.70554</ele>
        <time>2025-09-05T12:20:54.000Z</time>
      </trkpt>
      <trkpt lat="37.097349" lon="-79.605479">
        <ele>251.219467</ele>
        <time>2025-09-05T12:20:57.000Z</time>
      </trkpt>
      <trkpt lat="37.097206" lon="-79.607928">
        <ele>252.111929</ele>
        <time>2025-09-05T12:21:19.000Z</time>
      </trkpt>
      <trkpt lat="37.097117" lon="-79.608395">
        <ele>252.517816</ele>
        <time>2025-09-05T12:21:23.000Z</time>
      </trkpt>
      <trkpt lat="37.097021" lon="-79.608612">
        <ele>252.72855</ele>
        <time>2025-09-05T12:21:25.000Z</time>
      </trkpt>
      <trkpt lat="37.096861" lon="-79.608852">
        <ele>252.986627</ele>
        <time>2025-09-05T12:21:28.000Z</time>
      </trkpt>
      <trkpt lat="37.096711" lon="-79.609003">
        <ele>253.196932</ele>
        <time>2025-09-05T12:21:30.000Z</time>
      </trkpt>
      <trkpt lat="37.096666" lon="-79.609041">
        <ele>253.238213</ele>
        <time>2025-09-05T12:21:31.000Z</time>
      </trkpt>
      <trkpt lat="37.096414" lon="-79.609213">
        <ele>253.550404</ele>
        <time>2025-09-05T12:21:34.000Z</time>
      </trkpt>
      <trkpt lat="37.096153" lon="-79.609407">
        <ele>253.870606</ele>
        <time>2025-09-05T12:21:37.000Z</time>
      </trkpt>
      <trkpt lat="37.095999" lon="-79.609497">
        <ele>253.976742</ele>
        <time>2025-09-05T12:21:39.000Z</time>
      </trkpt>
      <trkpt lat="37.095791" lon="-79.609863">
        <ele>254.076649</ele>
        <time>2025-09-05T12:21:43.000Z</time>
      </trkpt>
      <trkpt lat="37.095733" lon="-79.609931">
        <ele>254.094979</ele>
        <time>2025-09-05T12:21:44.000Z</time>
      </trkpt>
      <trkpt lat="37.095671" lon="-79.60994">
        <ele>254.112155</ele>
        <time>2025-09-05T12:21:45.000Z</time>
      </trkpt>
      <trkpt lat="37.09563" lon="-79.610057">
        <ele>254.140319</ele>
        <time>2025-09-05T12:21:46.000Z</time>
      </trkpt>
      <trkpt lat="37.095591" lon="-79.610104">
        <ele>254.154417</ele>
        <time>2025-09-05T12:21:47.000Z</time>
      </trkpt>
      <trkpt lat="37.095085" lon="-79.610374">
        <ele>254.301419</ele>
        <time>2025-09-05T12:21:53.000Z</time>
      </trkpt>
      <trkpt lat="37.095073" lon="-79.610377">
        <ele>254.304422</ele>
        <time>2025-09-05T12:21:53.000Z</time>
      </trkpt>
      <trkpt lat="37.095074" lon="-79.610381">
        <ele>254.307416</ele>
        <time>2025-09-05T12:21:53.000Z</time>
      </trkpt>
      <trkpt lat="37.09507" lon="-79.610372">
        <ele>254.308796</ele>
        <time>2025-09-05T12:21:53.000Z</time>
      </trkpt>
      <trkpt lat="37.095058" lon="-79.610373">
        <ele>254.309066</ele>
        <time>2025-09-05T12:21:53.000Z</time>
      </trkpt>
      <trkpt lat="37.095067" lon="-79.610376">
        <ele>254.309611</ele>
        <time>2025-09-05T12:21:53.000Z</time>
      </trkpt>
      <trkpt lat="37.095067" lon="-79.610371">
        <ele>254.310421</ele>
        <time>2025-09-05T12:21:53.000Z</time>
      </trkpt>
      <trkpt lat="37.095049" lon="-79.610386">
        <ele>254.311264</ele>
        <time>2025-09-05T12:21:53.000Z</time>
      </trkpt>
      <trkpt lat="37.095039" lon="-79.610387">
        <ele>254.316711</ele>
        <time>2025-09-05T12:21:53.000Z</time>
      </trkpt>
      <trkpt lat="37.095003" lon="-79.610354">
        <ele>254.325454</ele>
        <time>2025-09-05T12:21:53.000Z</time>
      </trkpt>
      <trkpt lat="37.094979" lon="-79.610341">
        <ele>254.336961</ele>
        <time>2025-09-05T12:21:53.000Z</time>
      </trkpt>
      <trkpt lat="37.094918" lon="-79.610196">
        <ele>254.372893</ele>
        <time>2025-09-05T12:21:54.000Z</time>
      </trkpt>
      <trkpt lat="37.095419" lon="-79.609885">
        <ele>254.260453</ele>
        <time>2025-09-05T12:22:00.000Z</time>
      </trkpt>
      <trkpt lat="37.09541" lon="-79.609893">
        <ele>254.259842</ele>
        <time>2025-09-05T12:22:00.000Z</time>
      </trkpt>
      <trkpt lat="37.095422" lon="-79.609894">
        <ele>254.258262</ele>
        <time>2025-09-05T12:22:00.000Z</time>
      </trkpt>
      <trkpt lat="37.095432" lon="-79.609881">
        <ele>254.252187</ele>
        <time>2025-09-05T12:22:00.000Z</time>
      </trkpt>
      <trkpt lat="37.09543" lon="-79.60988">
        <ele>254.251405</ele>
        <time>2025-09-05T12:22:00.000Z</time>
      </trkpt>
      <trkpt lat="37.095439" lon="-79.609877">
        <ele>254.250783</ele>
        <time>2025-09-05T12:22:00.000Z</time>
      </trkpt>
      <trkpt lat="37.095433" lon="-79.609876">
        <ele>254.248137</ele>
        <time>2025-09-05T12:22:00.000Z</time>
      </trkpt>
      <trkpt lat="37.095445" lon="-79.609881">
        <ele>254.247343</ele>
        <time>2025-09-05T12:22:00.000Z</time>
      </trkpt>
      <trkpt lat="37.095451" lon="-79.609877">
        <ele>254.24393</ele>
        <time>2025-09-05T12:22:00.000Z</time>
      </trkpt>
      <trkpt lat="37.095437" lon="-79.609872">
        <ele>254.241276</ele>
        <time>2025-09-05T12:22:00.000Z</time>
      </trkpt>
      <trkpt lat="37.095487" lon="-79.609852">
        <ele>254.213201</ele>
        <time>2025-09-05T12:22:01.000Z</time>
      </trkpt>
      <trkpt lat="37.09552" lon="-79.60982">
        <ele>254.189288</ele>
        <time>2025-09-05T12:22:01.000Z</time>
      </trkpt>
      <trkpt lat="37.095597" lon="-79.609824">
        <ele>254.140576</ele>
        <time>2025-09-05T12:22:02.000Z</time>
      </trkpt>
      <trkpt lat="37.095607" lon="-79.609777">
        <ele>254.116974</ele>
        <time>2025-09-05T12:22:02.000Z</time>
      </trkpt>
      <trkpt lat="37.095691" lon="-79.609693">
        <ele>254.059614</ele>
        <time>2025-09-05T12:22:03.000Z</time>
      </trkpt>
      <trkpt lat="37.096013" lon="-79.609498">
        <ele>253.836796</ele>
        <time>2025-09-05T12:22:07.000Z</time>
      </trkpt>
      <trkpt lat="37.096143" lon="-79.609404">
        <ele>253.739425</ele>
        <time>2025-09-05T12:22:09.000Z</time>
      </trkpt>
      <trkpt lat="37.096414" lon="-79.609222">
        <ele>253.551106</ele>
        <time>2025-09-05T12:22:12.000Z</time>
      </trkpt>
      <trkpt lat="37.096676" lon="-79.60904">
        <ele>253.367512</ele>
        <time>2025-09-05T12:22:15.000Z</time>
      </trkpt>
      <trkpt lat="37.096697" lon="-79.609009">
        <ele>253.343219</ele>
        <time>2025-09-05T12:22:15.000Z</time>
      </trkpt>
      <trkpt lat="37.096869" lon="-79.608849">
        <ele>253.127283</ele>
        <time>2025-09-05T12:22:17.000Z</time>
      </trkpt>
      <trkpt lat="37.097019" lon="-79.608618">
        <ele>252.85518</ele>
        <time>2025-09-05T12:22:20.000Z</time>
      </trkpt>
      <trkpt lat="37.097106" lon="-79.608401">
        <ele>252.633003</ele>
        <time>2025-09-05T12:22:22.000Z</time>
      </trkpt>
      <trkpt lat="37.097208" lon="-79.607915">
        <ele>252.205036</ele>
        <time>2025-09-05T12:22:26.000Z</time>
      </trkpt>
      <trkpt lat="37.097336" lon="-79.605478">
        <ele>251.685199</ele>
        <time>2025-09-05T12:22:48.000Z</time>
      </trkpt>
      <trkpt lat="37.097305" lon="-79.605119">
        <ele>251.769539</ele>
        <time>2025-09-05T12:22:51.000Z</time>
      </trkpt>
      <trkpt lat="37.097231" lon="-79.604769">
        <ele>251.849233</ele>
        <time>2025-09-05T12:22:54.000Z</time>
      </trkpt>
      <trkpt lat="37.097068" lon="-79.604442">
        <ele>252.36526</ele>
        <time>2025-09-05T12:22:57.000Z</time>
      </trkpt>
      <trkpt lat="37.096966" lon="-79.604261">
        <ele>252.707403</ele>
        <time>2025-09-05T12:22:59.000Z</time>
      </trkpt>
      <trkpt lat="37.096077" lon="-79.603133">
        <ele>255.097559</ele>
        <time>2025-09-05T12:23:13.000Z</time>
      </trkpt>
      <trkpt lat="37.095884" lon="-79.602941">
        <ele>255.509448</ele>
        <time>2025-09-05T12:23:16.000Z</time>
      </trkpt>
      <trkpt lat="37.094942" lon="-79.602215">
        <ele>257.267009</ele>
        <time>2025-09-05T12:23:28.000Z</time>
      </trkpt>
      <trkpt lat="37.094621" lon="-79.601904">
        <ele>257.905823</ele>
        <time>2025-09-05T12:23:33.000Z</time>
      </trkpt>
      <trkpt lat="37.094395" lon="-79.601485">
        <ele>258.884128</ele>
        <time>2025-09-05T12:23:37.000Z</time>
      </trkpt>
      <trkpt lat="37.094095" lon="-79.600662">
        <ele>260.941808</ele>
        <time>2025-09-05T12:23:45.000Z</time>
      </trkpt>
      <trkpt lat="37.093988" lon="-79.600374">
        <ele>261.659806</ele>
        <time>2025-09-05T12:23:48.000Z</time>
      </trkpt>
      <trkpt lat="37.093359" lon="-79.598672">
        <ele>266.4744</ele>
        <time>2025-09-05T12:24:05.000Z</time>
      </trkpt>
      <trkpt lat="37.09219" lon="-79.595282">
        <ele>273.848181</ele>
        <time>2025-09-05T12:24:38.000Z</time>
      </trkpt>
      <trkpt lat="37.091526" lon="-79.593437">
        <ele>276.929683</ele>
        <time>2025-09-05T12:24:56.000Z</time>
      </trkpt>
      <trkpt lat="37.091421" lon="-79.593136">
        <ele>277.062658</ele>
        <time>2025-09-05T12:24:59.000Z</time>
      </trkpt>
      <trkpt lat="37.091101" lon="-79.593637">
        <ele>277.327817</ele>
        <time>2025-09-05T12:25:05.000Z</time>
      </trkpt>
      <trkpt lat="37.090172" lon="-79.595304">
        <ele>276.804756</ele>
        <time>2025-09-05T12:25:23.000Z</time>
      </trkpt>
      <trkpt lat="37.089813" lon="-79.595924">
        <ele>275.91037</ele>
        <time>2025-09-05T12:25:30.000Z</time>
      </trkpt>
      <trkpt lat="37.089735" lon="-79.596057">
        <ele>275.710406</ele>
        <time>2025-09-05T12:25:31.000Z</time>
      </trkpt>
      <trkpt lat="37.089563" lon="-79.596366">
        <ele>275.267533</ele>
        <time>2025-09-05T12:25:34.000Z</time>
      </trkpt>
      <trkpt lat="37.089135" lon="-79.597134">
        <ele>272.479592</ele>
        <time>2025-09-05T12:25:42.000Z</time>
      </trkpt>
      <trkpt lat="37.088602" lon="-79.597894">
        <ele>269.315086</ele>
        <time>2025-09-05T12:25:51.000Z</time>
      </trkpt>
      <trkpt lat="37.088276" lon="-79.598224">
        <ele>267.834549</ele>
        <time>2025-09-05T12:25:56.000Z</time>
      </trkpt>
      <trkpt lat="37.087765" lon="-79.598606">
        <ele>266.37907</ele>
        <time>2025-09-05T12:26:03.000Z</time>
      </trkpt>
      <trkpt lat="37.0873" lon="-79.598938">
        <ele>265.039731</ele>
        <time>2025-09-05T12:26:09.000Z</time>
      </trkpt>
      <trkpt lat="37.086967" lon="-79.599267">
        <ele>264.013113</ele>
        <time>2025-09-05T12:26:14.000Z</time>
      </trkpt>
      <trkpt lat="37.086895" lon="-79.599376">
        <ele>263.735813</ele>
        <time>2025-09-05T12:26:15.000Z</time>
      </trkpt>
      <trkpt lat="37.086752" lon="-79.599721">
        <ele>263.154019</ele>
        <time>2025-09-05T12:26:18.000Z</time>
      </trkpt>
      <trkpt lat="37.086003" lon="-79.602024">
        <ele>260.099661</ele>
        <time>2025-09-05T12:26:40.000Z</time>
      </trkpt>
      <trkpt lat="37.085836" lon="-79.602443">
        <ele>259.866987</ele>
        <time>2025-09-05T12:26:44.000Z</time>
      </trkpt>
      <trkpt lat="37.085666" lon="-79.602721">
        <ele>259.709134</ele>
        <time>2025-09-05T12:26:47.000Z</time>
      </trkpt>
      <trkpt lat="37.085432" lon="-79.602976">
        <ele>259.526977</ele>
        <time>2025-09-05T12:26:50.000Z</time>
      </trkpt>
      <trkpt lat="37.085181" lon="-79.603164">
        <ele>259.349598</ele>
        <time>2025-09-05T12:26:53.000Z</time>
      </trkpt>
      <trkpt lat="37.083912" lon="-79.603637">
        <ele>259.530962</ele>
        <time>2025-09-05T12:27:08.000Z</time>
      </trkpt>
      <trkpt lat="37.083609" lon="-79.603821">
        <ele>259.592571</ele>
        <time>2025-09-05T12:27:12.000Z</time>
      </trkpt>
      <trkpt lat="37.083368" lon="-79.60412">
        <ele>259.54152</ele>
        <time>2025-09-05T12:27:16.000Z</time>
      </trkpt>
      <trkpt lat="37.083201" lon="-79.604436">
        <ele>259.326278</ele>
        <time>2025-09-05T12:27:19.000Z</time>
      </trkpt>
      <trkpt lat="37.083119" lon="-79.604695">
        <ele>259.161321</ele>
        <time>2025-09-05T12:27:21.000Z</time>
      </trkpt>
      <trkpt lat="37.082973" lon="-79.606612">
        <ele>258.432269</ele>
        <time>2025-09-05T12:27:38.000Z</time>
      </trkpt>
      <trkpt lat="37.082894" lon="-79.606959">
        <ele>258.481944</ele>
        <time>2025-09-05T12:27:41.000Z</time>
      </trkpt>
      <trkpt lat="37.08281" lon="-79.607138">
        <ele>258.511765</ele>
        <time>2025-09-05T12:27:43.000Z</time>
      </trkpt>
      <trkpt lat="37.082606" lon="-79.607485">
        <ele>258.570117</ele>
        <time>2025-09-05T12:27:47.000Z</time>
      </trkpt>
      <trkpt lat="37.082438" lon="-79.607634">
        <ele>258.607293</ele>
        <time>2025-09-05T12:27:49.000Z</time>
      </trkpt>
      <trkpt lat="37.082141" lon="-79.607801">
        <ele>258.66527</ele>
        <time>2025-09-05T12:27:53.000Z</time>
      </trkpt>
      <trkpt lat="37.081573" lon="-79.608017">
        <ele>256.61737</ele>
        <time>2025-09-05T12:28:00.000Z</time>
      </trkpt>
      <trkpt lat="37.081302" lon="-79.608196">
        <ele>255.379681</ele>
        <time>2025-09-05T12:28:03.000Z</time>
      </trkpt>
      <trkpt lat="37.080938" lon="-79.60852">
        <ele>253.599789</ele>
        <time>2025-09-05T12:28:08.000Z</time>
      </trkpt>
      <trkpt lat="37.080353" lon="-79.609072">
        <ele>250.92927</ele>
        <time>2025-09-05T12:28:16.000Z</time>
      </trkpt>
      <trkpt lat="37.08014" lon="-79.609338">
        <ele>250.067228</ele>
        <time>2025-09-05T12:28:19.000Z</time>
      </trkpt>
      <trkpt lat="37.080091" lon="-79.609446">
        <ele>249.802053</ele>
        <time>2025-09-05T12:28:20.000Z</time>
      </trkpt>
      <trkpt lat="37.080025" lon="-79.609649">
        <ele>249.279572</ele>
        <time>2025-09-05T12:28:22.000Z</time>
      </trkpt>
      <trkpt lat="37.080018" lon="-79.609832">
        <ele>248.860117</ele>
        <time>2025-09-05T12:28:24.000Z</time>
      </trkpt>
      <trkpt lat="37.08006" lon="-79.610278">
        <ele>247.846577</ele>
        <time>2025-09-05T12:28:28.000Z</time>
      </trkpt>
      <trkpt lat="37.080024" lon="-79.610441">
        <ele>247.461981</ele>
        <time>2025-09-05T12:28:30.000Z</time>
      </trkpt>
      <trkpt lat="37.079985" lon="-79.61051">
        <ele>247.270085</ele>
        <time>2025-09-05T12:28:31.000Z</time>
      </trkpt>
      <trkpt lat="37.079734" lon="-79.610775">
        <ele>246.333656</ele>
        <time>2025-09-05T12:28:35.000Z</time>
      </trkpt>
      <trkpt lat="37.079643" lon="-79.610893">
        <ele>246.389741</ele>
        <time>2025-09-05T12:28:36.000Z</time>
      </trkpt>
      <trkpt lat="37.079545" lon="-79.611204">
        <ele>246.499197</ele>
        <time>2025-09-05T12:28:39.000Z</time>
      </trkpt>
      <trkpt lat="37.07945" lon="-79.611539">
        <ele>246.616585</ele>
        <time>2025-09-05T12:28:42.000Z</time>
      </trkpt>
      <trkpt lat="37.079366" lon="-79.611694">
        <ele>246.682593</ele>
        <time>2025-09-05T12:28:44.000Z</time>
      </trkpt>
      <trkpt lat="37.079178" lon="-79.611854">
        <ele>246.778237</ele>
        <time>2025-09-05T12:28:47.000Z</time>
      </trkpt>
      <trkpt lat="37.078787" lon="-79.611979">
        <ele>246.947711</ele>
        <time>2025-09-05T12:28:51.000Z</time>
      </trkpt>
      <trkpt lat="37.078655" lon="-79.612059">
        <ele>247.002038</ele>
        <time>2025-09-05T12:28:53.000Z</time>
      </trkpt>
      <trkpt lat="37.078584" lon="-79.61214">
        <ele>247.045429</ele>
        <time>2025-09-05T12:28:54.000Z</time>
      </trkpt>
      <trkpt lat="37.078523" lon="-79.612249">
        <ele>247.099644</ele>
        <time>2025-09-05T12:28:55.000Z</time>
      </trkpt>
      <trkpt lat="37.078478" lon="-79.612438">
        <ele>247.296278</ele>
        <time>2025-09-05T12:28:57.000Z</time>
      </trkpt>
      <trkpt lat="37.078485" lon="-79.612628">
        <ele>247.493845</ele>
        <time>2025-09-05T12:28:59.000Z</time>
      </trkpt>
      <trkpt lat="37.078578" lon="-79.613036">
        <ele>247.92626</ele>
        <time>2025-09-05T12:29:03.000Z</time>
      </trkpt>
      <trkpt lat="37.078686" lon="-79.613356">
        <ele>248.294731</ele>
        <time>2025-09-05T12:29:06.000Z</time>
      </trkpt>
      <trkpt lat="37.078831" lon="-79.613709">
        <ele>248.688461</ele>
        <time>2025-09-05T12:29:10.000Z</time>
      </trkpt>
      <trkpt lat="37.079063" lon="-79.614115">
        <ele>249.211881</ele>
        <time>2025-09-05T12:29:14.000Z</time>
      </trkpt>
      <trkpt lat="37.079205" lon="-79.614448">
        <ele>249.331057</ele>
        <time>2025-09-05T12:29:17.000Z</time>
      </trkpt>
      <trkpt lat="37.079278" lon="-79.614826">
        <ele>249.222384</ele>
        <time>2025-09-05T12:29:20.000Z</time>
      </trkpt>
      <trkpt lat="37.079292" lon="-79.615073">
        <ele>249.151007</ele>
        <time>2025-09-05T12:29:22.000Z</time>
      </trkpt>
      <trkpt lat="37.079286" lon="-79.615238">
        <ele>249.102745</ele>
        <time>2025-09-05T12:29:23.000Z</time>
      </trkpt>
      <trkpt lat="37.079275" lon="-79.615295">
        <ele>249.08856</ele>
        <time>2025-09-05T12:29:24.000Z</time>
      </trkpt>
      <trkpt lat="37.079284" lon="-79.615299">
        <ele>249.08496</ele>
        <time>2025-09-05T12:29:24.000Z</time>
      </trkpt>
      <trkpt lat="37.079281" lon="-79.615311">
        <ele>249.082813</ele>
        <time>2025-09-05T12:29:24.000Z</time>
      </trkpt>
      <trkpt lat="37.079266" lon="-79.615318">
        <ele>249.080779</ele>
        <time>2025-09-05T12:29:24.000Z</time>
      </trkpt>
      <trkpt lat="37.079271" lon="-79.615322">
        <ele>249.080307</ele>
        <time>2025-09-05T12:29:24.000Z</time>
      </trkpt>
      <trkpt lat="37.079272" lon="-79.615321">
        <ele>249.079387</ele>
        <time>2025-09-05T12:29:24.000Z</time>
      </trkpt>
      <trkpt lat="37.079266" lon="-79.615328">
        <ele>249.078175</ele>
        <time>2025-09-05T12:29:24.000Z</time>
      </trkpt>
      <trkpt lat="37.079265" lon="-79.615316">
        <ele>249.077312</ele>
        <time>2025-09-05T12:29:24.000Z</time>
      </trkpt>
      <trkpt lat="37.079258" lon="-79.615391">
        <ele>249.054993</ele>
        <time>2025-09-05T12:29:25.000Z</time>
      </trkpt>
      <trkpt lat="37.079184" lon="-79.615509">
        <ele>249.016815</ele>
        <time>2025-09-05T12:29:26.000Z</time>
      </trkpt>
      <trkpt lat="37.079102" lon="-79.61557">
        <ele>248.97852</ele>
        <time>2025-09-05T12:29:27.000Z</time>
      </trkpt>
      <trkpt lat="37.079023" lon="-79.615599">
        <ele>248.954465</ele>
        <time>2025-09-05T12:29:28.000Z</time>
      </trkpt>
      <trkpt lat="37.078914" lon="-79.615579">
        <ele>248.911471</ele>
        <time>2025-09-05T12:29:29.000Z</time>
      </trkpt>
      <trkpt lat="37.07881" lon="-79.615461">
        <ele>248.864056</ele>
        <time>2025-09-05T12:29:31.000Z</time>
      </trkpt>
      <trkpt lat="37.078751" lon="-79.615308">
        <ele>248.814151</ele>
        <time>2025-09-05T12:29:33.000Z</time>
      </trkpt>
      <trkpt lat="37.07876" lon="-79.615275">
        <ele>248.805234</ele>
        <time>2025-09-05T12:29:33.000Z</time>
      </trkpt>
      <trkpt lat="37.078758" lon="-79.615259">
        <ele>248.800932</ele>
        <time>2025-09-05T12:29:33.000Z</time>
      </trkpt>
      <trkpt lat="37.078757" lon="-79.615258">
        <ele>248.799217</ele>
        <time>2025-09-05T12:29:33.000Z</time>
      </trkpt>
      <trkpt lat="37.078753" lon="-79.615263">
        <ele>248.797773</ele>
        <time>2025-09-05T12:29:33.000Z</time>
      </trkpt>
      <trkpt lat="37.07876" lon="-79.615252">
        <ele>248.796335</ele>
        <time>2025-09-05T12:29:33.000Z</time>
      </trkpt>
      <trkpt lat="37.078752" lon="-79.615255">
        <ele>248.79576</ele>
        <time>2025-09-05T12:29:33.000Z</time>
      </trkpt>
      <trkpt lat="37.078754" lon="-79.615244">
        <ele>248.793755</ele>
        <time>2025-09-05T12:29:33.000Z</time>
      </trkpt>
      <trkpt lat="37.078747" lon="-79.615231">
        <ele>248.792605</ele>
        <time>2025-09-05T12:29:33.000Z</time>
      </trkpt>
      <trkpt lat="37.078748" lon="-79.615028">
        <ele>248.722689</ele>
        <time>2025-09-05T12:29:35.000Z</time>
      </trkpt>
      <trkpt lat="37.078812" lon="-79.614174">
        <ele>248.325584</ele>
        <time>2025-09-05T12:29:43.000Z</time>
      </trkpt>
      <trkpt lat="37.078819" lon="-79.613717">
        <ele>248.114129</ele>
        <time>2025-09-05T12:29:47.000Z</time>
      </trkpt>
      <trkpt lat="37.078686" lon="-79.613368">
        <ele>247.936176</ele>
        <time>2025-09-05T12:29:50.000Z</time>
      </trkpt>
      <trkpt lat="37.078577" lon="-79.613028">
        <ele>247.769644</ele>
        <time>2025-09-05T12:29:53.000Z</time>
      </trkpt>
      <trkpt lat="37.078484" lon="-79.61263">
        <ele>247.499059</ele>
        <time>2025-09-05T12:29:57.000Z</time>
      </trkpt>
      <trkpt lat="37.078478" lon="-79.61243">
        <ele>247.356573</ele>
        <time>2025-09-05T12:29:59.000Z</time>
      </trkpt>
      <trkpt lat="37.078531" lon="-79.612253">
        <ele>247.214758</ele>
        <time>2025-09-05T12:30:01.000Z</time>
      </trkpt>
      <trkpt lat="37.078585" lon="-79.612151">
        <ele>247.119348</ele>
        <time>2025-09-05T12:30:02.000Z</time>
      </trkpt>
      <trkpt lat="37.078654" lon="-79.612057">
        <ele>247.023259</ele>
        <time>2025-09-05T12:30:03.000Z</time>
      </trkpt>
      <trkpt lat="37.078775" lon="-79.611983">
        <ele>246.902969</ele>
        <time>2025-09-05T12:30:04.000Z</time>
      </trkpt>
      <trkpt lat="37.079178" lon="-79.611855">
        <ele>246.527659</ele>
        <time>2025-09-05T12:30:09.000Z</time>
      </trkpt>
      <trkpt lat="37.079364" lon="-79.611699">
        <ele>246.315838</ele>
        <time>2025-09-05T12:30:11.000Z</time>
      </trkpt>
      <trkpt lat="37.079453" lon="-79.611539">
        <ele>246.169698</ele>
        <time>2025-09-05T12:30:13.000Z</time>
      </trkpt>
      <trkpt lat="37.079534" lon="-79.6112">
        <ele>246.272286</ele>
        <time>2025-09-05T12:30:16.000Z</time>
      </trkpt>
      <trkpt lat="37.079646" lon="-79.610895">
        <ele>246.726553</ele>
        <time>2025-09-05T12:30:19.000Z</time>
      </trkpt>
      <trkpt lat="37.079739" lon="-79.610769">
        <ele>246.959295</ele>
        <time>2025-09-05T12:30:21.000Z</time>
      </trkpt>
      <trkpt lat="37.079992" lon="-79.610501">
        <ele>247.53288</ele>
        <time>2025-09-05T12:30:25.000Z</time>
      </trkpt>
      <trkpt lat="37.080035" lon="-79.610442">
        <ele>247.648353</ele>
        <time>2025-09-05T12:30:26.000Z</time>
      </trkpt>
      <trkpt lat="37.080051" lon="-79.610269">
        <ele>247.87979</ele>
        <time>2025-09-05T12:30:28.000Z</time>
      </trkpt>
      <trkpt lat="37.080029" lon="-79.609829">
        <ele>248.489673</ele>
        <time>2025-09-05T12:30:32.000Z</time>
      </trkpt>
      <trkpt lat="37.080033" lon="-79.609645">
        <ele>248.742065</ele>
        <time>2025-09-05T12:30:34.000Z</time>
      </trkpt>
      <trkpt lat="37.080103" lon="-79.609436">
        <ele>249.056473</ele>
        <time>2025-09-05T12:30:36.000Z</time>
      </trkpt>
      <trkpt lat="37.080152" lon="-79.60934">
        <ele>249.318208</ele>
        <time>2025-09-05T12:30:37.000Z</time>
      </trkpt>
      <trkpt lat="37.08035" lon="-79.609079">
        <ele>250.705397</ele>
        <time>2025-09-05T12:30:40.000Z</time>
      </trkpt>
      <trkpt lat="37.080936" lon="-79.608511">
        <ele>254.075528</ele>
        <time>2025-09-05T12:30:48.000Z</time>
      </trkpt>
      <trkpt lat="37.081291" lon="-79.608213">
        <ele>256.148044</ele>
        <time>2025-09-05T12:30:53.000Z</time>
      </trkpt>
      <trkpt lat="37.081567" lon="-79.608017">
        <ele>257.506898</ele>
        <time>2025-09-05T12:30:57.000Z</time>
      </trkpt>
      <trkpt lat="37.082142" lon="-79.607809">
        <ele>257.819395</ele>
        <time>2025-09-05T12:31:04.000Z</time>
      </trkpt>
      <trkpt lat="37.082451" lon="-79.607646">
        <ele>257.992883</ele>
        <time>2025-09-05T12:31:08.000Z</time>
      </trkpt>
      <trkpt lat="37.082609" lon="-79.607473">
        <ele>258.104129</ele>
        <time>2025-09-05T12:31:10.000Z</time>
      </trkpt>
      <trkpt lat="37.082813" lon="-79.607134">
        <ele>258.278739</ele>
        <time>2025-09-05T12:31:14.000Z</time>
      </trkpt>
      <trkpt lat="37.082877" lon="-79.606959">
        <ele>258.368007</ele>
        <time>2025-09-05T12:31:16.000Z</time>
      </trkpt>
      <trkpt lat="37.082964" lon="-79.606615">
        <ele>258.507021</ele>
        <time>2025-09-05T12:31:19.000Z</time>
      </trkpt>
      <trkpt lat="37.083114" lon="-79.604702">
        <ele>259.207961</ele>
        <time>2025-09-05T12:31:36.000Z</time>
      </trkpt>
      <trkpt lat="37.083204" lon="-79.604429">
        <ele>259.284027</ele>
        <time>2025-09-05T12:31:39.000Z</time>
      </trkpt>
      <trkpt lat="37.083373" lon="-79.604107">
        <ele>259.33507</ele>
        <time>2025-09-05T12:31:42.000Z</time>
      </trkpt>
      <trkpt lat="37.083601" lon="-79.603836">
        <ele>259.390168</ele>
        <time>2025-09-05T12:31:45.000Z</time>
      </trkpt>
      <trkpt lat="37.083911" lon="-79.603637">
        <ele>259.447345</ele>
        <time>2025-09-05T12:31:49.000Z</time>
      </trkpt>
      <trkpt lat="37.085194" lon="-79.603165">
        <ele>259.587596</ele>
        <time>2025-09-05T12:32:04.000Z</time>
      </trkpt>
      <trkpt lat="37.085432" lon="-79.602976">
        <ele>259.597782</ele>
        <time>2025-09-05T12:32:07.000Z</time>
      </trkpt>
      <trkpt lat="37.085669" lon="-79.602709">
        <ele>259.608257</ele>
        <time>2025-09-05T12:32:11.000Z</time>
      </trkpt>
      <trkpt lat="37.085826" lon="-79.602454">
        <ele>259.617328</ele>
        <time>2025-09-05T12:32:14.000Z</time>
      </trkpt>
      <trkpt lat="37.086015" lon="-79.602024">
        <ele>259.752935</ele>
        <time>2025-09-05T12:32:18.000Z</time>
      </trkpt>
      <trkpt lat="37.086763" lon="-79.599705">
        <ele>263.250644</ele>
        <time>2025-09-05T12:32:40.000Z</time>
      </trkpt>
      <trkpt lat="37.086908" lon="-79.599365">
        <ele>263.860881</ele>
        <time>2025-09-05T12:32:43.000Z</time>
      </trkpt>
      <trkpt lat="37.086967" lon="-79.599252">
        <ele>264.083311</ele>
        <time>2025-09-05T12:32:44.000Z</time>
      </trkpt>
      <trkpt lat="37.087303" lon="-79.59893">
        <ele>264.906824</ele>
        <time>2025-09-05T12:32:49.000Z</time>
      </trkpt>
      <trkpt lat="37.08777" lon="-79.598594">
        <ele>265.981168</ele>
        <time>2025-09-05T12:32:55.000Z</time>
      </trkpt>
      <trkpt lat="37.088275" lon="-79.598207">
        <ele>267.966929</ele>
        <time>2025-09-05T12:33:02.000Z</time>
      </trkpt>
      <trkpt lat="37.088598" lon="-79.597881">
        <ele>269.589529</ele>
        <time>2025-09-05T12:33:07.000Z</time>
      </trkpt>
      <trkpt lat="37.089129" lon="-79.59713">
        <ele>272.719259</ele>
        <time>2025-09-05T12:33:16.000Z</time>
      </trkpt>
      <trkpt lat="37.089573" lon="-79.59637">
        <ele>274.70029</ele>
        <time>2025-09-05T12:33:24.000Z</time>
      </trkpt>
      <trkpt lat="37.089738" lon="-79.596058">
        <ele>275.411526</ele>
        <time>2025-09-05T12:33:27.000Z</time>
      </trkpt>
      <trkpt lat="37.089824" lon="-79.595927">
        <ele>275.732674</ele>
        <time>2025-09-05T12:33:29.000Z</time>
      </trkpt>
      <trkpt lat="37.090183" lon="-79.5953">
        <ele>277.169047</ele>
        <time>2025-09-05T12:33:36.000Z</time>
      </trkpt>
      <trkpt lat="37.091109" lon="-79.593649">
        <ele>277.530857</ele>
        <time>2025-09-05T12:33:54.000Z</time>
      </trkpt>
      <trkpt lat="37.091419" lon="-79.593148">
        <ele>277.235056</ele>
        <time>2025-09-05T12:34:00.000Z</time>
      </trkpt>
      <trkpt lat="37.091508" lon="-79.593445">
        <ele>276.791711</ele>
        <time>2025-09-05T12:34:03.000Z</time>
      </trkpt>
      <trkpt lat="37.092176" lon="-79.595283">
        <ele>273.881365</ele>
        <time>2025-09-05T12:34:21.000Z</time>
      </trkpt>
      <trkpt lat="37.093369" lon="-79.598659">
        <ele>266.640906</ele>
        <time>2025-09-05T12:34:54.000Z</time>
      </trkpt>
      <trkpt lat="37.093998" lon="-79.60039">
        <ele>261.602612</ele>
        <time>2025-09-05T12:35:11.000Z</time>
      </trkpt>
      <trkpt lat="37.0941" lon="-79.600679">
        <ele>260.716963</ele>
        <time>2025-09-05T12:35:14.000Z</time>
      </trkpt>
      <trkpt lat="37.0944" lon="-79.60148">
        <ele>258.679603</ele>
        <time>2025-09-05T12:35:22.000Z</time>
      </trkpt>
      <trkpt lat="37.094629" lon="-79.601903">
        <ele>258.016683</ele>
        <time>2025-09-05T12:35:27.000Z</time>
      </trkpt>
      <trkpt lat="37.094926" lon="-79.602212">
        <ele>257.346129</ele>
        <time>2025-09-05T12:35:31.000Z</time>
      </trkpt>
      <trkpt lat="37.095876" lon="-79.602944">
        <ele>255.457891</ele>
        <time>2025-09-05T12:35:43.000Z</time>
      </trkpt>
      <trkpt lat="37.09607" lon="-79.603123">
        <ele>255.023063</ele>
        <time>2025-09-05T12:35:46.000Z</time>
      </trkpt>
      <trkpt lat="37.096954" lon="-79.604263">
        <ele>252.827509</ele>
        <time>2025-09-05T12:36:00.000Z</time>
      </trkpt>
      <trkpt lat="37.097064" lon="-79.604432">
        <ele>252.63391</ele>
        <time>2025-09-05T12:36:02.000Z</time>
      </trkpt>
      <trkpt lat="37.097224" lon="-79.60477">
        <ele>252.301482</ele>
        <time>2025-09-05T12:36:05.000Z</time>
      </trkpt>
      <trkpt lat="37.097319" lon="-79.605103">
        <ele>252.00321</ele>
        <time>2025-09-05T12:36:08.000Z</time>
      </trkpt>
      <trkpt lat="37.097338" lon="-79.605472">
        <ele>251.687549</ele>
        <time>2025-09-05T12:36:11.000Z</time>
      </trkpt>
      <trkpt lat="37.097203" lon="-79.607919">
        <ele>252.232218</ele>
        <time>2025-09-05T12:36:33.000Z</time>
      </trkpt>
      <trkpt lat="37.097106" lon="-79.608396">
        <ele>252.594858</ele>
        <time>2025-09-05T12:36:37.000Z</time>
      </trkpt>
      <trkpt lat="37.097015" lon="-79.608629">
        <ele>252.776131</ele>
        <time>2025-09-05T12:36:39.000Z</time>
      </trkpt>
      <trkpt lat="37.096872" lon="-79.608858">
        <ele>252.98985</ele>
        <time>2025-09-05T12:36:42.000Z</time>
      </trkpt>
      <trkpt lat="37.096707" lon="-79.609017">
        <ele>253.163982</ele>
        <time>2025-09-05T12:36:44.000Z</time>
      </trkpt>
      <trkpt lat="37.096677" lon="-79.609043">
        <ele>253.198177</ele>
        <time>2025-09-05T12:36:44.000Z</time>
      </trkpt>
      <trkpt lat="37.096423" lon="-79.609214">
        <ele>253.456677</ele>
        <time>2025-09-05T12:36:47.000Z</time>
      </trkpt>
      <trkpt lat="37.096154" lon="-79.609394">
        <ele>253.721824</ele>
        <time>2025-09-05T12:36:50.000Z</time>
      </trkpt>
      <trkpt lat="37.096011" lon="-79.609502">
        <ele>253.858948</ele>
        <time>2025-09-05T12:36:52.000Z</time>
      </trkpt>
      <trkpt lat="37.095779" lon="-79.609874">
        <ele>254.178329</ele>
        <time>2025-09-05T12:36:56.000Z</time>
      </trkpt>
      <trkpt lat="37.095735" lon="-79.609929">
        <ele>254.236945</ele>
        <time>2025-09-05T12:36:57.000Z</time>
      </trkpt>
      <trkpt lat="37.095667" lon="-79.609934">
        <ele>254.248728</ele>
        <time>2025-09-05T12:36:58.000Z</time>
      </trkpt>
      <trkpt lat="37.095619" lon="-79.610051">
        <ele>254.25097</ele>
        <time>2025-09-05T12:36:59.000Z</time>
      </trkpt>
      <trkpt lat="37.095592" lon="-79.610088">
        <ele>254.252087</ele>
        <time>2025-09-05T12:36:59.000Z</time>
      </trkpt>
      <trkpt lat="37.095098" lon="-79.610379">
        <ele>254.263828</ele>
        <time>2025-09-05T12:37:05.000Z</time>
      </trkpt>
      <trkpt lat="37.095082" lon="-79.610381">
        <ele>254.264066</ele>
        <time>2025-09-05T12:37:05.000Z</time>
      </trkpt>
      <trkpt lat="37.095073" lon="-79.610376">
        <ele>254.264309</ele>
        <time>2025-09-05T12:37:05.000Z</time>
      </trkpt>
      <trkpt lat="37.095066" lon="-79.610386">
        <ele>254.264412</ele>
        <time>2025-09-05T12:37:05.000Z</time>
      </trkpt>
      <trkpt lat="37.095065" lon="-79.610386">
        <ele>254.26443</ele>
        <time>2025-09-05T12:37:05.000Z</time>
      </trkpt>
      <trkpt lat="37.09506" lon="-79.610372">
        <ele>254.264485</ele>
        <time>2025-09-05T12:37:05.000Z</time>
      </trkpt>
      <trkpt lat="37.095069" lon="-79.610384">
        <ele>254.264545</ele>
        <time>2025-09-05T12:37:05.000Z</time>
      </trkpt>
      <trkpt lat="37.095062" lon="-79.610383">
        <ele>254.264612</ele>
        <time>2025-09-05T12:37:05.000Z</time>
      </trkpt>
      <trkpt lat="37.095042" lon="-79.610382">
        <ele>254.265046</ele>
        <time>2025-09-05T12:37:05.000Z</time>
      </trkpt>
      <trkpt lat="37.095018" lon="-79.610369">
        <ele>254.265739</ele>
        <time>2025-09-05T12:37:05.000Z</time>
      </trkpt>
      <trkpt lat="37.094964" lon="-79.610345">
        <ele>254.26666</ele>
        <time>2025-09-05T12:37:06.000Z</time>
      </trkpt>
      <trkpt lat="37.09492" lon="-79.610181">
        <ele>254.269525</ele>
        <time>2025-09-05T12:37:08.000Z</time>
      </trkpt>
      <trkpt lat="37.095418" lon="-79.609893">
        <ele>254.281651</ele>
        <time>2025-09-05T12:37:14.000Z</time>
      </trkpt>
      <trkpt lat="37.095416" lon="-79.609883">
        <ele>254.28168</ele>
        <time>2025-09-05T12:37:14.000Z</time>
      </trkpt>
      <trkpt lat="37.095413" lon="-79.609879">
        <ele>254.281727</ele>
        <time>2025-09-05T12:37:14.000Z</time>
      </trkpt>
      <trkpt lat="37.095421" lon="-79.609884">
        <ele>254.281944</ele>
        <time>2025-09-05T12:37:14.000Z</time>
      </trkpt>
      <trkpt lat="37.095437" lon="-79.609877">
        <ele>254.281969</ele>
        <time>2025-09-05T12:37:14.000Z</time>
      </trkpt>
      <trkpt lat="37.095435" lon="-79.609886">
        <ele>254.281999</ele>
        <time>2025-09-05T12:37:14.000Z</time>
      </trkpt>
      <trkpt lat="37.095432" lon="-79.609883">
        <ele>254.282098</ele>
        <time>2025-09-05T12:37:14.000Z</time>
      </trkpt>
      <trkpt lat="37.09544" lon="-79.609881">
        <ele>254.282117</ele>
        <time>2025-09-05T12:37:14.000Z</time>
      </trkpt>
      <trkpt lat="37.095448" lon="-79.609883">
        <ele>254.282248</ele>
        <time>2025-09-05T12:37:14.000Z</time>
      </trkpt>
      <trkpt lat="37.095455" lon="-79.609864">
        <ele>254.282329</ele>
        <time>2025-09-05T12:37:14.000Z</time>
      </trkpt>
      <trkpt lat="37.095493" lon="-79.609845">
        <ele>254.283324</ele>
        <time>2025-09-05T12:37:14.000Z</time>
      </trkpt>
      <trkpt lat="37.095528" lon="-79.609822">
        <ele>254.284165</ele>
        <time>2025-09-05T12:37:14.000Z</time>
      </trkpt>
      <trkpt lat="37.095605" lon="-79.609825">
        <ele>254.285867</ele>
        <time>2025-09-05T12:37:15.000Z</time>
      </trkpt>
      <trkpt lat="37.095612" lon="-79.609783">
        <ele>254.281113</ele>
        <time>2025-09-05T12:37:15.000Z</time>
      </trkpt>
      <trkpt lat="37.095686" lon="-79.609699">
        <ele>254.199139</ele>
        <time>2025-09-05T12:37:16.000Z</time>
      </trkpt>
      <trkpt lat="37.096002" lon="-79.609488">
        <ele>253.880759</ele>
        <time>2025-09-05T12:37:20.000Z</time>
      </trkpt>
      <trkpt lat="37.096146" lon="-79.609412">
        <ele>253.741616</ele>
        <time>2025-09-05T12:37:22.000Z</time>
      </trkpt>
      <trkpt lat="37.096405" lon="-79.609217">
        <ele>253.472536</ele>
        <time>2025-09-05T12:37:25.000Z</time>
      </trkpt>
      <trkpt lat="37.09667" lon="-79.609038">
        <ele>253.210204</ele>
        <time>2025-09-05T12:37:28.000Z</time>
      </trkpt>
      <trkpt lat="37.096703" lon="-79.609">
        <ele>253.175493</ele>
        <time>2025-09-05T12:37:28.000Z</time>
      </trkpt>
      <trkpt lat="37.096873" lon="-79.608859">
        <ele>252.998787</ele>
        <time>2025-09-05T12:37:30.000Z</time>
      </trkpt>
      <trkpt lat="37.097026" lon="-79.608619">
        <ele>252.781904</ele>
        <time>2025-09-05T12:37:33.000Z</time>
      </trkpt>
      <trkpt lat="37.097104" lon="-79.608392">
        <ele>252.597928</ele>
        <time>2025-09-05T12:37:35.000Z</time>
      </trkpt>
      <trkpt lat="37.097215" lon="-79.607926">
        <ele>252.232922</ele>
        <time>2025-09-05T12:37:39.000Z</time>
      </trkpt>
      <trkpt lat="37.09734" lon="-79.605474">
        <ele>251.694646</ele>
        <time>2025-09-05T12:38:01.000Z</time>
      </trkpt>
      <trkpt lat="37.097312" lon="-79.605118">
        <ele>252.005062</ele>
        <time>2025-09-05T12:38:04.000Z</time>
      </trkpt>
      <trkpt lat="37.097229" lon="-79.604774">
        <ele>252.298368</ele>
        <time>2025-09-05T12:38:07.000Z</time>
      </trkpt>
      <trkpt lat="37.097069" lon="-79.604437">
        <ele>252.625279</ele>
        <time>2025-09-05T12:38:10.000Z</time>
      </trkpt>
      <trkpt lat="37.096969" lon="-79.60425">
        <ele>252.815639</ele>
        <time>2025-09-05T12:38:12.000Z</time>
      </trkpt>
      <trkpt lat="37.096066" lon="-79.603127">
        <ele>255.023371</ele>
        <time>2025-09-05T12:38:26.000Z</time>
      </trkpt>
      <trkpt lat="37.095886" lon="-79.602933">
        <ele>255.459073</ele>
        <time>2025-09-05T12:38:29.000Z</time>
      </trkpt>
      <trkpt lat="37.09493" lon="-79.602217">
        <ele>257.343637</ele>
        <time>2025-09-05T12:38:41.000Z</time>
      </trkpt>
      <trkpt lat="37.094617" lon="-79.601894">
        <ele>258.012309</ele>
        <time>2025-09-05T12:38:46.000Z</time>
      </trkpt>
      <trkpt lat="37.094398" lon="-79.601495">
        <ele>258.673391</ele>
        <time>2025-09-05T12:38:50.000Z</time>
      </trkpt>
      <trkpt lat="37.094096" lon="-79.600662">
        <ele>260.728333</ele>
        <time>2025-09-05T12:38:58.000Z</time>
      </trkpt>
      <trkpt lat="37.093987" lon="-79.600387">
        <ele>261.61103</ele>
        <time>2025-09-05T12:39:01.000Z</time>
      </trkpt>
      <trkpt lat="37.093356" lon="-79.598656">
        <ele>266.632051</ele>
        <time>2025-09-05T12:39:18.000Z</time>
      </trkpt>
      <trkpt lat="37.092176" lon="-79.595269">
        <ele>273.881626</ele>
        <time>2025-09-05T12:39:51.000Z</time>
      </trkpt>
      <trkpt lat="37.091526" lon="-79.593436">
        <ele>276.799037</ele>
        <time>2025-09-05T12:40:09.000Z</time>
      </trkpt>
      <trkpt lat="37.091412" lon="-79.593142">
        <ele>277.24464</ele>
        <time>2025-09-05T12:40:12.000Z</time>
      </trkpt>
      <trkpt lat="37.091106" lon="-79.593648">
        <ele>277.523387</ele>
        <time>2025-09-05T12:40:18.000Z</time>
      </trkpt>
      <trkpt lat="37.090177" lon="-79.595292">
        <ele>277.152332</ele>
        <time>2025-09-05T12:40:36.000Z</time>
      </trkpt>
      <trkpt lat="37.089828" lon="-79.595932">
        <ele>275.729776</ele>
        <time>2025-09-05T12:40:43.000Z</time>
      </trkpt>
      <trkpt lat="37.089745" lon="-79.596072">
        <ele>275.411723</ele>
        <time>2025-09-05T12:40:45.000Z</time>
      </trkpt>
      <trkpt lat="37.089556" lon="-79.596374">
        <ele>274.707314</ele>
        <time>2025-09-05T12:40:48.000Z</time>
      </trkpt>
      <trkpt lat="37.089127" lon="-79.597132">
        <ele>272.718375</ele>
        <time>2025-09-05T12:40:56.000Z</time>
      </trkpt>
      <trkpt lat="37.088594" lon="-79.597887">
        <ele>269.582902</ele>
        <time>2025-09-05T12:41:05.000Z</time>
      </trkpt>
      <trkpt lat="37.088266" lon="-79.598213">
        <ele>267.957323</ele>
        <time>2025-09-05T12:41:10.000Z</time>
      </trkpt>
      <trkpt lat="37.087767" lon="-79.598597">
        <ele>265.991867</ele>
        <time>2025-09-05T12:41:17.000Z</time>
      </trkpt>
      <trkpt lat="37.087302" lon="-79.598939">
        <ele>264.91305</ele>
        <time>2025-09-05T12:41:23.000Z</time>
      </trkpt>
      <trkpt lat="37.086965" lon="-79.599264">
        <ele>264.086112</ele>
        <time>2025-09-05T12:41:28.000Z</time>
      </trkpt>
      <trkpt lat="37.0869" lon="-79.599362">
        <ele>263.862751</ele>
        <time>2025-09-05T12:41:29.000Z</time>
      </trkpt>
      <trkpt lat="37.086755" lon="-79.599708">
        <ele>263.24998</ele>
        <time>2025-09-05T12:41:32.000Z</time>
      </trkpt>
      <trkpt lat="37.086016" lon="-79.602019">
        <ele>259.744807</ele>
        <time>2025-09-05T12:41:54.000Z</time>
      </trkpt>
      <trkpt lat="37.085824" lon="-79.602451">
        <ele>259.627112</ele>
        <time>2025-09-05T12:41:58.000Z</time>
      </trkpt>
      <trkpt lat="37.085662" lon="-79.602708">
        <ele>259.615094</ele>
        <time>2025-09-05T12:42:01.000Z</time>
      </trkpt>
      <trkpt lat="37.085435" lon="-79.602964">
        <ele>259.60123</ele>
        <time>2025-09-05T12:42:04.000Z</time>
      </trkpt>
      <trkpt lat="37.085179" lon="-79.603173">
        <ele>259.587719</ele>
        <time>2025-09-05T12:42:07.000Z</time>
      </trkpt>
      <trkpt lat="37.08392" lon="-79.603634">
        <ele>259.445778</ele>
        <time>2025-09-05T12:42:22.000Z</time>
      </trkpt>
      <trkpt lat="37.083615" lon="-79.603826">
        <ele>259.391727</ele>
        <time>2025-09-05T12:42:26.000Z</time>
      </trkpt>
      <trkpt lat="37.083365" lon="-79.604113">
        <ele>259.339666</ele>
        <time>2025-09-05T12:42:30.000Z</time>
      </trkpt>
      <trkpt lat="37.083187" lon="-79.604421">
        <ele>259.291407</ele>
        <time>2025-09-05T12:42:33.000Z</time>
      </trkpt>
      <trkpt lat="37.08311" lon="-79.604693">
        <ele>259.211175</ele>
        <time>2025-09-05T12:42:36.000Z</time>
      </trkpt>
      <trkpt lat="37.082961" lon="-79.606613">
        <ele>258.496428</ele>
        <time>2025-09-05T12:42:53.000Z</time>
      </trkpt>
      <trkpt lat="37.082879" lon="-79.606956">
        <ele>258.359489</ele>
        <time>2025-09-05T12:42:56.000Z</time>
      </trkpt>
      <trkpt lat="37.082807" lon="-79.607149">
        <ele>258.274744</ele>
        <time>2025-09-05T12:42:58.000Z</time>
      </trkpt>
      <trkpt lat="37.082616" lon="-79.607473">
        <ele>258.10896</ele>
        <time>2025-09-05T12:43:02.000Z</time>
      </trkpt>
      <trkpt lat="37.082444" lon="-79.607642">
        <ele>258.003346</ele>
        <time>2025-09-05T12:43:04.000Z</time>
      </trkpt>
      <trkpt lat="37.082152" lon="-79.607803">
        <ele>257.838645</ele>
        <time>2025-09-05T12:43:08.000Z</time>
      </trkpt>
      <trkpt lat="37.081571" lon="-79.608019">
        <ele>257.541967</ele>
        <time>2025-09-05T12:43:15.000Z</time>
      </trkpt>
      <trkpt lat="37.081295" lon="-79.608196">
        <ele>256.131287</ele>
        <time>2025-09-05T12:43:18.000Z</time>
      </trkpt>
      <trkpt lat="37.080936" lon="-79.608525">
        <ele>254.060468</ele>
        <time>2025-09-05T12:43:23.000Z</time>
      </trkpt>
      <trkpt lat="37.080363" lon="-79.609072">
        <ele>250.693088</ele>
        <time>2025-09-05T12:43:31.000Z</time>
      </trkpt>
      <trkpt lat="37.080151" lon="-79.609344">
        <ele>249.307019</ele>
        <time>2025-09-05T12:43:34.000Z</time>
      </trkpt>
      <trkpt lat="37.080098" lon="-79.609432">
        <ele>249.081067</ele>
        <time>2025-09-05T12:43:35.000Z</time>
      </trkpt>
      <trkpt lat="37.080027" lon="-79.609662">
        <ele>248.761895</ele>
        <time>2025-09-05T12:43:37.000Z</time>
      </trkpt>
      <trkpt lat="37.08003" lon="-79.60983">
        <ele>248.505676</ele>
        <time>2025-09-05T12:43:38.000Z</time>
      </trkpt>
      <trkpt lat="37.080061" lon="-79.610277">
        <ele>247.886544</ele>
        <time>2025-09-05T12:43:42.000Z</time>
      </trkpt>
      <trkpt lat="37.080033" lon="-79.610438">
        <ele>247.651602</ele>
        <time>2025-09-05T12:43:43.000Z</time>
      </trkpt>
      <trkpt lat="37.079992" lon="-79.610513">
        <ele>247.534393</ele>
        <time>2025-09-05T12:43:44.000Z</time>
      </trkpt>
      <trkpt lat="37.07973" lon="-79.610773">
        <ele>246.95209</ele>
        <time>2025-09-05T12:43:48.000Z</time>
      </trkpt>
      <trkpt lat="37.079637" lon="-79.610888">
        <ele>246.715847</ele>
        <time>2025-09-05T12:43:49.000Z</time>
      </trkpt>
      <trkpt lat="37.079532" lon="-79.611187">
        <ele>246.254671</ele>
        <time>2025-09-05T12:43:52.000Z</time>
      </trkpt>
      <trkpt lat="37.079447" lon="-79.611538">
        <ele>246.206554</ele>
        <time>2025-09-05T12:43:55.000Z</time>
      </trkpt>
      <trkpt lat="37.07935" lon="-79.611683">
        <ele>246.37609</ele>
        <time>2025-09-05T12:43:57.000Z</time>
      </trkpt>
      <trkpt lat="37.079165" lon="-79.611843">
        <ele>246.62182</ele>
        <time>2025-09-05T12:43:59.000Z</time>
      </trkpt>
      <trkpt lat="37.078782" lon="-79.611986">
        <ele>247.057193</ele>
        <time>2025-09-05T12:44:03.000Z</time>
      </trkpt>
      <trkpt lat="37.07867" lon="-79.612064">
        <ele>247.196742</ele>
        <time>2025-09-05T12:44:04.000Z</time>
      </trkpt>
      <trkpt lat="37.078583" lon="-79.61214">
        <ele>247.30821</ele>
        <time>2025-09-05T12:44:05.000Z</time>
      </trkpt>
      <trkpt lat="37.07853" lon="-79.61226">
        <ele>247.418894</ele>
        <time>2025-09-05T12:44:06.000Z</time>
      </trkpt>
      <trkpt lat="37.078479" lon="-79.612429">
        <ele>247.583413</ele>
        <time>2025-09-05T12:44:08.000Z</time>
      </trkpt>
      <trkpt lat="37.078484" lon="-79.612619">
        <ele>247.74872</ele>
        <time>2025-09-05T12:44:10.000Z</time>
      </trkpt>
      <trkpt lat="37.078587" lon="-79.613022">
        <ele>248.073034</ele>
        <time>2025-09-05T12:44:14.000Z</time>
      </trkpt>
      <trkpt lat="37.078697" lon="-79.613366">
        <ele>248.300092</ele>
        <time>2025-09-05T12:44:17.000Z</time>
      </trkpt>
      <trkpt lat="37.07883" lon="-79.613711">
        <ele>248.542728</ele>
        <time>2025-09-05T12:44:20.000Z</time>
      </trkpt>
      <trkpt lat="37.079069" lon="-79.61412">
        <ele>248.86527</ele>
        <time>2025-09-05T12:44:24.000Z</time>
      </trkpt>
      <trkpt lat="37.079217" lon="-79.614454">
        <ele>249.107389</ele>
        <time>2025-09-05T12:44:27.000Z</time>
      </trkpt>
      <trkpt lat="37.079286" lon="-79.614825">
        <ele>249.34603</ele>
        <time>2025-09-05T12:44:30.000Z</time>
      </trkpt>
      <trkpt lat="37.079298" lon="-79.615074">
        <ele>249.323222</ele>
        <time>2025-09-05T12:44:32.000Z</time>
      </trkpt>
      <trkpt lat="37.079291" lon="-79.615234">
        <ele>249.259741</ele>
        <time>2025-09-05T12:44:33.000Z</time>
      </trkpt>
      <trkpt lat="37.079281" lon="-79.615291">
        <ele>249.241087</ele>
        <time>2025-09-05T12:44:34.000Z</time>
      </trkpt>
      <trkpt lat="37.079285" lon="-79.615299">
        <ele>249.236349</ele>
        <time>2025-09-05T12:44:34.000Z</time>
      </trkpt>
      <trkpt lat="37.079274" lon="-79.615298">
        <ele>249.233529</ele>
        <time>2025-09-05T12:44:34.000Z</time>
      </trkpt>
      <trkpt lat="37.07928" lon="-79.615317">
        <ele>249.230851</ele>
        <time>2025-09-05T12:44:34.000Z</time>
      </trkpt>
      <trkpt lat="37.079277" lon="-79.61531">
        <ele>249.230248</ele>
        <time>2025-09-05T12:44:34.000Z</time>
      </trkpt>
      <trkpt lat="37.079273" lon="-79.615314">
        <ele>249.229008</ele>
        <time>2025-09-05T12:44:34.000Z</time>
      </trkpt>
      <trkpt lat="37.079276" lon="-79.615327">
        <ele>249.227424</ele>
        <time>2025-09-05T12:44:34.000Z</time>
      </trkpt>
      <trkpt lat="37.07928" lon="-79.615333">
        <ele>249.226302</ele>
        <time>2025-09-05T12:44:34.000Z</time>
      </trkpt>
      <trkpt lat="37.079261" lon="-79.615395">
        <ele>249.196924</ele>
        <time>2025-09-05T12:44:35.000Z</time>
      </trkpt>
      <trkpt lat="37.079193" lon="-79.615508">
        <ele>249.146706</ele>
        <time>2025-09-05T12:44:36.000Z</time>
      </trkpt>
      <trkpt lat="37.079088" lon="-79.615576">
        <ele>249.096336</ele>
        <time>2025-09-05T12:44:37.000Z</time>
      </trkpt>
      <trkpt lat="37.079035" lon="-79.615601">
        <ele>249.0647</ele>
        <time>2025-09-05T12:44:38.000Z</time>
      </trkpt>
      <trkpt lat="37.078912" lon="-79.615574">
        <ele>249.008126</ele>
        <time>2025-09-05T12:44:39.000Z</time>
      </trkpt>
      <trkpt lat="37.078821" lon="-79.615466">
        <ele>248.945733</ele>
        <time>2025-09-05T12:44:40.000Z</time>
      </trkpt>
      <trkpt lat="37.078759" lon="-79.615306">
        <ele>248.880087</ele>
        <time>2025-09-05T12:44:42.000Z</time>
      </trkpt>
      <trkpt lat="37.078757" lon="-79.615289">
        <ele>248.868373</ele>
        <time>2025-09-05T12:44:42.000Z</time>
      </trkpt>
      <trkpt lat="37.07875" lon="-79.615262">
        <ele>248.862718</ele>
        <time>2025-09-05T12:44:42.000Z</time>
      </trkpt>
      <trkpt lat="37.078752" lon="-79.615269">
        <ele>248.860452</ele>
        <time>2025-09-05T12:44:42.000Z</time>
      </trkpt>
      <trkpt lat="37.078751" lon="-79.615256">
        <ele>248.858563</ele>
        <time>2025-09-05T12:44:42.000Z</time>
      </trkpt>
      <trkpt lat="37.078744" lon="-79.61525">
        <ele>248.85667</ele>
        <time>2025-09-05T12:44:42.000Z</time>
      </trkpt>
      <trkpt lat="37.078747" lon="-79.615239">
        <ele>248.855912</ele>
        <time>2025-09-05T12:44:42.000Z</time>
      </trkpt>
      <trkpt lat="37.078754" lon="-79.61525">
        <ele>248.85327</ele>
        <time>2025-09-05T12:44:42.000Z</time>
      </trkpt>
      <trkpt lat="37.078746" lon="-79.615245">
        <ele>248.851761</ele>
        <time>2025-09-05T12:44:42.000Z</time>
      </trkpt>
      <trkpt lat="37.078746" lon="-79.615026">
        <ele>248.770136</ele>
        <time>2025-09-05T12:44:44.000Z</time>
      </trkpt>
      <trkpt lat="37.078827" lon="-79.614164">
        <ele>248.373744</ele>
        <time>2025-09-05T12:44:52.000Z</time>
      </trkpt>
      <trkpt lat="37.078814" lon="-79.613718">
        <ele>248.066881</ele>
        <time>2025-09-05T12:44:56.000Z</time>
      </trkpt>
      <trkpt lat="37.07868" lon="-79.613373">
        <ele>247.808622</ele>
        <time>2025-09-05T12:44:59.000Z</time>
      </trkpt>
      <trkpt lat="37.078581" lon="-79.613026">
        <ele>247.566919</ele>
        <time>2025-09-05T12:45:02.000Z</time>
      </trkpt>
      <trkpt lat="37.078475" lon="-79.612634">
        <ele>247.28328</ele>
        <time>2025-09-05T12:45:06.000Z</time>
      </trkpt>
      <trkpt lat="37.078469" lon="-79.612444">
        <ele>247.153681</ele>
        <time>2025-09-05T12:45:08.000Z</time>
      </trkpt>
      <trkpt lat="37.078528" lon="-79.612247">
        <ele>247.024729</ele>
        <time>2025-09-05T12:45:10.000Z</time>
      </trkpt>
      <trkpt lat="37.078579" lon="-79.612139">
        <ele>246.984262</ele>
        <time>2025-09-05T12:45:11.000Z</time>
      </trkpt>
      <trkpt lat="37.07866" lon="-79.612053">
        <ele>246.94351</ele>
        <time>2025-09-05T12:45:12.000Z</time>
      </trkpt>
      <trkpt lat="37.07877" lon="-79.61198">
        <ele>246.892483</ele>
        <time>2025-09-05T12:45:13.000Z</time>
      </trkpt>
      <trkpt lat="37.079176" lon="-79.611845">
        <ele>246.733289</ele>
        <time>2025-09-05T12:45:18.000Z</time>
      </trkpt>
      <trkpt lat="37.079351" lon="-79.611688">
        <ele>246.643439</ele>
        <time>2025-09-05T12:45:20.000Z</time>
      </trkpt>
      <trkpt lat="37.079444" lon="-79.611523">
        <ele>246.581449</ele>
        <time>2025-09-05T12:45:22.000Z</time>
      </trkpt>
      <trkpt lat="37.079537" lon="-79.611199">
        <ele>246.47119</ele>
        <time>2025-09-05T12:45:25.000Z</time>
      </trkpt>
      <trkpt lat="37.07965" lon="-79.610903">
        <ele>246.368373</ele>
        <time>2025-09-05T12:45:28.000Z</time>
      </trkpt>
      <trkpt lat="37.079726" lon="-79.610769">
        <ele>246.341121</ele>
        <time>2025-09-05T12:45:29.000Z</time>
      </trkpt>
      <trkpt lat="37.079987" lon="-79.610501">
        <ele>247.284924</ele>
        <time>2025-09-05T12:45:33.000Z</time>
      </trkpt>
      <trkpt lat="37.080022" lon="-79.610442">
        <ele>247.474909</ele>
        <time>2025-09-05T12:45:34.000Z</time>
      </trkpt>
      <trkpt lat="37.080057" lon="-79.610269">
        <ele>247.855705</ele>
        <time>2025-09-05T12:45:36.000Z</time>
      </trkpt>
      <trkpt lat="37.080024" lon="-79.609831">
        <ele>248.859218</ele>
        <time>2025-09-05T12:45:40.000Z</time>
      </trkpt>
      <trkpt lat="37.080027" lon="-79.609652">
        <ele>249.274501</ele>
        <time>2025-09-05T12:45:42.000Z</time>
      </trkpt>
      <trkpt lat="37.080101" lon="-79.609438">
        <ele>249.79181</ele>
        <time>2025-09-05T12:45:44.000Z</time>
      </trkpt>
      <trkpt lat="37.080151" lon="-79.609339">
        <ele>250.054357</ele>
        <time>2025-09-05T12:45:45.000Z</time>
      </trkpt>
      <trkpt lat="37.080352" lon="-79.609082">
        <ele>250.907869</ele>
        <time>2025-09-05T12:45:48.000Z</time>
      </trkpt>
      <trkpt lat="37.08093" lon="-79.608521">
        <ele>253.601935</ele>
        <time>2025-09-05T12:45:56.000Z</time>
      </trkpt>
      <trkpt lat="37.081293" lon="-79.608199">
        <ele>255.394121</ele>
        <time>2025-09-05T12:46:01.000Z</time>
      </trkpt>
      <trkpt lat="37.08157" lon="-79.608025">
        <ele>256.64033</ele>
        <time>2025-09-05T12:46:04.000Z</time>
      </trkpt>
      <trkpt lat="37.082137" lon="-79.607799">
        <ele>258.648972</ele>
        <time>2025-09-05T12:46:11.000Z</time>
      </trkpt>
      <trkpt lat="37.08245" lon="-79.607636">
        <ele>258.593253</ele>
        <time>2025-09-05T12:46:15.000Z</time>
      </trkpt>
      <trkpt lat="37.082605" lon="-79.607475">
        <ele>258.557519</ele>
        <time>2025-09-05T12:46:17.000Z</time>
      </trkpt>
      <trkpt lat="37.082805" lon="-79.607152">
        <ele>258.501445</ele>
        <time>2025-09-05T12:46:21.000Z</time>
      </trkpt>
      <trkpt lat="37.082876" lon="-79.606955">
        <ele>258.472764</ele>
        <time>2025-09-05T12:46:23.000Z</time>
      </trkpt>
      <trkpt lat="37.082964" lon="-79.606619">
        <ele>258.425036</ele>
        <time>2025-09-05T12:46:26.000Z</time>
      </trkpt>
      <trkpt lat="37.083119" lon="-79.604703">
        <ele>259.165549</ele>
        <time>2025-09-05T12:46:43.000Z</time>
      </trkpt>
      <trkpt lat="37.083197" lon="-79.60443">
        <ele>259.329977</ele>
        <time>2025-09-05T12:46:46.000Z</time>
      </trkpt>
      <trkpt lat="37.083367" lon="-79.604115">
        <ele>259.544539</ele>
        <time>2025-09-05T12:46:49.000Z</time>
      </trkpt>
      <trkpt lat="37.083609" lon="-79.60382">
        <ele>259.585306</ele>
        <time>2025-09-05T12:46:53.000Z</time>
      </trkpt>
      <trkpt lat="37.083906" lon="-79.603627">
        <ele>259.525868</ele>
        <time>2025-09-05T12:46:57.000Z</time>
      </trkpt>
      <trkpt lat="37.085179" lon="-79.603176">
        <ele>259.361108</ele>
        <time>2025-09-05T12:47:12.000Z</time>
      </trkpt>
      <trkpt lat="37.085434" lon="-79.602969">
        <ele>259.534103</ele>
        <time>2025-09-05T12:47:15.000Z</time>
      </trkpt>
      <trkpt lat="37.085658" lon="-79.602714">
        <ele>259.71173</ele>
        <time>2025-09-05T12:47:18.000Z</time>
      </trkpt>
      <trkpt lat="37.085832" lon="-79.602448">
        <ele>259.865669</ele>
        <time>2025-09-05T12:47:21.000Z</time>
      </trkpt>
      <trkpt lat="37.086003" lon="-79.602022">
        <ele>260.092568</ele>
        <time>2025-09-05T12:47:25.000Z</time>
      </trkpt>
      <trkpt lat="37.086764" lon="-79.599707">
        <ele>263.155769</ele>
        <time>2025-09-05T12:47:47.000Z</time>
      </trkpt>
      <trkpt lat="37.086901" lon="-79.599374">
        <ele>263.74518</ele>
        <time>2025-09-05T12:47:50.000Z</time>
      </trkpt>
      <trkpt lat="37.08697" lon="-79.599252">
        <ele>264.020803</ele>
        <time>2025-09-05T12:47:51.000Z</time>
      </trkpt>
      <trkpt lat="37.08729" lon="-79.598932">
        <ele>265.041243</ele>
        <time>2025-09-05T12:47:56.000Z</time>
      </trkpt>
      <trkpt lat="37.08776" lon="-79.598608">
        <ele>266.37251</ele>
        <time>2025-09-05T12:48:02.000Z</time>
      </trkpt>
      <trkpt lat="37.088268" lon="-79.598219">
        <ele>267.819224</ele>
        <time>2025-09-05T12:48:09.000Z</time>
      </trkpt>
      <trkpt lat="37.088588" lon="-79.597895">
        <ele>269.318909</ele>
        <time>2025-09-05T12:48:14.000Z</time>
      </trkpt>
      <trkpt lat="37.089123" lon="-79.59714">
        <ele>272.487544</ele>
        <time>2025-09-05T12:48:23.000Z</time>
      </trkpt>
      <trkpt lat="37.089555" lon="-79.596364">
        <ele>275.248375</ele>
        <time>2025-09-05T12:48:31.000Z</time>
      </trkpt>
      <trkpt lat="37.089742" lon="-79.596068">
        <ele>275.697144</ele>
        <time>2025-09-05T12:48:34.000Z</time>
      </trkpt>
      <trkpt lat="37.089812" lon="-79.595919">
        <ele>275.899781</ele>
        <time>2025-09-05T12:48:36.000Z</time>
      </trkpt>
      <trkpt lat="37.09018" lon="-79.595301">
        <ele>276.806084</ele>
        <time>2025-09-05T12:48:43.000Z</time>
      </trkpt>
      <trkpt lat="37.091102" lon="-79.59365">
        <ele>277.329495</ele>
        <time>2025-09-05T12:49:01.000Z</time>
      </trkpt>
      <trkpt lat="37.091421" lon="-79.59315">
        <ele>277.071274</ele>
        <time>2025-09-05T12:49:07.000Z</time>
      </trkpt>
      <trkpt lat="37.091516" lon="-79.593433">
        <ele>276.941788</ele>
        <time>2025-09-05T12:49:10.000Z</time>
      </trkpt>
      <trkpt lat="37.092189" lon="-79.59527">
        <ele>273.848674</ele>
        <time>2025-09-05T12:49:28.000Z</time>
      </trkpt>
      <trkpt lat="37.093367" lon="-79.598663">
        <ele>266.471856</ele>
        <time>2025-09-05T12:50:01.000Z</time>
      </trkpt>
      <trkpt lat="37.093986" lon="-79.600377">
        <ele>261.666693</ele>
        <time>2025-09-05T12:50:18.000Z</time>
      </trkpt>
      <trkpt lat="37.094093" lon="-79.600679">
        <ele>260.944141</ele>
        <time>2025-09-05T12:50:21.000Z</time>
      </trkpt>
      <trkpt lat="37.094397" lon="-79.601489">
        <ele>258.873418</ele>
        <time>2025-09-05T12:50:29.000Z</time>
      </trkpt>
      <trkpt lat="37.094622" lon="-79.60189">
        <ele>257.906982</ele>
        <time>2025-09-05T12:50:33.000Z</time>
      </trkpt>
      <trkpt lat="37.094928" lon="-79.602212">
        <ele>257.268097</ele>
        <time>2025-09-05T12:50:37.000Z</time>
      </trkpt>
      <trkpt lat="37.095883" lon="-79.602945">
        <ele>255.510368</ele>
        <time>2025-09-05T12:50:49.000Z</time>
      </trkpt>
      <trkpt lat="37.096061" lon="-79.603128">
        <ele>255.094617</ele>
        <time>2025-09-05T12:50:52.000Z</time>
      </trkpt>
      <trkpt lat="37.096957" lon="-79.604252">
        <ele>252.704742</ele>
        <time>2025-09-05T12:51:06.000Z</time>
      </trkpt>
      <trkpt lat="37.097068" lon="-79.604447">
        <ele>252.362641</ele>
        <time>2025-09-05T12:51:08.000Z</time>
      </trkpt>
      <trkpt lat="37.097227" lon="-79.604784">
        <ele>251.866342</ele>
        <time>2025-09-05T12:51:11.000Z</time>
      </trkpt>
      <trkpt lat="37.097305" lon="-79.605117">
        <ele>251.781677</ele>
        <time>2025-09-05T12:51:14.000Z</time>
      </trkpt>
      <trkpt lat="37.097341" lon="-79.605471">
        <ele>251.692071</ele>
        <time>2025-09-05T12:51:17.000Z</time>
      </trkpt>
      <trkpt lat="37.097208" lon="-79.607931">
        <ele>252.207014</ele>
        <time>2025-09-05T12:51:39.000Z</time>
      </trkpt>
      <trkpt lat="37.097115" lon="-79.608387">
        <ele>252.633921</ele>
        <time>2025-09-05T12:51:43.000Z</time>
      </trkpt>
      <trkpt lat="37.097027" lon="-79.608613">
        <ele>252.855565</ele>
        <time>2025-09-05T12:51:45.000Z</time>
      </trkpt>
      <trkpt lat="37.096863" lon="-79.608855">
        <ele>253.127024</ele>
        <time>2025-09-05T12:51:48.000Z</time>
      </trkpt>
      <trkpt lat="37.096701" lon="-79.609007">
        <ele>253.335938</ele>
        <time>2025-09-05T12:51:50.000Z</time>
      </trkpt>
      <trkpt lat="37.096664" lon="-79.609028">
        <ele>253.359865</ele>
        <time>2025-09-05T12:51:50.000Z</time>
      </trkpt>
      <trkpt lat="37.096407" lon="-79.60923">
        <ele>253.540727</ele>
        <time>2025-09-05T12:51:53.000Z</time>
      </trkpt>
      <trkpt lat="37.09614" lon="-79.609394">
        <ele>253.726253</ele>
        <time>2025-09-05T12:51:56.000Z</time>
      </trkpt>
      <trkpt lat="37.096006" lon="-79.609497">
        <ele>253.822177</ele>
        <time>2025-09-05T12:51:58.000Z</time>
      </trkpt>
      <trkpt lat="37.095786" lon="-79.609869">
        <ele>254.04563</ele>
        <time>2025-09-05T12:52:02.000Z</time>
      </trkpt>
      <trkpt lat="37.095739" lon="-79.609915">
        <ele>254.086643</ele>
        <time>2025-09-05T12:52:03.000Z</time>
      </trkpt>
      <trkpt lat="37.095683" lon="-79.609943">
        <ele>254.125075</ele>
        <time>2025-09-05T12:52:04.000Z</time>
      </trkpt>
      <trkpt lat="37.095631" lon="-79.610055">
        <ele>254.18805</ele>
        <time>2025-09-05T12:52:05.000Z</time>
      </trkpt>
      <trkpt lat="37.095587" lon="-79.610093">
        <ele>254.219582</ele>
        <time>2025-09-05T12:52:06.000Z</time>
      </trkpt>
      <trkpt lat="37.095087" lon="-79.610379">
        <ele>254.360497</ele>
        <time>2025-09-05T12:52:12.000Z</time>
      </trkpt>
      <trkpt lat="37.095087" lon="-79.610372">
        <ele>254.357915</ele>
        <time>2025-09-05T12:52:12.000Z</time>
      </trkpt>
      <trkpt lat="37.095072" lon="-79.610379">
        <ele>254.355352</ele>
        <time>2025-09-05T12:52:12.000Z</time>
      </trkpt>
      <trkpt lat="37.095072" lon="-79.610385">
        <ele>254.354169</ele>
        <time>2025-09-05T12:52:12.000Z</time>
      </trkpt>
      <trkpt lat="37.095063" lon="-79.610382">
        <ele>254.353949</ele>
        <time>2025-09-05T12:52:12.000Z</time>
      </trkpt>
      <trkpt lat="37.095061" lon="-79.610387">
        <ele>254.353474</ele>
        <time>2025-09-05T12:52:12.000Z</time>
      </trkpt>
      <trkpt lat="37.095069" lon="-79.610378">
        <ele>254.352776</ele>
        <time>2025-09-05T12:52:12.000Z</time>
      </trkpt>
      <trkpt lat="37.095062" lon="-79.610376">
        <ele>254.352063</ele>
        <time>2025-09-05T12:52:12.000Z</time>
      </trkpt>
      <trkpt lat="37.095033" lon="-79.610378">
        <ele>254.347401</ele>
        <time>2025-09-05T12:52:12.000Z</time>
      </trkpt>
      <trkpt lat="37.095018" lon="-79.610367">
        <ele>254.339911</ele>
        <time>2025-09-05T12:52:12.000Z</time>
      </trkpt>
      <trkpt lat="37.094964" lon="-79.610345">
        <ele>254.330047</ele>
        <time>2025-09-05T12:52:13.000Z</time>
      </trkpt>
      <trkpt lat="37.094904" lon="-79.610191">
        <ele>254.299265</ele>
        <time>2025-09-05T12:52:15.000Z</time>
      </trkpt>
      <trkpt lat="37.095416" lon="-79.609896">
        <ele>254.169085</ele>
        <time>2025-09-05T12:52:21.000Z</time>
      </trkpt>
      <trkpt lat="37.095413" lon="-79.609882">
        <ele>254.168854</ele>
        <time>2025-09-05T12:52:21.000Z</time>
      </trkpt>
      <trkpt lat="37.095426" lon="-79.609886">
        <ele>254.168244</ele>
        <time>2025-09-05T12:52:21.000Z</time>
      </trkpt>
      <trkpt lat="37.095421" lon="-79.609878">
        <ele>254.165967</ele>
        <time>2025-09-05T12:52:21.000Z</time>
      </trkpt>
      <trkpt lat="37.095435" lon="-79.609872">
        <ele>254.165663</ele>
        <time>2025-09-05T12:52:21.000Z</time>
      </trkpt>
      <trkpt lat="37.095424" lon="-79.609883">
        <ele>254.165433</ele>
        <time>2025-09-05T12:52:21.000Z</time>
      </trkpt>
      <trkpt lat="37.095429" lon="-79.609884">
        <ele>254.164435</ele>
        <time>2025-09-05T12:52:21.000Z</time>
      </trkpt>
      <trkpt lat="37.095439" lon="-79.609884">
        <ele>254.164136</ele>
        <time>2025-09-05T12:52:21.000Z</time>
      </trkpt>
      <trkpt lat="37.095447" lon="-79.609865">
        <ele>254.162854</ele>
        <time>2025-09-05T12:52:21.000Z</time>
      </trkpt>
      <trkpt lat="37.095445" lon="-79.609879">
        <ele>254.161848</ele>
        <time>2025-09-05T12:52:21.000Z</time>
      </trkpt>
      <trkpt lat="37.095479" lon="-79.609851">
        <ele>254.151253</ele>
        <time>2025-09-05T12:52:21.000Z</time>
      </trkpt>
      <trkpt lat="37.095519" lon="-79.609833">
        <ele>254.14223</ele>
        <time>2025-09-05T12:52:21.000Z</time>
      </trkpt>
      <trkpt lat="37.095604" lon="-79.609817">
        <ele>254.123842</ele>
        <time>2025-09-05T12:52:22.000Z</time>
      </trkpt>
      <trkpt lat="37.095616" lon="-79.60977">
        <ele>254.114947</ele>
        <time>2025-09-05T12:52:22.000Z</time>
      </trkpt>
      <trkpt lat="37.095684" lon="-79.609703">
        <ele>254.093291</ele>
        <time>2025-09-05T12:52:23.000Z</time>
      </trkpt>
      <trkpt lat="37.095996" lon="-79.609502">
        <ele>254.009219</ele>
        <time>2025-09-05T12:52:27.000Z</time>
      </trkpt>
      <trkpt lat="37.09614" lon="-79.609408">
        <ele>253.894271</ele>
        <time>2025-09-05T12:52:29.000Z</time>
      </trkpt>
      <trkpt lat="37.096405" lon="-79.609226">
        <ele>253.569973</ele>
        <time>2025-09-05T12:52:32.000Z</time>
      </trkpt>
      <trkpt lat="37.096663" lon="-79.609041">
        <ele>253.253782</ele>
        <time>2025-09-05T12:52:35.000Z</time>
      </trkpt>
      <trkpt lat="37.096701" lon="-79.609005">
        <ele>253.211981</ele>
        <time>2025-09-05T12:52:36.000Z</time>
      </trkpt>
      <trkpt lat="37.096862" lon="-79.608866">
        <ele>252.99899</ele>
        <time>2025-09-05T12:52:38.000Z</time>
      </trkpt>
      <trkpt lat="37.09703" lon="-79.608614">
        <ele>252.737602</ele>
        <time>2025-09-05T12:52:41.000Z</time>
      </trkpt>
      <trkpt lat="37.097109" lon="-79.608385">
        <ele>252.524176</ele>
        <time>2025-09-05T12:52:43.000Z</time>
      </trkpt>
      <trkpt lat="37.097214" lon="-79.607915">
        <ele>252.113101</ele>
        <time>2025-09-05T12:52:47.000Z</time>
      </trkpt>
      <trkpt lat="37.097348" lon="-79.605478">
        <ele>251.233062</ele>
        <time>2025-09-05T12:53:09.000Z</time>
      </trkpt>
      <trkpt lat="37.097313" lon="-79.605108">
        <ele>251.716181</ele>
        <time>2025-09-05T12:53:12.000Z</time>
      </trkpt>
      <trkpt lat="37.097235" lon="-79.604773">
        <ele>252.17266</ele>
        <time>2025-09-05T12:53:15.000Z</time>
      </trkpt>
      <trkpt lat="37.097072" lon="-79.604435">
        <ele>252.681437</ele>
        <time>2025-09-05T12:53:19.000Z</time>
      </trkpt>
      <trkpt lat="37.096958" lon="-79.604259">
        <ele>252.977728</ele>
        <time>2025-09-05T12:53:21.000Z</time>
      </trkpt>
      <trkpt lat="37.09606" lon="-79.603129">
        <ele>255.057207</ele>
        <time>2025-09-05T12:53:35.000Z</time>
      </trkpt>
      <trkpt lat="37.095878" lon="-79.602935">
        <ele>255.459108</ele>
        <time>2025-09-05T12:53:38.000Z</time>
      </trkpt>
      <trkpt lat="37.09493" lon="-79.602219">
        <ele>257.357684</ele>
        <time>2025-09-05T12:53:50.000Z</time>
      </trkpt>
      <trkpt lat="37.094625" lon="-79.6019">
        <ele>258.158563</ele>
        <time>2025-09-05T12:53:54.000Z</time>
      </trkpt>
      <trkpt lat="37.094386" lon="-79.601488">
        <ele>258.950314</ele>
        <time>2025-09-05T12:53:59.000Z</time>
      </trkpt>
      <trkpt lat="37.094103" lon="-79.600672">
        <ele>260.377194</ele>
        <time>2025-09-05T12:54:07.000Z</time>
      </trkpt>
      <trkpt lat="37.094003" lon="-79.600378">
        <ele>261.2121</ele>
        <time>2025-09-05T12:54:10.000Z</time>
      </trkpt>
      <trkpt lat="37.093367" lon="-79.598669">
        <ele>266.924477</ele>
        <time>2025-09-05T12:54:27.000Z</time>
      </trkpt>
      <trkpt lat="37.092194" lon="-79.595279">
        <ele>273.873416</ele>
        <time>2025-09-05T12:55:00.000Z</time>
      </trkpt>
      <trkpt lat="37.091517" lon="-79.593435">
        <ele>276.601748</ele>
        <time>2025-09-05T12:55:18.000Z</time>
      </trkpt>
      <trkpt lat="37.09141" lon="-79.593153">
        <ele>276.932335</ele>
        <time>2025-09-05T12:55:21.000Z</time>
      </trkpt>
      <trkpt lat="37.091097" lon="-79.593639">
        <ele>277.591479</ele>
        <time>2025-09-05T12:55:27.000Z</time>
      </trkpt>
      <trkpt lat="37.090167" lon="-79.595291">
        <ele>277.112601</ele>
        <time>2025-09-05T12:55:45.000Z</time>
      </trkpt>
      <trkpt lat="37.089814" lon="-79.595928">
        <ele>276.13207</ele>
        <time>2025-09-05T12:55:52.000Z</time>
      </trkpt>
      <trkpt lat="37.089736" lon="-79.596068">
        <ele>275.694664</ele>
        <time>2025-09-05T12:55:54.000Z</time>
      </trkpt>
      <trkpt lat="37.089558" lon="-79.596374">
        <ele>274.725982</ele>
        <time>2025-09-05T12:55:57.000Z</time>
      </trkpt>
      <trkpt lat="37.089122" lon="-79.597125">
        <ele>272.341223</ele>
        <time>2025-09-05T12:56:05.000Z</time>
      </trkpt>
      <trkpt lat="37.088596" lon="-79.597878">
        <ele>269.671102</ele>
        <time>2025-09-05T12:56:14.000Z</time>
      </trkpt>
      <trkpt lat="37.088273" lon="-79.59822">
        <ele>268.245361</ele>
        <time>2025-09-05T12:56:19.000Z</time>
      </trkpt>
      <trkpt lat="37.087764" lon="-79.5986">
        <ele>266.230231</ele>
        <time>2025-09-05T12:56:26.000Z</time>
      </trkpt>
      <trkpt lat="37.087301" lon="-79.598928">
        <ele>264.685201</ele>
        <time>2025-09-05T12:56:32.000Z</time>
      </trkpt>
      <trkpt lat="37.086963" lon="-79.599255">
        <ele>263.93481</ele>
        <time>2025-09-05T12:56:37.000Z</time>
      </trkpt>
      <trkpt lat="37.086899" lon="-79.599365">
        <ele>263.732131</ele>
        <time>2025-09-05T12:56:38.000Z</time>
      </trkpt>
      <trkpt lat="37.086752" lon="-79.599706">
        <ele>263.176079</ele>
        <time>2025-09-05T12:56:41.000Z</time>
      </trkpt>
      <trkpt lat="37.086003" lon="-79.602025">
        <ele>260.074514</ele>
        <time>2025-09-05T12:57:03.000Z</time>
      </trkpt>
      <trkpt lat="37.085822" lon="-79.602441">
        <ele>259.524699</ele>
        <time>2025-09-05T12:57:07.000Z</time>
      </trkpt>
      <trkpt lat="37.085668" lon="-79.602712">
        <ele>259.272472</ele>
        <time>2025-09-05T12:57:10.000Z</time>
      </trkpt>
      <trkpt lat="37.085442" lon="-79.602974">
        <ele>259.356319</ele>
        <time>2025-09-05T12:57:13.000Z</time>
      </trkpt>
      <trkpt lat="37.085178" lon="-79.603172">
        <ele>259.437966</ele>
        <time>2025-09-05T12:57:16.000Z</time>
      </trkpt>
      <trkpt lat="37.083915" lon="-79.603643">
        <ele>259.642678</ele>
        <time>2025-09-05T12:57:31.000Z</time>
      </trkpt>
      <trkpt lat="37.083617" lon="-79.60382">
        <ele>259.468144</ele>
        <time>2025-09-05T12:57:35.000Z</time>
      </trkpt>
      <trkpt lat="37.083373" lon="-79.604104">
        <ele>259.299992</ele>
        <time>2025-09-05T12:57:39.000Z</time>
      </trkpt>
      <trkpt lat="37.083195" lon="-79.604418">
        <ele>259.144153</ele>
        <time>2025-09-05T12:57:42.000Z</time>
      </trkpt>
      <trkpt lat="37.083107" lon="-79.604707">
        <ele>259.024728</ele>
        <time>2025-09-05T12:57:45.000Z</time>
      </trkpt>
      <trkpt lat="37.082961" lon="-79.606606">
        <ele>258.761905</ele>
        <time>2025-09-05T12:58:02.000Z</time>
      </trkpt>
      <trkpt lat="37.082882" lon="-79.606953">
        <ele>258.745476</ele>
        <time>2025-09-05T12:58:05.000Z</time>
      </trkpt>
      <trkpt lat="37.082819" lon="-79.607147">
        <ele>258.73562</ele>
        <time>2025-09-05T12:58:07.000Z</time>
      </trkpt>
      <trkpt lat="37.082608" lon="-79.607478">
        <ele>258.479778</ele>
        <time>2025-09-05T12:58:11.000Z</time>
      </trkpt>
      <trkpt lat="37.08245" lon="-79.607641">
        <ele>258.08753</ele>
        <time>2025-09-05T12:58:13.000Z</time>
      </trkpt>
      <trkpt lat="37.08215" lon="-79.607807">
        <ele>257.475881</ele>
        <time>2025-09-05T12:58:17.000Z</time>
      </trkpt>
      <trkpt lat="37.081577" lon="-79.608023">
        <ele>256.37411</ele>
        <time>2025-09-05T12:58:24.000Z</time>
      </trkpt>
      <trkpt lat="37.081304" lon="-79.608208">
        <ele>255.797721</ele>
        <time>2025-09-05T12:58:27.000Z</time>
      </trkpt>
      <trkpt lat="37.080926" lon="-79.608512">
        <ele>254.405272</ele>
        <time>2025-09-05T12:58:32.000Z</time>
      </trkpt>
      <trkpt lat="37.080353" lon="-79.609076">
        <ele>251.244679</ele>
        <time>2025-09-05T12:58:40.000Z</time>
      </trkpt>
      <trkpt lat="37.080141" lon="-79.609343">
        <ele>249.943741</ele>
        <time>2025-09-05T12:58:43.000Z</time>
      </trkpt>
      <trkpt lat="37.080102" lon="-79.609433">
        <ele>249.543531</ele>
        <time>2025-09-05T12:58:44.000Z</time>
      </trkpt>
      <trkpt lat="37.080034" lon="-79.609663">
        <ele>248.755027</ele>
        <time>2025-09-05T12:58:46.000Z</time>
      </trkpt>
      <trkpt lat="37.080026" lon="-79.609843">
        <ele>248.122027</ele>
        <time>2025-09-05T12:58:48.000Z</time>
      </trkpt>
      <trkpt lat="37.080055" lon="-79.610266">
        <ele>247.391995</ele>
        <time>2025-09-05T12:58:52.000Z</time>
      </trkpt>
      <trkpt lat="37.080029" lon="-79.610445">
        <ele>247.288702</ele>
        <time>2025-09-05T12:58:54.000Z</time>
      </trkpt>
      <trkpt lat="37.079996" lon="-79.610503">
        <ele>247.237172</ele>
        <time>2025-09-05T12:58:55.000Z</time>
      </trkpt>
      <trkpt lat="37.079734" lon="-79.610777">
        <ele>246.981165</ele>
        <time>2025-09-05T12:58:59.000Z</time>
      </trkpt>
      <trkpt lat="37.079653" lon="-79.610889">
        <ele>246.877281</ele>
        <time>2025-09-05T12:59:00.000Z</time>
      </trkpt>
      <trkpt lat="37.079541" lon="-79.611187">
        <ele>246.674542</ele>
        <time>2025-09-05T12:59:03.000Z</time>
      </trkpt>
      <trkpt lat="37.079461" lon="-79.611529">
        <ele>246.457114</ele>
        <time>2025-09-05T12:59:06.000Z</time>
      </trkpt>
      <trkpt lat="37.07936" lon="-79.611694">
        <ele>246.334884</ele>
        <time>2025-09-05T12:59:08.000Z</time>
      </trkpt>
      <trkpt lat="37.079174" lon="-79.611858">
        <ele>246.201395</ele>
        <time>2025-09-05T12:59:11.000Z</time>
      </trkpt>
      <trkpt lat="37.078773" lon="-79.611983">
        <ele>246.786622</ele>
        <time>2025-09-05T12:59:16.000Z</time>
      </trkpt>
      <trkpt lat="37.078654" lon="-79.612049">
        <ele>246.974195</ele>
        <time>2025-09-05T12:59:17.000Z</time>
      </trkpt>
      <trkpt lat="37.078589" lon="-79.612147">
        <ele>247.124034</ele>
        <time>2025-09-05T12:59:18.000Z</time>
      </trkpt>
      <trkpt lat="37.078525" lon="-79.61226">
        <ele>247.272815</ele>
        <time>2025-09-05T12:59:19.000Z</time>
      </trkpt>
      <trkpt lat="37.078473" lon="-79.612426">
        <ele>247.493957</ele>
        <time>2025-09-05T12:59:21.000Z</time>
      </trkpt>
      <trkpt lat="37.078476" lon="-79.612619">
        <ele>247.716141</ele>
        <time>2025-09-05T12:59:23.000Z</time>
      </trkpt>
      <trkpt lat="37.078578" lon="-79.613026">
        <ele>248.202437</ele>
        <time>2025-09-05T12:59:27.000Z</time>
      </trkpt>
      <trkpt lat="37.078697" lon="-79.613358">
        <ele>248.616821</ele>
        <time>2025-09-05T12:59:30.000Z</time>
      </trkpt>
      <trkpt lat="37.078826" lon="-79.613712">
        <ele>248.81272</ele>
        <time>2025-09-05T12:59:33.000Z</time>
      </trkpt>
      <trkpt lat="37.079075" lon="-79.614116">
        <ele>248.902278</ele>
        <time>2025-09-05T12:59:38.000Z</time>
      </trkpt>
      <trkpt lat="37.079211" lon="-79.614449">
        <ele>248.969529</ele>
        <time>2025-09-05T12:59:41.000Z</time>
      </trkpt>
      <trkpt lat="37.079287" lon="-79.614828">
        <ele>249.035809</ele>
        <time>2025-09-05T12:59:44.000Z</time>
      </trkpt>
      <trkpt lat="37.079297" lon="-79.615066">
        <ele>249.079336</ele>
        <time>2025-09-05T12:59:46.000Z</time>
      </trkpt>
      <trkpt lat="37.079292" lon="-79.615234">
        <ele>249.108771</ele>
        <time>2025-09-05T12:59:47.000Z</time>
      </trkpt>
      <trkpt lat="37.079279" lon="-79.615291">
        <ele>249.117421</ele>
        <time>2025-09-05T12:59:48.000Z</time>
      </trkpt>
      <trkpt lat="37.07928" lon="-79.615297">
        <ele>249.119617</ele>
        <time>2025-09-05T12:59:48.000Z</time>
      </trkpt>
      <trkpt lat="37.079268" lon="-79.61531">
        <ele>249.12092</ele>
        <time>2025-09-05T12:59:48.000Z</time>
      </trkpt>
      <trkpt lat="37.079283" lon="-79.615316">
        <ele>249.12216</ele>
        <time>2025-09-05T12:59:48.000Z</time>
      </trkpt>
      <trkpt lat="37.079281" lon="-79.615319">
        <ele>249.122442</ele>
        <time>2025-09-05T12:59:48.000Z</time>
      </trkpt>
      <trkpt lat="37.079273" lon="-79.615314">
        <ele>249.123022</ele>
        <time>2025-09-05T12:59:48.000Z</time>
      </trkpt>
      <trkpt lat="37.079271" lon="-79.615313">
        <ele>249.123755</ele>
        <time>2025-09-05T12:59:48.000Z</time>
      </trkpt>
      <trkpt lat="37.07928" lon="-79.615327">
        <ele>249.124276</ele>
        <time>2025-09-05T12:59:48.000Z</time>
      </trkpt>
      <trkpt lat="37.079247" lon="-79.615397">
        <ele>249.137904</ele>
        <time>2025-09-05T12:59:49.000Z</time>
      </trkpt>
      <trkpt lat="37.079176" lon="-79.615497">
        <ele>249.161187</ele>
        <time>2025-09-05T12:59:50.000Z</time>
      </trkpt>
      <trkpt lat="37.079104" lon="-79.615581">
        <ele>249.118901</ele>
        <time>2025-09-05T12:59:51.000Z</time>
      </trkpt>
      <trkpt lat="37.079031" lon="-79.615601">
        <ele>249.088115</ele>
        <time>2025-09-05T12:59:52.000Z</time>
      </trkpt>
      <trkpt lat="37.078911" lon="-79.61558">
        <ele>249.033057</ele>
        <time>2025-09-05T12:59:53.000Z</time>
      </trkpt>
      <trkpt lat="37.07881" lon="-79.615459">
        <ele>248.972336</ele>
        <time>2025-09-05T12:59:55.000Z</time>
      </trkpt>
      <trkpt lat="37.078757" lon="-79.615309">
        <ele>248.908449</ele>
        <time>2025-09-05T12:59:56.000Z</time>
      </trkpt>
      <trkpt lat="37.078758" lon="-79.615279">
        <ele>248.897047</ele>
        <time>2025-09-05T12:59:56.000Z</time>
      </trkpt>
      <trkpt lat="37.078759" lon="-79.615275">
        <ele>248.891541</ele>
        <time>2025-09-05T12:59:56.000Z</time>
      </trkpt>
      <trkpt lat="37.078752" lon="-79.615265">
        <ele>248.889329</ele>
        <time>2025-09-05T12:59:56.000Z</time>
      </trkpt>
      <trkpt lat="37.078744" lon="-79.615254">
        <ele>248.887484</ele>
        <time>2025-09-05T12:59:56.000Z</time>
      </trkpt>
      <trkpt lat="37.078746" lon="-79.615257">
        <ele>248.885649</ele>
        <time>2025-09-05T12:59:56.000Z</time>
      </trkpt>
      <trkpt lat="37.078742" lon="-79.615244">
        <ele>248.884916</ele>
        <time>2025-09-05T12:59:56.000Z</time>
      </trkpt>
      <trkpt lat="37.078747" lon="-79.615236">
        <ele>248.882337</ele>
        <time>2025-09-05T12:59:56.000Z</time>
      </trkpt>
      <trkpt lat="37.078755" lon="-79.615245">
        <ele>248.880873</ele>
        <time>2025-09-05T12:59:56.000Z</time>
      </trkpt>
      <trkpt lat="37.078755" lon="-79.615029">
        <ele>248.801447</ele>
        <time>2025-09-05T12:59:58.000Z</time>
      </trkpt>
      <trkpt lat="37.078811" lon="-79.614158">
        <ele>248.485821</ele>
        <time>2025-09-05T13:00:06.000Z</time>
      </trkpt>
      <trkpt lat="37.078826" lon="-79.61371">
        <ele>248.295142</ele>
        <time>2025-09-05T13:00:10.000Z</time>
      </trkpt>
      <trkpt lat="37.078695" lon="-79.613358">
        <ele>247.959971</ele>
        <time>2025-09-05T13:00:13.000Z</time>
      </trkpt>
      <trkpt lat="37.078588" lon="-79.613039">
        <ele>247.646324</ele>
        <time>2025-09-05T13:00:16.000Z</time>
      </trkpt>
      <trkpt lat="37.078471" lon="-79.612621">
        <ele>247.278204</ele>
        <time>2025-09-05T13:00:20.000Z</time>
      </trkpt>
      <trkpt lat="37.078487" lon="-79.612433">
        <ele>247.110019</ele>
        <time>2025-09-05T13:00:22.000Z</time>
      </trkpt>
      <trkpt lat="37.078527" lon="-79.61226">
        <ele>246.942632</ele>
        <time>2025-09-05T13:00:24.000Z</time>
      </trkpt>
      <trkpt lat="37.078594" lon="-79.612153">
        <ele>246.83001</ele>
        <time>2025-09-05T13:00:25.000Z</time>
      </trkpt>
      <trkpt lat="37.078661" lon="-79.612058">
        <ele>246.716601</ele>
        <time>2025-09-05T13:00:26.000Z</time>
      </trkpt>
      <trkpt lat="37.07877" lon="-79.61199">
        <ele>246.574609</ele>
        <time>2025-09-05T13:00:27.000Z</time>
      </trkpt>
      <trkpt lat="37.079164" lon="-79.611842">
        <ele>246.452478</ele>
        <time>2025-09-05T13:00:32.000Z</time>
      </trkpt>
      <trkpt lat="37.079362" lon="-79.611693">
        <ele>246.539496</ele>
        <time>2025-09-05T13:00:35.000Z</time>
      </trkpt>
      <trkpt lat="37.079459" lon="-79.611529">
        <ele>246.599518</ele>
        <time>2025-09-05T13:00:37.000Z</time>
      </trkpt>
      <trkpt lat="37.079541" lon="-79.611191">
        <ele>246.706297</ele>
        <time>2025-09-05T13:00:40.000Z</time>
      </trkpt>
      <trkpt lat="37.079649" lon="-79.610893">
        <ele>246.805866</ele>
        <time>2025-09-05T13:00:43.000Z</time>
      </trkpt>
      <trkpt lat="37.079743" lon="-79.610773">
        <ele>246.856875</ele>
        <time>2025-09-05T13:00:44.000Z</time>
      </trkpt>
      <trkpt lat="37.079992" lon="-79.610514">
        <ele>246.982597</ele>
        <time>2025-09-05T13:00:48.000Z</time>
      </trkpt>
      <trkpt lat="37.080021" lon="-79.610432">
        <ele>247.007888</ele>
        <time>2025-09-05T13:00:49.000Z</time>
      </trkpt>
      <trkpt lat="37.080061" lon="-79.610282">
        <ele>247.108857</ele>
        <time>2025-09-05T13:00:50.000Z</time>
      </trkpt>
      <trkpt lat="37.080032" lon="-79.609829">
        <ele>248.505108</ele>
        <time>2025-09-05T13:00:54.000Z</time>
      </trkpt>
      <trkpt lat="37.080033" lon="-79.609649">
        <ele>249.082942</ele>
        <time>2025-09-05T13:00:56.000Z</time>
      </trkpt>
      <trkpt lat="37.080101" lon="-79.60944">
        <ele>249.802708</ele>
        <time>2025-09-05T13:00:58.000Z</time>
      </trkpt>
      <trkpt lat="37.080138" lon="-79.609348">
        <ele>250.168019</ele>
        <time>2025-09-05T13:00:59.000Z</time>
      </trkpt>
      <trkpt lat="37.080353" lon="-79.609079">
        <ele>251.355578</ele>
        <time>2025-09-05T13:01:02.000Z</time>
      </trkpt>
      <trkpt lat="37.080931" lon="-79.608518">
        <ele>254.2243</ele>
        <time>2025-09-05T13:01:10.000Z</time>
      </trkpt>
      <trkpt lat="37.081302" lon="-79.608199">
        <ele>255.374749</ele>
        <time>2025-09-05T13:01:15.000Z</time>
      </trkpt>
      <trkpt lat="37.081572" lon="-79.608016">
        <ele>256.174738</ele>
        <time>2025-09-05T13:01:18.000Z</time>
      </trkpt>
      <trkpt lat="37.082139" lon="-79.607795">
        <ele>257.703917</ele>
        <time>2025-09-05T13:01:25.000Z</time>
      </trkpt>
      <trkpt lat="37.082445" lon="-79.607639">
        <ele>258.552821</ele>
        <time>2025-09-05T13:01:29.000Z</time>
      </trkpt>
      <trkpt lat="37.082604" lon="-79.607476">
        <ele>258.812538</ele>
        <time>2025-09-05T13:01:31.000Z</time>
      </trkpt>
      <trkpt lat="37.082816" lon="-79.607143">
        <ele>258.775305</ele>
        <time>2025-09-05T13:01:35.000Z</time>
      </trkpt>
      <trkpt lat="37.082879" lon="-79.606942">
        <ele>258.756269</ele>
        <time>2025-09-05T13:01:37.000Z</time>
      </trkpt>
      <trkpt lat="37.082972" lon="-79.606612">
        <ele>258.724564</ele>
        <time>2025-09-05T13:01:40.000Z</time>
      </trkpt>
      <trkpt lat="37.083106" lon="-79.60471">
        <ele>259.01822</ele>
        <time>2025-09-05T13:01:57.000Z</time>
      </trkpt>
      <trkpt lat="37.083201" lon="-79.604435">
        <ele>259.167068</ele>
        <time>2025-09-05T13:02:00.000Z</time>
      </trkpt>
      <trkpt lat="37.083365" lon="-79.604108">
        <ele>259.361301</ele>
        <time>2025-09-05T13:02:03.000Z</time>
      </trkpt>
      <trkpt lat="37.083614" lon="-79.603822">
        <ele>259.570855</ele>
        <time>2025-09-05T13:02:07.000Z</time>
      </trkpt>
      <trkpt lat="37.083917" lon="-79.603626">
        <ele>259.754849</ele>
        <time>2025-09-05T13:02:11.000Z</time>
      </trkpt>
      <trkpt lat="37.085189" lon="-79.603161">
        <ele>259.339785</ele>
        <time>2025-09-05T13:02:26.000Z</time>
      </trkpt>
      <trkpt lat="37.085447" lon="-79.602965">
        <ele>259.246519</ele>
        <time>2025-09-05T13:02:29.000Z</time>
      </trkpt>
      <trkpt lat="37.085669" lon="-79.602711">
        <ele>259.397727</ele>
        <time>2025-09-05T13:02:32.000Z</time>
      </trkpt>
      <trkpt lat="37.085821" lon="-79.602445">
        <ele>259.709611</ele>
        <time>2025-09-05T13:02:35.000Z</time>
      </trkpt>
      <trkpt lat="37.086009" lon="-79.602025">
        <ele>260.16928</ele>
        <time>2025-09-05T13:02:39.000Z</time>
      </trkpt>
      <trkpt lat="37.086769" lon="-79.599706">
        <ele>263.135588</ele>
        <time>2025-09-05T13:03:01.000Z</time>
      </trkpt>
      <trkpt lat="37.086897" lon="-79.59937">
        <ele>263.690323</ele>
        <time>2025-09-05T13:03:04.000Z</time>
      </trkpt>
      <trkpt lat="37.086968" lon="-79.599259">
        <ele>263.892541</ele>
        <time>2025-09-05T13:03:05.000Z</time>
      </trkpt>
      <trkpt lat="37.087301" lon="-79.598923">
        <ele>264.702099</ele>
        <time>2025-09-05T13:03:10.000Z</time>
      </trkpt>
      <trkpt lat="37.08777" lon="-79.598599">
        <ele>266.396868</ele>
        <time>2025-09-05T13:03:16.000Z</time>
      </trkpt>
      <trkpt lat="37.088265" lon="-79.598218">
        <ele>268.238619</ele>
        <time>2025-09-05T13:03:22.000Z</time>
      </trkpt>
      <trkpt lat="37.088596" lon="-79.597889">
        <ele>269.541692</ele>
        <time>2025-09-05T13:03:27.000Z</time>
      </trkpt>
      <trkpt lat="37.089122" lon="-79.597131">
        <ele>272.287944</ele>
        <time>2025-09-05T13:03:36.000Z</time>
      </trkpt>
      <trkpt lat="37.089557" lon="-79.596382">
        <ele>274.906813</ele>
        <time>2025-09-05T13:03:44.000Z</time>
      </trkpt>
      <trkpt lat="37.089749" lon="-79.596068">
        <ele>275.970623</ele>
        <time>2025-09-05T13:03:48.000Z</time>
      </trkpt>
      <trkpt lat="37.089822" lon="-79.59593">
        <ele>276.450947</ele>
        <time>2025-09-05T13:03:49.000Z</time>
      </trkpt>
      <trkpt lat="37.090175" lon="-79.595294">
        <ele>276.950707</ele>
        <time>2025-09-05T13:03:56.000Z</time>
      </trkpt>
      <trkpt lat="37.091107" lon="-79.593643">
        <ele>277.423066</ele>
        <time>2025-09-05T13:04:14.000Z</time>
      </trkpt>
      <trkpt lat="37.09142" lon="-79.593139">
        <ele>276.888838</ele>
        <time>2025-09-05T13:04:20.000Z</time>
      </trkpt>
      <trkpt lat="37.091519" lon="-79.593433">
        <ele>276.62092</ele>
        <time>2025-09-05T13:04:23.000Z</time>
      </trkpt>
      <trkpt lat="37.09218" lon="-79.595282">
        <ele>273.864473</ele>
        <time>2025-09-05T13:04:41.000Z</time>
      </trkpt>
      <trkpt lat="37.093365" lon="-79.598667">
        <ele>266.764055</ele>
        <time>2025-09-05T13:05:14.000Z</time>
      </trkpt>
      <trkpt lat="37.094003" lon="-79.600388">
        <ele>261.184897</ele>
        <time>2025-09-05T13:05:31.000Z</time>
      </trkpt>
      <trkpt lat="37.094101" lon="-79.600667">
        <ele>260.626976</ele>
        <time>2025-09-05T13:05:34.000Z</time>
      </trkpt>
      <trkpt lat="37.094389" lon="-79.60148">
        <ele>259.028074</ele>
        <time>2025-09-05T13:05:42.000Z</time>
      </trkpt>
      <trkpt lat="37.094614" lon="-79.601886">
        <ele>258.140883</ele>
        <time>2025-09-05T13:05:46.000Z</time>
      </trkpt>
      <trkpt lat="37.094935" lon="-79.602219">
        <ele>257.254691</ele>
        <time>2025-09-05T13:05:51.000Z</time>
      </trkpt>
      <trkpt lat="37.095876" lon="-79.60293">
        <ele>255.473424</ele>
        <time>2025-09-05T13:06:03.000Z</time>
      </trkpt>
      <trkpt lat="37.096061" lon="-79.603124">
        <ele>255.080766</ele>
        <time>2025-09-05T13:06:06.000Z</time>
      </trkpt>
      <trkpt lat="37.096954" lon="-79.604252">
        <ele>252.897497</ele>
        <time>2025-09-05T13:06:20.000Z</time>
      </trkpt>
      <trkpt lat="37.097072" lon="-79.604446">
        <ele>252.574478</ele>
        <time>2025-09-05T13:06:22.000Z</time>
      </trkpt>
      <trkpt lat="37.097224" lon="-79.604773">
        <ele>252.019787</ele>
        <time>2025-09-05T13:06:25.000Z</time>
      </trkpt>
      <trkpt lat="37.097321" lon="-79.605118">
        <ele>251.522121</ele>
        <time>2025-09-05T13:06:28.000Z</time>
      </trkpt>
      <trkpt lat="37.097347" lon="-79.605486">
        <ele>251.227212</ele>
        <time>2025-09-05T13:06:31.000Z</time>
      </trkpt>
      <trkpt lat="37.09721" lon="-79.607921">
        <ele>252.116966</ele>
        <time>2025-09-05T13:06:53.000Z</time>
      </trkpt>
      <trkpt lat="37.097114" lon="-79.608383">
        <ele>252.541898</ele>
        <time>2025-09-05T13:06:57.000Z</time>
      </trkpt>
      <trkpt lat="37.097023" lon="-79.608628">
        <ele>252.762504</ele>
        <time>2025-09-05T13:06:59.000Z</time>
      </trkpt>
      <trkpt lat="37.096865" lon="-79.608866">
        <ele>253.032674</ele>
        <time>2025-09-05T13:07:02.000Z</time>
      </trkpt>
      <trkpt lat="37.096698" lon="-79.609">
        <ele>253.252833</ele>
        <time>2025-09-05T13:07:04.000Z</time>
      </trkpt>
      <trkpt lat="37.096679" lon="-79.609041">
        <ele>253.296051</ele>
        <time>2025-09-05T13:07:04.000Z</time>
      </trkpt>
      <trkpt lat="37.096417" lon="-79.609215">
        <ele>253.622865</ele>
        <time>2025-09-05T13:07:07.000Z</time>
      </trkpt>
      <trkpt lat="37.096153" lon="-79.609408">
        <ele>253.853467</ele>
        <time>2025-09-05T13:07:10.000Z</time>
      </trkpt>
      <trkpt lat="37.096008" lon="-79.609498">
        <ele>253.911342</ele>
        <time>2025-09-05T13:07:12.000Z</time>
      </trkpt>
      <trkpt lat="37.095796" lon="-79.609858">
        <ele>254.046157</ele>
        <time>2025-09-05T13:07:16.000Z</time>
      </trkpt>
      <trkpt lat="37.095739" lon="-79.609929">
        <ele>254.07091</ele>
        <time>2025-09-05T13:07:17.000Z</time>
      </trkpt>
      <trkpt lat="37.095678" lon="-79.609937">
        <ele>254.094089</ele>
        <time>2025-09-05T13:07:18.000Z</time>
      </trkpt>
      <trkpt lat="37.095634" lon="-79.610061">
        <ele>254.132082</ele>
        <time>2025-09-05T13:07:19.000Z</time>
      </trkpt>
      <trkpt lat="37.095578" lon="-79.610101">
        <ele>254.151098</ele>
        <time>2025-09-05T13:07:20.000Z</time>
      </trkpt>
      <trkpt lat="37.095091" lon="-79.610364">
        <ele>254.349469</ele>
        <time>2025-09-05T13:07:26.000Z</time>
      </trkpt>
      <trkpt lat="37.095089" lon="-79.610385">
        <ele>254.353542</ele>
        <time>2025-09-05T13:07:26.000Z</time>
      </trkpt>
      <trkpt lat="37.095072" lon="-79.610383">
        <ele>254.357574</ele>
        <time>2025-09-05T13:07:26.000Z</time>
      </trkpt>
      <trkpt lat="37.095074" lon="-79.610377">
        <ele>254.359428</ele>
        <time>2025-09-05T13:07:26.000Z</time>
      </trkpt>
      <trkpt lat="37.095056" lon="-79.610374">
        <ele>254.359787</ele>
        <time>2025-09-05T13:07:26.000Z</time>
      </trkpt>
      <trkpt lat="37.095064" lon="-79.610385">
        <ele>254.360529</ele>
        <time>2025-09-05T13:07:26.000Z</time>
      </trkpt>
      <trkpt lat="37.095066" lon="-79.610373">
        <ele>254.361628</ele>
        <time>2025-09-05T13:07:26.000Z</time>
      </trkpt>
      <trkpt lat="37.095059" lon="-79.61038">
        <ele>254.362768</ele>
        <time>2025-09-05T13:07:26.000Z</time>
      </trkpt>
      <trkpt lat="37.095032" lon="-79.610378">
        <ele>254.370103</ele>
        <time>2025-09-05T13:07:26.000Z</time>
      </trkpt>
      <trkpt lat="37.095013" lon="-79.610371">
        <ele>254.381902</ele>
        <time>2025-09-05T13:07:26.000Z</time>
      </trkpt>
      <trkpt lat="37.094967" lon="-79.610346">
        <ele>254.397442</ele>
        <time>2025-09-05T13:07:27.000Z</time>
      </trkpt>
      <trkpt lat="37.094904" lon="-79.610183">
        <ele>254.445937</ele>
        <time>2025-09-05T13:07:29.000Z</time>
      </trkpt>
      <trkpt lat="37.095417" lon="-79.609887">
        <ele>254.201405</ele>
        <time>2025-09-05T13:07:35.000Z</time>
      </trkpt>
      <trkpt lat="37.095415" lon="-79.609886">
        <ele>254.200919</ele>
        <time>2025-09-05T13:07:35.000Z</time>
      </trkpt>
      <trkpt lat="37.095422" lon="-79.609883">
        <ele>254.199653</ele>
        <time>2025-09-05T13:07:35.000Z</time>
      </trkpt>
      <trkpt lat="37.095422" lon="-79.609872">
        <ele>254.194789</ele>
        <time>2025-09-05T13:07:35.000Z</time>
      </trkpt>
      <trkpt lat="37.095432" lon="-79.609885">
        <ele>254.194151</ele>
        <time>2025-09-05T13:07:35.000Z</time>
      </trkpt>
      <trkpt lat="37.095433" lon="-79.609877">
        <ele>254.193654</ele>
        <time>2025-09-05T13:07:35.000Z</time>
      </trkpt>
      <trkpt lat="37.095432" lon="-79.609873">
        <ele>254.191524</ele>
        <time>2025-09-05T13:07:35.000Z</time>
      </trkpt>
      <trkpt lat="37.095432" lon="-79.609886">
        <ele>254.190902</ele>
        <time>2025-09-05T13:07:35.000Z</time>
      </trkpt>
      <trkpt lat="37.095448" lon="-79.60987">
        <ele>254.18816</ele>
        <time>2025-09-05T13:07:35.000Z</time>
      </trkpt>
      <trkpt lat="37.095448" lon="-79.609877">
        <ele>254.18603</ele>
        <time>2025-09-05T13:07:35.000Z</time>
      </trkpt>
      <trkpt lat="37.095489" lon="-79.60985">
        <ele>254.163512</ele>
        <time>2025-09-05T13:07:36.000Z</time>
      </trkpt>
      <trkpt lat="37.095528" lon="-79.609822">
        <ele>254.144336</ele>
        <time>2025-09-05T13:07:36.000Z</time>
      </trkpt>
      <trkpt lat="37.095604" lon="-79.609823">
        <ele>254.10528</ele>
        <time>2025-09-05T13:07:37.000Z</time>
      </trkpt>
      <trkpt lat="37.095605" lon="-79.60977">
        <ele>254.086344</ele>
        <time>2025-09-05T13:07:37.000Z</time>
      </trkpt>
      <trkpt lat="37.09569" lon="-79.609707">
        <ele>254.040348</ele>
        <time>2025-09-05T13:07:38.000Z</time>
      </trkpt>
      <trkpt lat="37.096004" lon="-79.609488">
        <ele>253.861661</ele>
        <time>2025-09-05T13:07:42.000Z</time>
      </trkpt>
      <trkpt lat="37.096154" lon="-79.609412">
        <ele>253.783571</ele>
        <time>2025-09-05T13:07:44.000Z</time>
      </trkpt>
      <trkpt lat="37.096414" lon="-79.609226">
        <ele>253.632565</ele>
        <time>2025-09-05T13:07:47.000Z</time>
      </trkpt>
      <trkpt lat="37.096663" lon="-79.609034">
        <ele>253.375419</ele>
        <time>2025-09-05T13:07:50.000Z</time>
      </trkpt>
      <trkpt lat="37.096699" lon="-79.609018">
        <ele>253.330969</ele>
        <time>2025-09-05T13:07:50.000Z</time>
      </trkpt>
      <trkpt lat="37.096863" lon="-79.608848">
        <ele>253.104599</ele>
        <time>2025-09-05T13:07:52.000Z</time>
      </trkpt>
      <trkpt lat="37.097026" lon="-79.608619">
        <ele>252.826777</ele>
        <time>2025-09-05T13:07:55.000Z</time>
      </trkpt>
      <trkpt lat="37.097117" lon="-79.6084">
        <ele>252.599921</ele>
        <time>2025-09-05T13:07:57.000Z</time>
      </trkpt>
      <trkpt lat="37.097208" lon="-79.607919">
        <ele>252.162957</ele>
        <time>2025-09-05T13:08:01.000Z</time>
      </trkpt>
      <trkpt lat="37.097338" lon="-79.605484">
        <ele>251.52537</ele>
        <time>2025-09-05T13:08:23.000Z</time>
      </trkpt>
      <trkpt lat="37.097318" lon="-79.605111">
        <ele>251.521726</ele>
        <time>2025-09-05T13:08:26.000Z</time>
      </trkpt>
      <trkpt lat="37.097219" lon="-79.604779">
        <ele>251.856471</ele>
        <time>2025-09-05T13:08:29.000Z</time>
      </trkpt>
      <trkpt lat="37.097073" lon="-79.604432">
        <ele>252.438171</ele>
        <time>2025-09-05T13:08:32.000Z</time>
      </trkpt>
      <trkpt lat="37.096959" lon="-79.60426">
        <ele>252.776907</ele>
        <time>2025-09-05T13:08:34.000Z</time>
      </trkpt>
      <trkpt lat="37.09607" lon="-79.603133">
        <ele>255.104041</ele>
        <time>2025-09-05T13:08:48.000Z</time>
      </trkpt>
      <trkpt lat="37.095871" lon="-79.602948">
        <ele>255.492124</ele>
        <time>2025-09-05T13:08:51.000Z</time>
      </trkpt>
      <trkpt lat="37.094941" lon="-79.602219">
        <ele>257.252595</ele>
        <time>2025-09-05T13:09:03.000Z</time>
      </trkpt>
      <trkpt lat="37.094624" lon="-79.601896">
        <ele>257.987757</ele>
        <time>2025-09-05T13:09:08.000Z</time>
      </trkpt>
      <trkpt lat="37.094397" lon="-79.601491">
        <ele>259.010047</ele>
        <time>2025-09-05T13:09:12.000Z</time>
      </trkpt>
      <trkpt lat="37.094096" lon="-79.600666">
        <ele>260.852377</ele>
        <time>2025-09-05T13:09:20.000Z</time>
      </trkpt>
      <trkpt lat="37.09399" lon="-79.600381">
        <ele>261.49523</ele>
        <time>2025-09-05T13:09:23.000Z</time>
      </trkpt>
      <trkpt lat="37.093356" lon="-79.598674">
        <ele>266.567478</ele>
        <time>2025-09-05T13:09:40.000Z</time>
      </trkpt>
      <trkpt lat="37.092189" lon="-79.595278">
        <ele>273.849322</ele>
        <time>2025-09-05T13:10:13.000Z</time>
      </trkpt>
      <trkpt lat="37.091518" lon="-79.593437">
        <ele>276.751374</ele>
        <time>2025-09-05T13:10:31.000Z</time>
      </trkpt>
      <trkpt lat="37.091417" lon="-79.593145">
        <ele>276.943961</ele>
        <time>2025-09-05T13:10:34.000Z</time>
      </trkpt>
      <trkpt lat="37.091109" lon="-79.593645">
        <ele>277.327982</ele>
        <time>2025-09-05T13:10:40.000Z</time>
      </trkpt>
      <trkpt lat="37.090173" lon="-79.595306">
        <ele>276.823836</ele>
        <time>2025-09-05T13:10:58.000Z</time>
      </trkpt>
      <trkpt lat="37.089816" lon="-79.595931">
        <ele>276.130844</ele>
        <time>2025-09-05T13:11:05.000Z</time>
      </trkpt>
      <trkpt lat="37.089746" lon="-79.596057">
        <ele>275.975886</ele>
        <time>2025-09-05T13:11:06.000Z</time>
      </trkpt>
      <trkpt lat="37.089564" lon="-79.596372">
        <ele>275.19067</ele>
        <time>2025-09-05T13:11:09.000Z</time>
      </trkpt>
      <trkpt lat="37.089128" lon="-79.597138">
        <ele>272.360188</ele>
        <time>2025-09-05T13:11:17.000Z</time>
      </trkpt>
      <trkpt lat="37.088597" lon="-79.597882">
        <ele>269.30646</ele>
        <time>2025-09-05T13:11:26.000Z</time>
      </trkpt>
      <trkpt lat="37.088274" lon="-79.598215">
        <ele>268.072336</ele>
        <time>2025-09-05T13:11:31.000Z</time>
      </trkpt>
      <trkpt lat="37.087776" lon="-79.598598">
        <ele>266.450587</ele>
        <time>2025-09-05T13:11:37.000Z</time>
      </trkpt>
      <trkpt lat="37.087294" lon="-79.598929">
        <ele>264.958262</ele>
        <time>2025-09-05T13:11:43.000Z</time>
      </trkpt>
      <trkpt lat="37.086978" lon="-79.59925">
        <ele>263.891456</ele>
        <time>2025-09-05T13:11:48.000Z</time>
      </trkpt>
      <trkpt lat="37.086894" lon="-79.599375">
        <ele>263.687207</ele>
        <time>2025-09-05T13:11:49.000Z</time>
      </trkpt>
      <trkpt lat="37.086751" lon="-79.599703">
        <ele>263.126881</ele>
        <time>2025-09-05T13:11:52.000Z</time>
      </trkpt>
      <trkpt lat="37.086004" lon="-79.602016">
        <ele>260.180986</ele>
        <time>2025-09-05T13:12:14.000Z</time>
      </trkpt>
      <trkpt lat="37.085831" lon="-79.602457">
        <ele>259.847623</ele>
        <time>2025-09-05T13:12:18.000Z</time>
      </trkpt>
      <trkpt lat="37.085666" lon="-79.60272">
        <ele>259.621439</ele>
        <time>2025-09-05T13:12:21.000Z</time>
      </trkpt>
      <trkpt lat="37.085434" lon="-79.602972">
        <ele>259.36048</ele>
        <time>2025-09-05T13:12:24.000Z</time>
      </trkpt>
      <trkpt lat="37.085187" lon="-79.603163">
        <ele>259.27562</ele>
        <time>2025-09-05T13:12:27.000Z</time>
      </trkpt>
      <trkpt lat="37.083919" lon="-79.603638">
        <ele>259.632142</ele>
        <time>2025-09-05T13:12:42.000Z</time>
      </trkpt>
      <trkpt lat="37.083615" lon="-79.603822">
        <ele>259.704672</ele>
        <time>2025-09-05T13:12:46.000Z</time>
      </trkpt>
      <trkpt lat="37.083371" lon="-79.604118">
        <ele>259.469211</ele>
        <time>2025-09-05T13:12:50.000Z</time>
      </trkpt>
      <trkpt lat="37.083187" lon="-79.604423">
        <ele>259.251013</ele>
        <time>2025-09-05T13:12:53.000Z</time>
      </trkpt>
      <trkpt lat="37.083114" lon="-79.604697">
        <ele>259.083782</ele>
        <time>2025-09-05T13:12:56.000Z</time>
      </trkpt>
      <trkpt lat="37.082971" lon="-79.606607">
        <ele>258.573825</ele>
        <time>2025-09-05T13:13:13.000Z</time>
      </trkpt>
      <trkpt lat="37.082885" lon="-79.60696">
        <ele>258.637197</ele>
        <time>2025-09-05T13:13:16.000Z</time>
      </trkpt>
      <trkpt lat="37.08281" lon="-79.607147">
        <ele>258.675251</ele>
        <time>2025-09-05T13:13:18.000Z</time>
      </trkpt>
      <trkpt lat="37.08261" lon="-79.607475">
        <ele>258.749724</ele>
        <time>2025-09-05T13:13:22.000Z</time>
      </trkpt>
      <trkpt lat="37.082443" lon="-79.607641">
        <ele>258.79715</ele>
        <time>2025-09-05T13:13:24.000Z</time>
      </trkpt>
      <trkpt lat="37.082143" lon="-79.607797">
        <ele>258.329679</ele>
        <time>2025-09-05T13:13:28.000Z</time>
      </trkpt>
      <trkpt lat="37.081583" lon="-79.608024">
        <ele>256.293408</ele>
        <time>2025-09-05T13:13:35.000Z</time>
      </trkpt>
      <trkpt lat="37.081291" lon="-79.608198">
        <ele>255.228152</ele>
        <time>2025-09-05T13:13:39.000Z</time>
      </trkpt>
      <trkpt lat="37.080923" lon="-79.608527">
        <ele>253.696191</ele>
        <time>2025-09-05T13:13:44.000Z</time>
      </trkpt>
      <trkpt lat="37.080349" lon="-79.609068">
        <ele>251.225483</ele>
        <time>2025-09-05T13:13:52.000Z</time>
      </trkpt>
      <trkpt lat="37.080146" lon="-79.609345">
        <ele>250.214337</ele>
        <time>2025-09-05T13:13:55.000Z</time>
      </trkpt>
      <trkpt lat="37.080097" lon="-79.60944">
        <ele>249.903296</ele>
        <time>2025-09-05T13:13:56.000Z</time>
      </trkpt>
      <trkpt lat="37.080027" lon="-79.609659">
        <ele>249.290451</ele>
        <time>2025-09-05T13:13:58.000Z</time>
      </trkpt>
      <trkpt lat="37.080017" lon="-79.609839">
        <ele>248.798468</ele>
        <time>2025-09-05T13:14:00.000Z</time>
      </trkpt>
      <trkpt lat="37.080053" lon="-79.61027">
        <ele>247.609632</ele>
        <time>2025-09-05T13:14:04.000Z</time>
      </trkpt>
      <trkpt lat="37.080032" lon="-79.610434">
        <ele>247.158489</ele>
        <time>2025-09-05T13:14:05.000Z</time>
      </trkpt>
      <trkpt lat="37.079989" lon="-79.610502">
        <ele>246.933423</ele>
        <time>2025-09-05T13:14:06.000Z</time>
      </trkpt>
      <trkpt lat="37.07974" lon="-79.610776">
        <ele>246.61072</ele>
        <time>2025-09-05T13:14:10.000Z</time>
      </trkpt>
      <trkpt lat="37.079652" lon="-79.610905">
        <ele>246.621574</ele>
        <time>2025-09-05T13:14:12.000Z</time>
      </trkpt>
      <trkpt lat="37.079535" lon="-79.611202">
        <ele>246.642791</ele>
        <time>2025-09-05T13:14:15.000Z</time>
      </trkpt>
      <trkpt lat="37.079446" lon="-79.611528">
        <ele>246.665553</ele>
        <time>2025-09-05T13:14:18.000Z</time>
      </trkpt>
      <trkpt lat="37.079362" lon="-79.6117">
        <ele>246.678331</ele>
        <time>2025-09-05T13:14:20.000Z</time>
      </trkpt>
      <trkpt lat="37.079173" lon="-79.611854">
        <ele>246.696872</ele>
        <time>2025-09-05T13:14:23.000Z</time>
      </trkpt>
      <trkpt lat="37.078773" lon="-79.611993">
        <ele>246.729717</ele>
        <time>2025-09-05T13:14:28.000Z</time>
      </trkpt>
      <trkpt lat="37.078657" lon="-79.612056">
        <ele>246.781157</ele>
        <time>2025-09-05T13:14:29.000Z</time>
      </trkpt>
      <trkpt lat="37.078593" lon="-79.612151">
        <ele>246.92838</ele>
        <time>2025-09-05T13:14:30.000Z</time>
      </trkpt>
      <trkpt lat="37.078528" lon="-79.61226">
        <ele>247.074563</ele>
        <time>2025-09-05T13:14:31.000Z</time>
      </trkpt>
      <trkpt lat="37.078473" lon="-79.612428">
        <ele>247.291849</ele>
        <time>2025-09-05T13:14:33.000Z</time>
      </trkpt>
      <trkpt lat="37.078479" lon="-79.612625">
        <ele>247.51014</ele>
        <time>2025-09-05T13:14:35.000Z</time>
      </trkpt>
      <trkpt lat="37.078572" lon="-79.61304">
        <ele>247.987964</ele>
        <time>2025-09-05T13:14:39.000Z</time>
      </trkpt>
      <trkpt lat="37.078681" lon="-79.613365">
        <ele>248.395096</ele>
        <time>2025-09-05T13:14:42.000Z</time>
      </trkpt>
      <trkpt lat="37.078829" lon="-79.613708">
        <ele>248.830133</ele>
        <time>2025-09-05T13:14:45.000Z</time>
      </trkpt>
      <trkpt lat="37.079079" lon="-79.614112">
        <ele>249.267886</ele>
        <time>2025-09-05T13:14:50.000Z</time>
      </trkpt>
      <trkpt lat="37.079218" lon="-79.614457">
        <ele>249.195971</ele>
        <time>2025-09-05T13:14:53.000Z</time>
      </trkpt>
      <trkpt lat="37.079281" lon="-79.614822">
        <ele>249.125073</ele>
        <time>2025-09-05T13:14:56.000Z</time>
      </trkpt>
      <trkpt lat="37.079284" lon="-79.615064">
        <ele>249.078512</ele>
        <time>2025-09-05T13:14:58.000Z</time>
      </trkpt>
      <trkpt lat="37.079289" lon="-79.615234">
        <ele>249.047024</ele>
        <time>2025-09-05T13:15:00.000Z</time>
      </trkpt>
      <trkpt lat="37.079281" lon="-79.61529">
        <ele>249.037769</ele>
        <time>2025-09-05T13:15:01.000Z</time>
      </trkpt>
      <trkpt lat="37.07928" lon="-79.615291">
        <ele>249.035424</ele>
        <time>2025-09-05T13:15:01.000Z</time>
      </trkpt>
      <trkpt lat="37.079278" lon="-79.615299">
        <ele>249.034022</ele>
        <time>2025-09-05T13:15:01.000Z</time>
      </trkpt>
      <trkpt lat="37.079276" lon="-79.61531">
        <ele>249.032688</ele>
        <time>2025-09-05T13:15:01.000Z</time>
      </trkpt>
      <trkpt lat="37.079264" lon="-79.615308">
        <ele>249.032391</ele>
        <time>2025-09-05T13:15:01.000Z</time>
      </trkpt>
      <trkpt lat="37.079265" lon="-79.615326">
        <ele>249.031785</ele>
        <time>2025-09-05T13:15:01.000Z</time>
      </trkpt>
      <trkpt lat="37.07927" lon="-79.615315">
        <ele>249.030995</ele>
        <time>2025-09-05T13:15:01.000Z</time>
      </trkpt>
      <trkpt lat="37.079276" lon="-79.615328">
        <ele>249.030431</ele>
        <time>2025-09-05T13:15:01.000Z</time>
      </trkpt>
      <trkpt lat="37.079252" lon="-79.615391">
        <ele>249.015869</ele>
        <time>2025-09-05T13:15:02.000Z</time>
      </trkpt>
      <trkpt lat="37.079194" lon="-79.615504">
        <ele>248.990963</ele>
        <time>2025-09-05T13:15:03.000Z</time>
      </trkpt>
      <trkpt lat="37.079093" lon="-79.615576">
        <ele>248.965996</ele>
        <time>2025-09-05T13:15:04.000Z</time>
      </trkpt>
      <trkpt lat="37.07904" lon="-79.615592">
        <ele>248.950298</ele>
        <time>2025-09-05T13:15:05.000Z</time>
      </trkpt>
      <trkpt lat="37.078917" lon="-79.615577">
        <ele>248.922262</ele>
        <time>2025-09-05T13:15:06.000Z</time>
      </trkpt>
      <trkpt lat="37.07881" lon="-79.615469">
        <ele>248.891315</ele>
        <time>2025-09-05T13:15:08.000Z</time>
      </trkpt>
      <trkpt lat="37.078745" lon="-79.615312">
        <ele>248.850711</ele>
        <time>2025-09-05T13:15:10.000Z</time>
      </trkpt>
      <trkpt lat="37.078754" lon="-79.615287">
        <ele>248.837875</ele>
        <time>2025-09-05T13:15:10.000Z</time>
      </trkpt>
      <trkpt lat="37.078759" lon="-79.615258">
        <ele>248.83167</ele>
        <time>2025-09-05T13:15:10.000Z</time>
      </trkpt>
      <trkpt lat="37.07876" lon="-79.615268">
        <ele>248.829187</ele>
        <time>2025-09-05T13:15:10.000Z</time>
      </trkpt>
      <trkpt lat="37.078748" lon="-79.615246">
        <ele>248.827112</ele>
        <time>2025-09-05T13:15:10.000Z</time>
      </trkpt>
      <trkpt lat="37.078759" lon="-79.615252">
        <ele>248.825055</ele>
        <time>2025-09-05T13:15:10.000Z</time>
      </trkpt>
      <trkpt lat="37.078749" lon="-79.615246">
        <ele>248.824224</ele>
        <time>2025-09-05T13:15:10.000Z</time>
      </trkpt>
      <trkpt lat="37.078748" lon="-79.615243">
        <ele>248.821322</ele>
        <time>2025-09-05T13:15:10.000Z</time>
      </trkpt>
      <trkpt lat="37.078757" lon="-79.615237">
        <ele>248.819667</ele>
        <time>2025-09-05T13:15:10.000Z</time>
      </trkpt>
      <trkpt lat="37.078747" lon="-79.615023">
        <ele>248.730271</ele>
        <time>2025-09-05T13:15:12.000Z</time>
      </trkpt>
      <trkpt lat="37.078826" lon="-79.614159">
        <ele>248.375025</ele>
        <time>2025-09-05T13:15:20.000Z</time>
      </trkpt>
      <trkpt lat="37.078828" lon="-79.613705">
        <ele>248.185868</ele>
        <time>2025-09-05T13:15:24.000Z</time>
      </trkpt>
      <trkpt lat="37.078691" lon="-79.613364">
        <ele>248.026676</ele>
        <time>2025-09-05T13:15:27.000Z</time>
      </trkpt>
      <trkpt lat="37.078584" lon="-79.61303">
        <ele>247.821945</ele>
        <time>2025-09-05T13:15:30.000Z</time>
      </trkpt>
      <trkpt lat="37.078475" lon="-79.612621">
        <ele>247.468478</ele>
        <time>2025-09-05T13:15:34.000Z</time>
      </trkpt>
      <trkpt lat="37.078476" lon="-79.612443">
        <ele>247.306997</ele>
        <time>2025-09-05T13:15:36.000Z</time>
      </trkpt>
      <trkpt lat="37.078523" lon="-79.61226">
        <ele>247.146261</ele>
        <time>2025-09-05T13:15:38.000Z</time>
      </trkpt>
      <trkpt lat="37.078594" lon="-79.612139">
        <ele>247.038128</ele>
        <time>2025-09-05T13:15:39.000Z</time>
      </trkpt>
      <trkpt lat="37.078654" lon="-79.612063">
        <ele>246.929217</ele>
        <time>2025-09-05T13:15:40.000Z</time>
      </trkpt>
      <trkpt lat="37.078774" lon="-79.611994">
        <ele>246.792884</ele>
        <time>2025-09-05T13:15:41.000Z</time>
      </trkpt>
      <trkpt lat="37.079178" lon="-79.611847">
        <ele>246.36753</ele>
        <time>2025-09-05T13:15:46.000Z</time>
      </trkpt>
      <trkpt lat="37.079367" lon="-79.611695">
        <ele>246.127458</ele>
        <time>2025-09-05T13:15:48.000Z</time>
      </trkpt>
      <trkpt lat="37.079449" lon="-79.611529">
        <ele>246.149511</ele>
        <time>2025-09-05T13:15:50.000Z</time>
      </trkpt>
      <trkpt lat="37.079544" lon="-79.611202">
        <ele>246.51304</ele>
        <time>2025-09-05T13:15:53.000Z</time>
      </trkpt>
      <trkpt lat="37.079639" lon="-79.610891">
        <ele>246.852041</ele>
        <time>2025-09-05T13:15:56.000Z</time>
      </trkpt>
      <trkpt lat="37.079737" lon="-79.610766">
        <ele>247.025692</ele>
        <time>2025-09-05T13:15:58.000Z</time>
      </trkpt>
      <trkpt lat="37.079989" lon="-79.610508">
        <ele>247.453736</ele>
        <time>2025-09-05T13:16:02.000Z</time>
      </trkpt>
      <trkpt lat="37.080031" lon="-79.610443">
        <ele>247.539914</ele>
        <time>2025-09-05T13:16:03.000Z</time>
      </trkpt>
      <trkpt lat="37.080048" lon="-79.610268">
        <ele>247.712603</ele>
        <time>2025-09-05T13:16:05.000Z</time>
      </trkpt>
      <trkpt lat="37.080015" lon="-79.609844">
        <ele>248.167726</ele>
        <time>2025-09-05T13:16:09.000Z</time>
      </trkpt>
      <trkpt lat="37.080043" lon="-79.60965">
        <ele>248.356082</ele>
        <time>2025-09-05T13:16:11.000Z</time>
      </trkpt>
      <trkpt lat="37.080103" lon="-79.609435">
        <ele>249.147892</ele>
        <time>2025-09-05T13:16:13.000Z</time>
      </trkpt>
      <trkpt lat="37.080144" lon="-79.609344">
        <ele>249.572386</ele>
        <time>2025-09-05T13:16:14.000Z</time>
      </trkpt>
      <trkpt lat="37.08035" lon="-79.609078">
        <ele>250.952287</ele>
        <time>2025-09-05T13:16:17.000Z</time>
      </trkpt>
      <trkpt lat="37.08093" lon="-79.60852">
        <ele>254.304712</ele>
        <time>2025-09-05T13:16:25.000Z</time>
      </trkpt>
      <trkpt lat="37.081306" lon="-79.608203">
        <ele>256.366347</ele>
        <time>2025-09-05T13:16:30.000Z</time>
      </trkpt>
      <trkpt lat="37.081585" lon="-79.608027">
        <ele>256.928025</ele>
        <time>2025-09-05T13:16:33.000Z</time>
      </trkpt>
      <trkpt lat="37.082151" lon="-79.607805">
        <ele>257.551933</ele>
        <time>2025-09-05T13:16:40.000Z</time>
      </trkpt>
      <trkpt lat="37.082439" lon="-79.607638">
        <ele>257.898281</ele>
        <time>2025-09-05T13:16:44.000Z</time>
      </trkpt>
      <trkpt lat="37.08262" lon="-79.607484">
        <ele>258.120405</ele>
        <time>2025-09-05T13:16:46.000Z</time>
      </trkpt>
      <trkpt lat="37.082803" lon="-79.607138">
        <ele>258.469035</ele>
        <time>2025-09-05T13:16:50.000Z</time>
      </trkpt>
      <trkpt lat="37.08289" lon="-79.606952">
        <ele>258.584026</ele>
        <time>2025-09-05T13:16:52.000Z</time>
      </trkpt>
      <trkpt lat="37.082966" lon="-79.606603">
        <ele>258.665415</ele>
        <time>2025-09-05T13:16:55.000Z</time>
      </trkpt>
      <trkpt lat="37.083106" lon="-79.604705">
        <ele>259.110048</ele>
        <time>2025-09-05T13:17:12.000Z</time>
      </trkpt>
      <trkpt lat="37.083197" lon="-79.604422">
        <ele>259.186128</ele>
        <time>2025-09-05T13:17:15.000Z</time>
      </trkpt>
      <trkpt lat="37.083376" lon="-79.604108">
        <ele>259.285413</ele>
        <time>2025-09-05T13:17:18.000Z</time>
      </trkpt>
      <trkpt lat="37.083611" lon="-79.603822">
        <ele>259.392539</ele>
        <time>2025-09-05T13:17:22.000Z</time>
      </trkpt>
      <trkpt lat="37.083908" lon="-79.603629">
        <ele>259.503717</ele>
        <time>2025-09-05T13:17:26.000Z</time>
      </trkpt>
      <trkpt lat="37.085195" lon="-79.603172">
        <ele>259.550117</ele>
        <time>2025-09-05T13:17:41.000Z</time>
      </trkpt>
      <trkpt lat="37.085448" lon="-79.602977">
        <ele>259.510012</ele>
        <time>2025-09-05T13:17:44.000Z</time>
      </trkpt>
      <trkpt lat="37.085672" lon="-79.602718">
        <ele>259.468823</ele>
        <time>2025-09-05T13:17:47.000Z</time>
      </trkpt>
      <trkpt lat="37.085821" lon="-79.602451">
        <ele>259.433134</ele>
        <time>2025-09-05T13:17:50.000Z</time>
      </trkpt>
      <trkpt lat="37.086005" lon="-79.602019">
        <ele>259.900819</ele>
        <time>2025-09-05T13:17:54.000Z</time>
      </trkpt>
      <trkpt lat="37.086765" lon="-79.59971">
        <ele>263.23437</ele>
        <time>2025-09-05T13:18:16.000Z</time>
      </trkpt>
      <trkpt lat="37.086909" lon="-79.599371">
        <ele>263.80943</ele>
        <time>2025-09-05T13:18:19.000Z</time>
      </trkpt>
      <trkpt lat="37.086973" lon="-79.599262">
        <ele>264.019044</ele>
        <time>2025-09-05T13:18:20.000Z</time>
      </trkpt>
      <trkpt lat="37.087294" lon="-79.598931">
        <ele>264.795076</ele>
        <time>2025-09-05T13:18:25.000Z</time>
      </trkpt>
      <trkpt lat="37.087777" lon="-79.598601">
        <ele>265.925987</ele>
        <time>2025-09-05T13:18:31.000Z</time>
      </trkpt>
      <trkpt lat="37.088275" lon="-79.598213">
        <ele>268.122832</ele>
        <time>2025-09-05T13:18:38.000Z</time>
      </trkpt>
      <trkpt lat="37.088597" lon="-79.597878">
        <ele>269.677141</ele>
        <time>2025-09-05T13:18:43.000Z</time>
      </trkpt>
      <trkpt lat="37.089129" lon="-79.597127">
        <ele>272.600261</ele>
        <time>2025-09-05T13:18:52.000Z</time>
      </trkpt>
      <trkpt lat="37.089572" lon="-79.596369">
        <ele>274.640262</ele>
        <time>2025-09-05T13:19:00.000Z</time>
      </trkpt>
      <trkpt lat="37.089733" lon="-79.596056">
        <ele>275.468937</ele>
        <time>2025-09-05T13:19:03.000Z</time>
      </trkpt>
      <trkpt lat="37.089819" lon="-79.595921">
        <ele>275.843096</ele>
        <time>2025-09-05T13:19:05.000Z</time>
      </trkpt>
      <trkpt lat="37.090169" lon="-79.595295">
        <ele>277.331326</ele>
        <time>2025-09-05T13:19:12.000Z</time>
      </trkpt>
      <trkpt lat="37.091092" lon="-79.593652">
        <ele>277.67596</ele>
        <time>2025-09-05T13:19:30.000Z</time>
      </trkpt>
      <trkpt lat="37.091422" lon="-79.593154">
        <ele>277.078433</ele>
        <time>2025-09-05T13:19:36.000Z</time>
      </trkpt>
      <trkpt lat="37.09151" lon="-79.593439">
        <ele>276.678982</ele>
        <time>2025-09-05T13:19:39.000Z</time>
      </trkpt>
      <trkpt lat="37.09219" lon="-79.59527">
        <ele>273.877093</ele>
        <time>2025-09-05T13:19:57.000Z</time>
      </trkpt>
      <trkpt lat="37.093368" lon="-79.598669">
        <ele>266.814662</ele>
        <time>2025-09-05T13:20:30.000Z</time>
      </trkpt>
      <trkpt lat="37.094" lon="-79.600374">
        <ele>261.431295</ele>
        <time>2025-09-05T13:20:47.000Z</time>
      </trkpt>
      <trkpt lat="37.09409" lon="-79.600675">
        <ele>260.505478</ele>
        <time>2025-09-05T13:20:50.000Z</time>
      </trkpt>
      <trkpt lat="37.094387" lon="-79.601485">
        <ele>258.799613</ele>
        <time>2025-09-05T13:20:58.000Z</time>
      </trkpt>
      <trkpt lat="37.094613" lon="-79.601888">
        <ele>258.093456</ele>
        <time>2025-09-05T13:21:02.000Z</time>
      </trkpt>
      <trkpt lat="37.094942" lon="-79.60222">
        <ele>257.379175</ele>
        <time>2025-09-05T13:21:07.000Z</time>
      </trkpt>
      <trkpt lat="37.095881" lon="-79.602938">
        <ele>255.448061</ele>
        <time>2025-09-05T13:21:19.000Z</time>
      </trkpt>
      <trkpt lat="37.096064" lon="-79.603129">
        <ele>255.028702</ele>
        <time>2025-09-05T13:21:22.000Z</time>
      </trkpt>
      <trkpt lat="37.096971" lon="-79.604261">
        <ele>252.96511</ele>
        <time>2025-09-05T13:21:36.000Z</time>
      </trkpt>
      <trkpt lat="37.097079" lon="-79.604441">
        <ele>252.719895</ele>
        <time>2025-09-05T13:21:38.000Z</time>
      </trkpt>
      <trkpt lat="37.097225" lon="-79.604774">
        <ele>252.298794</ele>
        <time>2025-09-05T13:21:41.000Z</time>
      </trkpt>
      <trkpt lat="37.097311" lon="-79.605113">
        <ele>251.920968</ele>
        <time>2025-09-05T13:21:44.000Z</time>
      </trkpt>
      <trkpt lat="37.097339" lon="-79.605479">
        <ele>251.521112</ele>
        <time>2025-09-05T13:21:47.000Z</time>
      </trkpt>
      <trkpt lat="37.097208" lon="-79.607924">
        <ele>252.203663</ele>
        <time>2025-09-05T13:22:09.000Z</time>
      </trkpt>
      <trkpt lat="37.097108" lon="-79.608387">
        <ele>252.535919</ele>
        <time>2025-09-05T13:22:13.000Z</time>
      </trkpt>
      <trkpt lat="37.097022" lon="-79.608619">
        <ele>252.72833</ele>
        <time>2025-09-05T13:22:15.000Z</time>
      </trkpt>
      <trkpt lat="37.096857" lon="-79.608863">
        <ele>252.963975</ele>
        <time>2025-09-05T13:22:18.000Z</time>
      </trkpt>
      <trkpt lat="37.096701" lon="-79.609008">
        <ele>253.155986</ele>
        <time>2025-09-05T13:22:20.000Z</time>
      </trkpt>
      <trkpt lat="37.096675" lon="-79.609035">
        <ele>253.193687</ele>
        <time>2025-09-05T13:22:20.000Z</time>
      </trkpt>
      <trkpt lat="37.096418" lon="-79.609224">
        <ele>253.478737</ele>
        <time>2025-09-05T13:22:23.000Z</time>
      </trkpt>
      <trkpt lat="37.096148" lon="-79.609399">
        <ele>253.7711</ele>
        <time>2025-09-05T13:22:26.000Z</time>
      </trkpt>
      <trkpt lat="37.09601" lon="-79.609501">
        <ele>253.922298</ele>
        <time>2025-09-05T13:22:28.000Z</time>
      </trkpt>
      <trkpt lat="37.095796" lon="-79.609872">
        <ele>254.155143</ele>
        <time>2025-09-05T13:22:32.000Z</time>
      </trkpt>
      <trkpt lat="37.095731" lon="-79.609915">
        <ele>254.164094</ele>
        <time>2025-09-05T13:22:33.000Z</time>
      </trkpt>
      <trkpt lat="37.095673" lon="-79.60994">
        <ele>254.17249</ele>
        <time>2025-09-05T13:22:34.000Z</time>
      </trkpt>
      <trkpt lat="37.095623" lon="-79.61005">
        <ele>254.186245</ele>
        <time>2025-09-05T13:22:35.000Z</time>
      </trkpt>
      <trkpt lat="37.095582" lon="-79.6101">
        <ele>254.193146</ele>
        <time>2025-09-05T13:22:36.000Z</time>
      </trkpt>
      <trkpt lat="37.095101" lon="-79.610376">
        <ele>254.264958</ele>
        <time>2025-09-05T13:22:42.000Z</time>
      </trkpt>
      <trkpt lat="37.095073" lon="-79.610369">
        <ele>254.26643</ele>
        <time>2025-09-05T13:22:42.000Z</time>
      </trkpt>
      <trkpt lat="37.095079" lon="-79.610378">
        <ele>254.267903</ele>
        <time>2025-09-05T13:22:42.000Z</time>
      </trkpt>
      <trkpt lat="37.095075" lon="-79.610381">
        <ele>254.268576</ele>
        <time>2025-09-05T13:22:42.000Z</time>
      </trkpt>
      <trkpt lat="37.095068" lon="-79.610373">
        <ele>254.268711</ele>
        <time>2025-09-05T13:22:42.000Z</time>
      </trkpt>
      <trkpt lat="37.095067" lon="-79.610373">
        <ele>254.268959</ele>
        <time>2025-09-05T13:22:42.000Z</time>
      </trkpt>
      <trkpt lat="37.095057" lon="-79.610376">
        <ele>254.269372</ele>
        <time>2025-09-05T13:22:42.000Z</time>
      </trkpt>
      <trkpt lat="37.095057" lon="-79.610386">
        <ele>254.269783</ele>
        <time>2025-09-05T13:22:42.000Z</time>
      </trkpt>
      <trkpt lat="37.095038" lon="-79.610383">
        <ele>254.272445</ele>
        <time>2025-09-05T13:22:42.000Z</time>
      </trkpt>
      <trkpt lat="37.095002" lon="-79.610362">
        <ele>254.276706</ele>
        <time>2025-09-05T13:22:42.000Z</time>
      </trkpt>
      <trkpt lat="37.09498" lon="-79.61034">
        <ele>254.282325</ele>
        <time>2025-09-05T13:22:42.000Z</time>
      </trkpt>
      <trkpt lat="37.09492" lon="-79.610192">
        <ele>254.299896</ele>
        <time>2025-09-05T13:22:43.000Z</time>
      </trkpt>
      <trkpt lat="37.095417" lon="-79.609883">
        <ele>254.37414</ele>
        <time>2025-09-05T13:22:49.000Z</time>
      </trkpt>
      <trkpt lat="37.095423" lon="-79.609884">
        <ele>254.374272</ele>
        <time>2025-09-05T13:22:49.000Z</time>
      </trkpt>
      <trkpt lat="37.095413" lon="-79.609885">
        <ele>254.373179</ele>
        <time>2025-09-05T13:22:49.000Z</time>
      </trkpt>
      <trkpt lat="37.095436" lon="-79.609881">
        <ele>254.365549</ele>
        <time>2025-09-05T13:22:49.000Z</time>
      </trkpt>
      <trkpt lat="37.095428" lon="-79.609879">
        <ele>254.364548</ele>
        <time>2025-09-05T13:22:49.000Z</time>
      </trkpt>
      <trkpt lat="37.095429" lon="-79.609888">
        <ele>254.363768</ele>
        <time>2025-09-05T13:22:49.000Z</time>
      </trkpt>
      <trkpt lat="37.095428" lon="-79.609874">
        <ele>254.360427</ele>
        <time>2025-09-05T13:22:49.000Z</time>
      </trkpt>
      <trkpt lat="37.095428" lon="-79.609869">
        <ele>254.359433</ele>
        <time>2025-09-05T13:22:49.000Z</time>
      </trkpt>
      <trkpt lat="37.095451" lon="-79.60987">
        <ele>254.355128</ele>
        <time>2025-09-05T13:22:49.000Z</time>
      </trkpt>
      <trkpt lat="37.095444" lon="-79.609874">
        <ele>254.351783</ele>
        <time>2025-09-05T13:22:49.000Z</time>
      </trkpt>
      <trkpt lat="37.095487" lon="-79.609852">
        <ele>254.316369</ele>
        <time>2025-09-05T13:22:50.000Z</time>
      </trkpt>
      <trkpt lat="37.095516" lon="-79.609826">
        <ele>254.286248</ele>
        <time>2025-09-05T13:22:50.000Z</time>
      </trkpt>
      <trkpt lat="37.095594" lon="-79.609829">
        <ele>254.224836</ele>
        <time>2025-09-05T13:22:51.000Z</time>
      </trkpt>
      <trkpt lat="37.095619" lon="-79.609771">
        <ele>254.195103</ele>
        <time>2025-09-05T13:22:52.000Z</time>
      </trkpt>
      <trkpt lat="37.095686" lon="-79.609695">
        <ele>254.12278</ele>
        <time>2025-09-05T13:22:53.000Z</time>
      </trkpt>
      <trkpt lat="37.095998" lon="-79.609504">
        <ele>253.841917</ele>
        <time>2025-09-05T13:22:57.000Z</time>
      </trkpt>
      <trkpt lat="37.096136" lon="-79.609402">
        <ele>253.719173</ele>
        <time>2025-09-05T13:22:59.000Z</time>
      </trkpt>
      <trkpt lat="37.096421" lon="-79.609217">
        <ele>253.481789</ele>
        <time>2025-09-05T13:23:03.000Z</time>
      </trkpt>
      <trkpt lat="37.096666" lon="-79.609036">
        <ele>253.250363</ele>
        <time>2025-09-05T13:23:06.000Z</time>
      </trkpt>
      <trkpt lat="37.096697" lon="-79.609013">
        <ele>253.219739</ele>
        <time>2025-09-05T13:23:06.000Z</time>
      </trkpt>
      <trkpt lat="37.096865" lon="-79.608856">
        <ele>253.063856</ele>
        <time>2025-09-05T13:23:08.000Z</time>
      </trkpt>
      <trkpt lat="37.097018" lon="-79.608629">
        <ele>252.8386</ele>
        <time>2025-09-05T13:23:11.000Z</time>
      </trkpt>
      <trkpt lat="37.097118" lon="-79.608387">
        <ele>252.63195</ele>
        <time>2025-09-05T13:23:13.000Z</time>
      </trkpt>
      <trkpt lat="37.097217" lon="-79.607915">
        <ele>252.233911</ele>
        <time>2025-09-05T13:23:17.000Z</time>
      </trkpt>
      <trkpt lat="37.097346" lon="-79.605486">
        <ele>251.76402</ele>
        <time>2025-09-05T13:23:39.000Z</time>
      </trkpt>
      <trkpt lat="37.097312" lon="-79.605118">
        <ele>251.97763</ele>
        <time>2025-09-05T13:23:42.000Z</time>
      </trkpt>
      <trkpt lat="37.097223" lon="-79.604778">
        <ele>252.179479</ele>
        <time>2025-09-05T13:23:45.000Z</time>
      </trkpt>
      <trkpt lat="37.097081" lon="-79.604444">
        <ele>252.404436</ele>
        <time>2025-09-05T13:23:48.000Z</time>
      </trkpt>
      <trkpt lat="37.096969" lon="-79.604265">
        <ele>252.702149</ele>
        <time>2025-09-05T13:23:50.000Z</time>
      </trkpt>
      <trkpt lat="37.096061" lon="-79.603138">
        <ele>255.040286</ele>
        <time>2025-09-05T13:24:04.000Z</time>
      </trkpt>
      <trkpt lat="37.095879" lon="-79.602947">
        <ele>255.49029</ele>
        <time>2025-09-05T13:24:07.000Z</time>
      </trkpt>
      <trkpt lat="37.094938" lon="-79.60221">
        <ele>257.30273</ele>
        <time>2025-09-05T13:24:19.000Z</time>
      </trkpt>
      <trkpt lat="37.094622" lon="-79.601889">
        <ele>257.949631</ele>
        <time>2025-09-05T13:24:24.000Z</time>
      </trkpt>
      <trkpt lat="37.094397" lon="-79.601495">
        <ele>258.589163</ele>
        <time>2025-09-05T13:24:28.000Z</time>
      </trkpt>
      <trkpt lat="37.094101" lon="-79.600673">
        <ele>260.891457</ele>
        <time>2025-09-05T13:24:36.000Z</time>
      </trkpt>
      <trkpt lat="37.093995" lon="-79.600384">
        <ele>261.712091</ele>
        <time>2025-09-05T13:24:39.000Z</time>
      </trkpt>
      <trkpt lat="37.093357" lon="-79.59866">
        <ele>266.506901</ele>
        <time>2025-09-05T13:24:56.000Z</time>
      </trkpt>
      <trkpt lat="37.092182" lon="-79.595276">
        <ele>273.886326</ele>
        <time>2025-09-05T13:25:29.000Z</time>
      </trkpt>
      <trkpt lat="37.09151" lon="-79.593444">
        <ele>276.932382</ele>
        <time>2025-09-05T13:25:47.000Z</time>
      </trkpt>
      <trkpt lat="37.091405" lon="-79.593141">
        <ele>277.29997</ele>
        <time>2025-09-05T13:25:50.000Z</time>
      </trkpt>
      <trkpt lat="37.091098" lon="-79.59365">
        <ele>277.410864</ele>
        <time>2025-09-05T13:25:56.000Z</time>
      </trkpt>
      <trkpt lat="37.090173" lon="-79.595297">
        <ele>276.925065</ele>
        <time>2025-09-05T13:26:14.000Z</time>
      </trkpt>
      <trkpt lat="37.08983" lon="-79.595925">
        <ele>275.739275</ele>
        <time>2025-09-05T13:26:21.000Z</time>
      </trkpt>
      <trkpt lat="37.089743" lon="-79.596063">
        <ele>275.474149</ele>
        <time>2025-09-05T13:26:23.000Z</time>
      </trkpt>
      <trkpt lat="37.08956" lon="-79.596367">
        <ele>274.886973</ele>
        <time>2025-09-05T13:26:26.000Z</time>
      </trkpt>
      <trkpt lat="37.089123" lon="-79.597125">
        <ele>272.653816</ele>
        <time>2025-09-05T13:26:34.000Z</time>
      </trkpt>
      <trkpt lat="37.088603" lon="-79.597895">
        <ele>269.456436</ele>
        <time>2025-09-05T13:26:43.000Z</time>
      </trkpt>
      <trkpt lat="37.088272" lon="-79.598219">
        <ele>267.798772</ele>
        <time>2025-09-05T13:26:48.000Z</time>
      </trkpt>
      <trkpt lat="37.087768" lon="-79.598607">
        <ele>266.178529</ele>
        <time>2025-09-05T13:26:55.000Z</time>
      </trkpt>
      <trkpt lat="37.087288" lon="-79.598937">
        <ele>265.005667</ele>
        <time>2025-09-05T13:27:01.000Z</time>
      </trkpt>
      <trkpt lat="37.086978" lon="-79.599259">
        <ele>264.106655</ele>
        <time>2025-09-05T13:27:05.000Z</time>
      </trkpt>
      <trkpt lat="37.086898" lon="-79.599369">
        <ele>263.863824</ele>
        <time>2025-09-05T13:27:06.000Z</time>
      </trkpt>
      <trkpt lat="37.086762" lon="-79.599718">
        <ele>263.197626</ele>
        <time>2025-09-05T13:27:09.000Z</time>
      </trkpt>
      <trkpt lat="37.086014" lon="-79.602017">
        <ele>259.874613</ele>
        <time>2025-09-05T13:27:31.000Z</time>
      </trkpt>
      <trkpt lat="37.08583" lon="-79.60245">
        <ele>259.772165</ele>
        <time>2025-09-05T13:27:35.000Z</time>
      </trkpt>
      <trkpt lat="37.085674" lon="-79.602708">
        <ele>259.702644</ele>
        <time>2025-09-05T13:27:38.000Z</time>
      </trkpt>
      <trkpt lat="37.08545" lon="-79.602972">
        <ele>259.622444</ele>
        <time>2025-09-05T13:27:41.000Z</time>
      </trkpt>
      <trkpt lat="37.085196" lon="-79.603164">
        <ele>259.544338</ele>
        <time>2025-09-05T13:27:44.000Z</time>
      </trkpt>
      <trkpt lat="37.083916" lon="-79.603626">
        <ele>259.447959</ele>
        <time>2025-09-05T13:27:59.000Z</time>
      </trkpt>
      <trkpt lat="37.083615" lon="-79.603822">
        <ele>259.448568</ele>
        <time>2025-09-05T13:28:03.000Z</time>
      </trkpt>
      <trkpt lat="37.083365" lon="-79.60411">
        <ele>259.449146</ele>
        <time>2025-09-05T13:28:07.000Z</time>
      </trkpt>
      <trkpt lat="37.083189" lon="-79.604427">
        <ele>259.370633</ele>
        <time>2025-09-05T13:28:10.000Z</time>
      </trkpt>
      <trkpt lat="37.083117" lon="-79.604698">
        <ele>259.229198</ele>
        <time>2025-09-05T13:28:13.000Z</time>
      </trkpt>
      <trkpt lat="37.082967" lon="-79.606602">
        <ele>258.352298</ele>
        <time>2025-09-05T13:28:30.000Z</time>
      </trkpt>
      <trkpt lat="37.082878" lon="-79.606949">
        <ele>258.321024</ele>
        <time>2025-09-05T13:28:33.000Z</time>
      </trkpt>
      <trkpt lat="37.082813" lon="-79.607136">
        <ele>258.30223</ele>
        <time>2025-09-05T13:28:35.000Z</time>
      </trkpt>
      <trkpt lat="37.082617" lon="-79.607484">
        <ele>258.265478</ele>
        <time>2025-09-05T13:28:39.000Z</time>
      </trkpt>
      <trkpt lat="37.08244" lon="-79.607631">
        <ele>258.242073</ele>
        <time>2025-09-05T13:28:41.000Z</time>
      </trkpt>
      <trkpt lat="37.082146" lon="-79.607797">
        <ele>258.205555</ele>
        <time>2025-09-05T13:28:45.000Z</time>
      </trkpt>
      <trkpt lat="37.081576" lon="-79.608026">
        <ele>257.190576</ele>
        <time>2025-09-05T13:28:52.000Z</time>
      </trkpt>
      <trkpt lat="37.081291" lon="-79.608206">
        <ele>255.800726</ele>
        <time>2025-09-05T13:28:56.000Z</time>
      </trkpt>
      <trkpt lat="37.080935" lon="-79.608519">
        <ele>253.801968</ele>
        <time>2025-09-05T13:29:01.000Z</time>
      </trkpt>
      <trkpt lat="37.080364" lon="-79.60908">
        <ele>250.551806</ele>
        <time>2025-09-05T13:29:09.000Z</time>
      </trkpt>
      <trkpt lat="37.08014" lon="-79.60934">
        <ele>249.667689</ele>
        <time>2025-09-05T13:29:12.000Z</time>
      </trkpt>
      <trkpt lat="37.080099" lon="-79.609443">
        <ele>249.462379</ele>
        <time>2025-09-05T13:29:13.000Z</time>
      </trkpt>
      <trkpt lat="37.080039" lon="-79.609656">
        <ele>249.05783</ele>
        <time>2025-09-05T13:29:15.000Z</time>
      </trkpt>
      <trkpt lat="37.080019" lon="-79.609842">
        <ele>248.733092</ele>
        <time>2025-09-05T13:29:17.000Z</time>
      </trkpt>
      <trkpt lat="37.080054" lon="-79.610282">
        <ele>247.948345</ele>
        <time>2025-09-05T13:29:21.000Z</time>
      </trkpt>
      <trkpt lat="37.080027" lon="-79.61043">
        <ele>247.650554</ele>
        <time>2025-09-05T13:29:22.000Z</time>
      </trkpt>
      <trkpt lat="37.079998" lon="-79.61051">
        <ele>247.501982</ele>
        <time>2025-09-05T13:29:23.000Z</time>
      </trkpt>
      <trkpt lat="37.079741" lon="-79.610769">
        <ele>246.763922</ele>
        <time>2025-09-05T13:29:27.000Z</time>
      </trkpt>
      <trkpt lat="37.079647" lon="-79.610897">
        <ele>246.464493</ele>
        <time>2025-09-05T13:29:29.000Z</time>
      </trkpt>
      <trkpt lat="37.079541" lon="-79.611204">
        <ele>246.189634</ele>
        <time>2025-09-05T13:29:32.000Z</time>
      </trkpt>
      <trkpt lat="37.079447" lon="-79.611531">
        <ele>246.421436</ele>
        <time>2025-09-05T13:29:35.000Z</time>
      </trkpt>
      <trkpt lat="37.079361" lon="-79.611686">
        <ele>246.551773</ele>
        <time>2025-09-05T13:29:37.000Z</time>
      </trkpt>
      <trkpt lat="37.079161" lon="-79.611848">
        <ele>246.740671</ele>
        <time>2025-09-05T13:29:40.000Z</time>
      </trkpt>
      <trkpt lat="37.078775" lon="-79.611991">
        <ele>247.075346</ele>
        <time>2025-09-05T13:29:44.000Z</time>
      </trkpt>
      <trkpt lat="37.078661" lon="-79.612057">
        <ele>247.182625</ele>
        <time>2025-09-05T13:29:45.000Z</time>
      </trkpt>
      <trkpt lat="37.078595" lon="-79.612148">
        <ele>247.268308</ele>
        <time>2025-09-05T13:29:46.000Z</time>
      </trkpt>
      <trkpt lat="37.078535" lon="-79.612256">
        <ele>247.353413</ele>
        <time>2025-09-05T13:29:47.000Z</time>
      </trkpt>
      <trkpt lat="37.078482" lon="-79.612436">
        <ele>247.479869</ele>
        <time>2025-09-05T13:29:49.000Z</time>
      </trkpt>
      <trkpt lat="37.078473" lon="-79.612622">
        <ele>247.610893</ele>
        <time>2025-09-05T13:29:51.000Z</time>
      </trkpt>
      <trkpt lat="37.078579" lon="-79.61304">
        <ele>247.955352</ele>
        <time>2025-09-05T13:29:55.000Z</time>
      </trkpt>
      <trkpt lat="37.078695" lon="-79.613366">
        <ele>248.248877</ele>
        <time>2025-09-05T13:29:58.000Z</time>
      </trkpt>
      <trkpt lat="37.078824" lon="-79.613709">
        <ele>248.562502</ele>
        <time>2025-09-05T13:30:01.000Z</time>
      </trkpt>
      <trkpt lat="37.079068" lon="-79.614123">
        <ele>248.979451</ele>
        <time>2025-09-05T13:30:06.000Z</time>
      </trkpt>
      <trkpt lat="37.079216" lon="-79.614451">
        <ele>249.292427</ele>
        <time>2025-09-05T13:30:09.000Z</time>
      </trkpt>
      <trkpt lat="37.079271" lon="-79.614834">
        <ele>249.352326</ele>
        <time>2025-09-05T13:30:12.000Z</time>
      </trkpt>
      <trkpt lat="37.079293" lon="-79.615076">
        <ele>249.26238</ele>
        <time>2025-09-05T13:30:14.000Z</time>
      </trkpt>
      <trkpt lat="37.079289" lon="-79.615234">
        <ele>249.201569</ele>
        <time>2025-09-05T13:30:15.000Z</time>
      </trkpt>
      <trkpt lat="37.079275" lon="-79.615288">
        <ele>249.183708</ele>
        <time>2025-09-05T13:30:16.000Z</time>
      </trkpt>
      <trkpt lat="37.079268" lon="-79.6153">
        <ele>249.179167</ele>
        <time>2025-09-05T13:30:16.000Z</time>
      </trkpt>
      <trkpt lat="37.079282" lon="-79.615315">
        <ele>249.176479</ele>
        <time>2025-09-05T13:30:16.000Z</time>
      </trkpt>
      <trkpt lat="37.079282" lon="-79.61532">
        <ele>249.17389</ele>
        <time>2025-09-05T13:30:16.000Z</time>
      </trkpt>
      <trkpt lat="37.079271" lon="-79.615323">
        <ele>249.173323</ele>
        <time>2025-09-05T13:30:16.000Z</time>
      </trkpt>
      <trkpt lat="37.079265" lon="-79.615321">
        <ele>249.17214</ele>
        <time>2025-09-05T13:30:16.000Z</time>
      </trkpt>
      <trkpt lat="37.079265" lon="-79.615313">
        <ele>249.170617</ele>
        <time>2025-09-05T13:30:16.000Z</time>
      </trkpt>
      <trkpt lat="37.079266" lon="-79.615327">
        <ele>249.169535</ele>
        <time>2025-09-05T13:30:16.000Z</time>
      </trkpt>
      <trkpt lat="37.079254" lon="-79.615393">
        <ele>249.141413</ele>
        <time>2025-09-05T13:30:17.000Z</time>
      </trkpt>
      <trkpt lat="37.079194" lon="-79.615511">
        <ele>249.093313</ele>
        <time>2025-09-05T13:30:18.000Z</time>
      </trkpt>
      <trkpt lat="37.0791" lon="-79.615564">
        <ele>249.045063</ele>
        <time>2025-09-05T13:30:19.000Z</time>
      </trkpt>
      <trkpt lat="37.079031" lon="-79.615601">
        <ele>249.01476</ele>
        <time>2025-09-05T13:30:20.000Z</time>
      </trkpt>
      <trkpt lat="37.078919" lon="-79.61557">
        <ele>248.960596</ele>
        <time>2025-09-05T13:30:21.000Z</time>
      </trkpt>
      <trkpt lat="37.078818" lon="-79.615473">
        <ele>248.90084</ele>
        <time>2025-09-05T13:30:22.000Z</time>
      </trkpt>
      <trkpt lat="37.078758" lon="-79.615304">
        <ele>248.837964</ele>
        <time>2025-09-05T13:30:24.000Z</time>
      </trkpt>
      <trkpt lat="37.078748" lon="-79.615281">
        <ele>248.826749</ele>
        <time>2025-09-05T13:30:24.000Z</time>
      </trkpt>
      <trkpt lat="37.07875" lon="-79.615266">
        <ele>248.821314</ele>
        <time>2025-09-05T13:30:24.000Z</time>
      </trkpt>
      <trkpt lat="37.078748" lon="-79.615256">
        <ele>248.819151</ele>
        <time>2025-09-05T13:30:24.000Z</time>
      </trkpt>
      <trkpt lat="37.078747" lon="-79.615249">
        <ele>248.817333</ele>
        <time>2025-09-05T13:30:24.000Z</time>
      </trkpt>
      <trkpt lat="37.078744" lon="-79.615241">
        <ele>248.81552</ele>
        <time>2025-09-05T13:30:24.000Z</time>
      </trkpt>
      <trkpt lat="37.078758" lon="-79.615248">
        <ele>248.814814</ele>
        <time>2025-09-05T13:30:24.000Z</time>
      </trkpt>
      <trkpt lat="37.078743" lon="-79.615248">
        <ele>248.812278</ele>
        <time>2025-09-05T13:30:24.000Z</time>
      </trkpt>
      <trkpt lat="37.078757" lon="-79.615244">
        <ele>248.810831</ele>
        <time>2025-09-05T13:30:24.000Z</time>
      </trkpt>
      <trkpt lat="37.078755" lon="-79.615025">
        <ele>248.732648</ele>
        <time>2025-09-05T13:30:26.000Z</time>
      </trkpt>
      <trkpt lat="37.078823" lon="-79.614171">
        <ele>248.313339</ele>
        <time>2025-09-05T13:30:34.000Z</time>
      </trkpt>
      <trkpt lat="37.078823" lon="-79.613715">
        <ele>248.053712</ele>
        <time>2025-09-05T13:30:38.000Z</time>
      </trkpt>
      <trkpt lat="37.078679" lon="-79.613373">
        <ele>247.83522</ele>
        <time>2025-09-05T13:30:41.000Z</time>
      </trkpt>
      <trkpt lat="37.07858" lon="-79.61303">
        <ele>247.630731</ele>
        <time>2025-09-05T13:30:44.000Z</time>
      </trkpt>
      <trkpt lat="37.078473" lon="-79.612637">
        <ele>247.390762</ele>
        <time>2025-09-05T13:30:48.000Z</time>
      </trkpt>
      <trkpt lat="37.078482" lon="-79.612427">
        <ele>247.284651</ele>
        <time>2025-09-05T13:30:50.000Z</time>
      </trkpt>
      <trkpt lat="37.078525" lon="-79.612256">
        <ele>247.183096</ele>
        <time>2025-09-05T13:30:52.000Z</time>
      </trkpt>
      <trkpt lat="37.078586" lon="-79.612154">
        <ele>247.114779</ele>
        <time>2025-09-05T13:30:53.000Z</time>
      </trkpt>
      <trkpt lat="37.078656" lon="-79.612051">
        <ele>247.045973</ele>
        <time>2025-09-05T13:30:54.000Z</time>
      </trkpt>
      <trkpt lat="37.078774" lon="-79.611994">
        <ele>246.959842</ele>
        <time>2025-09-05T13:30:55.000Z</time>
      </trkpt>
      <trkpt lat="37.079174" lon="-79.611845">
        <ele>246.6911</ele>
        <time>2025-09-05T13:31:00.000Z</time>
      </trkpt>
      <trkpt lat="37.07936" lon="-79.611692">
        <ele>246.539421</ele>
        <time>2025-09-05T13:31:02.000Z</time>
      </trkpt>
      <trkpt lat="37.079459" lon="-79.611536">
        <ele>246.434767</ele>
        <time>2025-09-05T13:31:04.000Z</time>
      </trkpt>
      <trkpt lat="37.079536" lon="-79.611197">
        <ele>246.248628</ele>
        <time>2025-09-05T13:31:07.000Z</time>
      </trkpt>
      <trkpt lat="37.079639" lon="-79.610902">
        <ele>246.372733</ele>
        <time>2025-09-05T13:31:10.000Z</time>
      </trkpt>
      <trkpt lat="37.07974" lon="-79.610772">
        <ele>246.690102</ele>
        <time>2025-09-05T13:31:12.000Z</time>
      </trkpt>
      <trkpt lat="37.079995" lon="-79.610514">
        <ele>247.472293</ele>
        <time>2025-09-05T13:31:16.000Z</time>
      </trkpt>
      <trkpt lat="37.080026" lon="-79.610438">
        <ele>247.629735</ele>
        <time>2025-09-05T13:31:17.000Z</time>
      </trkpt>
      <trkpt lat="37.080049" lon="-79.610271">
        <ele>247.94533</ele>
        <time>2025-09-05T13:31:19.000Z</time>
      </trkpt>
      <trkpt lat="37.080022" lon="-79.609829">
        <ele>248.777017</ele>
        <time>2025-09-05T13:31:23.000Z</time>
      </trkpt>
      <trkpt lat="37.080029" lon="-79.609652">
        <ele>249.121188</ele>
        <time>2025-09-05T13:31:25.000Z</time>
      </trkpt>
      <trkpt lat="37.080096" lon="-79.609442">
        <ele>249.549927</ele>
        <time>2025-09-05T13:31:27.000Z</time>
      </trkpt>
      <trkpt lat="37.080137" lon="-79.609338">
        <ele>249.767522</ele>
        <time>2025-09-05T13:31:28.000Z</time>
      </trkpt>
      <trkpt lat="37.080361" lon="-79.609079">
        <ele>250.544678</ele>
        <time>2025-09-05T13:31:31.000Z</time>
      </trkpt>
      <trkpt lat="37.080928" lon="-79.608525">
        <ele>253.73946</ele>
        <time>2025-09-05T13:31:39.000Z</time>
      </trkpt>
      <trkpt lat="37.081306" lon="-79.608206">
        <ele>255.704134</ele>
        <time>2025-09-05T13:31:44.000Z</time>
      </trkpt>
      <trkpt lat="37.08157" lon="-79.608024">
        <ele>257.070319</ele>
        <time>2025-09-05T13:31:47.000Z</time>
      </trkpt>
      <trkpt lat="37.082136" lon="-79.607807">
        <ele>258.310151</ele>
        <time>2025-09-05T13:31:54.000Z</time>
      </trkpt>
      <trkpt lat="37.08245" lon="-79.607638">
        <ele>258.319788</ele>
        <time>2025-09-05T13:31:58.000Z</time>
      </trkpt>
      <trkpt lat="37.082617" lon="-79.607484">
        <ele>258.325963</ele>
        <time>2025-09-05T13:32:00.000Z</time>
      </trkpt>
      <trkpt lat="37.082819" lon="-79.607141">
        <ele>258.335657</ele>
        <time>2025-09-05T13:32:04.000Z</time>
      </trkpt>
      <trkpt lat="37.082888" lon="-79.606947">
        <ele>258.340611</ele>
        <time>2025-09-05T13:32:06.000Z</time>
      </trkpt>
      <trkpt lat="37.082962" lon="-79.606608">
        <ele>258.348852</ele>
        <time>2025-09-05T13:32:09.000Z</time>
      </trkpt>
      <trkpt lat="37.083114" lon="-79.604698">
        <ele>259.22217</ele>
        <time>2025-09-05T13:32:26.000Z</time>
      </trkpt>
      <trkpt lat="37.0832" lon="-79.604422">
        <ele>259.370464</ele>
        <time>2025-09-05T13:32:29.000Z</time>
      </trkpt>
      <trkpt lat="37.083373" lon="-79.604117">
        <ele>259.487617</ele>
        <time>2025-09-05T13:32:32.000Z</time>
      </trkpt>
      <trkpt lat="37.083601" lon="-79.603836">
        <ele>259.473219</ele>
        <time>2025-09-05T13:32:36.000Z</time>
      </trkpt>
      <trkpt lat="37.083918" lon="-79.603628">
        <ele>259.458251</ele>
        <time>2025-09-05T13:32:40.000Z</time>
      </trkpt>
      <trkpt lat="37.085191" lon="-79.603176">
        <ele>259.516436</ele>
        <time>2025-09-05T13:32:55.000Z</time>
      </trkpt>
      <trkpt lat="37.085432" lon="-79.602974">
        <ele>259.614481</ele>
        <time>2025-09-05T13:32:58.000Z</time>
      </trkpt>
      <trkpt lat="37.085667" lon="-79.602705">
        <ele>259.715134</ele>
        <time>2025-09-05T13:33:02.000Z</time>
      </trkpt>
      <trkpt lat="37.085829" lon="-79.602456">
        <ele>259.802358</ele>
        <time>2025-09-05T13:33:05.000Z</time>
      </trkpt>
      <trkpt lat="37.086015" lon="-79.602024">
        <ele>259.930947</ele>
        <time>2025-09-05T13:33:09.000Z</time>
      </trkpt>
      <trkpt lat="37.086766" lon="-79.599718">
        <ele>263.184055</ele>
        <time>2025-09-05T13:33:31.000Z</time>
      </trkpt>
      <trkpt lat="37.086911" lon="-79.599375">
        <ele>263.851117</ele>
        <time>2025-09-05T13:33:34.000Z</time>
      </trkpt>
      <trkpt lat="37.086978" lon="-79.599259">
        <ele>264.100374</ele>
        <time>2025-09-05T13:33:35.000Z</time>
      </trkpt>
      <trkpt lat="37.087302" lon="-79.598933">
        <ele>265.023158</ele>
        <time>2025-09-05T13:33:40.000Z</time>
      </trkpt>
      <trkpt lat="37.087772" lon="-79.598597">
        <ele>266.227033</ele>
        <time>2025-09-05T13:33:46.000Z</time>
      </trkpt>
      <trkpt lat="37.08827" lon="-79.59822">
        <ele>267.761304</ele>
        <time>2025-09-05T13:33:52.000Z</time>
      </trkpt>
      <trkpt lat="37.088592" lon="-79.597883">
        <ele>269.421053</ele>
        <time>2025-09-05T13:33:57.000Z</time>
      </trkpt>
      <trkpt lat="37.089126" lon="-79.597123">
        <ele>272.622426</ele>
        <time>2025-09-05T13:34:06.000Z</time>
      </trkpt>
      <trkpt lat="37.089555" lon="-79.596367">
        <ele>274.954136</ele>
        <time>2025-09-05T13:34:14.000Z</time>
      </trkpt>
      <trkpt lat="37.089738" lon="-79.596073">
        <ele>275.510062</ele>
        <time>2025-09-05T13:34:17.000Z</time>
      </trkpt>
      <trkpt lat="37.089815" lon="-79.59592">
        <ele>275.761068</ele>
        <time>2025-09-05T13:34:19.000Z</time>
      </trkpt>
      <trkpt lat="37.090183" lon="-79.595291">
        <ele>276.883748</ele>
        <time>2025-09-05T13:34:26.000Z</time>
      </trkpt>
      <trkpt lat="37.091094" lon="-79.593643">
        <ele>277.386553</ele>
        <time>2025-09-05T13:34:44.000Z</time>
      </trkpt>
      <trkpt lat="37.091419" lon="-79.593151">
        <ele>277.244773</ele>
        <time>2025-09-05T13:34:50.000Z</time>
      </trkpt>
      <trkpt lat="37.09151" lon="-79.593438">
        <ele>276.969531</ele>
        <time>2025-09-05T13:34:53.000Z</time>
      </trkpt>
      <trkpt lat="37.092186" lon="-79.595272">
        <ele>273.872698</ele>
        <time>2025-09-05T13:35:11.000Z</time>
      </trkpt>
      <trkpt lat="37.093359" lon="-79.598673">
        <ele>266.485484</ele>
        <time>2025-09-05T13:35:44.000Z</time>
      </trkpt>
      <trkpt lat="37.094002" lon="-79.600386">
        <ele>261.720718</ele>
        <time>2025-09-05T13:36:01.000Z</time>
      </trkpt>
      <trkpt lat="37.094087" lon="-79.60067">
        <ele>260.920113</ele>
        <time>2025-09-05T13:36:04.000Z</time>
      </trkpt>
      <trkpt lat="37.094392" lon="-79.601498">
        <ele>258.625662</ele>
        <time>2025-09-05T13:36:12.000Z</time>
      </trkpt>
      <trkpt lat="37.09463" lon="-79.601889">
        <ele>257.936909</ele>
        <time>2025-09-05T13:36:16.000Z</time>
      </trkpt>
      <trkpt lat="37.094933" lon="-79.602205">
        <ele>257.293194</ele>
        <time>2025-09-05T13:36:20.000Z</time>
      </trkpt>
      <trkpt lat="37.095885" lon="-79.60294">
        <ele>255.502563</ele>
        <time>2025-09-05T13:36:32.000Z</time>
      </trkpt>
      <trkpt lat="37.09606" lon="-79.603131">
        <ele>255.048987</ele>
        <time>2025-09-05T13:36:35.000Z</time>
      </trkpt>
      <trkpt lat="37.096962" lon="-79.60425">
        <ele>252.692301</ele>
        <time>2025-09-05T13:36:49.000Z</time>
      </trkpt>
      <trkpt lat="37.097069" lon="-79.604433">
        <ele>252.35495</ele>
        <time>2025-09-05T13:36:51.000Z</time>
      </trkpt>
      <trkpt lat="37.097228" lon="-79.604786">
        <ele>252.123647</ele>
        <time>2025-09-05T13:36:55.000Z</time>
      </trkpt>
      <trkpt lat="37.097318" lon="-79.605108">
        <ele>251.948593</ele>
        <time>2025-09-05T13:36:58.000Z</time>
      </trkpt>
      <trkpt lat="37.097341" lon="-79.605483">
        <ele>251.763311</ele>
        <time>2025-09-05T13:37:01.000Z</time>
      </trkpt>
      <trkpt lat="37.097208" lon="-79.607919">
        <ele>252.231952</ele>
        <time>2025-09-05T13:37:23.000Z</time>
      </trkpt>
      <trkpt lat="37.097118" lon="-79.608387">
        <ele>252.636755</ele>
        <time>2025-09-05T13:37:27.000Z</time>
      </trkpt>
      <trkpt lat="37.097031" lon="-79.608617">
        <ele>252.846923</ele>
        <time>2025-09-05T13:37:29.000Z</time>
      </trkpt>
      <trkpt lat="37.096866" lon="-79.608858">
        <ele>253.088798</ele>
        <time>2025-09-05T13:37:32.000Z</time>
      </trkpt>
      <trkpt lat="37.096698" lon="-79.609008">
        <ele>253.234609</ele>
        <time>2025-09-05T13:37:34.000Z</time>
      </trkpt>
      <trkpt lat="37.096663" lon="-79.609041">
        <ele>253.263228</ele>
        <time>2025-09-05T13:37:34.000Z</time>
      </trkpt>
      <trkpt lat="37.096413" lon="-79.609228">
        <ele>253.479695</ele>
        <time>2025-09-05T13:37:37.000Z</time>
      </trkpt>
      <trkpt lat="37.096137" lon="-79.609408">
        <ele>253.701701</ele>
        <time>2025-09-05T13:37:40.000Z</time>
      </trkpt>
      <trkpt lat="37.096002" lon="-79.609495">
        <ele>253.816517</ele>
        <time>2025-09-05T13:37:42.000Z</time>
      </trkpt>
      <trkpt lat="37.095788" lon="-79.609858">
        <ele>254.08394</ele>
        <time>2025-09-05T13:37:46.000Z</time>
      </trkpt>
      <trkpt lat="37.095732" lon="-79.609917">
        <ele>254.133029</ele>
        <time>2025-09-05T13:37:47.000Z</time>
      </trkpt>
      <trkpt lat="37.095666" lon="-79.60994">
        <ele>254.17901</ele>
        <time>2025-09-05T13:37:48.000Z</time>
      </trkpt>
      <trkpt lat="37.095623" lon="-79.61006">
        <ele>254.254375</ele>
        <time>2025-09-05T13:37:49.000Z</time>
      </trkpt>
      <trkpt lat="37.095579" lon="-79.610104">
        <ele>254.292122</ele>
        <time>2025-09-05T13:37:50.000Z</time>
      </trkpt>
      <trkpt lat="37.095086" lon="-79.610376">
        <ele>254.303914</ele>
        <time>2025-09-05T13:37:56.000Z</time>
      </trkpt>
      <trkpt lat="37.095082" lon="-79.610375">
        <ele>254.302527</ele>
        <time>2025-09-05T13:37:56.000Z</time>
      </trkpt>
      <trkpt lat="37.095065" lon="-79.610375">
        <ele>254.301159</ele>
        <time>2025-09-05T13:37:56.000Z</time>
      </trkpt>
      <trkpt lat="37.095072" lon="-79.610384">
        <ele>254.300531</ele>
        <time>2025-09-05T13:37:56.000Z</time>
      </trkpt>
      <trkpt lat="37.095064" lon="-79.610371">
        <ele>254.300404</ele>
        <time>2025-09-05T13:37:56.000Z</time>
      </trkpt>
      <trkpt lat="37.095059" lon="-79.610376">
        <ele>254.30016</ele>
        <time>2025-09-05T13:37:56.000Z</time>
      </trkpt>
      <trkpt lat="37.095067" lon="-79.610373">
        <ele>254.299782</ele>
        <time>2025-09-05T13:37:56.000Z</time>
      </trkpt>
      <trkpt lat="37.095063" lon="-79.610389">
        <ele>254.299389</ele>
        <time>2025-09-05T13:37:56.000Z</time>
      </trkpt>
      <trkpt lat="37.095031" lon="-79.610377">
        <ele>254.296901</ele>
        <time>2025-09-05T13:37:56.000Z</time>
      </trkpt>
      <trkpt lat="37.095002" lon="-79.610363">
        <ele>254.292884</ele>
        <time>2025-09-05T13:37:56.000Z</time>
      </trkpt>
      <trkpt lat="37.094964" lon="-79.610333">
        <ele>254.287599</ele>
        <time>2025-09-05T13:37:56.000Z</time>
      </trkpt>
      <trkpt lat="37.094913" lon="-79.610182">
        <ele>254.271089</ele>
        <time>2025-09-05T13:37:57.000Z</time>
      </trkpt>
      <trkpt lat="37.095423" lon="-79.609895">
        <ele>254.201297</ele>
        <time>2025-09-05T13:38:03.000Z</time>
      </trkpt>
      <trkpt lat="37.095414" lon="-79.609883">
        <ele>254.201179</ele>
        <time>2025-09-05T13:38:03.000Z</time>
      </trkpt>
      <trkpt lat="37.095413" lon="-79.609883">
        <ele>254.200859</ele>
        <time>2025-09-05T13:38:03.000Z</time>
      </trkpt>
      <trkpt lat="37.095431" lon="-79.609887">
        <ele>254.199619</ele>
        <time>2025-09-05T13:38:03.000Z</time>
      </trkpt>
      <trkpt lat="37.095423" lon="-79.609879">
        <ele>254.19946</ele>
        <time>2025-09-05T13:38:03.000Z</time>
      </trkpt>
      <trkpt lat="37.095432" lon="-79.609887">
        <ele>254.199352</ele>
        <time>2025-09-05T13:38:03.000Z</time>
      </trkpt>
      <trkpt lat="37.095427" lon="-79.609869">
        <ele>254.198814</ele>
        <time>2025-09-05T13:38:03.000Z</time>
      </trkpt>
      <trkpt lat="37.095439" lon="-79.609874">
        <ele>254.198647</ele>
        <time>2025-09-05T13:38:03.000Z</time>
      </trkpt>
      <trkpt lat="37.095446" lon="-79.609872">
        <ele>254.197953</ele>
        <time>2025-09-05T13:38:03.000Z</time>
      </trkpt>
      <trkpt lat="37.09544" lon="-79.609877">
        <ele>254.19742</ele>
        <time>2025-09-05T13:38:03.000Z</time>
      </trkpt>
      <trkpt lat="37.095487" lon="-79.609839">
        <ele>254.191737</ele>
        <time>2025-09-05T13:38:04.000Z</time>
      </trkpt>
      <trkpt lat="37.095522" lon="-79.609817">
        <ele>254.186902</ele>
        <time>2025-09-05T13:38:04.000Z</time>
      </trkpt>
      <trkpt lat="37.0956" lon="-79.60983">
        <ele>254.177056</ele>
        <time>2025-09-05T13:38:05.000Z</time>
      </trkpt>
      <trkpt lat="37.095617" lon="-79.609783">
        <ele>254.172284</ele>
        <time>2025-09-05T13:38:05.000Z</time>
      </trkpt>
      <trkpt lat="37.095679" lon="-79.609692">
        <ele>254.160671</ele>
        <time>2025-09-05T13:38:06.000Z</time>
      </trkpt>
      <trkpt lat="37.096002" lon="-79.609487">
        <ele>253.975024</ele>
        <time>2025-09-05T13:38:10.000Z</time>
      </trkpt>
      <trkpt lat="37.096152" lon="-79.6094">
        <ele>253.817379</ele>
        <time>2025-09-05T13:38:12.000Z</time>
      </trkpt>
      <trkpt lat="37.096407" lon="-79.609214">
        <ele>253.512481</ele>
        <time>2025-09-05T13:38:15.000Z</time>
      </trkpt>
      <trkpt lat="37.096664" lon="-79.609031">
        <ele>253.215228</ele>
        <time>2025-09-05T13:38:18.000Z</time>
      </trkpt>
      <trkpt lat="37.096703" lon="-79.609003">
        <ele>253.175911</ele>
        <time>2025-09-05T13:38:18.000Z</time>
      </trkpt>
      <trkpt lat="37.096861" lon="-79.608855">
        <ele>252.975686</ele>
        <time>2025-09-05T13:38:20.000Z</time>
      </trkpt>
      <trkpt lat="37.097027" lon="-79.608613">
        <ele>252.729936</ele>
        <time>2025-09-05T13:38:23.000Z</time>
      </trkpt>
      <trkpt lat="37.097106" lon="-79.6084">
        <ele>252.529292</ele>
        <time>2025-09-05T13:38:25.000Z</time>
      </trkpt>
      <trkpt lat="37.097215" lon="-79.607925">
        <ele>252.188564</ele>
        <time>2025-09-05T13:38:29.000Z</time>
      </trkpt>
      <trkpt lat="37.097335" lon="-79.605472">
        <ele>251.463385</ele>
        <time>2025-09-05T13:38:51.000Z</time>
      </trkpt>
      <trkpt lat="37.097313" lon="-79.605106">
        <ele>251.883997</ele>
        <time>2025-09-05T13:38:54.000Z</time>
      </trkpt>
      <trkpt lat="37.097235" lon="-79.604775">
        <ele>252.281413</ele>
        <time>2025-09-05T13:38:57.000Z</time>
      </trkpt>
      <trkpt lat="37.097075" lon="-79.604441">
        <ele>252.724381</ele>
        <time>2025-09-05T13:39:00.000Z</time>
      </trkpt>
      <trkpt lat="37.096954" lon="-79.604258">
        <ele>252.98233</ele>
        <time>2025-09-05T13:39:02.000Z</time>
      </trkpt>
      <trkpt lat="37.096063" lon="-79.603123">
        <ele>255.033637</ele>
        <time>2025-09-05T13:39:16.000Z</time>
      </trkpt>
      <trkpt lat="37.095877" lon="-79.602932">
        <ele>255.448676</ele>
        <time>2025-09-05T13:39:19.000Z</time>
      </trkpt>
      <trkpt lat="37.094943" lon="-79.60221">
        <ele>257.382094</ele>
        <time>2025-09-05T13:39:31.000Z</time>
      </trkpt>
      <trkpt lat="37.09463" lon="-79.601891">
        <ele>258.112285</ele>
        <time>2025-09-05T13:39:35.000Z</time>
      </trkpt>
      <trkpt lat="37.094389" lon="-79.601484">
        <ele>258.834164</ele>
        <time>2025-09-05T13:39:39.000Z</time>
      </trkpt>
      <trkpt lat="37.094098" lon="-79.600669">
        <ele>260.446765</ele>
        <time>2025-09-05T13:39:47.000Z</time>
      </trkpt>
      <trkpt lat="37.093992" lon="-79.600381">
        <ele>261.380004</ele>
        <time>2025-09-05T13:39:50.000Z</time>
      </trkpt>
      <trkpt lat="37.093358" lon="-79.598666">
        <ele>266.8675</ele>
        <time>2025-09-05T13:40:07.000Z</time>
      </trkpt>
      <trkpt lat="37.092189" lon="-79.59527">
        <ele>273.876119</ele>
        <time>2025-09-05T13:40:40.000Z</time>
      </trkpt>
      <trkpt lat="37.091525" lon="-79.593443">
        <ele>276.654471</ele>
        <time>2025-09-05T13:40:58.000Z</time>
      </trkpt>
      <trkpt lat="37.09141" lon="-79.593143">
        <ele>277.040176</ele>
        <time>2025-09-05T13:41:01.000Z</time>
      </trkpt>
      <trkpt lat="37.091091" lon="-79.593645">
        <ele>277.721406</ele>
        <time>2025-09-05T13:41:07.000Z</time>
      </trkpt>
      <trkpt lat="37.090168" lon="-79.595302">
        <ele>277.282464</ele>
        <time>2025-09-05T13:41:25.000Z</time>
      </trkpt>
      <trkpt lat="37.089827" lon="-79.595934">
        <ele>275.893391</ele>
        <time>2025-09-05T13:41:32.000Z</time>
      </trkpt>
      <trkpt lat="37.089733" lon="-79.596064">
        <ele>275.504797</ele>
        <time>2025-09-05T13:41:34.000Z</time>
      </trkpt>
      <trkpt lat="37.08957" lon="-79.596373">
        <ele>274.644226</ele>
        <time>2025-09-05T13:41:37.000Z</time>
      </trkpt>
      <trkpt lat="37.089124" lon="-79.597138">
        <ele>272.525636</ele>
        <time>2025-09-05T13:41:45.000Z</time>
      </trkpt>
      <trkpt lat="37.088604" lon="-79.597887">
        <ele>269.688695</ele>
        <time>2025-09-05T13:41:54.000Z</time>
      </trkpt>
      <trkpt lat="37.088273" lon="-79.59822">
        <ele>268.158768</ele>
        <time>2025-09-05T13:41:59.000Z</time>
      </trkpt>
      <trkpt lat="37.08777" lon="-79.598601">
        <ele>265.996348</ele>
        <time>2025-09-05T13:42:06.000Z</time>
      </trkpt>
      <trkpt lat="37.087293" lon="-79.598938">
        <ele>264.765794</ele>
        <time>2025-09-05T13:42:12.000Z</time>
      </trkpt>
      <trkpt lat="37.086972" lon="-79.599261">
        <ele>263.998694</ele>
        <time>2025-09-05T13:42:17.000Z</time>
      </trkpt>
      <trkpt lat="37.086906" lon="-79.599376">
        <ele>263.791486</ele>
        <time>2025-09-05T13:42:18.000Z</time>
      </trkpt>
      <trkpt lat="37.086751" lon="-79.599713">
        <ele>263.223052</ele>
        <time>2025-09-05T13:42:21.000Z</time>
      </trkpt>
      <trkpt lat="37.086007" lon="-79.602009">
        <ele>259.941542</ele>
        <time>2025-09-05T13:42:43.000Z</time>
      </trkpt>
      <trkpt lat="37.085836" lon="-79.602454">
        <ele>259.379766</ele>
        <time>2025-09-05T13:42:47.000Z</time>
      </trkpt>
      <trkpt lat="37.085674" lon="-79.602703">
        <ele>259.425594</ele>
        <time>2025-09-05T13:42:50.000Z</time>
      </trkpt>
      <trkpt lat="37.08544" lon="-79.602967">
        <ele>259.478449</ele>
        <time>2025-09-05T13:42:54.000Z</time>
      </trkpt>
      <trkpt lat="37.085187" lon="-79.603177">
        <ele>259.529936</ele>
        <time>2025-09-05T13:42:57.000Z</time>
      </trkpt>
      <trkpt lat="37.083906" lon="-79.603643">
        <ele>259.528446</ele>
        <time>2025-09-05T13:43:12.000Z</time>
      </trkpt>
      <trkpt lat="37.083604" lon="-79.603819">
        <ele>259.402789</ele>
        <time>2025-09-05T13:43:16.000Z</time>
      </trkpt>
      <trkpt lat="37.08338" lon="-79.604109">
        <ele>259.281716</ele>
        <time>2025-09-05T13:43:20.000Z</time>
      </trkpt>
      <trkpt lat="37.083197" lon="-79.604424">
        <ele>259.169499</ele>
        <time>2025-09-05T13:43:23.000Z</time>
      </trkpt>
      <trkpt lat="37.083121" lon="-79.604704">
        <ele>259.08351</ele>
        <time>2025-09-05T13:43:26.000Z</time>
      </trkpt>
      <trkpt lat="37.082969" lon="-79.606607">
        <ele>258.699614</ele>
        <time>2025-09-05T13:43:43.000Z</time>
      </trkpt>
      <trkpt lat="37.082891" lon="-79.606942">
        <ele>258.632604</ele>
        <time>2025-09-05T13:43:46.000Z</time>
      </trkpt>
      <trkpt lat="37.082809" lon="-79.607141">
        <ele>258.56842</ele>
        <time>2025-09-05T13:43:48.000Z</time>
      </trkpt>
      <trkpt lat="37.082617" lon="-79.607469">
        <ele>258.16472</ele>
        <time>2025-09-05T13:43:52.000Z</time>
      </trkpt>
      <trkpt lat="37.082447" lon="-79.607642">
        <ele>257.907492</ele>
        <time>2025-09-05T13:43:54.000Z</time>
      </trkpt>
      <trkpt lat="37.082138" lon="-79.607807">
        <ele>257.506416</ele>
        <time>2025-09-05T13:43:58.000Z</time>
      </trkpt>
      <trkpt lat="37.081574" lon="-79.608026">
        <ele>256.783922</ele>
        <time>2025-09-05T13:44:05.000Z</time>
      </trkpt>
      <trkpt lat="37.081304" lon="-79.60821">
        <ele>256.393451</ele>
        <time>2025-09-05T13:44:08.000Z</time>
      </trkpt>
      <trkpt lat="37.080928" lon="-79.608511">
        <ele>254.348309</ele>
        <time>2025-09-05T13:44:13.000Z</time>
      </trkpt>
      <trkpt lat="37.080349" lon="-79.60908">
        <ele>251.022696</ele>
        <time>2025-09-05T13:44:21.000Z</time>
      </trkpt>
      <trkpt lat="37.080138" lon="-79.609346">
        <ele>249.653811</ele>
        <time>2025-09-05T13:44:24.000Z</time>
      </trkpt>
      <trkpt lat="37.080102" lon="-79.609442">
        <ele>249.232726</ele>
        <time>2025-09-05T13:44:25.000Z</time>
      </trkpt>
      <trkpt lat="37.08003" lon="-79.609645">
        <ele>248.403032</ele>
        <time>2025-09-05T13:44:27.000Z</time>
      </trkpt>
      <trkpt lat="37.080029" lon="-79.60983">
        <ele>248.065588</ele>
        <time>2025-09-05T13:44:29.000Z</time>
      </trkpt>
      <trkpt lat="37.080063" lon="-79.610272">
        <ele>247.651804</ele>
        <time>2025-09-05T13:44:33.000Z</time>
      </trkpt>
      <trkpt lat="37.080027" lon="-79.610447">
        <ele>247.49481</ele>
        <time>2025-09-05T13:44:35.000Z</time>
      </trkpt>
      <trkpt lat="37.079995" lon="-79.610515">
        <ele>247.416472</ele>
        <time>2025-09-05T13:44:36.000Z</time>
      </trkpt>
      <trkpt lat="37.079737" lon="-79.610771">
        <ele>247.027307</ele>
        <time>2025-09-05T13:44:40.000Z</time>
      </trkpt>
      <trkpt lat="37.079644" lon="-79.610903">
        <ele>246.869423</ele>
        <time>2025-09-05T13:44:42.000Z</time>
      </trkpt>
      <trkpt lat="37.079538" lon="-79.61119">
        <ele>246.561236</ele>
        <time>2025-09-05T13:44:45.000Z</time>
      </trkpt>
      <trkpt lat="37.079452" lon="-79.611532">
        <ele>246.23073</ele>
        <time>2025-09-05T13:44:48.000Z</time>
      </trkpt>
      <trkpt lat="37.079358" lon="-79.611693">
        <ele>246.083702</ele>
        <time>2025-09-05T13:44:50.000Z</time>
      </trkpt>
      <trkpt lat="37.079164" lon="-79.611843">
        <ele>246.38677</ele>
        <time>2025-09-05T13:44:53.000Z</time>
      </trkpt>
      <trkpt lat="37.078776" lon="-79.611991">
        <ele>246.923714</ele>
        <time>2025-09-05T13:44:58.000Z</time>
      </trkpt>
      <trkpt lat="37.078656" lon="-79.612065">
        <ele>247.095809</ele>
        <time>2025-09-05T13:44:59.000Z</time>
      </trkpt>
      <trkpt lat="37.078583" lon="-79.61215">
        <ele>247.233289</ele>
        <time>2025-09-05T13:45:00.000Z</time>
      </trkpt>
      <trkpt lat="37.07852" lon="-79.612255">
        <ele>247.369802</ele>
        <time>2025-09-05T13:45:01.000Z</time>
      </trkpt>
      <trkpt lat="37.078471" lon="-79.612429">
        <ele>247.572707</ele>
        <time>2025-09-05T13:45:03.000Z</time>
      </trkpt>
      <trkpt lat="37.078475" lon="-79.612629">
        <ele>247.776567</ele>
        <time>2025-09-05T13:45:05.000Z</time>
      </trkpt>
      <trkpt lat="37.078571" lon="-79.613024">
        <ele>248.222754</ele>
        <time>2025-09-05T13:45:09.000Z</time>
      </trkpt>
      <trkpt lat="37.078696" lon="-79.613373">
        <ele>248.50024</ele>
        <time>2025-09-05T13:45:12.000Z</time>
      </trkpt>
      <trkpt lat="37.07883" lon="-79.613706">
        <ele>248.64313</ele>
        <time>2025-09-05T13:45:15.000Z</time>
      </trkpt>
      <trkpt lat="37.079077" lon="-79.614114">
        <ele>248.833095</ele>
        <time>2025-09-05T13:45:20.000Z</time>
      </trkpt>
      <trkpt lat="37.079213" lon="-79.614456">
        <ele>248.975684</ele>
        <time>2025-09-05T13:45:23.000Z</time>
      </trkpt>
      <trkpt lat="37.079272" lon="-79.614826">
        <ele>249.116242</ele>
        <time>2025-09-05T13:45:26.000Z</time>
      </trkpt>
      <trkpt lat="37.079289" lon="-79.615069">
        <ele>249.208577</ele>
        <time>2025-09-05T13:45:28.000Z</time>
      </trkpt>
      <trkpt lat="37.079301" lon="-79.615247">
        <ele>249.271003</ele>
        <time>2025-09-05T13:45:30.000Z</time>
      </trkpt>
      <trkpt lat="37.07928" lon="-79.615283">
        <ele>249.274843</ele>
        <time>2025-09-05T13:45:30.000Z</time>
      </trkpt>
      <trkpt lat="37.079282" lon="-79.615305">
        <ele>249.270132</ele>
        <time>2025-09-05T13:45:30.000Z</time>
      </trkpt>
      <trkpt lat="37.079276" lon="-79.615299">
        <ele>249.267344</ele>
        <time>2025-09-05T13:45:30.000Z</time>
      </trkpt>
      <trkpt lat="37.07927" lon="-79.615308">
        <ele>249.264689</ele>
        <time>2025-09-05T13:45:30.000Z</time>
      </trkpt>
      <trkpt lat="37.07927" lon="-79.61532">
        <ele>249.264081</ele>
        <time>2025-09-05T13:45:30.000Z</time>
      </trkpt>
      <trkpt lat="37.079275" lon="-79.615319">
        <ele>249.262861</ele>
        <time>2025-09-05T13:45:30.000Z</time>
      </trkpt>
      <trkpt lat="37.079271" lon="-79.61532">
        <ele>249.261299</ele>
        <time>2025-09-05T13:45:30.000Z</time>
      </trkpt>
      <trkpt lat="37.079266" lon="-79.615334">
        <ele>249.260184</ele>
        <time>2025-09-05T13:45:30.000Z</time>
      </trkpt>
      <trkpt lat="37.079261" lon="-79.615396">
        <ele>249.231081</ele>
        <time>2025-09-05T13:45:31.000Z</time>
      </trkpt>
      <trkpt lat="37.079189" lon="-79.615495">
        <ele>249.181358</ele>
        <time>2025-09-05T13:45:32.000Z</time>
      </trkpt>
      <trkpt lat="37.079102" lon="-79.615577">
        <ele>249.13147</ele>
        <time>2025-09-05T13:45:33.000Z</time>
      </trkpt>
      <trkpt lat="37.079038" lon="-79.615599">
        <ele>249.100129</ele>
        <time>2025-09-05T13:45:34.000Z</time>
      </trkpt>
      <trkpt lat="37.078916" lon="-79.615576">
        <ele>249.044128</ele>
        <time>2025-09-05T13:45:35.000Z</time>
      </trkpt>
      <trkpt lat="37.078821" lon="-79.615475">
        <ele>248.98233</ele>
        <time>2025-09-05T13:45:36.000Z</time>
      </trkpt>
      <trkpt lat="37.078759" lon="-79.615317">
        <ele>248.917322</ele>
        <time>2025-09-05T13:45:38.000Z</time>
      </trkpt>
      <trkpt lat="37.078747" lon="-79.615273">
        <ele>248.905709</ele>
        <time>2025-09-05T13:45:38.000Z</time>
      </trkpt>
      <trkpt lat="37.078759" lon="-79.615265">
        <ele>248.900105</ele>
        <time>2025-09-05T13:45:38.000Z</time>
      </trkpt>
      <trkpt lat="37.078749" lon="-79.615268">
        <ele>248.897861</ele>
        <time>2025-09-05T13:45:38.000Z</time>
      </trkpt>
      <trkpt lat="37.078742" lon="-79.615253">
        <ele>248.895982</ele>
        <time>2025-09-05T13:45:38.000Z</time>
      </trkpt>
      <trkpt lat="37.078745" lon="-79.615242">
        <ele>248.894119</ele>
        <time>2025-09-05T13:45:38.000Z</time>
      </trkpt>
      <trkpt lat="37.078744" lon="-79.615246">
        <ele>248.89336</ele>
        <time>2025-09-05T13:45:38.000Z</time>
      </trkpt>
      <trkpt lat="37.078759" lon="-79.615236">
        <ele>248.890744</ele>
        <time>2025-09-05T13:45:38.000Z</time>
      </trkpt>
      <trkpt lat="37.078759" lon="-79.615241">
        <ele>248.88926</ele>
        <time>2025-09-05T13:45:38.000Z</time>
      </trkpt>
      <trkpt lat="37.07876" lon="-79.615018">
        <ele>248.808423</ele>
        <time>2025-09-05T13:45:40.000Z</time>
      </trkpt>
      <trkpt lat="37.078814" lon="-79.614169">
        <ele>248.487248</ele>
        <time>2025-09-05T13:45:48.000Z</time>
      </trkpt>
      <trkpt lat="37.078828" lon="-79.613713">
        <ele>248.175641</ele>
        <time>2025-09-05T13:45:52.000Z</time>
      </trkpt>
      <trkpt lat="37.078687" lon="-79.613363">
        <ele>247.866148</ele>
        <time>2025-09-05T13:45:55.000Z</time>
      </trkpt>
      <trkpt lat="37.078587" lon="-79.613022">
        <ele>247.576504</ele>
        <time>2025-09-05T13:45:58.000Z</time>
      </trkpt>
      <trkpt lat="37.07848" lon="-79.61262">
        <ele>247.236586</ele>
        <time>2025-09-05T13:46:02.000Z</time>
      </trkpt>
      <trkpt lat="37.078482" lon="-79.612434">
        <ele>247.081275</ele>
        <time>2025-09-05T13:46:04.000Z</time>
      </trkpt>
      <trkpt lat="37.078534" lon="-79.612254">
        <ele>246.926697</ele>
        <time>2025-09-05T13:46:06.000Z</time>
      </trkpt>
      <trkpt lat="37.078595" lon="-79.612156">
        <ele>246.822701</ele>
        <time>2025-09-05T13:46:07.000Z</time>
      </trkpt>
      <trkpt lat="37.078657" lon="-79.612055">
        <ele>246.71797</ele>
        <time>2025-09-05T13:46:08.000Z</time>
      </trkpt>
      <trkpt lat="37.078782" lon="-79.611986">
        <ele>246.625342</ele>
        <time>2025-09-05T13:46:10.000Z</time>
      </trkpt>
      <trkpt lat="37.079176" lon="-79.611855">
        <ele>246.637466</ele>
        <time>2025-09-05T13:46:15.000Z</time>
      </trkpt>
      <trkpt lat="37.079362" lon="-79.6117">
        <ele>246.644305</ele>
        <time>2025-09-05T13:46:17.000Z</time>
      </trkpt>
      <trkpt lat="37.079445" lon="-79.611527">
        <ele>246.649016</ele>
        <time>2025-09-05T13:46:19.000Z</time>
      </trkpt>
      <trkpt lat="37.07953" lon="-79.611192">
        <ele>246.657415</ele>
        <time>2025-09-05T13:46:22.000Z</time>
      </trkpt>
      <trkpt lat="37.079643" lon="-79.610893">
        <ele>246.665239</ele>
        <time>2025-09-05T13:46:25.000Z</time>
      </trkpt>
      <trkpt lat="37.079732" lon="-79.610767">
        <ele>246.669245</ele>
        <time>2025-09-05T13:46:26.000Z</time>
      </trkpt>
      <trkpt lat="37.079999" lon="-79.610504">
        <ele>246.813868</ele>
        <time>2025-09-05T13:46:30.000Z</time>
      </trkpt>
      <trkpt lat="37.080035" lon="-79.610445">
        <ele>247.047969</ele>
        <time>2025-09-05T13:46:31.000Z</time>
      </trkpt>
      <trkpt lat="37.080047" lon="-79.610284">
        <ele>247.517176</ele>
        <time>2025-09-05T13:46:32.000Z</time>
      </trkpt>
      <trkpt lat="37.08003" lon="-79.609832">
        <ele>248.753632</ele>
        <time>2025-09-05T13:46:36.000Z</time>
      </trkpt>
      <trkpt lat="37.080031" lon="-79.60966">
        <ele>249.265325</ele>
        <time>2025-09-05T13:46:38.000Z</time>
      </trkpt>
      <trkpt lat="37.080099" lon="-79.609431">
        <ele>249.902734</ele>
        <time>2025-09-05T13:46:40.000Z</time>
      </trkpt>
      <trkpt lat="37.080137" lon="-79.609336">
        <ele>250.226229</ele>
        <time>2025-09-05T13:46:41.000Z</time>
      </trkpt>
      <trkpt lat="37.080348" lon="-79.609083">
        <ele>251.277863</ele>
        <time>2025-09-05T13:46:44.000Z</time>
      </trkpt>
      <trkpt lat="37.080922" lon="-79.608517">
        <ele>253.770877</ele>
        <time>2025-09-05T13:46:52.000Z</time>
      </trkpt>
      <trkpt lat="37.081305" lon="-79.608199">
        <ele>255.225072</ele>
        <time>2025-09-05T13:46:57.000Z</time>
      </trkpt>
      <trkpt lat="37.081571" lon="-79.608025">
        <ele>256.236276</ele>
        <time>2025-09-05T13:47:00.000Z</time>
      </trkpt>
      <trkpt lat="37.082151" lon="-79.607801">
        <ele>258.169184</ele>
        <time>2025-09-05T13:47:07.000Z</time>
      </trkpt>
      <trkpt lat="37.082454" lon="-79.607643">
        <ele>258.828551</ele>
        <time>2025-09-05T13:47:11.000Z</time>
      </trkpt>
      <trkpt lat="37.082622" lon="-79.607485">
        <ele>258.782738</ele>
        <time>2025-09-05T13:47:13.000Z</time>
      </trkpt>
      <trkpt lat="37.082814" lon="-79.607148">
        <ele>258.710853</ele>
        <time>2025-09-05T13:47:17.000Z</time>
      </trkpt>
      <trkpt lat="37.082885" lon="-79.606951">
        <ele>258.674111</ele>
        <time>2025-09-05T13:47:19.000Z</time>
      </trkpt>
      <trkpt lat="37.082972" lon="-79.606603">
        <ele>258.61293</ele>
        <time>2025-09-05T13:47:22.000Z</time>
      </trkpt>
      <trkpt lat="37.083105" lon="-79.604701">
        <ele>259.063621</ele>
        <time>2025-09-05T13:47:39.000Z</time>
      </trkpt>
      <trkpt lat="37.083191" lon="-79.604423">
        <ele>259.229169</ele>
        <time>2025-09-05T13:47:42.000Z</time>
      </trkpt>
      <trkpt lat="37.083366" lon="-79.60411">
        <ele>259.445185</ele>
        <time>2025-09-05T13:47:45.000Z</time>
      </trkpt>
      <trkpt lat="37.083618" lon="-79.603819">
        <ele>259.678262</ele>
        <time>2025-09-05T13:47:49.000Z</time>
      </trkpt>
      <trkpt lat="37.083909" lon="-79.603639">
        <ele>259.662034</ele>
        <time>2025-09-05T13:47:53.000Z</time>
      </trkpt>
      <trkpt lat="37.085186" lon="-79.603159">
        <ele>259.283172</ele>
        <time>2025-09-05T13:48:08.000Z</time>
      </trkpt>
      <trkpt lat="37.085443" lon="-79.602974">
        <ele>259.300503</ele>
        <time>2025-09-05T13:48:11.000Z</time>
      </trkpt>
      <trkpt lat="37.085671" lon="-79.602711">
        <ele>259.583211</ele>
        <time>2025-09-05T13:48:14.000Z</time>
      </trkpt>
      <trkpt lat="37.085836" lon="-79.602444">
        <ele>259.82822</ele>
        <time>2025-09-05T13:48:17.000Z</time>
      </trkpt>
      <trkpt lat="37.086003" lon="-79.602011">
        <ele>260.189357</ele>
        <time>2025-09-05T13:48:21.000Z</time>
      </trkpt>
      <trkpt lat="37.086754" lon="-79.599721">
        <ele>263.123201</ele>
        <time>2025-09-05T13:48:43.000Z</time>
      </trkpt>
      <trkpt lat="37.086906" lon="-79.599376">
        <ele>263.68219</ele>
        <time>2025-09-05T13:48:46.000Z</time>
      </trkpt>
      <trkpt lat="37.086964" lon="-79.599259">
        <ele>263.88595</ele>
        <time>2025-09-05T13:48:47.000Z</time>
      </trkpt>
      <trkpt lat="37.087294" lon="-79.598934">
        <ele>264.916371</ele>
        <time>2025-09-05T13:48:52.000Z</time>
      </trkpt>
      <trkpt lat="37.087762" lon="-79.598607">
        <ele>266.453508</ele>
        <time>2025-09-05T13:48:58.000Z</time>
      </trkpt>
      <trkpt lat="37.088277" lon="-79.598224">
        <ele>268.123956</ele>
        <time>2025-09-05T13:49:05.000Z</time>
      </trkpt>
      <trkpt lat="37.088586" lon="-79.597881">
        <ele>269.32462</ele>
        <time>2025-09-05T13:49:10.000Z</time>
      </trkpt>
      <trkpt lat="37.089125" lon="-79.597137">
        <ele>272.335898</ele>
        <time>2025-09-05T13:49:19.000Z</time>
      </trkpt>
      <trkpt lat="37.089572" lon="-79.596376">
        <ele>275.127057</ele>
        <time>2025-09-05T13:49:27.000Z</time>
      </trkpt>
      <trkpt lat="37.089736" lon="-79.596073">
        <ele>276.059725</ele>
        <time>2025-09-05T13:49:30.000Z</time>
      </trkpt>
      <trkpt lat="37.08982" lon="-79.595918">
        <ele>276.202715</ele>
        <time>2025-09-05T13:49:32.000Z</time>
      </trkpt>
      <trkpt lat="37.090177" lon="-79.595307">
        <ele>276.84228</ele>
        <time>2025-09-05T13:49:39.000Z</time>
      </trkpt>
      <trkpt lat="37.091091" lon="-79.593637">
        <ele>277.338429</ele>
        <time>2025-09-05T13:49:57.000Z</time>
      </trkpt>
      <trkpt lat="37.091416" lon="-79.593146">
        <ele>276.922172</ele>
        <time>2025-09-05T13:50:03.000Z</time>
      </trkpt>
      <trkpt lat="37.09152" lon="-79.593445">
        <ele>276.713421</ele>
        <time>2025-09-05T13:50:06.000Z</time>
      </trkpt>
      <trkpt lat="37.09218" lon="-79.595265">
        <ele>273.852073</ele>
        <time>2025-09-05T13:50:24.000Z</time>
      </trkpt>
      <trkpt lat="37.093368" lon="-79.598656">
        <ele>266.605687</ele>
        <time>2025-09-05T13:50:57.000Z</time>
      </trkpt>
      <trkpt lat="37.093996" lon="-79.60038">
        <ele>261.436183</ele>
        <time>2025-09-05T13:51:14.000Z</time>
      </trkpt>
      <trkpt lat="37.094089" lon="-79.600662">
        <ele>260.812833</ele>
        <time>2025-09-05T13:51:17.000Z</time>
      </trkpt>
      <trkpt lat="37.094385" lon="-79.601498">
        <ele>259.02636</ele>
        <time>2025-09-05T13:51:25.000Z</time>
      </trkpt>
      <trkpt lat="37.094618" lon="-79.601886">
        <ele>258.035092</ele>
        <time>2025-09-05T13:51:29.000Z</time>
      </trkpt>
      <trkpt lat="37.094931" lon="-79.60222">
        <ele>257.250688</ele>
        <time>2025-09-05T13:51:34.000Z</time>
      </trkpt>
      <trkpt lat="37.095872" lon="-79.602945">
        <ele>255.487394</ele>
        <time>2025-09-05T13:51:46.000Z</time>
      </trkpt>
      <trkpt lat="37.096073" lon="-79.603133">
        <ele>255.098688</ele>
        <time>2025-09-05T13:51:49.000Z</time>
      </trkpt>
      <trkpt lat="37.096968" lon="-79.604252">
        <ele>252.80177</ele>
        <time>2025-09-05T13:52:03.000Z</time>
      </trkpt>
      <trkpt lat="37.097076" lon="-79.604431">
        <ele>252.46531</ele>
        <time>2025-09-05T13:52:05.000Z</time>
      </trkpt>
      <trkpt lat="37.09723" lon="-79.604772">
        <ele>251.887572</ele>
        <time>2025-09-05T13:52:08.000Z</time>
      </trkpt>
      <trkpt lat="37.097304" lon="-79.605119">
        <ele>251.44175</ele>
        <time>2025-09-05T13:52:11.000Z</time>
      </trkpt>
      <trkpt lat="37.097347" lon="-79.605473">
        <ele>251.468627</ele>
        <time>2025-09-05T13:52:14.000Z</time>
      </trkpt>
      <trkpt lat="37.097218" lon="-79.607923">
        <ele>252.148724</ele>
        <time>2025-09-05T13:52:36.000Z</time>
      </trkpt>
      <trkpt lat="37.097102" lon="-79.608389">
        <ele>252.583339</ele>
        <time>2025-09-05T13:52:40.000Z</time>
      </trkpt>
      <trkpt lat="37.097029" lon="-79.608614">
        <ele>252.808967</ele>
        <time>2025-09-05T13:52:42.000Z</time>
      </trkpt>
      <trkpt lat="37.096858" lon="-79.60885">
        <ele>253.085302</ele>
        <time>2025-09-05T13:52:45.000Z</time>
      </trkpt>
      <trkpt lat="37.096712" lon="-79.609">
        <ele>253.310467</ele>
        <time>2025-09-05T13:52:47.000Z</time>
      </trkpt>
      <trkpt lat="37.096664" lon="-79.609035">
        <ele>253.354678</ele>
        <time>2025-09-05T13:52:48.000Z</time>
      </trkpt>
      <trkpt lat="37.096416" lon="-79.609222">
        <ele>253.648034</ele>
        <time>2025-09-05T13:52:51.000Z</time>
      </trkpt>
      <trkpt lat="37.096148" lon="-79.609397">
        <ele>253.789933</ele>
        <time>2025-09-05T13:52:54.000Z</time>
      </trkpt>
      <trkpt lat="37.096" lon="-79.609487">
        <ele>253.863321</ele>
        <time>2025-09-05T13:52:56.000Z</time>
      </trkpt>
      <trkpt lat="37.095784" lon="-79.609867">
        <ele>254.034257</ele>
        <time>2025-09-05T13:53:00.000Z</time>
      </trkpt>
      <trkpt lat="37.095728" lon="-79.609921">
        <ele>254.06562</ele>
        <time>2025-09-05T13:53:01.000Z</time>
      </trkpt>
      <trkpt lat="37.095678" lon="-79.609948">
        <ele>254.095017</ele>
        <time>2025-09-05T13:53:02.000Z</time>
      </trkpt>
      <trkpt lat="37.095624" lon="-79.610058">
        <ele>254.143184</ele>
        <time>2025-09-05T13:53:03.000Z</time>
      </trkpt>
      <trkpt lat="37.095592" lon="-79.610089">
        <ele>254.167301</ele>
        <time>2025-09-05T13:53:03.000Z</time>
      </trkpt>
      <trkpt lat="37.095092" lon="-79.610363">
        <ele>254.418813</ele>
        <time>2025-09-05T13:53:09.000Z</time>
      </trkpt>
      <trkpt lat="37.095088" lon="-79.610386">
        <ele>254.42397</ele>
        <time>2025-09-05T13:53:09.000Z</time>
      </trkpt>
      <trkpt lat="37.095071" lon="-79.610387">
        <ele>254.429072</ele>
        <time>2025-09-05T13:53:09.000Z</time>
      </trkpt>
      <trkpt lat="37.095068" lon="-79.610386">
        <ele>254.431441</ele>
        <time>2025-09-05T13:53:09.000Z</time>
      </trkpt>
      <trkpt lat="37.095064" lon="-79.610381">
        <ele>254.431902</ele>
        <time>2025-09-05T13:53:09.000Z</time>
      </trkpt>
      <trkpt lat="37.095062" lon="-79.610385">
        <ele>254.432815</ele>
        <time>2025-09-05T13:53:09.000Z</time>
      </trkpt>
      <trkpt lat="37.095056" lon="-79.610376">
        <ele>254.434208</ele>
        <time>2025-09-05T13:53:09.000Z</time>
      </trkpt>
      <trkpt lat="37.095056" lon="-79.610372">
        <ele>254.435661</ele>
        <time>2025-09-05T13:53:09.000Z</time>
      </trkpt>
      <trkpt lat="37.095032" lon="-79.610391">
        <ele>254.444976</ele>
        <time>2025-09-05T13:53:09.000Z</time>
      </trkpt>
      <trkpt lat="37.095" lon="-79.610361">
        <ele>254.449404</ele>
        <time>2025-09-05T13:53:09.000Z</time>
      </trkpt>
      <trkpt lat="37.094974" lon="-79.61034">
        <ele>254.433274</ele>
        <time>2025-09-05T13:53:09.000Z</time>
      </trkpt>
      <trkpt lat="37.094904" lon="-79.610194">
        <ele>254.382903</ele>
        <time>2025-09-05T13:53:11.000Z</time>
      </trkpt>
      <trkpt lat="37.095426" lon="-79.609883">
        <ele>254.169851</ele>
        <time>2025-09-05T13:53:17.000Z</time>
      </trkpt>
      <trkpt lat="37.095418" lon="-79.609892">
        <ele>254.169472</ele>
        <time>2025-09-05T13:53:17.000Z</time>
      </trkpt>
      <trkpt lat="37.095427" lon="-79.609888">
        <ele>254.168495</ele>
        <time>2025-09-05T13:53:17.000Z</time>
      </trkpt>
      <trkpt lat="37.095429" lon="-79.609882">
        <ele>254.164745</ele>
        <time>2025-09-05T13:53:17.000Z</time>
      </trkpt>
      <trkpt lat="37.095439" lon="-79.609875">
        <ele>254.164268</ele>
        <time>2025-09-05T13:53:17.000Z</time>
      </trkpt>
      <trkpt lat="37.095426" lon="-79.609874">
        <ele>254.163889</ele>
        <time>2025-09-05T13:53:17.000Z</time>
      </trkpt>
      <trkpt lat="37.095429" lon="-79.609884">
        <ele>254.162244</ele>
        <time>2025-09-05T13:53:17.000Z</time>
      </trkpt>
      <trkpt lat="37.095438" lon="-79.609872">
        <ele>254.161763</ele>
        <time>2025-09-05T13:53:17.000Z</time>
      </trkpt>
      <trkpt lat="37.095448" lon="-79.609874">
        <ele>254.159656</ele>
        <time>2025-09-05T13:53:17.000Z</time>
      </trkpt>
      <trkpt lat="37.095448" lon="-79.60988">
        <ele>254.158006</ele>
        <time>2025-09-05T13:53:17.000Z</time>
      </trkpt>
      <trkpt lat="37.095488" lon="-79.609847">
        <ele>254.140674</ele>
        <time>2025-09-05T13:53:18.000Z</time>
      </trkpt>
      <trkpt lat="37.095528" lon="-79.609827">
        <ele>254.125915</ele>
        <time>2025-09-05T13:53:18.000Z</time>
      </trkpt>
      <trkpt lat="37.095605" lon="-79.609821">
        <ele>254.095835</ele>
        <time>2025-09-05T13:53:19.000Z</time>
      </trkpt>
      <trkpt lat="37.095614" lon="-79.609776">
        <ele>254.081264</ele>
        <time>2025-09-05T13:53:19.000Z</time>
      </trkpt>
      <trkpt lat="37.095678" lon="-79.609695">
        <ele>254.045836</ele>
        <time>2025-09-05T13:53:20.000Z</time>
      </trkpt>
      <trkpt lat="37.096002" lon="-79.609489">
        <ele>253.908261</ele>
        <time>2025-09-05T13:53:24.000Z</time>
      </trkpt>
      <trkpt lat="37.096148" lon="-79.609397">
        <ele>253.848138</ele>
        <time>2025-09-05T13:53:26.000Z</time>
      </trkpt>
      <trkpt lat="37.096415" lon="-79.609226">
        <ele>253.658255</ele>
        <time>2025-09-05T13:53:29.000Z</time>
      </trkpt>
      <trkpt lat="37.096669" lon="-79.60903">
        <ele>253.325823</ele>
        <time>2025-09-05T13:53:32.000Z</time>
      </trkpt>
      <trkpt lat="37.0967" lon="-79.609004">
        <ele>253.281853</ele>
        <time>2025-09-05T13:53:32.000Z</time>
      </trkpt>
      <trkpt lat="37.09687" lon="-79.608859">
        <ele>253.057928</ele>
        <time>2025-09-05T13:53:34.000Z</time>
      </trkpt>
      <trkpt lat="37.097017" lon="-79.608618">
        <ele>252.7831</ele>
        <time>2025-09-05T13:53:37.000Z</time>
      </trkpt>
      <trkpt lat="37.097116" lon="-79.608401">
        <ele>252.558704</ele>
        <time>2025-09-05T13:53:39.000Z</time>
      </trkpt>
      <trkpt lat="37.097209" lon="-79.607929">
        <ele>252.126469</ele>
        <time>2025-09-05T13:53:43.000Z</time>
      </trkpt>
      <trkpt lat="37.097346" lon="-79.605478">
        <ele>251.298822</ele>
        <time>2025-09-05T13:54:05.000Z</time>
      </trkpt>
      <trkpt lat="37.097313" lon="-79.605115">
        <ele>251.475864</ele>
        <time>2025-09-05T13:54:08.000Z</time>
      </trkpt>
      <trkpt lat="37.097237" lon="-79.604782">
        <ele>251.980685</ele>
        <time>2025-09-05T13:54:11.000Z</time>
      </trkpt>
      <trkpt lat="37.097078" lon="-79.604443">
        <ele>252.543318</ele>
        <time>2025-09-05T13:54:14.000Z</time>
      </trkpt>
      <trkpt lat="37.096972" lon="-79.604249">
        <ele>252.870981</ele>
        <time>2025-09-05T13:54:16.000Z</time>
      </trkpt>
      <trkpt lat="37.096063" lon="-79.603138">
        <ele>255.085717</ele>
        <time>2025-09-05T13:54:30.000Z</time>
      </trkpt>
      <trkpt lat="37.095883" lon="-79.602944">
        <ele>255.476931</ele>
        <time>2025-09-05T13:54:33.000Z</time>
      </trkpt>
      <trkpt lat="37.094927" lon="-79.602204">
        <ele>257.251649</ele>
        <time>2025-09-05T13:54:45.000Z</time>
      </trkpt>
      <trkpt lat="37.094631" lon="-79.601889">
        <ele>258.121024</ele>
        <time>2025-09-05T13:54:49.000Z</time>
      </trkpt>
      <trkpt lat="37.094383" lon="-79.601495">
        <ele>259.035875</ele>
        <time>2025-09-05T13:54:53.000Z</time>
      </trkpt>
      <trkpt lat="37.094098" lon="-79.600662">
        <ele>260.684624</ele>
        <time>2025-09-05T13:55:01.000Z</time>
      </trkpt>
      <trkpt lat="37.093991" lon="-79.600384">
        <ele>261.259918</ele>
        <time>2025-09-05T13:55:04.000Z</time>
      </trkpt>
      <trkpt lat="37.093364" lon="-79.598661">
        <ele>266.718567</ele>
        <time>2025-09-05T13:55:21.000Z</time>
      </trkpt>
      <trkpt lat="37.092176" lon="-79.595269">
        <ele>273.861095</ele>
        <time>2025-09-05T13:55:54.000Z</time>
      </trkpt>
      <trkpt lat="37.091513" lon="-79.593444">
        <ele>276.639485</ele>
        <time>2025-09-05T13:56:12.000Z</time>
      </trkpt>
      <trkpt lat="37.091411" lon="-79.593148">
        <ele>276.890877</ele>
        <time>2025-09-05T13:56:15.000Z</time>
      </trkpt>
      <trkpt lat="37.091102" lon="-79.593645">
        <ele>277.3921</ele>
        <time>2025-09-05T13:56:21.000Z</time>
      </trkpt>
      <trkpt lat="37.090165" lon="-79.595294">
        <ele>276.914985</ele>
        <time>2025-09-05T13:56:39.000Z</time>
      </trkpt>
      <trkpt lat="37.089829" lon="-79.595917">
        <ele>276.405714</ele>
        <time>2025-09-05T13:56:46.000Z</time>
      </trkpt>
      <trkpt lat="37.089735" lon="-79.596056">
        <ele>276.050174</ele>
        <time>2025-09-05T13:56:48.000Z</time>
      </trkpt>
      <trkpt lat="37.089573" lon="-79.596378">
        <ele>274.965029</ele>
        <time>2025-09-05T13:56:51.000Z</time>
      </trkpt>
      <trkpt lat="37.089123" lon="-79.597135">
        <ele>272.293583</ele>
        <time>2025-09-05T13:56:59.000Z</time>
      </trkpt>
      <trkpt lat="37.08859" lon="-79.597894">
        <ele>269.487709</ele>
        <time>2025-09-05T13:57:08.000Z</time>
      </trkpt>
      <trkpt lat="37.088276" lon="-79.598218">
        <ele>268.217772</ele>
        <time>2025-09-05T13:57:13.000Z</time>
      </trkpt>
      <trkpt lat="37.087776" lon="-79.598602">
        <ele>266.422868</ele>
        <time>2025-09-05T13:57:20.000Z</time>
      </trkpt>
      <trkpt lat="37.087288" lon="-79.59893">
        <ele>264.771199</ele>
        <time>2025-09-05T13:57:26.000Z</time>
      </trkpt>
      <trkpt lat="37.086964" lon="-79.599266">
        <ele>263.886808</ele>
        <time>2025-09-05T13:57:31.000Z</time>
      </trkpt>
      <trkpt lat="37.086906" lon="-79.599369">
        <ele>263.684262</ele>
        <time>2025-09-05T13:57:32.000Z</time>
      </trkpt>
      <trkpt lat="37.086757" lon="-79.599715">
        <ele>263.128614</ele>
        <time>2025-09-05T13:57:35.000Z</time>
      </trkpt>
      <trkpt lat="37.086009" lon="-79.602022">
        <ele>260.182578</ele>
        <time>2025-09-05T13:57:57.000Z</time>
      </trkpt>
      <trkpt lat="37.085837" lon="-79.602442">
        <ele>259.749514</ele>
        <time>2025-09-05T13:58:01.000Z</time>
      </trkpt>
      <trkpt lat="37.085668" lon="-79.602709">
        <ele>259.455704</ele>
        <time>2025-09-05T13:58:04.000Z</time>
      </trkpt>
      <trkpt lat="37.085449" lon="-79.602965">
        <ele>259.227065</ele>
        <time>2025-09-05T13:58:07.000Z</time>
      </trkpt>
      <trkpt lat="37.085184" lon="-79.60316">
        <ele>259.319794</ele>
        <time>2025-09-05T13:58:10.000Z</time>
      </trkpt>
      <trkpt lat="37.083908" lon="-79.603639">
        <ele>259.732506</ele>
        <time>2025-09-05T13:58:25.000Z</time>
      </trkpt>
      <trkpt lat="37.083617" lon="-79.603826">
        <ele>259.600899</ele>
        <time>2025-09-05T13:58:29.000Z</time>
      </trkpt>
      <trkpt lat="37.08338" lon="-79.604105">
        <ele>259.382506</ele>
        <time>2025-09-05T13:58:33.000Z</time>
      </trkpt>
      <trkpt lat="37.083187" lon="-79.604427">
        <ele>259.180096</ele>
        <time>2025-09-05T13:58:37.000Z</time>
      </trkpt>
      <trkpt lat="37.083121" lon="-79.604707">
        <ele>259.024964</ele>
        <time>2025-09-05T13:58:40.000Z</time>
      </trkpt>
      <trkpt lat="37.082969" lon="-79.606615">
        <ele>258.699433</ele>
        <time>2025-09-05T13:58:57.000Z</time>
      </trkpt>
      <trkpt lat="37.082876" lon="-79.606954">
        <ele>258.742159</ele>
        <time>2025-09-05T13:59:00.000Z</time>
      </trkpt>
      <trkpt lat="37.082806" lon="-79.607146">
        <ele>258.767832</ele>
        <time>2025-09-05T13:59:02.000Z</time>
      </trkpt>
      <trkpt lat="37.082615" lon="-79.607483">
        <ele>258.818048</ele>
        <time>2025-09-05T13:59:06.000Z</time>
      </trkpt>
      <trkpt lat="37.08245" lon="-79.607641">
        <ele>258.724014</ele>
        <time>2025-09-05T13:59:08.000Z</time>
      </trkpt>
      <trkpt lat="37.082136" lon="-79.6078">
        <ele>257.811777</ele>
        <time>2025-09-05T13:59:12.000Z</time>
      </trkpt>
      <trkpt lat="37.081574" lon="-79.608033">
        <ele>256.168514</ele>
        <time>2025-09-05T13:59:19.000Z</time>
      </trkpt>
      <trkpt lat="37.081297" lon="-79.608208">
        <ele>255.308868</ele>
        <time>2025-09-05T13:59:22.000Z</time>
      </trkpt>
      <trkpt lat="37.080922" lon="-79.608523">
        <ele>254.072585</ele>
        <time>2025-09-05T13:59:27.000Z</time>
      </trkpt>
      <trkpt lat="37.080363" lon="-79.60907">
        <ele>251.352861</ele>
        <time>2025-09-05T13:59:35.000Z</time>
      </trkpt>
      <trkpt lat="37.080147" lon="-79.609336">
        <ele>250.200252</ele>
        <time>2025-09-05T13:59:38.000Z</time>
      </trkpt>
      <trkpt lat="37.080101" lon="-79.609432">
        <ele>249.845695</ele>
        <time>2025-09-05T13:59:39.000Z</time>
      </trkpt>
      <trkpt lat="37.080026" lon="-79.60966">
        <ele>249.147103</ele>
        <time>2025-09-05T13:59:41.000Z</time>
      </trkpt>
      <trkpt lat="37.08002" lon="-79.60983">
        <ele>248.586281</ele>
        <time>2025-09-05T13:59:43.000Z</time>
      </trkpt>
      <trkpt lat="37.080047" lon="-79.610275">
        <ele>247.231105</ele>
        <time>2025-09-05T13:59:47.000Z</time>
      </trkpt>
      <trkpt lat="37.080026" lon="-79.61043">
        <ele>246.921531</ele>
        <time>2025-09-05T13:59:48.000Z</time>
      </trkpt>
      <trkpt lat="37.079987" lon="-79.610515">
        <ele>246.903442</ele>
        <time>2025-09-05T13:59:49.000Z</time>
      </trkpt>
      <trkpt lat="37.07973" lon="-79.610763">
        <ele>246.813557</ele>
        <time>2025-09-05T13:59:53.000Z</time>
      </trkpt>
      <trkpt lat="37.079637" lon="-79.610901">
        <ele>246.777071</ele>
        <time>2025-09-05T13:59:55.000Z</time>
      </trkpt>
      <trkpt lat="37.079544" lon="-79.611204">
        <ele>246.705878</ele>
        <time>2025-09-05T13:59:58.000Z</time>
      </trkpt>
      <trkpt lat="37.079454" lon="-79.611533">
        <ele>246.629542</ele>
        <time>2025-09-05T14:00:01.000Z</time>
      </trkpt>
      <trkpt lat="37.079362" lon="-79.6117">
        <ele>246.586626</ele>
        <time>2025-09-05T14:00:03.000Z</time>
      </trkpt>
      <trkpt lat="37.079176" lon="-79.611852">
        <ele>246.524411</ele>
        <time>2025-09-05T14:00:05.000Z</time>
      </trkpt>
      <trkpt lat="37.078779" lon="-79.611988">
        <ele>246.634121</ele>
        <time>2025-09-05T14:00:10.000Z</time>
      </trkpt>
      <trkpt lat="37.078669" lon="-79.612053">
        <ele>246.826885</ele>
        <time>2025-09-05T14:00:11.000Z</time>
      </trkpt>
      <trkpt lat="37.078582" lon="-79.612141">
        <ele>246.980874</ele>
        <time>2025-09-05T14:00:12.000Z</time>
      </trkpt>
      <trkpt lat="37.078534" lon="-79.612252">
        <ele>247.133806</ele>
        <time>2025-09-05T14:00:13.000Z</time>
      </trkpt>
      <trkpt lat="37.078481" lon="-79.61243">
        <ele>247.361068</ele>
        <time>2025-09-05T14:00:15.000Z</time>
      </trkpt>
      <trkpt lat="37.078478" lon="-79.612627">
        <ele>247.589434</ele>
        <time>2025-09-05T14:00:17.000Z</time>
      </trkpt>
      <trkpt lat="37.078587" lon="-79.613034">
        <ele>248.089237</ele>
        <time>2025-09-05T14:00:21.000Z</time>
      </trkpt>
      <trkpt lat="37.07868" lon="-79.613355">
        <ele>248.515109</ele>
        <time>2025-09-05T14:00:24.000Z</time>
      </trkpt>
      <trkpt lat="37.078828" lon="-79.613711">
        <ele>248.970181</ele>
        <time>2025-09-05T14:00:28.000Z</time>
      </trkpt>
      <trkpt lat="37.07908" lon="-79.614111">
        <ele>249.094282</ele>
        <time>2025-09-05T14:00:33.000Z</time>
      </trkpt>
      <trkpt lat="37.079207" lon="-79.614459">
        <ele>249.073061</ele>
        <time>2025-09-05T14:00:36.000Z</time>
      </trkpt>
      <trkpt lat="37.079271" lon="-79.61482">
        <ele>249.052164</ele>
        <time>2025-09-05T14:00:39.000Z</time>
      </trkpt>
      <trkpt lat="37.079291" lon="-79.615064">
        <ele>249.038426</ele>
        <time>2025-09-05T14:00:41.000Z</time>
      </trkpt>
      <trkpt lat="37.079293" lon="-79.615244">
        <ele>249.029141</ele>
        <time>2025-09-05T14:00:43.000Z</time>
      </trkpt>
      <trkpt lat="37.079289" lon="-79.615286">
        <ele>249.026419</ele>
        <time>2025-09-05T14:00:43.000Z</time>
      </trkpt>
      <trkpt lat="37.079271" lon="-79.615302">
        <ele>249.02571</ele>
        <time>2025-09-05T14:00:43.000Z</time>
      </trkpt>
      <trkpt lat="37.079268" lon="-79.615311">
        <ele>249.025314</ele>
        <time>2025-09-05T14:00:43.000Z</time>
      </trkpt>
      <trkpt lat="37.079283" lon="-79.615317">
        <ele>249.024903</ele>
        <time>2025-09-05T14:00:43.000Z</time>
      </trkpt>
      <trkpt lat="37.079266" lon="-79.615324">
        <ele>249.024824</ele>
        <time>2025-09-05T14:00:43.000Z</time>
      </trkpt>
      <trkpt lat="37.079275" lon="-79.615315">
        <ele>249.024639</ele>
        <time>2025-09-05T14:00:43.000Z</time>
      </trkpt>
      <trkpt lat="37.079269" lon="-79.615331">
        <ele>249.024421</ele>
        <time>2025-09-05T14:00:43.000Z</time>
      </trkpt>
      <trkpt lat="37.079273" lon="-79.615324">
        <ele>249.024247</ele>
        <time>2025-09-05T14:00:43.000Z</time>
      </trkpt>
      <trkpt lat="37.079246" lon="-79.615401">
        <ele>249.019946</ele>
        <time>2025-09-05T14:00:44.000Z</time>
      </trkpt>
      <trkpt lat="37.07919" lon="-79.615501">
        <ele>249.012605</ele>
        <time>2025-09-05T14:00:45.000Z</time>
      </trkpt>
      <trkpt lat="37.079088" lon="-79.615576">
        <ele>249.005231</ele>
        <time>2025-09-05T14:00:46.000Z</time>
      </trkpt>
      <trkpt lat="37.079024" lon="-79.615599">
        <ele>249.000606</ele>
        <time>2025-09-05T14:00:47.000Z</time>
      </trkpt>
      <trkpt lat="37.078915" lon="-79.615582">
        <ele>248.992337</ele>
        <time>2025-09-05T14:00:48.000Z</time>
      </trkpt>
      <trkpt lat="37.078814" lon="-79.615463">
        <ele>248.936281</ele>
        <time>2025-09-05T14:00:50.000Z</time>
      </trkpt>
      <trkpt lat="37.078744" lon="-79.615304">
        <ele>248.869862</ele>
        <time>2025-09-05T14:00:52.000Z</time>
      </trkpt>
      <trkpt lat="37.078755" lon="-79.615285">
        <ele>248.858</ele>
        <time>2025-09-05T14:00:52.000Z</time>
      </trkpt>
      <trkpt lat="37.078757" lon="-79.615264">
        <ele>248.852265</ele>
        <time>2025-09-05T14:00:52.000Z</time>
      </trkpt>
      <trkpt lat="37.07876" lon="-79.615257">
        <ele>248.849961</ele>
        <time>2025-09-05T14:00:52.000Z</time>
      </trkpt>
      <trkpt lat="37.078755" lon="-79.61525">
        <ele>248.84806</ele>
        <time>2025-09-05T14:00:52.000Z</time>
      </trkpt>
      <trkpt lat="37.078754" lon="-79.615252">
        <ele>248.84614</ele>
        <time>2025-09-05T14:00:52.000Z</time>
      </trkpt>
      <trkpt lat="37.078756" lon="-79.615243">
        <ele>248.845378</ele>
        <time>2025-09-05T14:00:52.000Z</time>
      </trkpt>
      <trkpt lat="37.078748" lon="-79.61525">
        <ele>248.842705</ele>
        <time>2025-09-05T14:00:52.000Z</time>
      </trkpt>
      <trkpt lat="37.078758" lon="-79.615237">
        <ele>248.841183</ele>
        <time>2025-09-05T14:00:52.000Z</time>
      </trkpt>
      <trkpt lat="37.078758" lon="-79.615022">
        <ele>248.758566</ele>
        <time>2025-09-05T14:00:54.000Z</time>
      </trkpt>
      <trkpt lat="37.078815" lon="-79.614162">
        <ele>248.430391</ele>
        <time>2025-09-05T14:01:02.000Z</time>
      </trkpt>
      <trkpt lat="37.078823" lon="-79.613709">
        <ele>248.255629</ele>
        <time>2025-09-05T14:01:06.000Z</time>
      </trkpt>
      <trkpt lat="37.078682" lon="-79.613356">
        <ele>248.081667</ele>
        <time>2025-09-05T14:01:10.000Z</time>
      </trkpt>
      <trkpt lat="37.07857" lon="-79.613033">
        <ele>247.763328</ele>
        <time>2025-09-05T14:01:13.000Z</time>
      </trkpt>
      <trkpt lat="37.078481" lon="-79.612622">
        <ele>247.389724</ele>
        <time>2025-09-05T14:01:17.000Z</time>
      </trkpt>
      <trkpt lat="37.078478" lon="-79.612434">
        <ele>247.219037</ele>
        <time>2025-09-05T14:01:19.000Z</time>
      </trkpt>
      <trkpt lat="37.078533" lon="-79.612255">
        <ele>247.049138</ele>
        <time>2025-09-05T14:01:21.000Z</time>
      </trkpt>
      <trkpt lat="37.078586" lon="-79.612146">
        <ele>246.934837</ele>
        <time>2025-09-05T14:01:22.000Z</time>
      </trkpt>
      <trkpt lat="37.078652" lon="-79.612052">
        <ele>246.819738</ele>
        <time>2025-09-05T14:01:23.000Z</time>
      </trkpt>
      <trkpt lat="37.078783" lon="-79.611981">
        <ele>246.675631</ele>
        <time>2025-09-05T14:01:25.000Z</time>
      </trkpt>
      <trkpt lat="37.079163" lon="-79.611854">
        <ele>246.226043</ele>
        <time>2025-09-05T14:01:29.000Z</time>
      </trkpt>
      <trkpt lat="37.079353" lon="-79.611684">
        <ele>246.264609</ele>
        <time>2025-09-05T14:01:32.000Z</time>
      </trkpt>
      <trkpt lat="37.079449" lon="-79.611525">
        <ele>246.403852</ele>
        <time>2025-09-05T14:01:34.000Z</time>
      </trkpt>
      <trkpt lat="37.07954" lon="-79.611201">
        <ele>246.651516</ele>
        <time>2025-09-05T14:01:37.000Z</time>
      </trkpt>
      <trkpt lat="37.079655" lon="-79.61089">
        <ele>246.882457</ele>
        <time>2025-09-05T14:01:40.000Z</time>
      </trkpt>
      <trkpt lat="37.079737" lon="-79.610779">
        <ele>247.000781</ele>
        <time>2025-09-05T14:01:41.000Z</time>
      </trkpt>
      <trkpt lat="37.079997" lon="-79.610501">
        <ele>247.292405</ele>
        <time>2025-09-05T14:01:45.000Z</time>
      </trkpt>
      <trkpt lat="37.080023" lon="-79.610431">
        <ele>247.351095</ele>
        <time>2025-09-05T14:01:46.000Z</time>
      </trkpt>
      <trkpt lat="37.080057" lon="-79.610272">
        <ele>247.468753</ele>
        <time>2025-09-05T14:01:47.000Z</time>
      </trkpt>
      <trkpt lat="37.080033" lon="-79.609839">
        <ele>248.011878</ele>
        <time>2025-09-05T14:01:51.000Z</time>
      </trkpt>
      <trkpt lat="37.080033" lon="-79.609659">
        <ele>248.656182</ele>
        <time>2025-09-05T14:01:53.000Z</time>
      </trkpt>
      <trkpt lat="37.080095" lon="-79.609445">
        <ele>249.45877</ele>
        <time>2025-09-05T14:01:55.000Z</time>
      </trkpt>
      <trkpt lat="37.080155" lon="-79.609344">
        <ele>249.86611</ele>
        <time>2025-09-05T14:01:56.000Z</time>
      </trkpt>
      <trkpt lat="37.080349" lon="-79.609083">
        <ele>251.190297</ele>
        <time>2025-09-05T14:01:59.000Z</time>
      </trkpt>
      <trkpt lat="37.080928" lon="-79.608526">
        <ele>254.407309</ele>
        <time>2025-09-05T14:02:07.000Z</time>
      </trkpt>
      <trkpt lat="37.081302" lon="-79.608207">
        <ele>255.948696</ele>
        <time>2025-09-05T14:02:12.000Z</time>
      </trkpt>
      <trkpt lat="37.081576" lon="-79.608027">
        <ele>256.468533</ele>
        <time>2025-09-05T14:02:15.000Z</time>
      </trkpt>
      <trkpt lat="37.08214" lon="-79.607795">
        <ele>257.462203</ele>
        <time>2025-09-05T14:02:22.000Z</time>
      </trkpt>
      <trkpt lat="37.082443" lon="-79.607639">
        <ele>258.013841</ele>
        <time>2025-09-05T14:02:26.000Z</time>
      </trkpt>
      <trkpt lat="37.082622" lon="-79.607479">
        <ele>258.367608</ele>
        <time>2025-09-05T14:02:28.000Z</time>
      </trkpt>
      <trkpt lat="37.08281" lon="-79.607135">
        <ele>258.706765</ele>
        <time>2025-09-05T14:02:32.000Z</time>
      </trkpt>
      <trkpt lat="37.082887" lon="-79.606952">
        <ele>258.724807</ele>
        <time>2025-09-05T14:02:34.000Z</time>
      </trkpt>
      <trkpt lat="37.082967" lon="-79.606604">
        <ele>258.754846</ele>
        <time>2025-09-05T14:02:37.000Z</time>
      </trkpt>
      <trkpt lat="37.083115" lon="-79.604698">
        <ele>259.035575</ele>
        <time>2025-09-05T14:02:54.000Z</time>
      </trkpt>
      <trkpt lat="37.083187" lon="-79.60442">
        <ele>259.146132</ele>
        <time>2025-09-05T14:02:57.000Z</time>
      </trkpt>
      <trkpt lat="37.083371" lon="-79.604106">
        <ele>259.290379</ele>
        <time>2025-09-05T14:03:00.000Z</time>
      </trkpt>
      <trkpt lat="37.083613" lon="-79.603821">
        <ele>259.446028</ele>
        <time>2025-09-05T14:03:04.000Z</time>
      </trkpt>
      <trkpt lat="37.08391" lon="-79.603642">
        <ele>259.60757</ele>
        <time>2025-09-05T14:03:08.000Z</time>
      </trkpt>
      <trkpt lat="37.08518" lon="-79.603173">
        <ele>259.465192</ele>
        <time>2025-09-05T14:03:23.000Z</time>
      </trkpt>
      <trkpt lat="37.085448" lon="-79.60298">
        <ele>259.390129</ele>
        <time>2025-09-05T14:03:26.000Z</time>
      </trkpt>
      <trkpt lat="37.085663" lon="-79.602718">
        <ele>259.313081</ele>
        <time>2025-09-05T14:03:29.000Z</time>
      </trkpt>
      <trkpt lat="37.085826" lon="-79.602458">
        <ele>259.470337</ele>
        <time>2025-09-05T14:03:32.000Z</time>
      </trkpt>
      <trkpt lat="37.086013" lon="-79.602027">
        <ele>260.040573</ele>
        <time>2025-09-05T14:03:36.000Z</time>
      </trkpt>
      <trkpt lat="37.086769" lon="-79.599704">
        <ele>263.188676</ele>
        <time>2025-09-05T14:03:58.000Z</time>
      </trkpt>
      <trkpt lat="37.0869" lon="-79.599375">
        <ele>263.746721</ele>
        <time>2025-09-05T14:04:01.000Z</time>
      </trkpt>
      <trkpt lat="37.086968" lon="-79.599257">
        <ele>263.950135</ele>
        <time>2025-09-05T14:04:02.000Z</time>
      </trkpt>
      <trkpt lat="37.087297" lon="-79.598927">
        <ele>264.703224</ele>
        <time>2025-09-05T14:04:07.000Z</time>
      </trkpt>
      <trkpt lat="37.087771" lon="-79.598597">
        <ele>266.170677</ele>
        <time>2025-09-05T14:04:13.000Z</time>
      </trkpt>
      <trkpt lat="37.088262" lon="-79.598223">
        <ele>268.229453</ele>
        <time>2025-09-05T14:04:19.000Z</time>
      </trkpt>
      <trkpt lat="37.088604" lon="-79.597893">
        <ele>269.686075</ele>
        <time>2025-09-05T14:04:24.000Z</time>
      </trkpt>
      <trkpt lat="37.089119" lon="-79.59713">
        <ele>272.378988</ele>
        <time>2025-09-05T14:04:33.000Z</time>
      </trkpt>
      <trkpt lat="37.08957" lon="-79.59638">
        <ele>274.693568</ele>
        <time>2025-09-05T14:04:41.000Z</time>
      </trkpt>
      <trkpt lat="37.089744" lon="-79.596067">
        <ele>275.633766</ele>
        <time>2025-09-05T14:04:44.000Z</time>
      </trkpt>
      <trkpt lat="37.089817" lon="-79.595934">
        <ele>276.058285</ele>
        <time>2025-09-05T14:04:45.000Z</time>
      </trkpt>
      <trkpt lat="37.09017" lon="-79.595292">
        <ele>277.159201</ele>
        <time>2025-09-05T14:04:52.000Z</time>
      </trkpt>
      <trkpt lat="37.091101" lon="-79.593651">
        <ele>277.647932</ele>
        <time>2025-09-05T14:05:10.000Z</time>
      </trkpt>
      <trkpt lat="37.091409" lon="-79.593143">
        <ele>276.956669</ele>
        <time>2025-09-05T14:05:16.000Z</time>
      </trkpt>
      <trkpt lat="37.091524" lon="-79.593441">
        <ele>276.609986</ele>
        <time>2025-09-05T14:05:19.000Z</time>
      </trkpt>
      <trkpt lat="37.092194" lon="-79.59527">
        <ele>273.874142</ele>
        <time>2025-09-05T14:05:37.000Z</time>
      </trkpt>
      <trkpt lat="37.093366" lon="-79.598671">
        <ele>266.958049</ele>
        <time>2025-09-05T14:06:10.000Z</time>
      </trkpt>
      <trkpt lat="37.093991" lon="-79.600389">
        <ele>261.254039</ele>
        <time>2025-09-05T14:06:27.000Z</time>
      </trkpt>
      <trkpt lat="37.094102" lon="-79.600668">
        <ele>260.309327</ele>
        <time>2025-09-05T14:06:30.000Z</time>
      </trkpt>
      <trkpt lat="37.094391" lon="-79.601494">
        <ele>258.920491</ele>
        <time>2025-09-05T14:06:38.000Z</time>
      </trkpt>
      <trkpt lat="37.094631" lon="-79.601888">
        <ele>258.15012</ele>
        <time>2025-09-05T14:06:42.000Z</time>
      </trkpt>
      <trkpt lat="37.094942" lon="-79.602211">
        <ele>257.370866</ele>
        <time>2025-09-05T14:06:46.000Z</time>
      </trkpt>
      <trkpt lat="37.09587" lon="-79.602934">
        <ele>255.455453</ele>
        <time>2025-09-05T14:06:58.000Z</time>
      </trkpt>
      <trkpt lat="37.096074" lon="-79.603135">
        <ele>255.050422</ele>
        <time>2025-09-05T14:07:01.000Z</time>
      </trkpt>
      <trkpt lat="37.096964" lon="-79.604253">
        <ele>252.988379</ele>
        <time>2025-09-05T14:07:15.000Z</time>
      </trkpt>
      <trkpt lat="37.097073" lon="-79.604429">
        <ele>252.701409</ele>
        <time>2025-09-05T14:07:17.000Z</time>
      </trkpt>
      <trkpt lat="37.097228" lon="-79.604769">
        <ele>252.208656</ele>
        <time>2025-09-05T14:07:20.000Z</time>
      </trkpt>
      <trkpt lat="37.097306" lon="-79.605115">
        <ele>251.76653</ele>
        <time>2025-09-05T14:07:23.000Z</time>
      </trkpt>
      <trkpt lat="37.097341" lon="-79.605477">
        <ele>251.29862</ele>
        <time>2025-09-05T14:07:26.000Z</time>
      </trkpt>
      <trkpt lat="37.097204" lon="-79.607928">
        <ele>252.132</ele>
        <time>2025-09-05T14:07:48.000Z</time>
      </trkpt>
      <trkpt lat="37.097101" lon="-79.608391">
        <ele>252.516021</ele>
        <time>2025-09-05T14:07:52.000Z</time>
      </trkpt>
      <trkpt lat="37.097026" lon="-79.608623">
        <ele>252.722745</ele>
        <time>2025-09-05T14:07:54.000Z</time>
      </trkpt>
      <trkpt lat="37.096864" lon="-79.608861">
        <ele>252.97592</ele>
        <time>2025-09-05T14:07:57.000Z</time>
      </trkpt>
      <trkpt lat="37.096705" lon="-79.609016">
        <ele>253.182194</ele>
        <time>2025-09-05T14:07:59.000Z</time>
      </trkpt>
      <trkpt lat="37.09668" lon="-79.609042">
        <ele>253.2227</ele>
        <time>2025-09-05T14:07:59.000Z</time>
      </trkpt>
      <trkpt lat="37.096419" lon="-79.609217">
        <ele>253.528936</ele>
        <time>2025-09-05T14:08:02.000Z</time>
      </trkpt>
      <trkpt lat="37.096142" lon="-79.609398">
        <ele>253.843036</ele>
        <time>2025-09-05T14:08:05.000Z</time>
      </trkpt>
      <trkpt lat="37.096014" lon="-79.609493">
        <ele>254.00441</ele>
        <time>2025-09-05T14:08:07.000Z</time>
      </trkpt>
      <trkpt lat="37.095796" lon="-79.609868">
        <ele>254.092001</ele>
        <time>2025-09-05T14:08:11.000Z</time>
      </trkpt>
      <trkpt lat="37.095732" lon="-79.609921">
        <ele>254.108093</ele>
        <time>2025-09-05T14:08:12.000Z</time>
      </trkpt>
      <trkpt lat="37.095673" lon="-79.609949">
        <ele>254.123136</ele>
        <time>2025-09-05T14:08:13.000Z</time>
      </trkpt>
      <trkpt lat="37.095636" lon="-79.610056">
        <ele>254.147837</ele>
        <time>2025-09-05T14:08:14.000Z</time>
      </trkpt>
      <trkpt lat="37.095589" lon="-79.610097">
        <ele>254.1602</ele>
        <time>2025-09-05T14:08:15.000Z</time>
      </trkpt>
      <trkpt lat="37.095088" lon="-79.610369">
        <ele>254.289093</ele>
        <time>2025-09-05T14:08:21.000Z</time>
      </trkpt>
      <trkpt lat="37.095084" lon="-79.610382">
        <ele>254.291716</ele>
        <time>2025-09-05T14:08:21.000Z</time>
      </trkpt>
      <trkpt lat="37.095064" lon="-79.61037">
        <ele>254.294342</ele>
        <time>2025-09-05T14:08:21.000Z</time>
      </trkpt>
      <trkpt lat="37.095063" lon="-79.610385">
        <ele>254.295557</ele>
        <time>2025-09-05T14:08:21.000Z</time>
      </trkpt>
      <trkpt lat="37.095073" lon="-79.610372">
        <ele>254.295788</ele>
        <time>2025-09-05T14:08:21.000Z</time>
      </trkpt>
      <trkpt lat="37.095062" lon="-79.610386">
        <ele>254.296263</ele>
        <time>2025-09-05T14:08:21.000Z</time>
      </trkpt>
      <trkpt lat="37.09506" lon="-79.61038">
        <ele>254.296988</ele>
        <time>2025-09-05T14:08:21.000Z</time>
      </trkpt>
      <trkpt lat="37.095048" lon="-79.610385">
        <ele>254.297719</ele>
        <time>2025-09-05T14:08:21.000Z</time>
      </trkpt>
      <trkpt lat="37.095035" lon="-79.610391">
        <ele>254.302484</ele>
        <time>2025-09-05T14:08:21.000Z</time>
      </trkpt>
      <trkpt lat="37.095002" lon="-79.610357">
        <ele>254.310159</ele>
        <time>2025-09-05T14:08:21.000Z</time>
      </trkpt>
      <trkpt lat="37.094963" lon="-79.61034">
        <ele>254.320252</ele>
        <time>2025-09-05T14:08:21.000Z</time>
      </trkpt>
      <trkpt lat="37.09492" lon="-79.610191">
        <ele>254.351766</ele>
        <time>2025-09-05T14:08:22.000Z</time>
      </trkpt>
      <trkpt lat="37.095425" lon="-79.609891">
        <ele>254.285573</ele>
        <time>2025-09-05T14:08:28.000Z</time>
      </trkpt>
      <trkpt lat="37.09542" lon="-79.609886">
        <ele>254.284908</ele>
        <time>2025-09-05T14:08:28.000Z</time>
      </trkpt>
      <trkpt lat="37.095425" lon="-79.60989">
        <ele>254.283224</ele>
        <time>2025-09-05T14:08:28.000Z</time>
      </trkpt>
      <trkpt lat="37.095424" lon="-79.609889">
        <ele>254.276758</ele>
        <time>2025-09-05T14:08:28.000Z</time>
      </trkpt>
      <trkpt lat="37.095438" lon="-79.609884">
        <ele>254.275912</ele>
        <time>2025-09-05T14:08:28.000Z</time>
      </trkpt>
      <trkpt lat="37.095435" lon="-79.609889">
        <ele>254.275262</ele>
        <time>2025-09-05T14:08:28.000Z</time>
      </trkpt>
      <trkpt lat="37.09543" lon="-79.609885">
        <ele>254.27242</ele>
        <time>2025-09-05T14:08:28.000Z</time>
      </trkpt>
      <trkpt lat="37.095439" lon="-79.609879">
        <ele>254.271583</ele>
        <time>2025-09-05T14:08:28.000Z</time>
      </trkpt>
      <trkpt lat="37.095451" lon="-79.609866">
        <ele>254.26794</ele>
        <time>2025-09-05T14:08:28.000Z</time>
      </trkpt>
      <trkpt lat="37.095452" lon="-79.609879">
        <ele>254.265112</ele>
        <time>2025-09-05T14:08:28.000Z</time>
      </trkpt>
      <trkpt lat="37.095483" lon="-79.609856">
        <ele>254.235136</ele>
        <time>2025-09-05T14:08:28.000Z</time>
      </trkpt>
      <trkpt lat="37.095526" lon="-79.609817">
        <ele>254.209619</ele>
        <time>2025-09-05T14:08:29.000Z</time>
      </trkpt>
      <trkpt lat="37.095599" lon="-79.609815">
        <ele>254.157629</ele>
        <time>2025-09-05T14:08:30.000Z</time>
      </trkpt>
      <trkpt lat="37.095606" lon="-79.609776">
        <ele>254.132438</ele>
        <time>2025-09-05T14:08:30.000Z</time>
      </trkpt>
      <trkpt lat="37.095675" lon="-79.609703">
        <ele>254.071206</ele>
        <time>2025-09-05T14:08:31.000Z</time>
      </trkpt>
      <trkpt lat="37.09601" lon="-79.609486">
        <ele>253.833395</ele>
        <time>2025-09-05T14:08:35.000Z</time>
      </trkpt>
      <trkpt lat="37.096151" lon="-79.609406">
        <ele>253.729458</ele>
        <time>2025-09-05T14:08:37.000Z</time>
      </trkpt>
      <trkpt lat="37.09642" lon="-79.609225">
        <ele>253.528476</ele>
        <time>2025-09-05T14:08:40.000Z</time>
      </trkpt>
      <trkpt lat="37.096663" lon="-79.609032">
        <ele>253.332511</ele>
        <time>2025-09-05T14:08:43.000Z</time>
      </trkpt>
      <trkpt lat="37.096699" lon="-79.609018">
        <ele>253.306597</ele>
        <time>2025-09-05T14:08:43.000Z</time>
      </trkpt>
      <trkpt lat="37.096873" lon="-79.608853">
        <ele>253.12561</ele>
        <time>2025-09-05T14:08:45.000Z</time>
      </trkpt>
      <trkpt lat="37.097023" lon="-79.608611">
        <ele>252.857442</ele>
        <time>2025-09-05T14:08:48.000Z</time>
      </trkpt>
      <trkpt lat="37.097115" lon="-79.608401">
        <ele>252.638469</ele>
        <time>2025-09-05T14:08:50.000Z</time>
      </trkpt>
      <trkpt lat="37.097206" lon="-79.607916">
        <ele>252.216679</ele>
        <time>2025-09-05T14:08:54.000Z</time>
      </trkpt>
      <trkpt lat="37.097344" lon="-79.605475">
        <ele>251.721251</ele>
        <time>2025-09-05T14:09:16.000Z</time>
      </trkpt>
      <trkpt lat="37.097305" lon="-79.605107">
        <ele>251.836541</ele>
        <time>2025-09-05T14:09:19.000Z</time>
      </trkpt>
      <trkpt lat="37.097227" lon="-79.604773">
        <ele>251.945473</ele>
        <time>2025-09-05T14:09:22.000Z</time>
      </trkpt>
      <trkpt lat="37.097067" lon="-79.604445">
        <ele>252.35302</ele>
        <time>2025-09-05T14:09:25.000Z</time>
      </trkpt>
      <trkpt lat="37.096962" lon="-79.604266">
        <ele>252.694583</ele>
        <time>2025-09-05T14:09:27.000Z</time>
      </trkpt>
      <trkpt lat="37.096062" lon="-79.60314">
        <ele>255.080636</ele>
        <time>2025-09-05T14:09:41.000Z</time>
      </trkpt>
      <trkpt lat="37.095877" lon="-79.602939">
        <ele>255.514531</ele>
        <time>2025-09-05T14:09:44.000Z</time>
      </trkpt>
      <trkpt lat="37.094926" lon="-79.602214">
        <ele>257.273651</ele>
        <time>2025-09-05T14:09:56.000Z</time>
      </trkpt>
      <trkpt lat="37.094627" lon="-79.601903">
        <ele>257.913019</ele>
        <time>2025-09-05T14:10:00.000Z</time>
      </trkpt>
      <trkpt lat="37.094398" lon="-79.601482">
        <ele>258.816006</ele>
        <time>2025-09-05T14:10:05.000Z</time>
      </trkpt>
      <trkpt lat="37.094092" lon="-79.600666">
        <ele>260.950478</ele>
        <time>2025-09-05T14:10:13.000Z</time>
      </trkpt>
      <trkpt lat="37.093993" lon="-79.600375">
        <ele>261.695269</ele>
        <time>2025-09-05T14:10:16.000Z</time>
      </trkpt>
      <trkpt lat="37.093359" lon="-79.598667">
        <ele>266.464864</ele>
        <time>2025-09-05T14:10:33.000Z</time>
      </trkpt>
      <trkpt lat="37.09218" lon="-79.595265">
        <ele>273.852187</ele>
        <time>2025-09-05T14:11:06.000Z</time>
      </trkpt>
      <trkpt lat="37.091523" lon="-79.59344">
        <ele>277.002137</ele>
        <time>2025-09-05T14:11:24.000Z</time>
      </trkpt>
      <trkpt lat="37.09142" lon="-79.593148">
        <ele>277.115041</ele>
        <time>2025-09-05T14:11:27.000Z</time>
      </trkpt>
      <trkpt lat="37.091103" lon="-79.593647">
        <ele>277.34017</ele>
        <time>2025-09-05T14:11:33.000Z</time>
      </trkpt>
      <trkpt lat="37.090175" lon="-79.595298">
        <ele>276.81708</ele>
        <time>2025-09-05T14:11:51.000Z</time>
      </trkpt>
      <trkpt lat="37.089812" lon="-79.595917">
        <ele>275.852538</ele>
        <time>2025-09-05T14:11:58.000Z</time>
      </trkpt>
      <trkpt lat="37.08975" lon="-79.596058">
        <ele>275.63687</ele>
        <time>2025-09-05T14:11:59.000Z</time>
      </trkpt>
      <trkpt lat="37.089558" lon="-79.596381">
        <ele>275.159256</ele>
        <time>2025-09-05T14:12:03.000Z</time>
      </trkpt>
      <trkpt lat="37.089124" lon="-79.597127">
        <ele>272.52628</ele>
        <time>2025-09-05T14:12:11.000Z</time>
      </trkpt>
      <trkpt lat="37.088604" lon="-79.597881">
        <ele>269.341174</ele>
        <time>2025-09-05T14:12:20.000Z</time>
      </trkpt>
      <trkpt lat="37.088268" lon="-79.59822">
        <ele>267.743473</ele>
        <time>2025-09-05T14:12:25.000Z</time>
      </trkpt>
      <trkpt lat="37.087777" lon="-79.598602">
        <ele>266.337802</ele>
        <time>2025-09-05T14:12:31.000Z</time>
      </trkpt>
      <trkpt lat="37.087302" lon="-79.59893">
        <ele>265.044308</ele>
        <time>2025-09-05T14:12:37.000Z</time>
      </trkpt>
      <trkpt lat="37.08698" lon="-79.599263">
        <ele>264.052805</ele>
        <time>2025-09-05T14:12:42.000Z</time>
      </trkpt>
      <trkpt lat="37.086911" lon="-79.599361">
        <ele>263.785007</ele>
        <time>2025-09-05T14:12:43.000Z</time>
      </trkpt>
      <trkpt lat="37.086753" lon="-79.599706">
        <ele>263.164251</ele>
        <time>2025-09-05T14:12:47.000Z</time>
      </trkpt>
      <trkpt lat="37.086016" lon="-79.602012">
        <ele>260.054985</ele>
        <time>2025-09-05T14:13:09.000Z</time>
      </trkpt>
      <trkpt lat="37.085836" lon="-79.602448">
        <ele>259.855727</ele>
        <time>2025-09-05T14:13:13.000Z</time>
      </trkpt>
      <trkpt lat="37.085674" lon="-79.602704">
        <ele>259.720545</ele>
        <time>2025-09-05T14:13:16.000Z</time>
      </trkpt>
      <trkpt lat="37.085433" lon="-79.602978">
        <ele>259.564552</ele>
        <time>2025-09-05T14:13:20.000Z</time>
      </trkpt>
      <trkpt lat="37.085193" lon="-79.60316">
        <ele>259.412635</ele>
        <time>2025-09-05T14:13:23.000Z</time>
      </trkpt>
      <trkpt lat="37.083907" lon="-79.603635">
        <ele>259.502868</ele>
        <time>2025-09-05T14:13:38.000Z</time>
      </trkpt>
      <trkpt lat="37.083602" lon="-79.603824">
        <ele>259.551235</ele>
        <time>2025-09-05T14:13:42.000Z</time>
      </trkpt>
      <trkpt lat="37.08338" lon="-79.604109">
        <ele>259.55665</ele>
        <time>2025-09-05T14:13:46.000Z</time>
      </trkpt>
      <trkpt lat="37.083187" lon="-79.604429">
        <ele>259.346161</ele>
        <time>2025-09-05T14:13:50.000Z</time>
      </trkpt>
      <trkpt lat="37.083105" lon="-79.604709">
        <ele>259.184858</ele>
        <time>2025-09-05T14:13:53.000Z</time>
      </trkpt>
      <trkpt lat="37.082969" lon="-79.606614">
        <ele>258.393379</ele>
        <time>2025-09-05T14:14:10.000Z</time>
      </trkpt>
      <trkpt lat="37.082892" lon="-79.60695">
        <ele>258.429841</ele>
        <time>2025-09-05T14:14:13.000Z</time>
      </trkpt>
      <trkpt lat="37.082811" lon="-79.607139">
        <ele>258.451735</ele>
        <time>2025-09-05T14:14:15.000Z</time>
      </trkpt>
      <trkpt lat="37.082606" lon="-79.607472">
        <ele>258.494562</ele>
        <time>2025-09-05T14:14:19.000Z</time>
      </trkpt>
      <trkpt lat="37.08244" lon="-79.60763">
        <ele>258.521857</ele>
        <time>2025-09-05T14:14:21.000Z</time>
      </trkpt>
      <trkpt lat="37.082137" lon="-79.607805">
        <ele>258.564411</ele>
        <time>2025-09-05T14:14:25.000Z</time>
      </trkpt>
      <trkpt lat="37.081579" lon="-79.608018">
        <ele>256.755082</ele>
        <time>2025-09-05T14:14:31.000Z</time>
      </trkpt>
      <trkpt lat="37.081309" lon="-79.608199">
        <ele>255.470179</ele>
        <time>2025-09-05T14:14:34.000Z</time>
      </trkpt>
      <trkpt lat="37.080935" lon="-79.608513">
        <ele>253.622376</ele>
        <time>2025-09-05T14:14:39.000Z</time>
      </trkpt>
      <trkpt lat="37.080347" lon="-79.609068">
        <ele>250.799207</ele>
        <time>2025-09-05T14:14:47.000Z</time>
      </trkpt>
      <trkpt lat="37.080141" lon="-79.609352">
        <ele>249.986669</ele>
        <time>2025-09-05T14:14:50.000Z</time>
      </trkpt>
      <trkpt lat="37.080086" lon="-79.609431">
        <ele>249.73672</ele>
        <time>2025-09-05T14:14:51.000Z</time>
      </trkpt>
      <trkpt lat="37.080043" lon="-79.609662">
        <ele>249.244224</ele>
        <time>2025-09-05T14:14:53.000Z</time>
      </trkpt>
      <trkpt lat="37.080018" lon="-79.609831">
        <ele>248.848868</ele>
        <time>2025-09-05T14:14:55.000Z</time>
      </trkpt>
      <trkpt lat="37.080059" lon="-79.610282">
        <ele>247.893522</ele>
        <time>2025-09-05T14:14:59.000Z</time>
      </trkpt>
      <trkpt lat="37.080022" lon="-79.610431">
        <ele>247.530997</ele>
        <time>2025-09-05T14:15:00.000Z</time>
      </trkpt>
      <trkpt lat="37.079989" lon="-79.610512">
        <ele>247.350121</ele>
        <time>2025-09-05T14:15:01.000Z</time>
      </trkpt>
      <trkpt lat="37.079736" lon="-79.610762">
        <ele>246.451607</ele>
        <time>2025-09-05T14:15:05.000Z</time>
      </trkpt>
      <trkpt lat="37.079651" lon="-79.610903">
        <ele>246.294806</ele>
        <time>2025-09-05T14:15:07.000Z</time>
      </trkpt>
      <trkpt lat="37.079532" lon="-79.611186">
        <ele>246.432772</ele>
        <time>2025-09-05T14:15:10.000Z</time>
      </trkpt>
      <trkpt lat="37.079448" lon="-79.611539">
        <ele>246.580741</ele>
        <time>2025-09-05T14:15:13.000Z</time>
      </trkpt>
      <trkpt lat="37.079367" lon="-79.611693">
        <ele>246.663937</ele>
        <time>2025-09-05T14:15:15.000Z</time>
      </trkpt>
      <trkpt lat="37.079169" lon="-79.611857">
        <ele>246.784495</ele>
        <time>2025-09-05T14:15:18.000Z</time>
      </trkpt>
      <trkpt lat="37.078787" lon="-79.611987">
        <ele>246.998117</ele>
        <time>2025-09-05T14:15:22.000Z</time>
      </trkpt>
      <trkpt lat="37.078652" lon="-79.612063">
        <ele>247.066581</ele>
        <time>2025-09-05T14:15:24.000Z</time>
      </trkpt>
      <trkpt lat="37.078579" lon="-79.612145">
        <ele>247.121265</ele>
        <time>2025-09-05T14:15:25.000Z</time>
      </trkpt>
      <trkpt lat="37.078536" lon="-79.612259">
        <ele>247.175584</ele>
        <time>2025-09-05T14:15:26.000Z</time>
      </trkpt>
      <trkpt lat="37.078484" lon="-79.612426">
        <ele>247.319608</ele>
        <time>2025-09-05T14:15:28.000Z</time>
      </trkpt>
      <trkpt lat="37.078486" lon="-79.612627">
        <ele>247.507999</ele>
        <time>2025-09-05T14:15:30.000Z</time>
      </trkpt>
      <trkpt lat="37.078579" lon="-79.613031">
        <ele>247.920342</ele>
        <time>2025-09-05T14:15:34.000Z</time>
      </trkpt>
      <trkpt lat="37.078681" lon="-79.613364">
        <ele>248.271689</ele>
        <time>2025-09-05T14:15:37.000Z</time>
      </trkpt>
      <trkpt lat="37.078818" lon="-79.613714">
        <ele>248.647128</ele>
        <time>2025-09-05T14:15:40.000Z</time>
      </trkpt>
      <trkpt lat="37.079072" lon="-79.614107">
        <ele>249.146237</ele>
        <time>2025-09-05T14:15:44.000Z</time>
      </trkpt>
      <trkpt lat="37.079219" lon="-79.614451">
        <ele>249.373512</ele>
        <time>2025-09-05T14:15:47.000Z</time>
      </trkpt>
      <trkpt lat="37.079275" lon="-79.61483">
        <ele>249.25581</ele>
        <time>2025-09-05T14:15:50.000Z</time>
      </trkpt>
      <trkpt lat="37.079293" lon="-79.615068">
        <ele>249.178499</ele>
        <time>2025-09-05T14:15:52.000Z</time>
      </trkpt>
      <trkpt lat="37.079296" lon="-79.615248">
        <ele>249.126231</ele>
        <time>2025-09-05T14:15:54.000Z</time>
      </trkpt>
      <trkpt lat="37.079287" lon="-79.615295">
        <ele>249.110884</ele>
        <time>2025-09-05T14:15:54.000Z</time>
      </trkpt>
      <trkpt lat="37.079274" lon="-79.6153">
        <ele>249.106971</ele>
        <time>2025-09-05T14:15:54.000Z</time>
      </trkpt>
      <trkpt lat="37.079281" lon="-79.615313">
        <ele>249.104657</ele>
        <time>2025-09-05T14:15:54.000Z</time>
      </trkpt>
      <trkpt lat="37.079269" lon="-79.615323">
        <ele>249.102439</ele>
        <time>2025-09-05T14:15:54.000Z</time>
      </trkpt>
      <trkpt lat="37.07928" lon="-79.615317">
        <ele>249.101933</ele>
        <time>2025-09-05T14:15:54.000Z</time>
      </trkpt>
      <trkpt lat="37.079265" lon="-79.615323">
        <ele>249.10094</ele>
        <time>2025-09-05T14:15:54.000Z</time>
      </trkpt>
      <trkpt lat="37.079278" lon="-79.615313">
        <ele>249.099628</ele>
        <time>2025-09-05T14:15:54.000Z</time>
      </trkpt>
      <trkpt lat="37.079276" lon="-79.615329">
        <ele>249.098688</ele>
        <time>2025-09-05T14:15:54.000Z</time>
      </trkpt>
      <trkpt lat="37.079257" lon="-79.615396">
        <ele>249.074519</ele>
        <time>2025-09-05T14:15:55.000Z</time>
      </trkpt>
      <trkpt lat="37.079187" lon="-79.615507">
        <ele>249.033168</ele>
        <time>2025-09-05T14:15:56.000Z</time>
      </trkpt>
      <trkpt lat="37.079098" lon="-79.615564">
        <ele>248.991694</ele>
        <time>2025-09-05T14:15:57.000Z</time>
      </trkpt>
      <trkpt lat="37.079033" lon="-79.615601">
        <ele>248.965658</ele>
        <time>2025-09-05T14:15:58.000Z</time>
      </trkpt>
      <trkpt lat="37.078915" lon="-79.615579">
        <ele>248.919089</ele>
        <time>2025-09-05T14:15:59.000Z</time>
      </trkpt>
      <trkpt lat="37.078805" lon="-79.615472">
        <ele>248.867716</ele>
        <time>2025-09-05T14:16:01.000Z</time>
      </trkpt>
      <trkpt lat="37.078751" lon="-79.615303">
        <ele>248.813679</ele>
        <time>2025-09-05T14:16:03.000Z</time>
      </trkpt>
      <trkpt lat="37.078757" lon="-79.615279">
        <ele>248.804018</ele>
        <time>2025-09-05T14:16:03.000Z</time>
      </trkpt>
      <trkpt lat="37.078759" lon="-79.615266">
        <ele>248.799367</ele>
        <time>2025-09-05T14:16:03.000Z</time>
      </trkpt>
      <trkpt lat="37.078753" lon="-79.615268">
        <ele>248.797487</ele>
        <time>2025-09-05T14:16:03.000Z</time>
      </trkpt>
      <trkpt lat="37.078751" lon="-79.615264">
        <ele>248.795938</ele>
        <time>2025-09-05T14:16:03.000Z</time>
      </trkpt>
      <trkpt lat="37.078749" lon="-79.615251">
        <ele>248.79438</ele>
        <time>2025-09-05T14:16:03.000Z</time>
      </trkpt>
      <trkpt lat="37.078742" lon="-79.615255">
        <ele>248.793757</ele>
        <time>2025-09-05T14:16:03.000Z</time>
      </trkpt>
      <trkpt lat="37.078757" lon="-79.615246">
        <ele>248.79159</ele>
        <time>2025-09-05T14:16:03.000Z</time>
      </trkpt>
      <trkpt lat="37.078759" lon="-79.615238">
        <ele>248.790334</ele>
        <time>2025-09-05T14:16:03.000Z</time>
      </trkpt>
      <trkpt lat="37.078743" lon="-79.615022">
        <ele>248.723135</ele>
        <time>2025-09-05T14:16:05.000Z</time>
      </trkpt>
      <trkpt lat="37.078825" lon="-79.61416">
        <ele>248.315546</ele>
        <time>2025-09-05T14:16:13.000Z</time>
      </trkpt>
      <trkpt lat="37.078822" lon="-79.613719">
        <ele>248.093916</ele>
        <time>2025-09-05T14:16:17.000Z</time>
      </trkpt>
      <trkpt lat="37.078693" lon="-79.613366">
        <ele>247.907412</ele>
        <time>2025-09-05T14:16:20.000Z</time>
      </trkpt>
      <trkpt lat="37.078574" lon="-79.613022">
        <ele>247.732873</ele>
        <time>2025-09-05T14:16:23.000Z</time>
      </trkpt>
      <trkpt lat="37.078487" lon="-79.612625">
        <ele>247.490635</ele>
        <time>2025-09-05T14:16:27.000Z</time>
      </trkpt>
      <trkpt lat="37.078475" lon="-79.612429">
        <ele>247.356583</ele>
        <time>2025-09-05T14:16:29.000Z</time>
      </trkpt>
      <trkpt lat="37.078522" lon="-79.612262">
        <ele>247.223177</ele>
        <time>2025-09-05T14:16:31.000Z</time>
      </trkpt>
      <trkpt lat="37.078588" lon="-79.612153">
        <ele>247.133405</ele>
        <time>2025-09-05T14:16:32.000Z</time>
      </trkpt>
      <trkpt lat="37.078665" lon="-79.612049">
        <ele>247.042995</ele>
        <time>2025-09-05T14:16:33.000Z</time>
      </trkpt>
      <trkpt lat="37.078785" lon="-79.611986">
        <ele>246.929829</ele>
        <time>2025-09-05T14:16:34.000Z</time>
      </trkpt>
      <trkpt lat="37.079168" lon="-79.611846">
        <ele>246.576748</ele>
        <time>2025-09-05T14:16:38.000Z</time>
      </trkpt>
      <trkpt lat="37.079353" lon="-79.611696">
        <ele>246.377471</ele>
        <time>2025-09-05T14:16:40.000Z</time>
      </trkpt>
      <trkpt lat="37.079454" lon="-79.61153">
        <ele>246.239968</ele>
        <time>2025-09-05T14:16:42.000Z</time>
      </trkpt>
      <trkpt lat="37.079529" lon="-79.611202">
        <ele>246.163924</ele>
        <time>2025-09-05T14:16:45.000Z</time>
      </trkpt>
      <trkpt lat="37.079638" lon="-79.610892">
        <ele>246.658629</ele>
        <time>2025-09-05T14:16:48.000Z</time>
      </trkpt>
      <trkpt lat="37.079743" lon="-79.610767">
        <ele>246.912065</ele>
        <time>2025-09-05T14:16:50.000Z</time>
      </trkpt>
      <trkpt lat="37.079995" lon="-79.610514">
        <ele>247.536692</ele>
        <time>2025-09-05T14:16:54.000Z</time>
      </trkpt>
      <trkpt lat="37.080024" lon="-79.610432">
        <ele>247.662444</ele>
        <time>2025-09-05T14:16:55.000Z</time>
      </trkpt>
      <trkpt lat="37.080065" lon="-79.610284">
        <ele>247.914472</ele>
        <time>2025-09-05T14:16:56.000Z</time>
      </trkpt>
      <trkpt lat="37.080024" lon="-79.609837">
        <ele>248.578622</ele>
        <time>2025-09-05T14:17:00.000Z</time>
      </trkpt>
      <trkpt lat="37.080034" lon="-79.60965">
        <ele>248.853464</ele>
        <time>2025-09-05T14:17:02.000Z</time>
      </trkpt>
      <trkpt lat="37.080094" lon="-79.609437">
        <ele>249.195846</ele>
        <time>2025-09-05T14:17:04.000Z</time>
      </trkpt>
      <trkpt lat="37.08014" lon="-79.609344">
        <ele>249.369613</ele>
        <time>2025-09-05T14:17:05.000Z</time>
      </trkpt>
      <trkpt lat="37.080347" lon="-79.609086">
        <ele>250.638925</ele>
        <time>2025-09-05T14:17:08.000Z</time>
      </trkpt>
      <trkpt lat="37.080938" lon="-79.608511">
        <ele>253.987208</ele>
        <time>2025-09-05T14:17:16.000Z</time>
      </trkpt>
      <trkpt lat="37.081302" lon="-79.608204">
        <ele>256.046283</ele>
        <time>2025-09-05T14:17:21.000Z</time>
      </trkpt>
      <trkpt lat="37.081584" lon="-79.60802">
        <ele>257.478099</ele>
        <time>2025-09-05T14:17:25.000Z</time>
      </trkpt>
      <trkpt lat="37.082138" lon="-79.607807">
        <ele>257.935604</ele>
        <time>2025-09-05T14:17:31.000Z</time>
      </trkpt>
      <trkpt lat="37.082447" lon="-79.607645">
        <ele>258.059852</ele>
        <time>2025-09-05T14:17:35.000Z</time>
      </trkpt>
      <trkpt lat="37.08262" lon="-79.607479">
        <ele>258.139551</ele>
        <time>2025-09-05T14:17:37.000Z</time>
      </trkpt>
      <trkpt lat="37.082806" lon="-79.607146">
        <ele>258.26463</ele>
        <time>2025-09-05T14:17:41.000Z</time>
      </trkpt>
      <trkpt lat="37.082889" lon="-79.606944">
        <ele>258.328552</ele>
        <time>2025-09-05T14:17:43.000Z</time>
      </trkpt>
      <trkpt lat="37.082966" lon="-79.606619">
        <ele>258.443681</ele>
        <time>2025-09-05T14:17:46.000Z</time>
      </trkpt>
      <trkpt lat="37.083118" lon="-79.604706">
        <ele>259.223072</ele>
        <time>2025-09-05T14:18:03.000Z</time>
      </trkpt>
      <trkpt lat="37.083199" lon="-79.604425">
        <ele>259.329673</ele>
        <time>2025-09-05T14:18:06.000Z</time>
      </trkpt>
      <trkpt lat="37.083363" lon="-79.604117">
        <ele>259.3644</ele>
        <time>2025-09-05T14:18:09.000Z</time>
      </trkpt>
      <trkpt lat="37.083618" lon="-79.603821">
        <ele>259.401863</ele>
        <time>2025-09-05T14:18:13.000Z</time>
      </trkpt>
      <trkpt lat="37.083909" lon="-79.603636">
        <ele>259.44074</ele>
        <time>2025-09-05T14:18:17.000Z</time>
      </trkpt>
      <trkpt lat="37.085196" lon="-79.603164">
        <ele>259.58463</ele>
        <time>2025-09-05T14:18:32.000Z</time>
      </trkpt>
      <trkpt lat="37.085442" lon="-79.602978">
        <ele>259.614727</ele>
        <time>2025-09-05T14:18:35.000Z</time>
      </trkpt>
      <trkpt lat="37.085673" lon="-79.602711">
        <ele>259.645628</ele>
        <time>2025-09-05T14:18:38.000Z</time>
      </trkpt>
      <trkpt lat="37.085836" lon="-79.60245">
        <ele>259.672412</ele>
        <time>2025-09-05T14:18:41.000Z</time>
      </trkpt>
      <trkpt lat="37.086016" lon="-79.602009">
        <ele>259.711884</ele>
        <time>2025-09-05T14:18:45.000Z</time>
      </trkpt>
      <trkpt lat="37.086753" lon="-79.599716">
        <ele>263.243641</ele>
        <time>2025-09-05T14:19:07.000Z</time>
      </trkpt>
      <trkpt lat="37.086908" lon="-79.599369">
        <ele>263.869477</ele>
        <time>2025-09-05T14:19:11.000Z</time>
      </trkpt>
      <trkpt lat="37.08698" lon="-79.599265">
        <ele>264.097598</ele>
        <time>2025-09-05T14:19:12.000Z</time>
      </trkpt>
      <trkpt lat="37.087294" lon="-79.598928">
        <ele>264.942149</ele>
        <time>2025-09-05T14:19:17.000Z</time>
      </trkpt>
      <trkpt lat="37.087765" lon="-79.598601">
        <ele>266.043957</ele>
        <time>2025-09-05T14:19:23.000Z</time>
      </trkpt>
      <trkpt lat="37.088276" lon="-79.598219">
        <ele>267.911172</ele>
        <time>2025-09-05T14:19:30.000Z</time>
      </trkpt>
      <trkpt lat="37.088593" lon="-79.597887">
        <ele>269.549385</ele>
        <time>2025-09-05T14:19:35.000Z</time>
      </trkpt>
      <trkpt lat="37.089134" lon="-79.597127">
        <ele>272.709261</ele>
        <time>2025-09-05T14:19:44.000Z</time>
      </trkpt>
      <trkpt lat="37.08956" lon="-79.596364">
        <ele>274.746384</ele>
        <time>2025-09-05T14:19:52.000Z</time>
      </trkpt>
      <trkpt lat="37.089748" lon="-79.596066">
        <ele>275.417894</ele>
        <time>2025-09-05T14:19:55.000Z</time>
      </trkpt>
      <trkpt lat="37.089812" lon="-79.595932">
        <ele>275.721105</ele>
        <time>2025-09-05T14:19:56.000Z</time>
      </trkpt>
      <trkpt lat="37.090167" lon="-79.595303">
        <ele>277.077236</ele>
        <time>2025-09-05T14:20:03.000Z</time>
      </trkpt>
      <trkpt lat="37.091102" lon="-79.593634">
        <ele>277.488806</ele>
        <time>2025-09-05T14:20:21.000Z</time>
      </trkpt>
      <trkpt lat="37.091419" lon="-79.593139">
        <ele>277.291197</ele>
        <time>2025-09-05T14:20:27.000Z</time>
      </trkpt>
      <trkpt lat="37.091508" lon="-79.593439">
        <ele>276.835129</ele>
        <time>2025-09-05T14:20:30.000Z</time>
      </trkpt>
      <trkpt lat="37.092193" lon="-79.595268">
        <ele>273.882953</ele>
        <time>2025-09-05T14:20:48.000Z</time>
      </trkpt>
      <trkpt lat="37.093362" lon="-79.598656">
        <ele>266.591564</ele>
        <time>2025-09-05T14:21:21.000Z</time>
      </trkpt>
      <trkpt lat="37.093986" lon="-79.600392">
        <ele>261.648278</ele>
        <time>2025-09-05T14:21:38.000Z</time>
      </trkpt>
      <trkpt lat="37.094102" lon="-79.600679">
        <ele>260.780751</ele>
        <time>2025-09-05T14:21:41.000Z</time>
      </trkpt>
      <trkpt lat="37.094396" lon="-79.601486">
        <ele>258.645172</ele>
        <time>2025-09-05T14:21:49.000Z</time>
      </trkpt>
      <trkpt lat="37.094622" lon="-79.601892">
        <ele>257.992096</ele>
        <time>2025-09-05T14:21:53.000Z</time>
      </trkpt>
      <trkpt lat="37.094938" lon="-79.602205">
        <ele>257.331487</ele>
        <time>2025-09-05T14:21:57.000Z</time>
      </trkpt>
      <trkpt lat="37.095886" lon="-79.602942">
        <ele>255.465743</ele>
        <time>2025-09-05T14:22:09.000Z</time>
      </trkpt>
      <trkpt lat="37.096061" lon="-79.603127">
        <ele>255.025909</ele>
        <time>2025-09-05T14:22:12.000Z</time>
      </trkpt>
      <trkpt lat="37.096971" lon="-79.604259">
        <ele>252.752273</ele>
        <time>2025-09-05T14:22:26.000Z</time>
      </trkpt>
      <trkpt lat="37.097075" lon="-79.604437">
        <ele>252.577723</ele>
        <time>2025-09-05T14:22:28.000Z</time>
      </trkpt>
      <trkpt lat="37.097225" lon="-79.604773">
        <ele>252.277969</ele>
        <time>2025-09-05T14:22:31.000Z</time>
      </trkpt>
      <trkpt lat="37.097316" lon="-79.605109">
        <ele>252.00903</ele>
        <time>2025-09-05T14:22:34.000Z</time>
      </trkpt>
      <trkpt lat="37.097348" lon="-79.605476">
        <ele>251.724395</ele>
        <time>2025-09-05T14:22:37.000Z</time>
      </trkpt>
      <trkpt lat="37.097208" lon="-79.607926">
        <ele>252.235059</ele>
        <time>2025-09-05T14:22:59.000Z</time>
      </trkpt>
      <trkpt lat="37.097115" lon="-79.608395">
        <ele>252.610708</ele>
        <time>2025-09-05T14:23:03.000Z</time>
      </trkpt>
      <trkpt lat="37.097028" lon="-79.608614">
        <ele>252.802061</ele>
        <time>2025-09-05T14:23:05.000Z</time>
      </trkpt>
      <trkpt lat="37.096872" lon="-79.60885">
        <ele>253.007565</ele>
        <time>2025-09-05T14:23:08.000Z</time>
      </trkpt>
      <trkpt lat="37.0967" lon="-79.609006">
        <ele>253.175007</ele>
        <time>2025-09-05T14:23:10.000Z</time>
      </trkpt>
      <trkpt lat="37.096671" lon="-79.609032">
        <ele>253.207881</ele>
        <time>2025-09-05T14:23:10.000Z</time>
      </trkpt>
      <trkpt lat="37.096417" lon="-79.609226">
        <ele>253.456434</ele>
        <time>2025-09-05T14:23:13.000Z</time>
      </trkpt>
      <trkpt lat="37.096149" lon="-79.609406">
        <ele>253.711388</ele>
        <time>2025-09-05T14:23:16.000Z</time>
      </trkpt>
      <trkpt lat="37.096008" lon="-79.609491">
        <ele>253.843225</ele>
        <time>2025-09-05T14:23:18.000Z</time>
      </trkpt>
      <trkpt lat="37.095779" lon="-79.609876">
        <ele>254.150327</ele>
        <time>2025-09-05T14:23:22.000Z</time>
      </trkpt>
      <trkpt lat="37.095742" lon="-79.609926">
        <ele>254.206697</ele>
        <time>2025-09-05T14:23:23.000Z</time>
      </trkpt>
      <trkpt lat="37.095681" lon="-79.609938">
        <ele>254.259504</ele>
        <time>2025-09-05T14:23:24.000Z</time>
      </trkpt>
      <trkpt lat="37.095619" lon="-79.61006">
        <ele>254.278506</ele>
        <time>2025-09-05T14:23:25.000Z</time>
      </trkpt>
      <trkpt lat="37.095581" lon="-79.610099">
        <ele>254.277716</ele>
        <time>2025-09-05T14:23:26.000Z</time>
      </trkpt>
      <trkpt lat="37.095085" lon="-79.610365">
        <ele>254.269534</ele>
        <time>2025-09-05T14:23:32.000Z</time>
      </trkpt>
      <trkpt lat="37.095082" lon="-79.610382">
        <ele>254.26936</ele>
        <time>2025-09-05T14:23:32.000Z</time>
      </trkpt>
      <trkpt lat="37.095064" lon="-79.61037">
        <ele>254.269201</ele>
        <time>2025-09-05T14:23:32.000Z</time>
      </trkpt>
      <trkpt lat="37.09507" lon="-79.610384">
        <ele>254.269115</ele>
        <time>2025-09-05T14:23:32.000Z</time>
      </trkpt>
      <trkpt lat="37.095062" lon="-79.610385">
        <ele>254.269102</ele>
        <time>2025-09-05T14:23:32.000Z</time>
      </trkpt>
      <trkpt lat="37.095061" lon="-79.610374">
        <ele>254.269086</ele>
        <time>2025-09-05T14:23:32.000Z</time>
      </trkpt>
      <trkpt lat="37.095067" lon="-79.610373">
        <ele>254.269035</ele>
        <time>2025-09-05T14:23:32.000Z</time>
      </trkpt>
      <trkpt lat="37.095061" lon="-79.610381">
        <ele>254.26898</ele>
        <time>2025-09-05T14:23:32.000Z</time>
      </trkpt>
      <trkpt lat="37.095043" lon="-79.610382">
        <ele>254.268691</ele>
        <time>2025-09-05T14:23:32.000Z</time>
      </trkpt>
      <trkpt lat="37.095006" lon="-79.610369">
        <ele>254.268195</ele>
        <time>2025-09-05T14:23:32.000Z</time>
      </trkpt>
      <trkpt lat="37.094966" lon="-79.610343">
        <ele>254.267547</ele>
        <time>2025-09-05T14:23:33.000Z</time>
      </trkpt>
      <trkpt lat="37.094905" lon="-79.610181">
        <ele>254.265557</ele>
        <time>2025-09-05T14:23:35.000Z</time>
      </trkpt>
      <trkpt lat="37.095415" lon="-79.609887">
        <ele>254.257082</ele>
        <time>2025-09-05T14:23:41.000Z</time>
      </trkpt>
      <trkpt lat="37.095427" lon="-79.609883">
        <ele>254.257079</ele>
        <time>2025-09-05T14:23:41.000Z</time>
      </trkpt>
      <trkpt lat="37.095425" lon="-79.609887">
        <ele>254.257027</ele>
        <time>2025-09-05T14:23:41.000Z</time>
      </trkpt>
      <trkpt lat="37.095433" lon="-79.609878">
        <ele>254.256887</ele>
        <time>2025-09-05T14:23:41.000Z</time>
      </trkpt>
      <trkpt lat="37.095425" lon="-79.609888">
        <ele>254.256859</ele>
        <time>2025-09-05T14:23:41.000Z</time>
      </trkpt>
      <trkpt lat="37.095432" lon="-79.609887">
        <ele>254.256849</ele>
        <time>2025-09-05T14:23:41.000Z</time>
      </trkpt>
      <trkpt lat="37.095439" lon="-79.609869">
        <ele>254.256779</ele>
        <time>2025-09-05T14:23:41.000Z</time>
      </trkpt>
      <trkpt lat="37.095431" lon="-79.609882">
        <ele>254.256758</ele>
        <time>2025-09-05T14:23:41.000Z</time>
      </trkpt>
      <trkpt lat="37.095441" lon="-79.609875">
        <ele>254.256677</ele>
        <time>2025-09-05T14:23:41.000Z</time>
      </trkpt>
      <trkpt lat="37.095446" lon="-79.609864">
        <ele>254.256609</ele>
        <time>2025-09-05T14:23:41.000Z</time>
      </trkpt>
      <trkpt lat="37.095496" lon="-79.609842">
        <ele>254.255936</ele>
        <time>2025-09-05T14:23:42.000Z</time>
      </trkpt>
      <trkpt lat="37.095517" lon="-79.60983">
        <ele>254.255339</ele>
        <time>2025-09-05T14:23:42.000Z</time>
      </trkpt>
      <trkpt lat="37.095594" lon="-79.609829">
        <ele>254.25415</ele>
        <time>2025-09-05T14:23:43.000Z</time>
      </trkpt>
      <trkpt lat="37.095615" lon="-79.609767">
        <ele>254.253573</ele>
        <time>2025-09-05T14:23:44.000Z</time>
      </trkpt>
      <trkpt lat="37.095683" lon="-79.609692">
        <ele>254.230546</ele>
        <time>2025-09-05T14:23:45.000Z</time>
      </trkpt>
      <trkpt lat="37.096014" lon="-79.609493">
        <ele>253.900507</ele>
        <time>2025-09-05T14:23:49.000Z</time>
      </trkpt>
      <trkpt lat="37.096151" lon="-79.609407">
        <ele>253.75627</ele>
        <time>2025-09-05T14:23:51.000Z</time>
      </trkpt>
      <trkpt lat="37.096416" lon="-79.609216">
        <ele>253.477334</ele>
        <time>2025-09-05T14:23:54.000Z</time>
      </trkpt>
      <trkpt lat="37.09668" lon="-79.609033">
        <ele>253.205387</ele>
        <time>2025-09-05T14:23:57.000Z</time>
      </trkpt>
      <trkpt lat="37.096705" lon="-79.609002">
        <ele>253.169431</ele>
        <time>2025-09-05T14:23:57.000Z</time>
      </trkpt>
      <trkpt lat="37.096857" lon="-79.608863">
        <ele>252.986241</ele>
        <time>2025-09-05T14:23:59.000Z</time>
      </trkpt>
      <trkpt lat="37.097019" lon="-79.608615">
        <ele>252.76141</ele>
        <time>2025-09-05T14:24:02.000Z</time>
      </trkpt>
      <trkpt lat="37.097107" lon="-79.608397">
        <ele>252.578121</ele>
        <time>2025-09-05T14:24:04.000Z</time>
      </trkpt>
      <trkpt lat="37.097217" lon="-79.607918">
        <ele>252.227491</ele>
        <time>2025-09-05T14:24:08.000Z</time>
      </trkpt>
      <trkpt lat="37.097341" lon="-79.605485">
        <ele>251.649079</ele>
        <time>2025-09-05T14:24:30.000Z</time>
      </trkpt>
      <trkpt lat="37.097305" lon="-79.605106">
        <ele>251.989528</ele>
        <time>2025-09-05T14:24:33.000Z</time>
      </trkpt>
      <trkpt lat="37.097231" lon="-79.604786">
        <ele>252.311224</ele>
        <time>2025-09-05T14:24:36.000Z</time>
      </trkpt>
      <trkpt lat="37.09708" lon="-79.604443">
        <ele>252.669747</ele>
        <time>2025-09-05T14:24:39.000Z</time>
      </trkpt>
      <trkpt lat="37.096969" lon="-79.604252">
        <ele>252.878544</ele>
        <time>2025-09-05T14:24:41.000Z</time>
      </trkpt>
      <trkpt lat="37.096076" lon="-79.603137">
        <ele>255.022642</ele>
        <time>2025-09-05T14:24:55.000Z</time>
      </trkpt>
      <trkpt lat="37.095881" lon="-79.602931">
        <ele>255.453194</ele>
        <time>2025-09-05T14:24:58.000Z</time>
      </trkpt>
      <trkpt lat="37.094943" lon="-79.602204">
        <ele>257.357604</ele>
        <time>2025-09-05T14:25:10.000Z</time>
      </trkpt>
      <trkpt lat="37.094616" lon="-79.6019">
        <ele>258.038192</ele>
        <time>2025-09-05T14:25:15.000Z</time>
      </trkpt>
      <trkpt lat="37.094384" lon="-79.601482">
        <ele>258.711017</ele>
        <time>2025-09-05T14:25:20.000Z</time>
      </trkpt>
      <trkpt lat="37.094102" lon="-79.600676">
        <ele>260.660314</ele>
        <time>2025-09-05T14:25:28.000Z</time>
      </trkpt>
      <trkpt lat="37.093998" lon="-79.600383">
        <ele>261.559185</ele>
        <time>2025-09-05T14:25:31.000Z</time>
      </trkpt>
      <trkpt lat="37.093351" lon="-79.598663">
        <ele>266.685643</ele>
        <time>2025-09-05T14:25:48.000Z</time>
      </trkpt>
      <trkpt lat="37.092182" lon="-79.595277">
        <ele>273.880086</ele>
        <time>2025-09-05T14:26:21.000Z</time>
      </trkpt>
      <trkpt lat="37.091508" lon="-79.593436">
        <ele>276.757421</ele>
        <time>2025-09-05T14:26:39.000Z</time>
      </trkpt>
      <trkpt lat="37.091409" lon="-79.593136">
        <ele>277.189481</ele>
        <time>2025-09-05T14:26:42.000Z</time>
      </trkpt>
      <trkpt lat="37.091107" lon="-79.593649">
        <ele>277.568212</ele>
        <time>2025-09-05T14:26:48.000Z</time>
      </trkpt>
      <trkpt lat="37.090178" lon="-79.595305">
        <ele>277.254777</ele>
        <time>2025-09-05T14:27:06.000Z</time>
      </trkpt>
      <trkpt lat="37.089827" lon="-79.595919">
        <ele>275.751965</ele>
        <time>2025-09-05T14:27:13.000Z</time>
      </trkpt>
      <trkpt lat="37.089734" lon="-79.596061">
        <ele>275.415949</ele>
        <time>2025-09-05T14:27:15.000Z</time>
      </trkpt>
      <trkpt lat="37.089567" lon="-79.596374">
        <ele>274.671809</ele>
        <time>2025-09-05T14:27:18.000Z</time>
      </trkpt>
      <trkpt lat="37.089122" lon="-79.597127">
        <ele>272.718652</ele>
        <time>2025-09-05T14:27:26.000Z</time>
      </trkpt>
      <trkpt lat="37.088597" lon="-79.597889">
        <ele>269.619573</ele>
        <time>2025-09-05T14:27:35.000Z</time>
      </trkpt>
      <trkpt lat="37.088269" lon="-79.598208">
        <ele>268.012877</ele>
        <time>2025-09-05T14:27:40.000Z</time>
      </trkpt>
      <trkpt lat="37.087777" lon="-79.598599">
        <ele>265.930433</ele>
        <time>2025-09-05T14:27:46.000Z</time>
      </trkpt>
      <trkpt lat="37.087291" lon="-79.598934">
        <ele>264.876192</ele>
        <time>2025-09-05T14:27:52.000Z</time>
      </trkpt>
      <trkpt lat="37.08697" lon="-79.599256">
        <ele>264.068096</ele>
        <time>2025-09-05T14:27:57.000Z</time>
      </trkpt>
      <trkpt lat="37.086899" lon="-79.599366">
        <ele>263.849824</ele>
        <time>2025-09-05T14:27:58.000Z</time>
      </trkpt>
      <trkpt lat="37.086766" lon="-79.599718">
        <ele>263.250993</ele>
        <time>2025-09-05T14:28:01.000Z</time>
      </trkpt>
      <trkpt lat="37.086011" lon="-79.602026">
        <ele>259.79305</ele>
        <time>2025-09-05T14:28:23.000Z</time>
      </trkpt>
      <trkpt lat="37.085827" lon="-79.602443">
        <ele>259.56857</ele>
        <time>2025-09-05T14:28:27.000Z</time>
      </trkpt>
      <trkpt lat="37.08566" lon="-79.602705">
        <ele>259.573139</ele>
        <time>2025-09-05T14:28:30.000Z</time>
      </trkpt>
      <trkpt lat="37.085435" lon="-79.602968">
        <ele>259.578421</ele>
        <time>2025-09-05T14:28:33.000Z</time>
      </trkpt>
      <trkpt lat="37.085189" lon="-79.603167">
        <ele>259.583557</ele>
        <time>2025-09-05T14:28:36.000Z</time>
      </trkpt>
      <trkpt lat="37.083909" lon="-79.603633">
        <ele>259.457532</ele>
        <time>2025-09-05T14:28:51.000Z</time>
      </trkpt>
      <trkpt lat="37.08361" lon="-79.603825">
        <ele>259.385263</ele>
        <time>2025-09-05T14:28:55.000Z</time>
      </trkpt>
      <trkpt lat="37.083379" lon="-79.604108">
        <ele>259.315631</ele>
        <time>2025-09-05T14:28:59.000Z</time>
      </trkpt>
      <trkpt lat="37.083194" lon="-79.604426">
        <ele>259.251096</ele>
        <time>2025-09-05T14:29:02.000Z</time>
      </trkpt>
      <trkpt lat="37.083108" lon="-79.604692">
        <ele>259.188576</ele>
        <time>2025-09-05T14:29:05.000Z</time>
      </trkpt>
      <trkpt lat="37.082955" lon="-79.606612">
        <ele>258.556032</ele>
        <time>2025-09-05T14:29:22.000Z</time>
      </trkpt>
      <trkpt lat="37.082876" lon="-79.606952">
        <ele>258.419691</ele>
        <time>2025-09-05T14:29:25.000Z</time>
      </trkpt>
      <trkpt lat="37.082813" lon="-79.607148">
        <ele>258.307751</ele>
        <time>2025-09-05T14:29:27.000Z</time>
      </trkpt>
      <trkpt lat="37.082615" lon="-79.607474">
        <ele>258.088737</ele>
        <time>2025-09-05T14:29:31.000Z</time>
      </trkpt>
      <trkpt lat="37.082446" lon="-79.607638">
        <ele>257.949213</ele>
        <time>2025-09-05T14:29:33.000Z</time>
      </trkpt>
      <trkpt lat="37.082139" lon="-79.607805">
        <ele>257.731618</ele>
        <time>2025-09-05T14:29:37.000Z</time>
      </trkpt>
      <trkpt lat="37.081582" lon="-79.608033">
        <ele>257.339689</ele>
        <time>2025-09-05T14:29:44.000Z</time>
      </trkpt>
      <trkpt lat="37.081291" lon="-79.608202">
        <ele>256.223666</ele>
        <time>2025-09-05T14:29:48.000Z</time>
      </trkpt>
      <trkpt lat="37.080927" lon="-79.608522">
        <ele>254.146555</ele>
        <time>2025-09-05T14:29:53.000Z</time>
      </trkpt>
      <trkpt lat="37.080351" lon="-79.609083">
        <ele>250.768944</ele>
        <time>2025-09-05T14:30:01.000Z</time>
      </trkpt>
      <trkpt lat="37.080152" lon="-79.609343">
        <ele>249.378671</ele>
        <time>2025-09-05T14:30:04.000Z</time>
      </trkpt>
      <trkpt lat="37.080087" lon="-79.609442">
        <ele>248.95099</ele>
        <time>2025-09-05T14:30:05.000Z</time>
      </trkpt>
      <trkpt lat="37.08003" lon="-79.60966">
        <ele>248.642643</ele>
        <time>2025-09-05T14:30:07.000Z</time>
      </trkpt>
      <trkpt lat="37.080023" lon="-79.609829">
        <ele>248.408498</ele>
        <time>2025-09-05T14:30:09.000Z</time>
      </trkpt>
      <trkpt lat="37.080052" lon="-79.610271">
        <ele>247.842681</ele>
        <time>2025-09-05T14:30:13.000Z</time>
      </trkpt>
      <trkpt lat="37.080033" lon="-79.610444">
        <ele>247.627991</ele>
        <time>2025-09-05T14:30:15.000Z</time>
      </trkpt>
      <trkpt lat="37.079991" lon="-79.610511">
        <ele>247.520864</ele>
        <time>2025-09-05T14:30:16.000Z</time>
      </trkpt>
      <trkpt lat="37.079733" lon="-79.610768">
        <ele>246.988711</ele>
        <time>2025-09-05T14:30:20.000Z</time>
      </trkpt>
      <trkpt lat="37.079648" lon="-79.610895">
        <ele>246.772808</ele>
        <time>2025-09-05T14:30:21.000Z</time>
      </trkpt>
      <trkpt lat="37.079539" lon="-79.611198">
        <ele>246.351377</ele>
        <time>2025-09-05T14:30:24.000Z</time>
      </trkpt>
      <trkpt lat="37.079458" lon="-79.611534">
        <ele>246.125995</ele>
        <time>2025-09-05T14:30:27.000Z</time>
      </trkpt>
      <trkpt lat="37.079362" lon="-79.61169">
        <ele>246.306764</ele>
        <time>2025-09-05T14:30:29.000Z</time>
      </trkpt>
      <trkpt lat="37.079163" lon="-79.611859">
        <ele>246.568753</ele>
        <time>2025-09-05T14:30:32.000Z</time>
      </trkpt>
      <trkpt lat="37.078783" lon="-79.611988">
        <ele>247.032959</ele>
        <time>2025-09-05T14:30:36.000Z</time>
      </trkpt>
      <trkpt lat="37.078652" lon="-79.612048">
        <ele>247.181739</ele>
        <time>2025-09-05T14:30:38.000Z</time>
      </trkpt>
      <trkpt lat="37.078589" lon="-79.612152">
        <ele>247.300585</ele>
        <time>2025-09-05T14:30:39.000Z</time>
      </trkpt>
      <trkpt lat="37.078525" lon="-79.612259">
        <ele>247.41861</ele>
        <time>2025-09-05T14:30:40.000Z</time>
      </trkpt>
      <trkpt lat="37.078471" lon="-79.612431">
        <ele>247.593998</ele>
        <time>2025-09-05T14:30:42.000Z</time>
      </trkpt>
      <trkpt lat="37.078482" lon="-79.612619">
        <ele>247.770252</ele>
        <time>2025-09-05T14:30:44.000Z</time>
      </trkpt>
      <trkpt lat="37.078582" lon="-79.613029">
        <ele>248.131189</ele>
        <time>2025-09-05T14:30:48.000Z</time>
      </trkpt>
      <trkpt lat="37.078683" lon="-79.613373">
        <ele>248.335388</ele>
        <time>2025-09-05T14:30:51.000Z</time>
      </trkpt>
      <trkpt lat="37.078817" lon="-79.613702">
        <ele>248.553596</ele>
        <time>2025-09-05T14:30:54.000Z</time>
      </trkpt>
      <trkpt lat="37.079071" lon="-79.61412">
        <ele>248.843656</ele>
        <time>2025-09-05T14:30:59.000Z</time>
      </trkpt>
      <trkpt lat="37.079216" lon="-79.614456">
        <ele>249.061411</ele>
        <time>2025-09-05T14:31:02.000Z</time>
      </trkpt>
      <trkpt lat="37.079283" lon="-79.614829">
        <ele>249.276034</ele>
        <time>2025-09-05T14:31:05.000Z</time>
      </trkpt>
      <trkpt lat="37.079289" lon="-79.615078">
        <ele>249.337781</ele>
        <time>2025-09-05T14:31:07.000Z</time>
      </trkpt>
      <trkpt lat="37.079295" lon="-79.615234">
        <ele>249.27406</ele>
        <time>2025-09-05T14:31:08.000Z</time>
      </trkpt>
      <trkpt lat="37.079273" lon="-79.615279">
        <ele>249.255358</ele>
        <time>2025-09-05T14:31:08.000Z</time>
      </trkpt>
      <trkpt lat="37.079274" lon="-79.615305">
        <ele>249.250587</ele>
        <time>2025-09-05T14:31:08.000Z</time>
      </trkpt>
      <trkpt lat="37.079267" lon="-79.615308">
        <ele>249.247773</ele>
        <time>2025-09-05T14:31:08.000Z</time>
      </trkpt>
      <trkpt lat="37.079278" lon="-79.615311">
        <ele>249.245072</ele>
        <time>2025-09-05T14:31:08.000Z</time>
      </trkpt>
      <trkpt lat="37.079267" lon="-79.615306">
        <ele>249.244459</ele>
        <time>2025-09-05T14:31:08.000Z</time>
      </trkpt>
      <trkpt lat="37.079264" lon="-79.615312">
        <ele>249.24322</ele>
        <time>2025-09-05T14:31:08.000Z</time>
      </trkpt>
      <trkpt lat="37.07927" lon="-79.615321">
        <ele>249.241634</ele>
        <time>2025-09-05T14:31:08.000Z</time>
      </trkpt>
      <trkpt lat="37.079275" lon="-79.615334">
        <ele>249.240497</ele>
        <time>2025-09-05T14:31:08.000Z</time>
      </trkpt>
      <trkpt lat="37.079247" lon="-79.615391">
        <ele>249.211021</ele>
        <time>2025-09-05T14:31:09.000Z</time>
      </trkpt>
      <trkpt lat="37.079184" lon="-79.615496">
        <ele>249.160614</ele>
        <time>2025-09-05T14:31:10.000Z</time>
      </trkpt>
      <trkpt lat="37.079088" lon="-79.615565">
        <ele>249.110073</ele>
        <time>2025-09-05T14:31:11.000Z</time>
      </trkpt>
      <trkpt lat="37.079025" lon="-79.615597">
        <ele>249.078307</ele>
        <time>2025-09-05T14:31:12.000Z</time>
      </trkpt>
      <trkpt lat="37.078917" lon="-79.615571">
        <ele>249.021553</ele>
        <time>2025-09-05T14:31:13.000Z</time>
      </trkpt>
      <trkpt lat="37.078819" lon="-79.615475">
        <ele>248.958942</ele>
        <time>2025-09-05T14:31:14.000Z</time>
      </trkpt>
      <trkpt lat="37.07876" lon="-79.615304">
        <ele>248.893042</ele>
        <time>2025-09-05T14:31:16.000Z</time>
      </trkpt>
      <trkpt lat="37.07876" lon="-79.615285">
        <ele>248.881296</ele>
        <time>2025-09-05T14:31:16.000Z</time>
      </trkpt>
      <trkpt lat="37.078751" lon="-79.615261">
        <ele>248.875611</ele>
        <time>2025-09-05T14:31:16.000Z</time>
      </trkpt>
      <trkpt lat="37.078755" lon="-79.615266">
        <ele>248.873327</ele>
        <time>2025-09-05T14:31:16.000Z</time>
      </trkpt>
      <trkpt lat="37.078755" lon="-79.615264">
        <ele>248.871431</ele>
        <time>2025-09-05T14:31:16.000Z</time>
      </trkpt>
      <trkpt lat="37.078748" lon="-79.615256">
        <ele>248.869547</ele>
        <time>2025-09-05T14:31:16.000Z</time>
      </trkpt>
      <trkpt lat="37.078745" lon="-79.61524">
        <ele>248.868772</ele>
        <time>2025-09-05T14:31:16.000Z</time>
      </trkpt>
      <trkpt lat="37.07875" lon="-79.615242">
        <ele>248.866132</ele>
        <time>2025-09-05T14:31:16.000Z</time>
      </trkpt>
      <trkpt lat="37.07876" lon="-79.615236">
        <ele>248.864599</ele>
        <time>2025-09-05T14:31:16.000Z</time>
      </trkpt>
      <trkpt lat="37.078754" lon="-79.61502">
        <ele>248.782701</ele>
        <time>2025-09-05T14:31:18.000Z</time>
      </trkpt>
      <trkpt lat="37.078828" lon="-79.614174">
        <ele>248.407628</ele>
        <time>2025-09-05T14:31:26.000Z</time>
      </trkpt>
      <trkpt lat="37.078824" lon="-79.613715">
        <ele>248.084471</ele>
        <time>2025-09-05T14:31:30.000Z</time>
      </trkpt>
      <trkpt lat="37.078686" lon="-79.613373">
        <ele>247.812487</ele>
        <time>2025-09-05T14:31:33.000Z</time>
      </trkpt>
      <trkpt lat="37.078587" lon="-79.61304">
        <ele>247.557961</ele>
        <time>2025-09-05T14:31:36.000Z</time>
      </trkpt>
      <trkpt lat="37.078477" lon="-79.61262">
        <ele>247.25925</ele>
        <time>2025-09-05T14:31:40.000Z</time>
      </trkpt>
      <trkpt lat="37.078482" lon="-79.612435">
        <ele>247.122759</ele>
        <time>2025-09-05T14:31:42.000Z</time>
      </trkpt>
      <trkpt lat="37.078534" lon="-79.612257">
        <ele>246.986943</ele>
        <time>2025-09-05T14:31:44.000Z</time>
      </trkpt>
      <trkpt lat="37.078582" lon="-79.612144">
        <ele>246.912166</ele>
        <time>2025-09-05T14:31:45.000Z</time>
      </trkpt>
      <trkpt lat="37.078656" lon="-79.612054">
        <ele>246.881951</ele>
        <time>2025-09-05T14:31:46.000Z</time>
      </trkpt>
      <trkpt lat="37.078783" lon="-79.611994">
        <ele>246.844119</ele>
        <time>2025-09-05T14:31:48.000Z</time>
      </trkpt>
      <trkpt lat="37.079173" lon="-79.611849">
        <ele>246.726091</ele>
        <time>2025-09-05T14:31:53.000Z</time>
      </trkpt>
      <trkpt lat="37.079365" lon="-79.611692">
        <ele>246.65947</ele>
        <time>2025-09-05T14:31:56.000Z</time>
      </trkpt>
      <trkpt lat="37.07945" lon="-79.611524">
        <ele>246.613497</ele>
        <time>2025-09-05T14:31:58.000Z</time>
      </trkpt>
      <trkpt lat="37.079543" lon="-79.611202">
        <ele>246.531746</ele>
        <time>2025-09-05T14:32:01.000Z</time>
      </trkpt>
      <trkpt lat="37.079645" lon="-79.610889">
        <ele>246.45551</ele>
        <time>2025-09-05T14:32:04.000Z</time>
      </trkpt>
      <trkpt lat="37.079738" lon="-79.610768">
        <ele>246.416448</ele>
        <time>2025-09-05T14:32:05.000Z</time>
      </trkpt>
      <trkpt lat="37.079982" lon="-79.61051">
        <ele>247.19218</ele>
        <time>2025-09-05T14:32:09.000Z</time>
      </trkpt>
      <trkpt lat="37.080026" lon="-79.61044">
        <ele>247.393283</ele>
        <time>2025-09-05T14:32:10.000Z</time>
      </trkpt>
      <trkpt lat="37.080062" lon="-79.610281">
        <ele>247.796332</ele>
        <time>2025-09-05T14:32:11.000Z</time>
      </trkpt>
      <trkpt lat="37.080021" lon="-79.60984">
        <ele>248.85847</ele>
        <time>2025-09-05T14:32:15.000Z</time>
      </trkpt>
      <trkpt lat="37.080025" lon="-79.609655">
        <ele>249.298027</ele>
        <time>2025-09-05T14:32:17.000Z</time>
      </trkpt>
      <trkpt lat="37.0801" lon="-79.60944">
        <ele>249.845561</ele>
        <time>2025-09-05T14:32:19.000Z</time>
      </trkpt>
      <trkpt lat="37.080153" lon="-79.609339">
        <ele>250.123455</ele>
        <time>2025-09-05T14:32:20.000Z</time>
      </trkpt>
      <trkpt lat="37.080349" lon="-79.609069">
        <ele>251.02683</ele>
        <time>2025-09-05T14:32:23.000Z</time>
      </trkpt>
      <trkpt lat="37.08094" lon="-79.608525">
        <ele>253.600638</ele>
        <time>2025-09-05T14:32:31.000Z</time>
      </trkpt>
      <trkpt lat="37.081308" lon="-79.608212">
        <ele>255.317712</ele>
        <time>2025-09-05T14:32:36.000Z</time>
      </trkpt>
      <trkpt lat="37.081584" lon="-79.608023">
        <ele>256.511705</ele>
        <time>2025-09-05T14:32:39.000Z</time>
      </trkpt>
      <trkpt lat="37.08215" lon="-79.607794">
        <ele>258.736858</ele>
        <time>2025-09-05T14:32:46.000Z</time>
      </trkpt>
      <trkpt lat="37.082442" lon="-79.607645">
        <ele>258.670311</ele>
        <time>2025-09-05T14:32:50.000Z</time>
      </trkpt>
      <trkpt lat="37.082604" lon="-79.607472">
        <ele>258.62764</ele>
        <time>2025-09-05T14:32:52.000Z</time>
      </trkpt>
      <trkpt lat="37.082818" lon="-79.60715">
        <ele>258.560658</ele>
        <time>2025-09-05T14:32:56.000Z</time>
      </trkpt>
      <trkpt lat="37.082883" lon="-79.606949">
        <ele>258.526429</ele>
        <time>2025-09-05T14:32:58.000Z</time>
      </trkpt>
      <trkpt lat="37.082969" lon="-79.606615">
        <ele>258.469415</ele>
        <time>2025-09-05T14:33:01.000Z</time>
      </trkpt>
      <trkpt lat="37.083118" lon="-79.604695">
        <ele>259.140276</ele>
        <time>2025-09-05T14:33:18.000Z</time>
      </trkpt>
      <trkpt lat="37.083192" lon="-79.604419">
        <ele>259.307112</ele>
        <time>2025-09-05T14:33:21.000Z</time>
      </trkpt>
      <trkpt lat="37.083371" lon="-79.604118">
        <ele>259.524809</ele>
        <time>2025-09-05T14:33:24.000Z</time>
      </trkpt>
      <trkpt lat="37.083613" lon="-79.60383">
        <ele>259.628368</ele>
        <time>2025-09-05T14:33:28.000Z</time>
      </trkpt>
      <trkpt lat="37.083912" lon="-79.603636">
        <ele>259.556875</ele>
        <time>2025-09-05T14:33:32.000Z</time>
      </trkpt>
      <trkpt lat="37.085192" lon="-79.603166">
        <ele>259.29002</ele>
        <time>2025-09-05T14:33:47.000Z</time>
      </trkpt>
      <trkpt lat="37.085433" lon="-79.60297">
        <ele>259.488731</ele>
        <time>2025-09-05T14:33:50.000Z</time>
      </trkpt>
      <trkpt lat="37.085666" lon="-79.602707">
        <ele>259.69278</ele>
        <time>2025-09-05T14:33:53.000Z</time>
      </trkpt>
      <trkpt lat="37.085836" lon="-79.602443">
        <ele>259.869604</ele>
        <time>2025-09-05T14:33:56.000Z</time>
      </trkpt>
      <trkpt lat="37.086003" lon="-79.602022">
        <ele>260.130248</ele>
        <time>2025-09-05T14:34:00.000Z</time>
      </trkpt>
      <trkpt lat="37.086753" lon="-79.599708">
        <ele>263.14572</ele>
        <time>2025-09-05T14:34:22.000Z</time>
      </trkpt>
      <trkpt lat="37.086912" lon="-79.59937">
        <ele>263.708363</ele>
        <time>2025-09-05T14:34:25.000Z</time>
      </trkpt>
      <trkpt lat="37.086969" lon="-79.599265">
        <ele>263.970631</ele>
        <time>2025-09-05T14:34:26.000Z</time>
      </trkpt>
      <trkpt lat="37.087289" lon="-79.598929">
        <ele>265.027937</ele>
        <time>2025-09-05T14:34:31.000Z</time>
      </trkpt>
      <trkpt lat="37.087778" lon="-79.5986">
        <ele>266.407299</ele>
        <time>2025-09-05T14:34:37.000Z</time>
      </trkpt>
      <trkpt lat="37.088264" lon="-79.598221">
        <ele>267.906287</ele>
        <time>2025-09-05T14:34:43.000Z</time>
      </trkpt>
      <trkpt lat="37.088587" lon="-79.597879">
        <ele>269.30107</ele>
        <time>2025-09-05T14:34:48.000Z</time>
      </trkpt>
      <trkpt lat="37.089125" lon="-79.597135">
        <ele>272.442209</ele>
        <time>2025-09-05T14:34:57.000Z</time>
      </trkpt>
      <trkpt lat="37.089567" lon="-79.596377">
        <ele>275.353741</ele>
        <time>2025-09-05T14:35:05.000Z</time>
      </trkpt>
      <trkpt lat="37.089739" lon="-79.596074">
        <ele>275.777584</ele>
        <time>2025-09-05T14:35:08.000Z</time>
      </trkpt>
      <trkpt lat="37.08982" lon="-79.595921">
        <ele>275.964851</ele>
        <time>2025-09-05T14:35:10.000Z</time>
      </trkpt>
      <trkpt lat="37.090171" lon="-79.595303">
        <ele>276.802504</ele>
        <time>2025-09-05T14:35:17.000Z</time>
      </trkpt>
      <trkpt lat="37.091102" lon="-79.593642">
        <ele>277.322373</ele>
        <time>2025-09-05T14:35:35.000Z</time>
      </trkpt>
      <trkpt lat="37.091422" lon="-79.593145">
        <ele>277.02359</ele>
        <time>2025-09-05T14:35:41.000Z</time>
      </trkpt>
      <trkpt lat="37.091514" lon="-79.593444">
        <ele>276.873731</ele>
        <time>2025-09-05T14:35:44.000Z</time>
      </trkpt>
      <trkpt lat="37.092185" lon="-79.595274">
        <ele>273.846685</ele>
        <time>2025-09-05T14:36:02.000Z</time>
      </trkpt>
      <trkpt lat="37.093354" lon="-79.598674">
        <ele>266.491531</ele>
        <time>2025-09-05T14:36:35.000Z</time>
      </trkpt>
      <trkpt lat="37.093991" lon="-79.60038">
        <ele>261.62242</ele>
        <time>2025-09-05T14:36:52.000Z</time>
      </trkpt>
      <trkpt lat="37.094087" lon="-79.600678">
        <ele>260.926027</ele>
        <time>2025-09-05T14:36:55.000Z</time>
      </trkpt>
      <trkpt lat="37.094383" lon="-79.601498">
        <ele>258.930258</ele>
        <time>2025-09-05T14:37:03.000Z</time>
      </trkpt>
      <trkpt lat="37.094628" lon="-79.601893">
        <ele>257.900757</ele>
        <time>2025-09-05T14:37:07.000Z</time>
      </trkpt>
      <trkpt lat="37.09494" lon="-79.602206">
        <ele>257.262066</ele>
        <time>2025-09-05T14:37:11.000Z</time>
      </trkpt>
      <trkpt lat="37.095878" lon="-79.602946">
        <ele>255.50483</ele>
        <time>2025-09-05T14:37:23.000Z</time>
      </trkpt>
      <trkpt lat="37.09607" lon="-79.603123">
        <ele>255.11154</ele>
        <time>2025-09-05T14:37:26.000Z</time>
      </trkpt>
      <trkpt lat="37.096971" lon="-79.604252">
        <ele>252.722563</ele>
        <time>2025-09-05T14:37:40.000Z</time>
      </trkpt>
      <trkpt lat="37.097071" lon="-79.604433">
        <ele>252.380601</ele>
        <time>2025-09-05T14:37:42.000Z</time>
      </trkpt>
      <trkpt lat="37.097237" lon="-79.604783">
        <ele>251.79338</ele>
        <time>2025-09-05T14:37:46.000Z</time>
      </trkpt>
      <trkpt lat="37.097304" lon="-79.605118">
        <ele>251.707678</ele>
        <time>2025-09-05T14:37:49.000Z</time>
      </trkpt>
      <trkpt lat="37.097349" lon="-79.605477">
        <ele>251.648413</ele>
        <time>2025-09-05T14:37:52.000Z</time>
      </trkpt>
      <trkpt lat="37.097217" lon="-79.607926">
        <ele>252.193281</ele>
        <time>2025-09-05T14:38:14.000Z</time>
      </trkpt>
      <trkpt lat="37.097111" lon="-79.608388">
        <ele>252.62477</ele>
        <time>2025-09-05T14:38:18.000Z</time>
      </trkpt>
      <trkpt lat="37.097021" lon="-79.608617">
        <ele>252.848802</ele>
        <time>2025-09-05T14:38:20.000Z</time>
      </trkpt>
      <trkpt lat="37.096859" lon="-79.60886">
        <ele>253.123168</ele>
        <time>2025-09-05T14:38:23.000Z</time>
      </trkpt>
      <trkpt lat="37.096712" lon="-79.609018">
        <ele>253.34671</ele>
        <time>2025-09-05T14:38:25.000Z</time>
      </trkpt>
      <trkpt lat="37.096664" lon="-79.60903">
        <ele>253.390603</ele>
        <time>2025-09-05T14:38:26.000Z</time>
      </trkpt>
      <trkpt lat="37.096408" lon="-79.609224">
        <ele>253.574724</ele>
        <time>2025-09-05T14:38:29.000Z</time>
      </trkpt>
      <trkpt lat="37.096154" lon="-79.609397">
        <ele>253.757736</ele>
        <time>2025-09-05T14:38:32.000Z</time>
      </trkpt>
      <trkpt lat="37.095998" lon="-79.609489">
        <ele>253.852371</ele>
        <time>2025-09-05T14:38:34.000Z</time>
      </trkpt>
      <trkpt lat="37.095779" lon="-79.609868">
        <ele>254.072829</ele>
        <time>2025-09-05T14:38:38.000Z</time>
      </trkpt>
      <trkpt lat="37.095741" lon="-79.609931">
        <ele>254.113284</ele>
        <time>2025-09-05T14:38:39.000Z</time>
      </trkpt>
      <trkpt lat="37.095675" lon="-79.609948">
        <ele>254.151189</ele>
        <time>2025-09-05T14:38:40.000Z</time>
      </trkpt>
      <trkpt lat="37.095631" lon="-79.610047">
        <ele>254.213319</ele>
        <time>2025-09-05T14:38:41.000Z</time>
      </trkpt>
      <trkpt lat="37.095594" lon="-79.610097">
        <ele>254.244432</ele>
        <time>2025-09-05T14:38:42.000Z</time>
      </trkpt>
      <trkpt lat="37.095094" lon="-79.610377">
        <ele>254.490818247</ele>
        <time>2025-09-05T14:38:48.000Z</time>
      </trkpt>
      <trkpt lat="37.095074" lon="-79.610375">
        <ele>254.499845388</ele>
        <time>2025-09-05T14:38:48.000Z</time>
      </trkpt>
      <trkpt lat="37.095069" lon="-79.610385">
        <ele>254.504080984</ele>
        <time>2025-09-05T14:38:48.000Z</time>
      </trkpt>
      <trkpt lat="37.095074" lon="-79.610387">
        <ele>254.506442352</ele>
        <time>2025-09-05T14:38:48.000Z</time>
      </trkpt>
      <trkpt lat="37.09506" lon="-79.610379">
        <ele>254.513364788</ele>
        <time>2025-09-05T14:38:48.000Z</time>
      </trkpt>
      <trkpt lat="37.095069" lon="-79.610376">
        <ele>254.517554824</ele>
        <time>2025-09-05T14:38:48.000Z</time>
      </trkpt>
      <trkpt lat="37.095066" lon="-79.610373">
        <ele>254.519281399</ele>
        <time>2025-09-05T14:38:48.000Z</time>
      </trkpt>
      <trkpt lat="37.095053" lon="-79.610389">
        <ele>254.527477911</ele>
        <time>2025-09-05T14:38:48.000Z</time>
      </trkpt>
      <trkpt lat="37.09503" lon="-79.610377">
        <ele>254.538686595</ele>
        <time>2025-09-05T14:38:48.000Z</time>
      </trkpt>
      <trkpt lat="37.095005" lon="-79.610367">
        <ele>254.550493434</ele>
        <time>2025-09-05T14:38:48.000Z</time>
      </trkpt>
      <trkpt lat="37.09497" lon="-79.610345">
        <ele>254.568109323</ele>
        <time>2025-09-05T14:38:48.000Z</time>
      </trkpt>
      <trkpt lat="37.09492" lon="-79.610181">
        <ele>254.631118381</ele>
        <time>2025-09-05T14:38:50.000Z</time>
      </trkpt>
      <trkpt lat="37.095423" lon="-79.609879">
        <ele>254.882045521</ele>
        <time>2025-09-05T14:38:56.000Z</time>
      </trkpt>
      <trkpt lat="37.09541" lon="-79.609881">
        <ele>254.88793846</ele>
        <time>2025-09-05T14:38:56.000Z</time>
      </trkpt>
      <trkpt lat="37.095416" lon="-79.60988">
        <ele>254.890661778</ele>
        <time>2025-09-05T14:38:56.000Z</time>
      </trkpt>
    </trkseg>
  </trk>
</gpx>

<!--
Performance optimized by W3 Total Cache. Learn more: https://www.boldgrid.com/w3-total-cache/?utm_source=w3tc&utm_medium=footer_comment&utm_campaign=free_plugin

Page Caching using Disk: Enhanced{w3tc_pagecache_reject_reason} 

Served from: www.aquabike.world @ 2026-05-10 10:44:18 by W3 Total Cache
-->